<?xml version="1.0" encoding="UTF-8"?>
<gpx version="1.1" creator="https://www.youtrack.es" xsi:schemaLocation="http://www.topografix.com/GPX/1/1 http://www.topografix.com/GPX/1/1/gpx.xsd http://www.garmin.com/xmlschemas/GpxExtensions/v3 http://www.garmin.com/xmlschemas/GpxExtensionsv3.xsd http://www.garmin.com/xmlschemas/TrackPointExtension/v1 http://www.garmin.com/xmlschemas/TrackPointExtensionv1.xsd" xmlns:gpxtpx="http://www.garmin.com/xmlschemas/TrackPointExtension/v1" xmlns:gpxx="http://www.garmin.com/xmlschemas/GpxExtensions/v3" xmlns:xsi="http://www.w3.org/2001/XMLSchema-instance">
  <metadata>
    <link href="https://www.youtrack.es">
      <text>YouTrack.es</text>
    </link>
    <time>2026-05-08T22:05:28Z</time>
  </metadata>
  <trk>
    <src>https://www.youtrack.es</src>
    <link href="https://www.youtrack.es/ruta/28683-murgia-ukiola">
      <text>YouTrack.es</text>
    </link>
    <trkseg>
      <trkpt lat="42.9565960" lon="-2.8199300">
        <ele>632.263000</ele>
        <time>2020-07-17T06:33:09.000Z</time>
      </trkpt>
      <trkpt lat="42.9565810" lon="-2.8199000">
        <ele>632.243958</ele>
        <time>2020-07-17T06:33:10.000Z</time>
      </trkpt>
      <trkpt lat="42.9565660" lon="-2.8198710">
        <ele>632.218018</ele>
        <time>2020-07-17T06:33:11.000Z</time>
      </trkpt>
      <trkpt lat="42.9565430" lon="-2.8197670">
        <ele>632.407959</ele>
        <time>2020-07-17T06:33:14.000Z</time>
      </trkpt>
      <trkpt lat="42.9565770" lon="-2.8197130">
        <ele>632.450989</ele>
        <time>2020-07-17T06:33:16.000Z</time>
      </trkpt>
      <trkpt lat="42.9566230" lon="-2.8197230">
        <ele>632.279053</ele>
        <time>2020-07-17T06:33:20.000Z</time>
      </trkpt>
      <trkpt lat="42.9566900" lon="-2.8197520">
        <ele>632.266968</ele>
        <time>2020-07-17T06:33:23.000Z</time>
      </trkpt>
      <trkpt lat="42.9567670" lon="-2.8197920">
        <ele>632.286987</ele>
        <time>2020-07-17T06:33:27.000Z</time>
      </trkpt>
      <trkpt lat="42.9568980" lon="-2.8198270">
        <ele>632.234985</ele>
        <time>2020-07-17T06:33:35.000Z</time>
      </trkpt>
      <trkpt lat="42.9570170" lon="-2.8198650">
        <ele>632.229004</ele>
        <time>2020-07-17T06:33:43.000Z</time>
      </trkpt>
      <trkpt lat="42.9570150" lon="-2.8198710">
        <ele>632.241028</ele>
        <time>2020-07-17T06:33:45.000Z</time>
      </trkpt>
      <trkpt lat="42.9570950" lon="-2.8199170">
        <ele>632.243958</ele>
        <time>2020-07-17T06:34:00.000Z</time>
      </trkpt>
      <trkpt lat="42.9571310" lon="-2.8199390">
        <ele>632.281982</ele>
        <time>2020-07-17T06:34:02.000Z</time>
      </trkpt>
      <trkpt lat="42.9572160" lon="-2.8199600">
        <ele>632.242981</ele>
        <time>2020-07-17T06:34:08.000Z</time>
      </trkpt>
      <trkpt lat="42.9572270" lon="-2.8199470">
        <ele>632.216980</ele>
        <time>2020-07-17T06:34:09.000Z</time>
      </trkpt>
      <trkpt lat="42.9572780" lon="-2.8198650">
        <ele>632.407959</ele>
        <time>2020-07-17T06:34:13.000Z</time>
      </trkpt>
      <trkpt lat="42.9574000" lon="-2.8197510">
        <ele>632.273010</ele>
        <time>2020-07-17T06:34:19.000Z</time>
      </trkpt>
      <trkpt lat="42.9574760" lon="-2.8196930">
        <ele>632.270996</ele>
        <time>2020-07-17T06:34:22.000Z</time>
      </trkpt>
      <trkpt lat="42.9575290" lon="-2.8196930">
        <ele>632.479004</ele>
        <time>2020-07-17T06:34:24.000Z</time>
      </trkpt>
      <trkpt lat="42.9577430" lon="-2.8198080">
        <ele>632.699036</ele>
        <time>2020-07-17T06:34:32.000Z</time>
      </trkpt>
      <trkpt lat="42.9579650" lon="-2.8199770">
        <ele>632.877014</ele>
        <time>2020-07-17T06:34:42.000Z</time>
      </trkpt>
      <trkpt lat="42.9581340" lon="-2.8201280">
        <ele>632.841003</ele>
        <time>2020-07-17T06:34:49.000Z</time>
      </trkpt>
      <trkpt lat="42.9583110" lon="-2.8202630">
        <ele>633.043030</ele>
        <time>2020-07-17T06:34:57.000Z</time>
      </trkpt>
      <trkpt lat="42.9584920" lon="-2.8204080">
        <ele>633.466003</ele>
        <time>2020-07-17T06:35:05.000Z</time>
      </trkpt>
      <trkpt lat="42.9585370" lon="-2.8204420">
        <ele>633.434021</ele>
        <time>2020-07-17T06:35:07.000Z</time>
      </trkpt>
      <trkpt lat="42.9586620" lon="-2.8205050">
        <ele>633.455017</ele>
        <time>2020-07-17T06:35:13.000Z</time>
      </trkpt>
      <trkpt lat="42.9588420" lon="-2.8205780">
        <ele>633.409973</ele>
        <time>2020-07-17T06:35:20.000Z</time>
      </trkpt>
      <trkpt lat="42.9591100" lon="-2.8206490">
        <ele>633.807983</ele>
        <time>2020-07-17T06:35:30.000Z</time>
      </trkpt>
      <trkpt lat="42.9593120" lon="-2.8206010">
        <ele>634.047974</ele>
        <time>2020-07-17T06:35:38.000Z</time>
      </trkpt>
      <trkpt lat="42.9595200" lon="-2.8205750">
        <ele>634.645996</ele>
        <time>2020-07-17T06:35:46.000Z</time>
      </trkpt>
      <trkpt lat="42.9596770" lon="-2.8205910">
        <ele>634.843994</ele>
        <time>2020-07-17T06:35:52.000Z</time>
      </trkpt>
      <trkpt lat="42.9597550" lon="-2.8205720">
        <ele>635.224060</ele>
        <time>2020-07-17T06:35:55.000Z</time>
      </trkpt>
      <trkpt lat="42.9598700" lon="-2.8205440">
        <ele>635.492004</ele>
        <time>2020-07-17T06:36:00.000Z</time>
      </trkpt>
      <trkpt lat="42.9601330" lon="-2.8204560">
        <ele>635.875977</ele>
        <time>2020-07-17T06:36:11.000Z</time>
      </trkpt>
      <trkpt lat="42.9601600" lon="-2.8204510">
        <ele>635.687988</ele>
        <time>2020-07-17T06:36:12.000Z</time>
      </trkpt>
      <trkpt lat="42.9602390" lon="-2.8204200">
        <ele>636.051025</ele>
        <time>2020-07-17T06:36:15.000Z</time>
      </trkpt>
      <trkpt lat="42.9602950" lon="-2.8203550">
        <ele>636.297974</ele>
        <time>2020-07-17T06:36:18.000Z</time>
      </trkpt>
      <trkpt lat="42.9603500" lon="-2.8203140">
        <ele>636.215027</ele>
        <time>2020-07-17T06:36:21.000Z</time>
      </trkpt>
      <trkpt lat="42.9603950" lon="-2.8203140">
        <ele>636.425964</ele>
        <time>2020-07-17T06:36:23.000Z</time>
      </trkpt>
      <trkpt lat="42.9604390" lon="-2.8203210">
        <ele>636.607971</ele>
        <time>2020-07-17T06:36:25.000Z</time>
      </trkpt>
      <trkpt lat="42.9605100" lon="-2.8203470">
        <ele>637.244019</ele>
        <time>2020-07-17T06:36:28.000Z</time>
      </trkpt>
      <trkpt lat="42.9605830" lon="-2.8203400">
        <ele>638.041992</ele>
        <time>2020-07-17T06:36:31.000Z</time>
      </trkpt>
      <trkpt lat="42.9606060" lon="-2.8203340">
        <ele>638.209961</ele>
        <time>2020-07-17T06:36:32.000Z</time>
      </trkpt>
      <trkpt lat="42.9607230" lon="-2.8203200">
        <ele>638.820007</ele>
        <time>2020-07-17T06:36:38.000Z</time>
      </trkpt>
      <trkpt lat="42.9608050" lon="-2.8203360">
        <ele>639.858032</ele>
        <time>2020-07-17T06:36:42.000Z</time>
      </trkpt>
      <trkpt lat="42.9608980" lon="-2.8203160">
        <ele>639.861938</ele>
        <time>2020-07-17T06:36:45.000Z</time>
      </trkpt>
      <trkpt lat="42.9610290" lon="-2.8202390">
        <ele>639.863953</ele>
        <time>2020-07-17T06:36:51.000Z</time>
      </trkpt>
      <trkpt lat="42.9612470" lon="-2.8202200">
        <ele>639.657043</ele>
        <time>2020-07-17T06:37:00.000Z</time>
      </trkpt>
      <trkpt lat="42.9613350" lon="-2.8201340">
        <ele>639.630981</ele>
        <time>2020-07-17T06:37:05.000Z</time>
      </trkpt>
      <trkpt lat="42.9613520" lon="-2.8201080">
        <ele>639.660950</ele>
        <time>2020-07-17T06:37:06.000Z</time>
      </trkpt>
      <trkpt lat="42.9613370" lon="-2.8199500">
        <ele>639.606995</ele>
        <time>2020-07-17T06:37:11.000Z</time>
      </trkpt>
      <trkpt lat="42.9612830" lon="-2.8197020">
        <ele>640.607971</ele>
        <time>2020-07-17T06:37:20.000Z</time>
      </trkpt>
      <trkpt lat="42.9613000" lon="-2.8196780">
        <ele>640.867981</ele>
        <time>2020-07-17T06:37:21.000Z</time>
      </trkpt>
      <trkpt lat="42.9613320" lon="-2.8196070">
        <ele>641.866028</ele>
        <time>2020-07-17T06:37:24.000Z</time>
      </trkpt>
      <trkpt lat="42.9613860" lon="-2.8194620">
        <ele>642.643982</ele>
        <time>2020-07-17T06:37:29.000Z</time>
      </trkpt>
      <trkpt lat="42.9614310" lon="-2.8193540">
        <ele>642.874023</ele>
        <time>2020-07-17T06:37:35.000Z</time>
      </trkpt>
      <trkpt lat="42.9615500" lon="-2.8193000">
        <ele>642.651978</ele>
        <time>2020-07-17T06:37:42.000Z</time>
      </trkpt>
      <trkpt lat="42.9615640" lon="-2.8192830">
        <ele>642.625977</ele>
        <time>2020-07-17T06:37:43.000Z</time>
      </trkpt>
      <trkpt lat="42.9615820" lon="-2.8192060">
        <ele>642.048035</ele>
        <time>2020-07-17T06:37:46.000Z</time>
      </trkpt>
      <trkpt lat="42.9616260" lon="-2.8190270">
        <ele>640.851013</ele>
        <time>2020-07-17T06:37:53.000Z</time>
      </trkpt>
      <trkpt lat="42.9616280" lon="-2.8190070">
        <ele>640.817993</ele>
        <time>2020-07-17T06:37:54.000Z</time>
      </trkpt>
      <trkpt lat="42.9616530" lon="-2.8188790">
        <ele>640.898010</ele>
        <time>2020-07-17T06:38:02.000Z</time>
      </trkpt>
      <trkpt lat="42.9617530" lon="-2.8188930">
        <ele>640.817017</ele>
        <time>2020-07-17T06:38:08.000Z</time>
      </trkpt>
      <trkpt lat="42.9619660" lon="-2.8190350">
        <ele>640.807983</ele>
        <time>2020-07-17T06:38:19.000Z</time>
      </trkpt>
      <trkpt lat="42.9621400" lon="-2.8192010">
        <ele>640.455994</ele>
        <time>2020-07-17T06:38:29.000Z</time>
      </trkpt>
      <trkpt lat="42.9622990" lon="-2.8193740">
        <ele>640.283997</ele>
        <time>2020-07-17T06:38:38.000Z</time>
      </trkpt>
      <trkpt lat="42.9623880" lon="-2.8194450">
        <ele>640.082031</ele>
        <time>2020-07-17T06:38:43.000Z</time>
      </trkpt>
      <trkpt lat="42.9624200" lon="-2.8194670">
        <ele>640.251953</ele>
        <time>2020-07-17T06:38:45.000Z</time>
      </trkpt>
      <trkpt lat="42.9625900" lon="-2.8195800">
        <ele>640.219971</ele>
        <time>2020-07-17T06:38:55.000Z</time>
      </trkpt>
      <trkpt lat="42.9627380" lon="-2.8196650">
        <ele>640.264038</ele>
        <time>2020-07-17T06:39:02.000Z</time>
      </trkpt>
      <trkpt lat="42.9627550" lon="-2.8196760">
        <ele>640.296021</ele>
        <time>2020-07-17T06:39:03.000Z</time>
      </trkpt>
      <trkpt lat="42.9629870" lon="-2.8197960">
        <ele>640.449036</ele>
        <time>2020-07-17T06:39:14.000Z</time>
      </trkpt>
      <trkpt lat="42.9631610" lon="-2.8198770">
        <ele>640.640991</ele>
        <time>2020-07-17T06:39:21.000Z</time>
      </trkpt>
      <trkpt lat="42.9633620" lon="-2.8199250">
        <ele>641.080994</ele>
        <time>2020-07-17T06:39:30.000Z</time>
      </trkpt>
      <trkpt lat="42.9634970" lon="-2.8199520">
        <ele>641.208984</ele>
        <time>2020-07-17T06:39:36.000Z</time>
      </trkpt>
      <trkpt lat="42.9636150" lon="-2.8199690">
        <ele>641.408020</ele>
        <time>2020-07-17T06:39:42.000Z</time>
      </trkpt>
      <trkpt lat="42.9637860" lon="-2.8199750">
        <ele>641.869019</ele>
        <time>2020-07-17T06:39:51.000Z</time>
      </trkpt>
      <trkpt lat="42.9640150" lon="-2.8199670">
        <ele>642.217041</ele>
        <time>2020-07-17T06:40:02.000Z</time>
      </trkpt>
      <trkpt lat="42.9642090" lon="-2.8199110">
        <ele>642.424988</ele>
        <time>2020-07-17T06:40:11.000Z</time>
      </trkpt>
      <trkpt lat="42.9642580" lon="-2.8198950">
        <ele>642.495056</ele>
        <time>2020-07-17T06:40:13.000Z</time>
      </trkpt>
      <trkpt lat="42.9642800" lon="-2.8198870">
        <ele>642.623047</ele>
        <time>2020-07-17T06:40:14.000Z</time>
      </trkpt>
      <trkpt lat="42.9644710" lon="-2.8198730">
        <ele>642.867004</ele>
        <time>2020-07-17T06:40:23.000Z</time>
      </trkpt>
      <trkpt lat="42.9646040" lon="-2.8199500">
        <ele>643.079041</ele>
        <time>2020-07-17T06:40:31.000Z</time>
      </trkpt>
      <trkpt lat="42.9648060" lon="-2.8200830">
        <ele>643.472046</ele>
        <time>2020-07-17T06:40:42.000Z</time>
      </trkpt>
      <trkpt lat="42.9648530" lon="-2.8201250">
        <ele>643.442993</ele>
        <time>2020-07-17T06:40:45.000Z</time>
      </trkpt>
      <trkpt lat="42.9650440" lon="-2.8202810">
        <ele>643.864014</ele>
        <time>2020-07-17T06:40:56.000Z</time>
      </trkpt>
      <trkpt lat="42.9652670" lon="-2.8203570">
        <ele>644.010010</ele>
        <time>2020-07-17T06:41:08.000Z</time>
      </trkpt>
      <trkpt lat="42.9654070" lon="-2.8203290">
        <ele>644.207947</ele>
        <time>2020-07-17T06:41:16.000Z</time>
      </trkpt>
      <trkpt lat="42.9654200" lon="-2.8203290">
        <ele>644.279053</ele>
        <time>2020-07-17T06:41:20.000Z</time>
      </trkpt>
      <trkpt lat="42.9653760" lon="-2.8202520">
        <ele>644.286987</ele>
        <time>2020-07-17T06:41:26.000Z</time>
      </trkpt>
      <trkpt lat="42.9652640" lon="-2.8199960">
        <ele>644.245056</ele>
        <time>2020-07-17T06:41:36.000Z</time>
      </trkpt>
      <trkpt lat="42.9651980" lon="-2.8197110">
        <ele>644.614990</ele>
        <time>2020-07-17T06:41:44.000Z</time>
      </trkpt>
      <trkpt lat="42.9651750" lon="-2.8196080">
        <ele>644.813049</ele>
        <time>2020-07-17T06:41:47.000Z</time>
      </trkpt>
      <trkpt lat="42.9650780" lon="-2.8193140">
        <ele>644.887024</ele>
        <time>2020-07-17T06:41:57.000Z</time>
      </trkpt>
      <trkpt lat="42.9649410" lon="-2.8189310">
        <ele>644.688965</ele>
        <time>2020-07-17T06:42:10.000Z</time>
      </trkpt>
      <trkpt lat="42.9649180" lon="-2.8186320">
        <ele>644.471985</ele>
        <time>2020-07-17T06:42:20.000Z</time>
      </trkpt>
      <trkpt lat="42.9648660" lon="-2.8183270">
        <ele>644.231995</ele>
        <time>2020-07-17T06:42:30.000Z</time>
      </trkpt>
      <trkpt lat="42.9647710" lon="-2.8179520">
        <ele>644.492004</ele>
        <time>2020-07-17T06:42:44.000Z</time>
      </trkpt>
      <trkpt lat="42.9647420" lon="-2.8177730">
        <ele>644.611023</ele>
        <time>2020-07-17T06:42:50.000Z</time>
      </trkpt>
      <trkpt lat="42.9646630" lon="-2.8175370">
        <ele>644.807983</ele>
        <time>2020-07-17T06:42:58.000Z</time>
      </trkpt>
      <trkpt lat="42.9645050" lon="-2.8173680">
        <ele>645.057983</ele>
        <time>2020-07-17T06:43:07.000Z</time>
      </trkpt>
      <trkpt lat="42.9643270" lon="-2.8173560">
        <ele>645.256042</ele>
        <time>2020-07-17T06:43:15.000Z</time>
      </trkpt>
      <trkpt lat="42.9640780" lon="-2.8173650">
        <ele>645.633972</ele>
        <time>2020-07-17T06:43:26.000Z</time>
      </trkpt>
      <trkpt lat="42.9638020" lon="-2.8172750">
        <ele>646.283997</ele>
        <time>2020-07-17T06:43:38.000Z</time>
      </trkpt>
      <trkpt lat="42.9637820" lon="-2.8172630">
        <ele>646.271973</ele>
        <time>2020-07-17T06:43:39.000Z</time>
      </trkpt>
      <trkpt lat="42.9636410" lon="-2.8171490">
        <ele>646.675964</ele>
        <time>2020-07-17T06:43:47.000Z</time>
      </trkpt>
      <trkpt lat="42.9634950" lon="-2.8169410">
        <ele>647.428040</ele>
        <time>2020-07-17T06:43:57.000Z</time>
      </trkpt>
      <trkpt lat="42.9634780" lon="-2.8169020">
        <ele>647.661011</ele>
        <time>2020-07-17T06:43:59.000Z</time>
      </trkpt>
      <trkpt lat="42.9634210" lon="-2.8167070">
        <ele>648.635986</ele>
        <time>2020-07-17T06:44:07.000Z</time>
      </trkpt>
      <trkpt lat="42.9633780" lon="-2.8166000">
        <ele>649.016968</ele>
        <time>2020-07-17T06:44:11.000Z</time>
      </trkpt>
      <trkpt lat="42.9633510" lon="-2.8163930">
        <ele>649.417969</ele>
        <time>2020-07-17T06:44:19.000Z</time>
      </trkpt>
      <trkpt lat="42.9633520" lon="-2.8163420">
        <ele>649.807983</ele>
        <time>2020-07-17T06:44:21.000Z</time>
      </trkpt>
      <trkpt lat="42.9633530" lon="-2.8162230">
        <ele>650.828003</ele>
        <time>2020-07-17T06:44:26.000Z</time>
      </trkpt>
      <trkpt lat="42.9633540" lon="-2.8161360">
        <ele>651.445984</ele>
        <time>2020-07-17T06:44:30.000Z</time>
      </trkpt>
      <trkpt lat="42.9633580" lon="-2.8160620">
        <ele>651.884033</ele>
        <time>2020-07-17T06:44:33.000Z</time>
      </trkpt>
      <trkpt lat="42.9633850" lon="-2.8158440">
        <ele>652.664001</ele>
        <time>2020-07-17T06:44:41.000Z</time>
      </trkpt>
      <trkpt lat="42.9633880" lon="-2.8157110">
        <ele>653.031982</ele>
        <time>2020-07-17T06:44:46.000Z</time>
      </trkpt>
      <trkpt lat="42.9633700" lon="-2.8155860">
        <ele>653.496033</ele>
        <time>2020-07-17T06:44:51.000Z</time>
      </trkpt>
      <trkpt lat="42.9632840" lon="-2.8153010">
        <ele>653.638000</ele>
        <time>2020-07-17T06:45:02.000Z</time>
      </trkpt>
      <trkpt lat="42.9631660" lon="-2.8151810">
        <ele>654.040955</ele>
        <time>2020-07-17T06:45:09.000Z</time>
      </trkpt>
      <trkpt lat="42.9629690" lon="-2.8151110">
        <ele>655.096008</ele>
        <time>2020-07-17T06:45:19.000Z</time>
      </trkpt>
      <trkpt lat="42.9629170" lon="-2.8151000">
        <ele>655.231018</ele>
        <time>2020-07-17T06:45:21.000Z</time>
      </trkpt>
      <trkpt lat="42.9627590" lon="-2.8150400">
        <ele>656.424011</ele>
        <time>2020-07-17T06:45:28.000Z</time>
      </trkpt>
      <trkpt lat="42.9627160" lon="-2.8150130">
        <ele>656.608032</ele>
        <time>2020-07-17T06:45:30.000Z</time>
      </trkpt>
      <trkpt lat="42.9626070" lon="-2.8149080">
        <ele>657.494019</ele>
        <time>2020-07-17T06:45:36.000Z</time>
      </trkpt>
      <trkpt lat="42.9625820" lon="-2.8148660">
        <ele>657.811951</ele>
        <time>2020-07-17T06:45:38.000Z</time>
      </trkpt>
      <trkpt lat="42.9625410" lon="-2.8147720">
        <ele>658.679993</ele>
        <time>2020-07-17T06:45:42.000Z</time>
      </trkpt>
      <trkpt lat="42.9624810" lon="-2.8146360">
        <ele>659.640015</ele>
        <time>2020-07-17T06:45:48.000Z</time>
      </trkpt>
      <trkpt lat="42.9624140" lon="-2.8145160">
        <ele>660.877991</ele>
        <time>2020-07-17T06:45:55.000Z</time>
      </trkpt>
      <trkpt lat="42.9623900" lon="-2.8144810">
        <ele>661.051941</ele>
        <time>2020-07-17T06:45:57.000Z</time>
      </trkpt>
      <trkpt lat="42.9623160" lon="-2.8143850">
        <ele>661.874023</ele>
        <time>2020-07-17T06:46:03.000Z</time>
      </trkpt>
      <trkpt lat="42.9622330" lon="-2.8142710">
        <ele>662.077026</ele>
        <time>2020-07-17T06:46:09.000Z</time>
      </trkpt>
      <trkpt lat="42.9621320" lon="-2.8140960">
        <ele>662.810974</ele>
        <time>2020-07-17T06:46:19.000Z</time>
      </trkpt>
      <trkpt lat="42.9620840" lon="-2.8140090">
        <ele>664.020996</ele>
        <time>2020-07-17T06:46:24.000Z</time>
      </trkpt>
      <trkpt lat="42.9620550" lon="-2.8139300">
        <ele>664.402954</ele>
        <time>2020-07-17T06:46:28.000Z</time>
      </trkpt>
      <trkpt lat="42.9619770" lon="-2.8137560">
        <ele>665.208008</ele>
        <time>2020-07-17T06:46:35.000Z</time>
      </trkpt>
      <trkpt lat="42.9619170" lon="-2.8136380">
        <ele>665.695984</ele>
        <time>2020-07-17T06:46:40.000Z</time>
      </trkpt>
      <trkpt lat="42.9617790" lon="-2.8134690">
        <ele>666.414001</ele>
        <time>2020-07-17T06:46:51.000Z</time>
      </trkpt>
      <trkpt lat="42.9617650" lon="-2.8134580">
        <ele>666.442017</ele>
        <time>2020-07-17T06:46:52.000Z</time>
      </trkpt>
      <trkpt lat="42.9616100" lon="-2.8132940">
        <ele>667.422058</ele>
        <time>2020-07-17T06:47:02.000Z</time>
      </trkpt>
      <trkpt lat="42.9615870" lon="-2.8132530">
        <ele>667.810059</ele>
        <time>2020-07-17T06:47:04.000Z</time>
      </trkpt>
      <trkpt lat="42.9615080" lon="-2.8131430">
        <ele>668.484009</ele>
        <time>2020-07-17T06:47:10.000Z</time>
      </trkpt>
      <trkpt lat="42.9614390" lon="-2.8130730">
        <ele>669.476013</ele>
        <time>2020-07-17T06:47:15.000Z</time>
      </trkpt>
      <trkpt lat="42.9614260" lon="-2.8130610">
        <ele>669.699036</ele>
        <time>2020-07-17T06:47:16.000Z</time>
      </trkpt>
      <trkpt lat="42.9613600" lon="-2.8129810">
        <ele>670.642944</ele>
        <time>2020-07-17T06:47:22.000Z</time>
      </trkpt>
      <trkpt lat="42.9612800" lon="-2.8128810">
        <ele>671.664001</ele>
        <time>2020-07-17T06:47:29.000Z</time>
      </trkpt>
      <trkpt lat="42.9611610" lon="-2.8127420">
        <ele>672.809998</ele>
        <time>2020-07-17T06:47:39.000Z</time>
      </trkpt>
      <trkpt lat="42.9611420" lon="-2.8127110">
        <ele>673.007996</ele>
        <time>2020-07-17T06:47:41.000Z</time>
      </trkpt>
      <trkpt lat="42.9610890" lon="-2.8125760">
        <ele>674.078979</ele>
        <time>2020-07-17T06:47:48.000Z</time>
      </trkpt>
      <trkpt lat="42.9610760" lon="-2.8125050">
        <ele>674.016968</ele>
        <time>2020-07-17T06:47:51.000Z</time>
      </trkpt>
      <trkpt lat="42.9610730" lon="-2.8122740">
        <ele>674.045044</ele>
        <time>2020-07-17T06:47:59.000Z</time>
      </trkpt>
      <trkpt lat="42.9611480" lon="-2.8122060">
        <ele>673.825012</ele>
        <time>2020-07-17T06:48:04.000Z</time>
      </trkpt>
      <trkpt lat="42.9613360" lon="-2.8121480">
        <ele>674.052979</ele>
        <time>2020-07-17T06:48:16.000Z</time>
      </trkpt>
      <trkpt lat="42.9615460" lon="-2.8120830">
        <ele>675.026978</ele>
        <time>2020-07-17T06:48:29.000Z</time>
      </trkpt>
      <trkpt lat="42.9615900" lon="-2.8120660">
        <ele>675.259033</ele>
        <time>2020-07-17T06:48:32.000Z</time>
      </trkpt>
      <trkpt lat="42.9616960" lon="-2.8119920">
        <ele>676.012024</ele>
        <time>2020-07-17T06:48:40.000Z</time>
      </trkpt>
      <trkpt lat="42.9617170" lon="-2.8119620">
        <ele>676.414001</ele>
        <time>2020-07-17T06:48:42.000Z</time>
      </trkpt>
      <trkpt lat="42.9618050" lon="-2.8119090">
        <ele>677.454041</ele>
        <time>2020-07-17T06:48:48.000Z</time>
      </trkpt>
      <trkpt lat="42.9618170" lon="-2.8119040">
        <ele>677.408997</ele>
        <time>2020-07-17T06:48:49.000Z</time>
      </trkpt>
      <trkpt lat="42.9619570" lon="-2.8118860">
        <ele>678.408020</ele>
        <time>2020-07-17T06:48:59.000Z</time>
      </trkpt>
      <trkpt lat="42.9620490" lon="-2.8118900">
        <ele>679.416016</ele>
        <time>2020-07-17T06:49:06.000Z</time>
      </trkpt>
      <trkpt lat="42.9621030" lon="-2.8119000">
        <ele>680.414001</ele>
        <time>2020-07-17T06:49:10.000Z</time>
      </trkpt>
      <trkpt lat="42.9621310" lon="-2.8118980">
        <ele>680.851990</ele>
        <time>2020-07-17T06:49:12.000Z</time>
      </trkpt>
      <trkpt lat="42.9621940" lon="-2.8118650">
        <ele>681.862000</ele>
        <time>2020-07-17T06:49:17.000Z</time>
      </trkpt>
      <trkpt lat="42.9622300" lon="-2.8118560">
        <ele>682.460022</ele>
        <time>2020-07-17T06:49:20.000Z</time>
      </trkpt>
      <trkpt lat="42.9622580" lon="-2.8118580">
        <ele>682.854004</ele>
        <time>2020-07-17T06:49:22.000Z</time>
      </trkpt>
      <trkpt lat="42.9623250" lon="-2.8118800">
        <ele>684.045959</ele>
        <time>2020-07-17T06:49:28.000Z</time>
      </trkpt>
      <trkpt lat="42.9623690" lon="-2.8118880">
        <ele>684.239014</ele>
        <time>2020-07-17T06:49:31.000Z</time>
      </trkpt>
      <trkpt lat="42.9624580" lon="-2.8118690">
        <ele>685.088989</ele>
        <time>2020-07-17T06:49:38.000Z</time>
      </trkpt>
      <trkpt lat="42.9624850" lon="-2.8118590">
        <ele>685.206055</ele>
        <time>2020-07-17T06:49:40.000Z</time>
      </trkpt>
      <trkpt lat="42.9625410" lon="-2.8118290">
        <ele>686.026001</ele>
        <time>2020-07-17T06:49:45.000Z</time>
      </trkpt>
      <trkpt lat="42.9626270" lon="-2.8117920">
        <ele>687.208008</ele>
        <time>2020-07-17T06:49:51.000Z</time>
      </trkpt>
      <trkpt lat="42.9627050" lon="-2.8117440">
        <ele>688.232971</ele>
        <time>2020-07-17T06:49:58.000Z</time>
      </trkpt>
      <trkpt lat="42.9627390" lon="-2.8117280">
        <ele>688.670959</ele>
        <time>2020-07-17T06:50:02.000Z</time>
      </trkpt>
      <trkpt lat="42.9627810" lon="-2.8116680">
        <ele>689.439026</ele>
        <time>2020-07-17T06:50:08.000Z</time>
      </trkpt>
      <trkpt lat="42.9628150" lon="-2.8116120">
        <ele>690.048950</ele>
        <time>2020-07-17T06:50:13.000Z</time>
      </trkpt>
      <trkpt lat="42.9628350" lon="-2.8115770">
        <ele>690.416992</ele>
        <time>2020-07-17T06:50:16.000Z</time>
      </trkpt>
      <trkpt lat="42.9628680" lon="-2.8115180">
        <ele>691.640991</ele>
        <time>2020-07-17T06:50:21.000Z</time>
      </trkpt>
      <trkpt lat="42.9629010" lon="-2.8114930">
        <ele>692.442993</ele>
        <time>2020-07-17T06:50:25.000Z</time>
      </trkpt>
      <trkpt lat="42.9629110" lon="-2.8114890">
        <ele>692.625977</ele>
        <time>2020-07-17T06:50:26.000Z</time>
      </trkpt>
      <trkpt lat="42.9629630" lon="-2.8114710">
        <ele>693.669006</ele>
        <time>2020-07-17T06:50:33.000Z</time>
      </trkpt>
      <trkpt lat="42.9630070" lon="-2.8114550">
        <ele>694.204041</ele>
        <time>2020-07-17T06:50:39.000Z</time>
      </trkpt>
      <trkpt lat="42.9630270" lon="-2.8114520">
        <ele>694.624023</ele>
        <time>2020-07-17T06:50:41.000Z</time>
      </trkpt>
      <trkpt lat="42.9631110" lon="-2.8114700">
        <ele>695.808044</ele>
        <time>2020-07-17T06:50:50.000Z</time>
      </trkpt>
      <trkpt lat="42.9631100" lon="-2.8114720">
        <ele>695.870972</ele>
        <time>2020-07-17T06:50:51.000Z</time>
      </trkpt>
      <trkpt lat="42.9631600" lon="-2.8114500">
        <ele>696.278992</ele>
        <time>2020-07-17T06:50:57.000Z</time>
      </trkpt>
      <trkpt lat="42.9632050" lon="-2.8114250">
        <ele>696.627014</ele>
        <time>2020-07-17T06:51:01.000Z</time>
      </trkpt>
      <trkpt lat="42.9632150" lon="-2.8114190">
        <ele>696.617004</ele>
        <time>2020-07-17T06:51:02.000Z</time>
      </trkpt>
      <trkpt lat="42.9633860" lon="-2.8113470">
        <ele>697.485046</ele>
        <time>2020-07-17T06:51:15.000Z</time>
      </trkpt>
      <trkpt lat="42.9634970" lon="-2.8112680">
        <ele>698.679016</ele>
        <time>2020-07-17T06:51:23.000Z</time>
      </trkpt>
      <trkpt lat="42.9635310" lon="-2.8112640">
        <ele>699.251038</ele>
        <time>2020-07-17T06:51:26.000Z</time>
      </trkpt>
      <trkpt lat="42.9635520" lon="-2.8112510">
        <ele>699.894043</ele>
        <time>2020-07-17T06:51:28.000Z</time>
      </trkpt>
      <trkpt lat="42.9635900" lon="-2.8112140">
        <ele>700.888000</ele>
        <time>2020-07-17T06:51:32.000Z</time>
      </trkpt>
      <trkpt lat="42.9636370" lon="-2.8111820">
        <ele>702.023987</ele>
        <time>2020-07-17T06:51:36.000Z</time>
      </trkpt>
      <trkpt lat="42.9636980" lon="-2.8111230">
        <ele>703.026062</ele>
        <time>2020-07-17T06:51:42.000Z</time>
      </trkpt>
      <trkpt lat="42.9637110" lon="-2.8110800">
        <ele>703.807983</ele>
        <time>2020-07-17T06:51:45.000Z</time>
      </trkpt>
      <trkpt lat="42.9637290" lon="-2.8110580">
        <ele>704.042969</ele>
        <time>2020-07-17T06:51:48.000Z</time>
      </trkpt>
      <trkpt lat="42.9637710" lon="-2.8110360">
        <ele>705.091003</ele>
        <time>2020-07-17T06:51:52.000Z</time>
      </trkpt>
      <trkpt lat="42.9637980" lon="-2.8110080">
        <ele>705.689026</ele>
        <time>2020-07-17T06:51:54.000Z</time>
      </trkpt>
      <trkpt lat="42.9638270" lon="-2.8109700">
        <ele>706.289001</ele>
        <time>2020-07-17T06:51:56.000Z</time>
      </trkpt>
      <trkpt lat="42.9638830" lon="-2.8109190">
        <ele>707.237000</ele>
        <time>2020-07-17T06:52:01.000Z</time>
      </trkpt>
      <trkpt lat="42.9639240" lon="-2.8108860">
        <ele>708.041016</ele>
        <time>2020-07-17T06:52:03.000Z</time>
      </trkpt>
      <trkpt lat="42.9639330" lon="-2.8108750">
        <ele>708.292969</ele>
        <time>2020-07-17T06:52:04.000Z</time>
      </trkpt>
      <trkpt lat="42.9639880" lon="-2.8108390">
        <ele>709.666016</ele>
        <time>2020-07-17T06:52:08.000Z</time>
      </trkpt>
      <trkpt lat="42.9640410" lon="-2.8107960">
        <ele>710.439026</ele>
        <time>2020-07-17T06:52:13.000Z</time>
      </trkpt>
      <trkpt lat="42.9640490" lon="-2.8107870">
        <ele>710.601013</ele>
        <time>2020-07-17T06:52:14.000Z</time>
      </trkpt>
      <trkpt lat="42.9640860" lon="-2.8107540">
        <ele>711.420959</ele>
        <time>2020-07-17T06:52:18.000Z</time>
      </trkpt>
      <trkpt lat="42.9641450" lon="-2.8106950">
        <ele>713.007996</ele>
        <time>2020-07-17T06:52:25.000Z</time>
      </trkpt>
      <trkpt lat="42.9641560" lon="-2.8106790">
        <ele>713.257996</ele>
        <time>2020-07-17T06:52:27.000Z</time>
      </trkpt>
      <trkpt lat="42.9641760" lon="-2.8106400">
        <ele>714.096008</ele>
        <time>2020-07-17T06:52:32.000Z</time>
      </trkpt>
      <trkpt lat="42.9642140" lon="-2.8105850">
        <ele>714.833984</ele>
        <time>2020-07-17T06:52:39.000Z</time>
      </trkpt>
      <trkpt lat="42.9642500" lon="-2.8105370">
        <ele>715.493958</ele>
        <time>2020-07-17T06:52:44.000Z</time>
      </trkpt>
      <trkpt lat="42.9642810" lon="-2.8104830">
        <ele>715.821960</ele>
        <time>2020-07-17T06:52:48.000Z</time>
      </trkpt>
      <trkpt lat="42.9643400" lon="-2.8103910">
        <ele>716.835999</ele>
        <time>2020-07-17T06:52:57.000Z</time>
      </trkpt>
      <trkpt lat="42.9643860" lon="-2.8103400">
        <ele>717.438049</ele>
        <time>2020-07-17T06:53:02.000Z</time>
      </trkpt>
      <trkpt lat="42.9644360" lon="-2.8102870">
        <ele>717.671021</ele>
        <time>2020-07-17T06:53:08.000Z</time>
      </trkpt>
      <trkpt lat="42.9644950" lon="-2.8102310">
        <ele>718.841980</ele>
        <time>2020-07-17T06:53:16.000Z</time>
      </trkpt>
      <trkpt lat="42.9645170" lon="-2.8102070">
        <ele>719.022034</ele>
        <time>2020-07-17T06:53:19.000Z</time>
      </trkpt>
      <trkpt lat="42.9645730" lon="-2.8101420">
        <ele>719.814026</ele>
        <time>2020-07-17T06:53:26.000Z</time>
      </trkpt>
      <trkpt lat="42.9646360" lon="-2.8100210">
        <ele>720.607971</ele>
        <time>2020-07-17T06:53:35.000Z</time>
      </trkpt>
      <trkpt lat="42.9646580" lon="-2.8099640">
        <ele>720.899048</ele>
        <time>2020-07-17T06:53:38.000Z</time>
      </trkpt>
      <trkpt lat="42.9647530" lon="-2.8096240">
        <ele>720.087036</ele>
        <time>2020-07-17T06:53:56.000Z</time>
      </trkpt>
      <trkpt lat="42.9647610" lon="-2.8095820">
        <ele>719.845032</ele>
        <time>2020-07-17T06:54:01.000Z</time>
      </trkpt>
      <trkpt lat="42.9648930" lon="-2.8086950">
        <ele>722.814941</ele>
        <time>2020-07-17T06:57:00.000Z</time>
      </trkpt>
      <trkpt lat="42.9648870" lon="-2.8086740">
        <ele>722.832947</ele>
        <time>2020-07-17T06:57:01.000Z</time>
      </trkpt>
      <trkpt lat="42.9649030" lon="-2.8085680">
        <ele>724.027039</ele>
        <time>2020-07-17T06:57:09.000Z</time>
      </trkpt>
      <trkpt lat="42.9649090" lon="-2.8085360">
        <ele>724.218994</ele>
        <time>2020-07-17T06:57:11.000Z</time>
      </trkpt>
      <trkpt lat="42.9649340" lon="-2.8084630">
        <ele>725.031982</ele>
        <time>2020-07-17T06:57:16.000Z</time>
      </trkpt>
      <trkpt lat="42.9649670" lon="-2.8083920">
        <ele>726.261963</ele>
        <time>2020-07-17T06:57:21.000Z</time>
      </trkpt>
      <trkpt lat="42.9649940" lon="-2.8083440">
        <ele>727.483032</ele>
        <time>2020-07-17T06:57:25.000Z</time>
      </trkpt>
      <trkpt lat="42.9650380" lon="-2.8083120">
        <ele>728.411011</ele>
        <time>2020-07-17T06:57:29.000Z</time>
      </trkpt>
      <trkpt lat="42.9650920" lon="-2.8082950">
        <ele>729.208008</ele>
        <time>2020-07-17T06:57:35.000Z</time>
      </trkpt>
      <trkpt lat="42.9651110" lon="-2.8082910">
        <ele>729.671021</ele>
        <time>2020-07-17T06:57:37.000Z</time>
      </trkpt>
      <trkpt lat="42.9651640" lon="-2.8082950">
        <ele>730.418945</ele>
        <time>2020-07-17T06:57:42.000Z</time>
      </trkpt>
      <trkpt lat="42.9652370" lon="-2.8083100">
        <ele>731.666992</ele>
        <time>2020-07-17T06:57:49.000Z</time>
      </trkpt>
      <trkpt lat="42.9652610" lon="-2.8083070">
        <ele>731.827026</ele>
        <time>2020-07-17T06:57:51.000Z</time>
      </trkpt>
      <trkpt lat="42.9653170" lon="-2.8083140">
        <ele>732.464966</ele>
        <time>2020-07-17T06:57:56.000Z</time>
      </trkpt>
      <trkpt lat="42.9654030" lon="-2.8083310">
        <ele>733.429016</ele>
        <time>2020-07-17T06:58:04.000Z</time>
      </trkpt>
      <trkpt lat="42.9654460" lon="-2.8083430">
        <ele>734.070984</ele>
        <time>2020-07-17T06:58:08.000Z</time>
      </trkpt>
      <trkpt lat="42.9655060" lon="-2.8083510">
        <ele>734.643982</ele>
        <time>2020-07-17T06:58:13.000Z</time>
      </trkpt>
      <trkpt lat="42.9655740" lon="-2.8083480">
        <ele>735.250977</ele>
        <time>2020-07-17T06:58:20.000Z</time>
      </trkpt>
      <trkpt lat="42.9655920" lon="-2.8083350">
        <ele>735.601013</ele>
        <time>2020-07-17T06:58:22.000Z</time>
      </trkpt>
      <trkpt lat="42.9656660" lon="-2.8083000">
        <ele>736.610962</ele>
        <time>2020-07-17T06:58:31.000Z</time>
      </trkpt>
      <trkpt lat="42.9657340" lon="-2.8082400">
        <ele>737.607971</ele>
        <time>2020-07-17T06:58:38.000Z</time>
      </trkpt>
      <trkpt lat="42.9658010" lon="-2.8081880">
        <ele>738.619995</ele>
        <time>2020-07-17T06:58:44.000Z</time>
      </trkpt>
      <trkpt lat="42.9658130" lon="-2.8081790">
        <ele>738.848022</ele>
        <time>2020-07-17T06:58:45.000Z</time>
      </trkpt>
      <trkpt lat="42.9658540" lon="-2.8081360">
        <ele>739.645996</ele>
        <time>2020-07-17T06:58:49.000Z</time>
      </trkpt>
      <trkpt lat="42.9658870" lon="-2.8081030">
        <ele>740.426025</ele>
        <time>2020-07-17T06:58:52.000Z</time>
      </trkpt>
      <trkpt lat="42.9658990" lon="-2.8080920">
        <ele>740.684021</ele>
        <time>2020-07-17T06:58:53.000Z</time>
      </trkpt>
      <trkpt lat="42.9659760" lon="-2.8080320">
        <ele>742.028015</ele>
        <time>2020-07-17T06:58:59.000Z</time>
      </trkpt>
      <trkpt lat="42.9659890" lon="-2.8080210">
        <ele>742.219971</ele>
        <time>2020-07-17T06:59:00.000Z</time>
      </trkpt>
      <trkpt lat="42.9660310" lon="-2.8079880">
        <ele>742.843018</ele>
        <time>2020-07-17T06:59:03.000Z</time>
      </trkpt>
      <trkpt lat="42.9660800" lon="-2.8079530">
        <ele>744.059021</ele>
        <time>2020-07-17T06:59:07.000Z</time>
      </trkpt>
      <trkpt lat="42.9661430" lon="-2.8079230">
        <ele>745.002991</ele>
        <time>2020-07-17T06:59:12.000Z</time>
      </trkpt>
      <trkpt lat="42.9661800" lon="-2.8078990">
        <ele>746.023010</ele>
        <time>2020-07-17T06:59:15.000Z</time>
      </trkpt>
      <trkpt lat="42.9662280" lon="-2.8078740">
        <ele>747.007996</ele>
        <time>2020-07-17T06:59:19.000Z</time>
      </trkpt>
      <trkpt lat="42.9662410" lon="-2.8078710">
        <ele>747.070007</ele>
        <time>2020-07-17T06:59:20.000Z</time>
      </trkpt>
      <trkpt lat="42.9663310" lon="-2.8078290">
        <ele>748.017944</ele>
        <time>2020-07-17T06:59:27.000Z</time>
      </trkpt>
      <trkpt lat="42.9663730" lon="-2.8078060">
        <ele>749.246033</ele>
        <time>2020-07-17T06:59:31.000Z</time>
      </trkpt>
      <trkpt lat="42.9664170" lon="-2.8077840">
        <ele>750.286011</ele>
        <time>2020-07-17T06:59:35.000Z</time>
      </trkpt>
      <trkpt lat="42.9664640" lon="-2.8077680">
        <ele>751.484009</ele>
        <time>2020-07-17T06:59:39.000Z</time>
      </trkpt>
      <trkpt lat="42.9664950" lon="-2.8077570">
        <ele>752.697998</ele>
        <time>2020-07-17T06:59:42.000Z</time>
      </trkpt>
      <trkpt lat="42.9665470" lon="-2.8077320">
        <ele>753.889954</ele>
        <time>2020-07-17T06:59:47.000Z</time>
      </trkpt>
      <trkpt lat="42.9666120" lon="-2.8077160">
        <ele>754.882935</ele>
        <time>2020-07-17T06:59:53.000Z</time>
      </trkpt>
      <trkpt lat="42.9666560" lon="-2.8076900">
        <ele>755.822937</ele>
        <time>2020-07-17T06:59:59.000Z</time>
      </trkpt>
      <trkpt lat="42.9666830" lon="-2.8076880">
        <ele>757.083008</ele>
        <time>2020-07-17T07:00:06.000Z</time>
      </trkpt>
      <trkpt lat="42.9666990" lon="-2.8076630">
        <ele>757.610962</ele>
        <time>2020-07-17T07:00:09.000Z</time>
      </trkpt>
      <trkpt lat="42.9667180" lon="-2.8076440">
        <ele>758.208008</ele>
        <time>2020-07-17T07:00:12.000Z</time>
      </trkpt>
      <trkpt lat="42.9667930" lon="-2.8075990">
        <ele>759.216980</ele>
        <time>2020-07-17T07:00:19.000Z</time>
      </trkpt>
      <trkpt lat="42.9668480" lon="-2.8075680">
        <ele>760.425049</ele>
        <time>2020-07-17T07:00:24.000Z</time>
      </trkpt>
      <trkpt lat="42.9668850" lon="-2.8075370">
        <ele>761.242981</ele>
        <time>2020-07-17T07:00:28.000Z</time>
      </trkpt>
      <trkpt lat="42.9668910" lon="-2.8075140">
        <ele>761.442993</ele>
        <time>2020-07-17T07:00:30.000Z</time>
      </trkpt>
      <trkpt lat="42.9669320" lon="-2.8074880">
        <ele>762.640991</ele>
        <time>2020-07-17T07:00:35.000Z</time>
      </trkpt>
      <trkpt lat="42.9669680" lon="-2.8074510">
        <ele>763.024963</ele>
        <time>2020-07-17T07:00:39.000Z</time>
      </trkpt>
      <trkpt lat="42.9670080" lon="-2.8074220">
        <ele>763.497009</ele>
        <time>2020-07-17T07:00:43.000Z</time>
      </trkpt>
      <trkpt lat="42.9670170" lon="-2.8074140">
        <ele>763.850037</ele>
        <time>2020-07-17T07:00:44.000Z</time>
      </trkpt>
      <trkpt lat="42.9670440" lon="-2.8073920">
        <ele>764.874023</ele>
        <time>2020-07-17T07:00:48.000Z</time>
      </trkpt>
      <trkpt lat="42.9670650" lon="-2.8073770">
        <ele>765.856018</ele>
        <time>2020-07-17T07:00:51.000Z</time>
      </trkpt>
      <trkpt lat="42.9671570" lon="-2.8073550">
        <ele>766.820984</ele>
        <time>2020-07-17T07:01:00.000Z</time>
      </trkpt>
      <trkpt lat="42.9671670" lon="-2.8073530">
        <ele>767.007996</ele>
        <time>2020-07-17T07:01:01.000Z</time>
      </trkpt>
      <trkpt lat="42.9672750" lon="-2.8073200">
        <ele>768.022034</ele>
        <time>2020-07-17T07:01:11.000Z</time>
      </trkpt>
      <trkpt lat="42.9673370" lon="-2.8073160">
        <ele>768.630005</ele>
        <time>2020-07-17T07:01:16.000Z</time>
      </trkpt>
      <trkpt lat="42.9673640" lon="-2.8073090">
        <ele>768.888000</ele>
        <time>2020-07-17T07:01:18.000Z</time>
      </trkpt>
      <trkpt lat="42.9673770" lon="-2.8073050">
        <ele>769.077942</ele>
        <time>2020-07-17T07:01:19.000Z</time>
      </trkpt>
      <trkpt lat="42.9674920" lon="-2.8072630">
        <ele>770.035950</ele>
        <time>2020-07-17T07:01:31.000Z</time>
      </trkpt>
      <trkpt lat="42.9675330" lon="-2.8072570">
        <ele>770.250000</ele>
        <time>2020-07-17T07:01:35.000Z</time>
      </trkpt>
      <trkpt lat="42.9677170" lon="-2.8072720">
        <ele>770.692017</ele>
        <time>2020-07-17T07:01:50.000Z</time>
      </trkpt>
      <trkpt lat="42.9677620" lon="-2.8072860">
        <ele>770.815002</ele>
        <time>2020-07-17T07:01:54.000Z</time>
      </trkpt>
      <trkpt lat="42.9678460" lon="-2.8073190">
        <ele>772.088013</ele>
        <time>2020-07-17T07:02:03.000Z</time>
      </trkpt>
      <trkpt lat="42.9678950" lon="-2.8073380">
        <ele>772.823975</ele>
        <time>2020-07-17T07:02:08.000Z</time>
      </trkpt>
      <trkpt lat="42.9679370" lon="-2.8073450">
        <ele>773.026001</ele>
        <time>2020-07-17T07:02:11.000Z</time>
      </trkpt>
      <trkpt lat="42.9680200" lon="-2.8073370">
        <ele>774.007996</ele>
        <time>2020-07-17T07:02:19.000Z</time>
      </trkpt>
      <trkpt lat="42.9680880" lon="-2.8073330">
        <ele>775.083008</ele>
        <time>2020-07-17T07:02:24.000Z</time>
      </trkpt>
      <trkpt lat="42.9681640" lon="-2.8073470">
        <ele>776.260986</ele>
        <time>2020-07-17T07:02:29.000Z</time>
      </trkpt>
      <trkpt lat="42.9682160" lon="-2.8073460">
        <ele>777.269043</ele>
        <time>2020-07-17T07:02:33.000Z</time>
      </trkpt>
      <trkpt lat="42.9682500" lon="-2.8073470">
        <ele>778.239014</ele>
        <time>2020-07-17T07:02:36.000Z</time>
      </trkpt>
      <trkpt lat="42.9682640" lon="-2.8073390">
        <ele>778.497009</ele>
        <time>2020-07-17T07:02:37.000Z</time>
      </trkpt>
      <trkpt lat="42.9683310" lon="-2.8073400">
        <ele>779.640991</ele>
        <time>2020-07-17T07:02:42.000Z</time>
      </trkpt>
      <trkpt lat="42.9683960" lon="-2.8073510">
        <ele>780.622986</ele>
        <time>2020-07-17T07:02:47.000Z</time>
      </trkpt>
      <trkpt lat="42.9684650" lon="-2.8073710">
        <ele>781.875977</ele>
        <time>2020-07-17T07:02:53.000Z</time>
      </trkpt>
      <trkpt lat="42.9684770" lon="-2.8073710">
        <ele>782.013000</ele>
        <time>2020-07-17T07:02:54.000Z</time>
      </trkpt>
      <trkpt lat="42.9685410" lon="-2.8073870">
        <ele>783.043030</ele>
        <time>2020-07-17T07:03:00.000Z</time>
      </trkpt>
      <trkpt lat="42.9686730" lon="-2.8074650">
        <ele>783.806946</ele>
        <time>2020-07-17T07:03:13.000Z</time>
      </trkpt>
      <trkpt lat="42.9687500" lon="-2.8074990">
        <ele>784.008057</ele>
        <time>2020-07-17T07:03:19.000Z</time>
      </trkpt>
      <trkpt lat="42.9688360" lon="-2.8075270">
        <ele>784.656006</ele>
        <time>2020-07-17T07:03:28.000Z</time>
      </trkpt>
      <trkpt lat="42.9688580" lon="-2.8075350">
        <ele>784.634033</ele>
        <time>2020-07-17T07:03:30.000Z</time>
      </trkpt>
      <trkpt lat="42.9689330" lon="-2.8075600">
        <ele>785.031982</ele>
        <time>2020-07-17T07:03:36.000Z</time>
      </trkpt>
      <trkpt lat="42.9690570" lon="-2.8076020">
        <ele>785.841980</ele>
        <time>2020-07-17T07:03:47.000Z</time>
      </trkpt>
      <trkpt lat="42.9691490" lon="-2.8076320">
        <ele>786.039978</ele>
        <time>2020-07-17T07:03:54.000Z</time>
      </trkpt>
      <trkpt lat="42.9693010" lon="-2.8076600">
        <ele>786.623962</ele>
        <time>2020-07-17T07:04:05.000Z</time>
      </trkpt>
      <trkpt lat="42.9694060" lon="-2.8076420">
        <ele>787.216003</ele>
        <time>2020-07-17T07:04:13.000Z</time>
      </trkpt>
      <trkpt lat="42.9695080" lon="-2.8075900">
        <ele>788.098999</ele>
        <time>2020-07-17T07:04:21.000Z</time>
      </trkpt>
      <trkpt lat="42.9695210" lon="-2.8075850">
        <ele>788.062012</ele>
        <time>2020-07-17T07:04:22.000Z</time>
      </trkpt>
      <trkpt lat="42.9696820" lon="-2.8075500">
        <ele>788.882996</ele>
        <time>2020-07-17T07:04:34.000Z</time>
      </trkpt>
      <trkpt lat="42.9697350" lon="-2.8075520">
        <ele>789.210999</ele>
        <time>2020-07-17T07:04:38.000Z</time>
      </trkpt>
      <trkpt lat="42.9697930" lon="-2.8075510">
        <ele>789.407959</ele>
        <time>2020-07-17T07:04:42.000Z</time>
      </trkpt>
      <trkpt lat="42.9698580" lon="-2.8075270">
        <ele>789.810974</ele>
        <time>2020-07-17T07:04:47.000Z</time>
      </trkpt>
      <trkpt lat="42.9698760" lon="-2.8075120">
        <ele>790.039001</ele>
        <time>2020-07-17T07:04:49.000Z</time>
      </trkpt>
      <trkpt lat="42.9699050" lon="-2.8074960">
        <ele>790.226990</ele>
        <time>2020-07-17T07:04:52.000Z</time>
      </trkpt>
      <trkpt lat="42.9700320" lon="-2.8074030">
        <ele>790.846985</ele>
        <time>2020-07-17T07:05:02.000Z</time>
      </trkpt>
      <trkpt lat="42.9701520" lon="-2.8073430">
        <ele>791.065002</ele>
        <time>2020-07-17T07:05:09.000Z</time>
      </trkpt>
      <trkpt lat="42.9702140" lon="-2.8072980">
        <ele>791.069031</ele>
        <time>2020-07-17T07:05:14.000Z</time>
      </trkpt>
      <trkpt lat="42.9703290" lon="-2.8071810">
        <ele>791.051025</ele>
        <time>2020-07-17T07:05:23.000Z</time>
      </trkpt>
      <trkpt lat="42.9704680" lon="-2.8071350">
        <ele>791.283997</ele>
        <time>2020-07-17T07:05:31.000Z</time>
      </trkpt>
      <trkpt lat="42.9706830" lon="-2.8070790">
        <ele>791.286011</ele>
        <time>2020-07-17T07:05:41.000Z</time>
      </trkpt>
      <trkpt lat="42.9708220" lon="-2.8070090">
        <ele>790.460022</ele>
        <time>2020-07-17T07:05:49.000Z</time>
      </trkpt>
      <trkpt lat="42.9708480" lon="-2.8069940">
        <ele>790.026001</ele>
        <time>2020-07-17T07:05:53.000Z</time>
      </trkpt>
      <trkpt lat="42.9710560" lon="-2.8068480">
        <ele>789.407959</ele>
        <time>2020-07-17T07:07:56.000Z</time>
      </trkpt>
      <trkpt lat="42.9710720" lon="-2.8068380">
        <ele>789.213013</ele>
        <time>2020-07-17T07:07:57.000Z</time>
      </trkpt>
      <trkpt lat="42.9710870" lon="-2.8068210">
        <ele>789.051025</ele>
        <time>2020-07-17T07:07:58.000Z</time>
      </trkpt>
      <trkpt lat="42.9712520" lon="-2.8066810">
        <ele>788.088989</ele>
        <time>2020-07-17T07:08:08.000Z</time>
      </trkpt>
      <trkpt lat="42.9712730" lon="-2.8066720">
        <ele>787.819031</ele>
        <time>2020-07-17T07:08:09.000Z</time>
      </trkpt>
      <trkpt lat="42.9714950" lon="-2.8066030">
        <ele>787.296997</ele>
        <time>2020-07-17T07:08:16.000Z</time>
      </trkpt>
      <trkpt lat="42.9715930" lon="-2.8065760">
        <ele>786.890991</ele>
        <time>2020-07-17T07:08:19.000Z</time>
      </trkpt>
      <trkpt lat="42.9717260" lon="-2.8065490">
        <ele>785.822998</ele>
        <time>2020-07-17T07:08:23.000Z</time>
      </trkpt>
      <trkpt lat="42.9718590" lon="-2.8065350">
        <ele>784.446045</ele>
        <time>2020-07-17T07:08:27.000Z</time>
      </trkpt>
      <trkpt lat="42.9720590" lon="-2.8065570">
        <ele>783.440979</ele>
        <time>2020-07-17T07:08:33.000Z</time>
      </trkpt>
      <trkpt lat="42.9720890" lon="-2.8065630">
        <ele>783.080994</ele>
        <time>2020-07-17T07:08:34.000Z</time>
      </trkpt>
      <trkpt lat="42.9721810" lon="-2.8065740">
        <ele>782.208984</ele>
        <time>2020-07-17T07:08:37.000Z</time>
      </trkpt>
      <trkpt lat="42.9723010" lon="-2.8065660">
        <ele>781.208008</ele>
        <time>2020-07-17T07:08:42.000Z</time>
      </trkpt>
      <trkpt lat="42.9723290" lon="-2.8065570">
        <ele>781.268982</ele>
        <time>2020-07-17T07:08:43.000Z</time>
      </trkpt>
      <trkpt lat="42.9724890" lon="-2.8064790">
        <ele>780.447021</ele>
        <time>2020-07-17T07:08:48.000Z</time>
      </trkpt>
      <trkpt lat="42.9725640" lon="-2.8064250">
        <ele>780.075012</ele>
        <time>2020-07-17T07:08:51.000Z</time>
      </trkpt>
      <trkpt lat="42.9726360" lon="-2.8063750">
        <ele>779.884949</ele>
        <time>2020-07-17T07:08:54.000Z</time>
      </trkpt>
      <trkpt lat="42.9728330" lon="-2.8062810">
        <ele>779.653015</ele>
        <time>2020-07-17T07:09:02.000Z</time>
      </trkpt>
      <trkpt lat="42.9730330" lon="-2.8062010">
        <ele>779.666992</ele>
        <time>2020-07-17T07:09:12.000Z</time>
      </trkpt>
      <trkpt lat="42.9732080" lon="-2.8061120">
        <ele>780.229004</ele>
        <time>2020-07-17T07:09:22.000Z</time>
      </trkpt>
      <trkpt lat="42.9734090" lon="-2.8059790">
        <ele>780.692017</ele>
        <time>2020-07-17T07:09:32.000Z</time>
      </trkpt>
      <trkpt lat="42.9734510" lon="-2.8059510">
        <ele>780.895020</ele>
        <time>2020-07-17T07:09:35.000Z</time>
      </trkpt>
      <trkpt lat="42.9735910" lon="-2.8058720">
        <ele>782.049011</ele>
        <time>2020-07-17T07:09:42.000Z</time>
      </trkpt>
      <trkpt lat="42.9736290" lon="-2.8058560">
        <ele>782.222961</ele>
        <time>2020-07-17T07:09:44.000Z</time>
      </trkpt>
      <trkpt lat="42.9737300" lon="-2.8058220">
        <ele>782.808044</ele>
        <time>2020-07-17T07:09:50.000Z</time>
      </trkpt>
      <trkpt lat="42.9738510" lon="-2.8057610">
        <ele>783.854004</ele>
        <time>2020-07-17T07:09:57.000Z</time>
      </trkpt>
      <trkpt lat="42.9738670" lon="-2.8057520">
        <ele>783.831970</ele>
        <time>2020-07-17T07:09:58.000Z</time>
      </trkpt>
      <trkpt lat="42.9739970" lon="-2.8056780">
        <ele>784.850037</ele>
        <time>2020-07-17T07:10:06.000Z</time>
      </trkpt>
      <trkpt lat="42.9740670" lon="-2.8056380">
        <ele>785.419983</ele>
        <time>2020-07-17T07:10:10.000Z</time>
      </trkpt>
      <trkpt lat="42.9741320" lon="-2.8056000">
        <ele>786.057983</ele>
        <time>2020-07-17T07:10:14.000Z</time>
      </trkpt>
      <trkpt lat="42.9742290" lon="-2.8055320">
        <ele>786.692017</ele>
        <time>2020-07-17T07:10:21.000Z</time>
      </trkpt>
      <trkpt lat="42.9742790" lon="-2.8055140">
        <ele>787.044006</ele>
        <time>2020-07-17T07:10:24.000Z</time>
      </trkpt>
      <trkpt lat="42.9743890" lon="-2.8054450">
        <ele>787.697021</ele>
        <time>2020-07-17T07:10:32.000Z</time>
      </trkpt>
      <trkpt lat="42.9744980" lon="-2.8053950">
        <ele>788.081970</ele>
        <time>2020-07-17T07:10:38.000Z</time>
      </trkpt>
      <trkpt lat="42.9745640" lon="-2.8053670">
        <ele>788.643005</ele>
        <time>2020-07-17T07:10:42.000Z</time>
      </trkpt>
      <trkpt lat="42.9746560" lon="-2.8053140">
        <ele>789.016968</ele>
        <time>2020-07-17T07:10:48.000Z</time>
      </trkpt>
      <trkpt lat="42.9747330" lon="-2.8052700">
        <ele>789.407959</ele>
        <time>2020-07-17T07:10:54.000Z</time>
      </trkpt>
      <trkpt lat="42.9748220" lon="-2.8052280">
        <ele>789.862976</ele>
        <time>2020-07-17T07:10:59.000Z</time>
      </trkpt>
      <trkpt lat="42.9749270" lon="-2.8051720">
        <ele>790.651001</ele>
        <time>2020-07-17T07:11:06.000Z</time>
      </trkpt>
      <trkpt lat="42.9750070" lon="-2.8051390">
        <ele>791.049011</ele>
        <time>2020-07-17T07:11:11.000Z</time>
      </trkpt>
      <trkpt lat="42.9751100" lon="-2.8050800">
        <ele>791.468994</ele>
        <time>2020-07-17T07:11:18.000Z</time>
      </trkpt>
      <trkpt lat="42.9752720" lon="-2.8050170">
        <ele>791.887024</ele>
        <time>2020-07-17T07:11:28.000Z</time>
      </trkpt>
      <trkpt lat="42.9753830" lon="-2.8049510">
        <ele>792.080994</ele>
        <time>2020-07-17T07:11:34.000Z</time>
      </trkpt>
      <trkpt lat="42.9755170" lon="-2.8049000">
        <ele>792.042969</ele>
        <time>2020-07-17T07:11:40.000Z</time>
      </trkpt>
      <trkpt lat="42.9757300" lon="-2.8048060">
        <ele>792.436035</ele>
        <time>2020-07-17T07:11:49.000Z</time>
      </trkpt>
      <trkpt lat="42.9758610" lon="-2.8047170">
        <ele>792.657043</ele>
        <time>2020-07-17T07:11:58.000Z</time>
      </trkpt>
      <trkpt lat="42.9759010" lon="-2.8046840">
        <ele>793.000000</ele>
        <time>2020-07-17T07:12:01.000Z</time>
      </trkpt>
      <trkpt lat="42.9760160" lon="-2.8045780">
        <ele>794.020020</ele>
        <time>2020-07-17T07:12:09.000Z</time>
      </trkpt>
      <trkpt lat="42.9760770" lon="-2.8044950">
        <ele>795.007996</ele>
        <time>2020-07-17T07:12:16.000Z</time>
      </trkpt>
      <trkpt lat="42.9760970" lon="-2.8044630">
        <ele>795.250000</ele>
        <time>2020-07-17T07:12:18.000Z</time>
      </trkpt>
      <trkpt lat="42.9761330" lon="-2.8044120">
        <ele>796.278015</ele>
        <time>2020-07-17T07:12:23.000Z</time>
      </trkpt>
      <trkpt lat="42.9761930" lon="-2.8043500">
        <ele>797.085999</ele>
        <time>2020-07-17T07:12:28.000Z</time>
      </trkpt>
      <trkpt lat="42.9762050" lon="-2.8043390">
        <ele>797.485962</ele>
        <time>2020-07-17T07:12:29.000Z</time>
      </trkpt>
      <trkpt lat="42.9762440" lon="-2.8042910">
        <ele>798.454041</ele>
        <time>2020-07-17T07:12:34.000Z</time>
      </trkpt>
      <trkpt lat="42.9762670" lon="-2.8042460">
        <ele>799.627991</ele>
        <time>2020-07-17T07:12:38.000Z</time>
      </trkpt>
      <trkpt lat="42.9762720" lon="-2.8042370">
        <ele>799.809998</ele>
        <time>2020-07-17T07:12:39.000Z</time>
      </trkpt>
      <trkpt lat="42.9763320" lon="-2.8041490">
        <ele>800.643005</ele>
        <time>2020-07-17T07:12:46.000Z</time>
      </trkpt>
      <trkpt lat="42.9763620" lon="-2.8041200">
        <ele>801.035950</ele>
        <time>2020-07-17T07:12:49.000Z</time>
      </trkpt>
      <trkpt lat="42.9763750" lon="-2.8040930">
        <ele>801.617004</ele>
        <time>2020-07-17T07:12:52.000Z</time>
      </trkpt>
      <trkpt lat="42.9764150" lon="-2.8040670">
        <ele>802.817993</ele>
        <time>2020-07-17T07:12:58.000Z</time>
      </trkpt>
      <trkpt lat="42.9764360" lon="-2.8040550">
        <ele>803.208008</ele>
        <time>2020-07-17T07:13:00.000Z</time>
      </trkpt>
      <trkpt lat="42.9764830" lon="-2.8040010">
        <ele>803.868042</ele>
        <time>2020-07-17T07:13:05.000Z</time>
      </trkpt>
      <trkpt lat="42.9765460" lon="-2.8039060">
        <ele>804.866028</ele>
        <time>2020-07-17T07:13:13.000Z</time>
      </trkpt>
      <trkpt lat="42.9766050" lon="-2.8038330">
        <ele>806.024048</ele>
        <time>2020-07-17T07:13:21.000Z</time>
      </trkpt>
      <trkpt lat="42.9766390" lon="-2.8038090">
        <ele>806.444031</ele>
        <time>2020-07-17T07:13:24.000Z</time>
      </trkpt>
      <trkpt lat="42.9766660" lon="-2.8037750">
        <ele>807.081970</ele>
        <time>2020-07-17T07:13:28.000Z</time>
      </trkpt>
      <trkpt lat="42.9766800" lon="-2.8037410">
        <ele>807.656006</ele>
        <time>2020-07-17T07:13:32.000Z</time>
      </trkpt>
      <trkpt lat="42.9766980" lon="-2.8037060">
        <ele>807.898010</ele>
        <time>2020-07-17T07:13:35.000Z</time>
      </trkpt>
      <trkpt lat="42.9767070" lon="-2.8036920">
        <ele>808.240967</ele>
        <time>2020-07-17T07:13:36.000Z</time>
      </trkpt>
      <trkpt lat="42.9767750" lon="-2.8036040">
        <ele>809.065063</ele>
        <time>2020-07-17T07:13:42.000Z</time>
      </trkpt>
      <trkpt lat="42.9768450" lon="-2.8035170">
        <ele>809.668030</ele>
        <time>2020-07-17T07:13:48.000Z</time>
      </trkpt>
      <trkpt lat="42.9768640" lon="-2.8034790">
        <ele>810.014038</ele>
        <time>2020-07-17T07:13:51.000Z</time>
      </trkpt>
      <trkpt lat="42.9769270" lon="-2.8033760">
        <ele>810.608032</ele>
        <time>2020-07-17T07:13:58.000Z</time>
      </trkpt>
      <trkpt lat="42.9769970" lon="-2.8033000">
        <ele>810.861023</ele>
        <time>2020-07-17T07:14:04.000Z</time>
      </trkpt>
      <trkpt lat="42.9770900" lon="-2.8032340">
        <ele>811.218994</ele>
        <time>2020-07-17T07:14:11.000Z</time>
      </trkpt>
      <trkpt lat="42.9771870" lon="-2.8031410">
        <ele>811.837036</ele>
        <time>2020-07-17T07:14:20.000Z</time>
      </trkpt>
      <trkpt lat="42.9772010" lon="-2.8031270">
        <ele>812.016968</ele>
        <time>2020-07-17T07:14:21.000Z</time>
      </trkpt>
      <trkpt lat="42.9773220" lon="-2.8030040">
        <ele>812.494995</ele>
        <time>2020-07-17T07:14:32.000Z</time>
      </trkpt>
      <trkpt lat="42.9773610" lon="-2.8028840">
        <ele>812.638977</ele>
        <time>2020-07-17T07:14:41.000Z</time>
      </trkpt>
      <trkpt lat="42.9773710" lon="-2.8028510">
        <ele>812.880981</ele>
        <time>2020-07-17T07:14:43.000Z</time>
      </trkpt>
      <trkpt lat="42.9774050" lon="-2.8027390">
        <ele>813.213989</ele>
        <time>2020-07-17T07:14:50.000Z</time>
      </trkpt>
      <trkpt lat="42.9774840" lon="-2.8024450">
        <ele>813.038025</ele>
        <time>2020-07-17T07:15:01.000Z</time>
      </trkpt>
      <trkpt lat="42.9775230" lon="-2.8022070">
        <ele>813.070007</ele>
        <time>2020-07-17T07:15:11.000Z</time>
      </trkpt>
      <trkpt lat="42.9775760" lon="-2.8020270">
        <ele>813.216980</ele>
        <time>2020-07-17T07:15:21.000Z</time>
      </trkpt>
      <trkpt lat="42.9776260" lon="-2.8019010">
        <ele>813.407959</ele>
        <time>2020-07-17T07:15:26.000Z</time>
      </trkpt>
      <trkpt lat="42.9776560" lon="-2.8017890">
        <ele>814.048035</ele>
        <time>2020-07-17T07:15:30.000Z</time>
      </trkpt>
      <trkpt lat="42.9776720" lon="-2.8016830">
        <ele>814.835999</ele>
        <time>2020-07-17T07:15:34.000Z</time>
      </trkpt>
      <trkpt lat="42.9776930" lon="-2.8015220">
        <ele>815.634033</ele>
        <time>2020-07-17T07:15:40.000Z</time>
      </trkpt>
      <trkpt lat="42.9776960" lon="-2.8015000">
        <ele>815.864014</ele>
        <time>2020-07-17T07:15:41.000Z</time>
      </trkpt>
      <trkpt lat="42.9777060" lon="-2.8013020">
        <ele>816.612061</ele>
        <time>2020-07-17T07:15:50.000Z</time>
      </trkpt>
      <trkpt lat="42.9777310" lon="-2.8010980">
        <ele>816.846008</ele>
        <time>2020-07-17T07:15:59.000Z</time>
      </trkpt>
      <trkpt lat="42.9777780" lon="-2.8008740">
        <ele>817.037964</ele>
        <time>2020-07-17T07:16:10.000Z</time>
      </trkpt>
      <trkpt lat="42.9778300" lon="-2.8006280">
        <ele>817.051025</ele>
        <time>2020-07-17T07:16:20.000Z</time>
      </trkpt>
      <trkpt lat="42.9778870" lon="-2.8004700">
        <ele>817.221985</ele>
        <time>2020-07-17T07:16:27.000Z</time>
      </trkpt>
      <trkpt lat="42.9779030" lon="-2.8004330">
        <ele>817.461975</ele>
        <time>2020-07-17T07:16:29.000Z</time>
      </trkpt>
      <trkpt lat="42.9779790" lon="-2.8003240">
        <ele>817.607971</ele>
        <time>2020-07-17T07:16:35.000Z</time>
      </trkpt>
      <trkpt lat="42.9780940" lon="-2.8001730">
        <ele>817.808044</ele>
        <time>2020-07-17T07:16:43.000Z</time>
      </trkpt>
      <trkpt lat="42.9781810" lon="-2.7999840">
        <ele>818.047058</ele>
        <time>2020-07-17T07:16:52.000Z</time>
      </trkpt>
      <trkpt lat="42.9781890" lon="-2.7999700">
        <ele>818.274963</ele>
        <time>2020-07-17T07:16:53.000Z</time>
      </trkpt>
      <trkpt lat="42.9782250" lon="-2.7998660">
        <ele>819.492981</ele>
        <time>2020-07-17T07:16:59.000Z</time>
      </trkpt>
      <trkpt lat="42.9782580" lon="-2.7997760">
        <ele>819.882996</ele>
        <time>2020-07-17T07:17:03.000Z</time>
      </trkpt>
      <trkpt lat="42.9782950" lon="-2.7996360">
        <ele>820.281006</ele>
        <time>2020-07-17T07:17:09.000Z</time>
      </trkpt>
      <trkpt lat="42.9783130" lon="-2.7995610">
        <ele>820.635010</ele>
        <time>2020-07-17T07:17:12.000Z</time>
      </trkpt>
      <trkpt lat="42.9783420" lon="-2.7994460">
        <ele>821.257019</ele>
        <time>2020-07-17T07:17:17.000Z</time>
      </trkpt>
      <trkpt lat="42.9783590" lon="-2.7993590">
        <ele>822.060059</ele>
        <time>2020-07-17T07:17:21.000Z</time>
      </trkpt>
      <trkpt lat="42.9783790" lon="-2.7992970">
        <ele>822.243958</ele>
        <time>2020-07-17T07:17:24.000Z</time>
      </trkpt>
      <trkpt lat="42.9784250" lon="-2.7991760">
        <ele>823.404968</ele>
        <time>2020-07-17T07:17:31.000Z</time>
      </trkpt>
      <trkpt lat="42.9784330" lon="-2.7991580">
        <ele>823.614990</ele>
        <time>2020-07-17T07:17:32.000Z</time>
      </trkpt>
      <trkpt lat="42.9784580" lon="-2.7991090">
        <ele>824.408020</ele>
        <time>2020-07-17T07:17:35.000Z</time>
      </trkpt>
      <trkpt lat="42.9784980" lon="-2.7990250">
        <ele>825.499023</ele>
        <time>2020-07-17T07:17:40.000Z</time>
      </trkpt>
      <trkpt lat="42.9785170" lon="-2.7989880">
        <ele>826.096985</ele>
        <time>2020-07-17T07:17:42.000Z</time>
      </trkpt>
      <trkpt lat="42.9785290" lon="-2.7989570">
        <ele>826.624939</ele>
        <time>2020-07-17T07:17:44.000Z</time>
      </trkpt>
      <trkpt lat="42.9785770" lon="-2.7988540">
        <ele>827.635010</ele>
        <time>2020-07-17T07:17:50.000Z</time>
      </trkpt>
      <trkpt lat="42.9786010" lon="-2.7987620">
        <ele>828.432983</ele>
        <time>2020-07-17T07:17:55.000Z</time>
      </trkpt>
      <trkpt lat="42.9786060" lon="-2.7987430">
        <ele>828.677002</ele>
        <time>2020-07-17T07:17:56.000Z</time>
      </trkpt>
      <trkpt lat="42.9786360" lon="-2.7986370">
        <ele>829.688965</ele>
        <time>2020-07-17T07:18:02.000Z</time>
      </trkpt>
      <trkpt lat="42.9786540" lon="-2.7985950">
        <ele>830.231995</ele>
        <time>2020-07-17T07:18:05.000Z</time>
      </trkpt>
      <trkpt lat="42.9786590" lon="-2.7985730">
        <ele>830.689026</ele>
        <time>2020-07-17T07:18:07.000Z</time>
      </trkpt>
      <trkpt lat="42.9786820" lon="-2.7985070">
        <ele>831.805969</ele>
        <time>2020-07-17T07:18:13.000Z</time>
      </trkpt>
      <trkpt lat="42.9787040" lon="-2.7984310">
        <ele>832.825989</ele>
        <time>2020-07-17T07:18:18.000Z</time>
      </trkpt>
      <trkpt lat="42.9787070" lon="-2.7984190">
        <ele>833.007996</ele>
        <time>2020-07-17T07:18:19.000Z</time>
      </trkpt>
      <trkpt lat="42.9787250" lon="-2.7983090">
        <ele>834.082947</ele>
        <time>2020-07-17T07:18:27.000Z</time>
      </trkpt>
      <trkpt lat="42.9787340" lon="-2.7982960">
        <ele>834.221008</ele>
        <time>2020-07-17T07:18:28.000Z</time>
      </trkpt>
      <trkpt lat="42.9787920" lon="-2.7982040">
        <ele>834.679016</ele>
        <time>2020-07-17T07:18:36.000Z</time>
      </trkpt>
      <trkpt lat="42.9788260" lon="-2.7981370">
        <ele>834.828979</ele>
        <time>2020-07-17T07:18:40.000Z</time>
      </trkpt>
      <trkpt lat="42.9788670" lon="-2.7981110">
        <ele>835.037048</ele>
        <time>2020-07-17T07:18:42.000Z</time>
      </trkpt>
      <trkpt lat="42.9789610" lon="-2.7979780">
        <ele>835.820984</ele>
        <time>2020-07-17T07:18:52.000Z</time>
      </trkpt>
      <trkpt lat="42.9789830" lon="-2.7979570">
        <ele>836.013000</ele>
        <time>2020-07-17T07:18:54.000Z</time>
      </trkpt>
      <trkpt lat="42.9790600" lon="-2.7978530">
        <ele>836.436035</ele>
        <time>2020-07-17T07:19:03.000Z</time>
      </trkpt>
      <trkpt lat="42.9791780" lon="-2.7977190">
        <ele>836.899048</ele>
        <time>2020-07-17T07:19:14.000Z</time>
      </trkpt>
      <trkpt lat="42.9791910" lon="-2.7977030">
        <ele>837.007019</ele>
        <time>2020-07-17T07:19:15.000Z</time>
      </trkpt>
      <trkpt lat="42.9792750" lon="-2.7975450">
        <ele>837.627014</ele>
        <time>2020-07-17T07:19:23.000Z</time>
      </trkpt>
      <trkpt lat="42.9793690" lon="-2.7973640">
        <ele>837.608032</ele>
        <time>2020-07-17T07:19:32.000Z</time>
      </trkpt>
      <trkpt lat="42.9794600" lon="-2.7972150">
        <ele>837.854004</ele>
        <time>2020-07-17T07:19:40.000Z</time>
      </trkpt>
      <trkpt lat="42.9794960" lon="-2.7971160">
        <ele>837.832031</ele>
        <time>2020-07-17T07:19:44.000Z</time>
      </trkpt>
      <trkpt lat="42.9795380" lon="-2.7970190">
        <ele>838.079956</ele>
        <time>2020-07-17T07:19:48.000Z</time>
      </trkpt>
      <trkpt lat="42.9796430" lon="-2.7967170">
        <ele>837.830017</ele>
        <time>2020-07-17T07:19:57.000Z</time>
      </trkpt>
      <trkpt lat="42.9797050" lon="-2.7963620">
        <ele>837.617981</ele>
        <time>2020-07-17T07:20:06.000Z</time>
      </trkpt>
      <trkpt lat="42.9797600" lon="-2.7959840">
        <ele>836.822021</ele>
        <time>2020-07-17T07:20:13.000Z</time>
      </trkpt>
      <trkpt lat="42.9797700" lon="-2.7959350">
        <ele>836.434021</ele>
        <time>2020-07-17T07:20:14.000Z</time>
      </trkpt>
      <trkpt lat="42.9798050" lon="-2.7956970">
        <ele>835.427063</ele>
        <time>2020-07-17T07:20:19.000Z</time>
      </trkpt>
      <trkpt lat="42.9798180" lon="-2.7955270">
        <ele>834.670959</ele>
        <time>2020-07-17T07:20:22.000Z</time>
      </trkpt>
      <trkpt lat="42.9798250" lon="-2.7954230">
        <ele>834.241028</ele>
        <time>2020-07-17T07:20:24.000Z</time>
      </trkpt>
      <trkpt lat="42.9798340" lon="-2.7952760">
        <ele>833.215027</ele>
        <time>2020-07-17T07:20:28.000Z</time>
      </trkpt>
      <trkpt lat="42.9798580" lon="-2.7950370">
        <ele>832.407959</ele>
        <time>2020-07-17T07:20:34.000Z</time>
      </trkpt>
      <trkpt lat="42.9798910" lon="-2.7949240">
        <ele>832.012024</ele>
        <time>2020-07-17T07:20:39.000Z</time>
      </trkpt>
      <trkpt lat="42.9799010" lon="-2.7949030">
        <ele>831.820007</ele>
        <time>2020-07-17T07:20:41.000Z</time>
      </trkpt>
      <trkpt lat="42.9799540" lon="-2.7948060">
        <ele>831.467957</ele>
        <time>2020-07-17T07:20:47.000Z</time>
      </trkpt>
      <trkpt lat="42.9800640" lon="-2.7946090">
        <ele>831.088013</ele>
        <time>2020-07-17T07:20:55.000Z</time>
      </trkpt>
      <trkpt lat="42.9801380" lon="-2.7944580">
        <ele>830.825989</ele>
        <time>2020-07-17T07:21:03.000Z</time>
      </trkpt>
      <trkpt lat="42.9802370" lon="-2.7942620">
        <ele>830.860046</ele>
        <time>2020-07-17T07:21:12.000Z</time>
      </trkpt>
      <trkpt lat="42.9803610" lon="-2.7941130">
        <ele>830.842041</ele>
        <time>2020-07-17T07:21:20.000Z</time>
      </trkpt>
      <trkpt lat="42.9805270" lon="-2.7939640">
        <ele>830.614990</ele>
        <time>2020-07-17T07:21:29.000Z</time>
      </trkpt>
      <trkpt lat="42.9807390" lon="-2.7937950">
        <ele>830.418945</ele>
        <time>2020-07-17T07:21:40.000Z</time>
      </trkpt>
      <trkpt lat="42.9809400" lon="-2.7936180">
        <ele>830.408997</ele>
        <time>2020-07-17T07:21:51.000Z</time>
      </trkpt>
      <trkpt lat="42.9810740" lon="-2.7934780">
        <ele>830.619019</ele>
        <time>2020-07-17T07:22:00.000Z</time>
      </trkpt>
      <trkpt lat="42.9810960" lon="-2.7934450">
        <ele>830.607971</ele>
        <time>2020-07-17T07:22:05.000Z</time>
      </trkpt>
      <trkpt lat="42.9812430" lon="-2.7933150">
        <ele>831.085999</ele>
        <time>2020-07-17T07:22:40.000Z</time>
      </trkpt>
      <trkpt lat="42.9812700" lon="-2.7932870">
        <ele>831.253967</ele>
        <time>2020-07-17T07:22:42.000Z</time>
      </trkpt>
      <trkpt lat="42.9814390" lon="-2.7931020">
        <ele>831.252014</ele>
        <time>2020-07-17T07:22:52.000Z</time>
      </trkpt>
      <trkpt lat="42.9815820" lon="-2.7929080">
        <ele>831.052002</ele>
        <time>2020-07-17T07:23:02.000Z</time>
      </trkpt>
      <trkpt lat="42.9817210" lon="-2.7927560">
        <ele>831.040039</ele>
        <time>2020-07-17T07:23:11.000Z</time>
      </trkpt>
      <trkpt lat="42.9818730" lon="-2.7925710">
        <ele>831.083984</ele>
        <time>2020-07-17T07:23:21.000Z</time>
      </trkpt>
      <trkpt lat="42.9820260" lon="-2.7924620">
        <ele>830.885986</ele>
        <time>2020-07-17T07:23:30.000Z</time>
      </trkpt>
      <trkpt lat="42.9821510" lon="-2.7923180">
        <ele>830.888977</ele>
        <time>2020-07-17T07:23:39.000Z</time>
      </trkpt>
      <trkpt lat="42.9822560" lon="-2.7922260">
        <ele>830.664001</ele>
        <time>2020-07-17T07:23:47.000Z</time>
      </trkpt>
      <trkpt lat="42.9823460" lon="-2.7920960">
        <ele>830.605957</ele>
        <time>2020-07-17T07:23:54.000Z</time>
      </trkpt>
      <trkpt lat="42.9824800" lon="-2.7919010">
        <ele>830.416016</ele>
        <time>2020-07-17T07:24:02.000Z</time>
      </trkpt>
      <trkpt lat="42.9826640" lon="-2.7917350">
        <ele>830.007996</ele>
        <time>2020-07-17T07:24:11.000Z</time>
      </trkpt>
      <trkpt lat="42.9828710" lon="-2.7915400">
        <ele>829.461060</ele>
        <time>2020-07-17T07:24:19.000Z</time>
      </trkpt>
      <trkpt lat="42.9828930" lon="-2.7915060">
        <ele>829.468994</ele>
        <time>2020-07-17T07:24:20.000Z</time>
      </trkpt>
      <trkpt lat="42.9830880" lon="-2.7912390">
        <ele>828.246948</ele>
        <time>2020-07-17T07:24:28.000Z</time>
      </trkpt>
      <trkpt lat="42.9831130" lon="-2.7912070">
        <ele>828.097046</ele>
        <time>2020-07-17T07:24:29.000Z</time>
      </trkpt>
      <trkpt lat="42.9833270" lon="-2.7910340">
        <ele>827.285034</ele>
        <time>2020-07-17T07:24:36.000Z</time>
      </trkpt>
      <trkpt lat="42.9833530" lon="-2.7910120">
        <ele>827.078979</ele>
        <time>2020-07-17T07:24:37.000Z</time>
      </trkpt>
      <trkpt lat="42.9835430" lon="-2.7908750">
        <ele>826.430969</ele>
        <time>2020-07-17T07:24:43.000Z</time>
      </trkpt>
      <trkpt lat="42.9836450" lon="-2.7908170">
        <ele>826.064026</ele>
        <time>2020-07-17T07:24:48.000Z</time>
      </trkpt>
      <trkpt lat="42.9837040" lon="-2.7907830">
        <ele>826.085022</ele>
        <time>2020-07-17T07:24:51.000Z</time>
      </trkpt>
      <trkpt lat="42.9839060" lon="-2.7906760">
        <ele>826.289001</ele>
        <time>2020-07-17T07:25:03.000Z</time>
      </trkpt>
      <trkpt lat="42.9840880" lon="-2.7906450">
        <ele>826.817017</ele>
        <time>2020-07-17T07:25:14.000Z</time>
      </trkpt>
      <trkpt lat="42.9842270" lon="-2.7906390">
        <ele>827.007996</ele>
        <time>2020-07-17T07:25:23.000Z</time>
      </trkpt>
      <trkpt lat="42.9843600" lon="-2.7906120">
        <ele>827.413025</ele>
        <time>2020-07-17T07:25:31.000Z</time>
      </trkpt>
      <trkpt lat="42.9844330" lon="-2.7905930">
        <ele>828.061035</ele>
        <time>2020-07-17T07:25:36.000Z</time>
      </trkpt>
      <trkpt lat="42.9845310" lon="-2.7905520">
        <ele>828.448975</ele>
        <time>2020-07-17T07:25:43.000Z</time>
      </trkpt>
      <trkpt lat="42.9845850" lon="-2.7905370">
        <ele>828.878967</ele>
        <time>2020-07-17T07:25:48.000Z</time>
      </trkpt>
      <trkpt lat="42.9846490" lon="-2.7905240">
        <ele>829.437012</ele>
        <time>2020-07-17T07:25:54.000Z</time>
      </trkpt>
      <trkpt lat="42.9847200" lon="-2.7905070">
        <ele>829.830994</ele>
        <time>2020-07-17T07:26:00.000Z</time>
      </trkpt>
      <trkpt lat="42.9848620" lon="-2.7904490">
        <ele>830.442993</ele>
        <time>2020-07-17T07:26:11.000Z</time>
      </trkpt>
      <trkpt lat="42.9850060" lon="-2.7904250">
        <ele>830.885986</ele>
        <time>2020-07-17T07:26:21.000Z</time>
      </trkpt>
      <trkpt lat="42.9851750" lon="-2.7904170">
        <ele>831.417969</ele>
        <time>2020-07-17T07:26:32.000Z</time>
      </trkpt>
      <trkpt lat="42.9853200" lon="-2.7903590">
        <ele>831.697998</ele>
        <time>2020-07-17T07:26:42.000Z</time>
      </trkpt>
      <trkpt lat="42.9853470" lon="-2.7903490">
        <ele>831.617004</ele>
        <time>2020-07-17T07:26:44.000Z</time>
      </trkpt>
      <trkpt lat="42.9854740" lon="-2.7902990">
        <ele>831.807983</ele>
        <time>2020-07-17T07:26:53.000Z</time>
      </trkpt>
      <trkpt lat="42.9856080" lon="-2.7902860">
        <ele>831.846008</ele>
        <time>2020-07-17T07:27:02.000Z</time>
      </trkpt>
      <trkpt lat="42.9857700" lon="-2.7902780">
        <ele>832.644043</ele>
        <time>2020-07-17T07:27:13.000Z</time>
      </trkpt>
      <trkpt lat="42.9858050" lon="-2.7902570">
        <ele>832.882019</ele>
        <time>2020-07-17T07:27:15.000Z</time>
      </trkpt>
      <trkpt lat="42.9859760" lon="-2.7901540">
        <ele>833.822021</ele>
        <time>2020-07-17T07:27:26.000Z</time>
      </trkpt>
      <trkpt lat="42.9860450" lon="-2.7901190">
        <ele>833.879944</ele>
        <time>2020-07-17T07:27:30.000Z</time>
      </trkpt>
      <trkpt lat="42.9861660" lon="-2.7900410">
        <ele>834.083984</ele>
        <time>2020-07-17T07:27:38.000Z</time>
      </trkpt>
      <trkpt lat="42.9863440" lon="-2.7899080">
        <ele>834.656006</ele>
        <time>2020-07-17T07:27:50.000Z</time>
      </trkpt>
      <trkpt lat="42.9863950" lon="-2.7898490">
        <ele>834.898987</ele>
        <time>2020-07-17T07:27:54.000Z</time>
      </trkpt>
      <trkpt lat="42.9864890" lon="-2.7897680">
        <ele>835.033020</ele>
        <time>2020-07-17T07:28:02.000Z</time>
      </trkpt>
      <trkpt lat="42.9865990" lon="-2.7896950">
        <ele>835.822998</ele>
        <time>2020-07-17T07:28:10.000Z</time>
      </trkpt>
      <trkpt lat="42.9866150" lon="-2.7896800">
        <ele>835.815002</ele>
        <time>2020-07-17T07:28:11.000Z</time>
      </trkpt>
      <trkpt lat="42.9866670" lon="-2.7895460">
        <ele>836.807983</ele>
        <time>2020-07-17T07:28:17.000Z</time>
      </trkpt>
      <trkpt lat="42.9866760" lon="-2.7895210">
        <ele>836.817993</ele>
        <time>2020-07-17T07:28:18.000Z</time>
      </trkpt>
      <trkpt lat="42.9867700" lon="-2.7894280">
        <ele>837.616028</ele>
        <time>2020-07-17T07:28:25.000Z</time>
      </trkpt>
      <trkpt lat="42.9868770" lon="-2.7893580">
        <ele>838.854004</ele>
        <time>2020-07-17T07:28:34.000Z</time>
      </trkpt>
      <trkpt lat="42.9868970" lon="-2.7893500">
        <ele>839.044006</ele>
        <time>2020-07-17T07:28:36.000Z</time>
      </trkpt>
      <trkpt lat="42.9869390" lon="-2.7893210">
        <ele>839.831970</ele>
        <time>2020-07-17T07:28:40.000Z</time>
      </trkpt>
      <trkpt lat="42.9870090" lon="-2.7892490">
        <ele>840.616028</ele>
        <time>2020-07-17T07:28:47.000Z</time>
      </trkpt>
      <trkpt lat="42.9870170" lon="-2.7892380">
        <ele>840.837952</ele>
        <time>2020-07-17T07:28:48.000Z</time>
      </trkpt>
      <trkpt lat="42.9870730" lon="-2.7891520">
        <ele>841.870972</ele>
        <time>2020-07-17T07:28:55.000Z</time>
      </trkpt>
      <trkpt lat="42.9871030" lon="-2.7890910">
        <ele>842.251038</ele>
        <time>2020-07-17T07:28:59.000Z</time>
      </trkpt>
      <trkpt lat="42.9871450" lon="-2.7890190">
        <ele>842.801025</ele>
        <time>2020-07-17T07:29:04.000Z</time>
      </trkpt>
      <trkpt lat="42.9871650" lon="-2.7889370">
        <ele>843.810974</ele>
        <time>2020-07-17T07:29:09.000Z</time>
      </trkpt>
      <trkpt lat="42.9872080" lon="-2.7887850">
        <ele>844.608032</ele>
        <time>2020-07-17T07:29:17.000Z</time>
      </trkpt>
      <trkpt lat="42.9872200" lon="-2.7887710">
        <ele>844.870056</ele>
        <time>2020-07-17T07:29:18.000Z</time>
      </trkpt>
      <trkpt lat="42.9872940" lon="-2.7886760">
        <ele>845.658020</ele>
        <time>2020-07-17T07:29:26.000Z</time>
      </trkpt>
      <trkpt lat="42.9873110" lon="-2.7886310">
        <ele>846.235962</ele>
        <time>2020-07-17T07:29:29.000Z</time>
      </trkpt>
      <trkpt lat="42.9872800" lon="-2.7885790">
        <ele>846.655945</ele>
        <time>2020-07-17T07:29:33.000Z</time>
      </trkpt>
      <trkpt lat="42.9872570" lon="-2.7885560">
        <ele>846.883972</ele>
        <time>2020-07-17T07:29:35.000Z</time>
      </trkpt>
      <trkpt lat="42.9871450" lon="-2.7884300">
        <ele>847.067993</ele>
        <time>2020-07-17T07:29:43.000Z</time>
      </trkpt>
      <trkpt lat="42.9870500" lon="-2.7883300">
        <ele>846.869995</ele>
        <time>2020-07-17T07:29:47.000Z</time>
      </trkpt>
      <trkpt lat="42.9869180" lon="-2.7881590">
        <ele>845.493042</ele>
        <time>2020-07-17T07:29:54.000Z</time>
      </trkpt>
      <trkpt lat="42.9868690" lon="-2.7880990">
        <ele>844.419006</ele>
        <time>2020-07-17T07:29:57.000Z</time>
      </trkpt>
      <trkpt lat="42.9868190" lon="-2.7880560">
        <ele>843.408997</ele>
        <time>2020-07-17T07:30:00.000Z</time>
      </trkpt>
      <trkpt lat="42.9867560" lon="-2.7880110">
        <ele>842.619019</ele>
        <time>2020-07-17T07:30:03.000Z</time>
      </trkpt>
      <trkpt lat="42.9867110" lon="-2.7879830">
        <ele>842.208008</ele>
        <time>2020-07-17T07:30:05.000Z</time>
      </trkpt>
      <trkpt lat="42.9866200" lon="-2.7879070">
        <ele>841.056030</ele>
        <time>2020-07-17T07:30:09.000Z</time>
      </trkpt>
      <trkpt lat="42.9865530" lon="-2.7878490">
        <ele>839.824036</ele>
        <time>2020-07-17T07:30:12.000Z</time>
      </trkpt>
      <trkpt lat="42.9864380" lon="-2.7877810">
        <ele>838.291992</ele>
        <time>2020-07-17T07:30:16.000Z</time>
      </trkpt>
      <trkpt lat="42.9863140" lon="-2.7876940">
        <ele>837.072021</ele>
        <time>2020-07-17T07:30:20.000Z</time>
      </trkpt>
      <trkpt lat="42.9862220" lon="-2.7876330">
        <ele>836.039978</ele>
        <time>2020-07-17T07:30:23.000Z</time>
      </trkpt>
      <trkpt lat="42.9861260" lon="-2.7875660">
        <ele>834.673950</ele>
        <time>2020-07-17T07:30:26.000Z</time>
      </trkpt>
      <trkpt lat="42.9860570" lon="-2.7875140">
        <ele>833.495972</ele>
        <time>2020-07-17T07:30:28.000Z</time>
      </trkpt>
      <trkpt lat="42.9859890" lon="-2.7874550">
        <ele>832.278992</ele>
        <time>2020-07-17T07:30:30.000Z</time>
      </trkpt>
      <trkpt lat="42.9858780" lon="-2.7873310">
        <ele>830.632019</ele>
        <time>2020-07-17T07:30:33.000Z</time>
      </trkpt>
      <trkpt lat="42.9858020" lon="-2.7872110">
        <ele>829.692017</ele>
        <time>2020-07-17T07:30:35.000Z</time>
      </trkpt>
      <trkpt lat="42.9857650" lon="-2.7871500">
        <ele>829.210999</ele>
        <time>2020-07-17T07:30:36.000Z</time>
      </trkpt>
      <trkpt lat="42.9856930" lon="-2.7870260">
        <ele>827.607971</ele>
        <time>2020-07-17T07:30:38.000Z</time>
      </trkpt>
      <trkpt lat="42.9856290" lon="-2.7869050">
        <ele>826.218018</ele>
        <time>2020-07-17T07:30:40.000Z</time>
      </trkpt>
      <trkpt lat="42.9855690" lon="-2.7867910">
        <ele>824.636047</ele>
        <time>2020-07-17T07:30:42.000Z</time>
      </trkpt>
      <trkpt lat="42.9855420" lon="-2.7867320">
        <ele>824.264038</ele>
        <time>2020-07-17T07:30:43.000Z</time>
      </trkpt>
      <trkpt lat="42.9854860" lon="-2.7865540">
        <ele>823.694031</ele>
        <time>2020-07-17T07:30:47.000Z</time>
      </trkpt>
      <trkpt lat="42.9855220" lon="-2.7863880">
        <ele>822.271973</ele>
        <time>2020-07-17T07:30:54.000Z</time>
      </trkpt>
      <trkpt lat="42.9855240" lon="-2.7863370">
        <ele>821.846008</ele>
        <time>2020-07-17T07:31:00.000Z</time>
      </trkpt>
      <trkpt lat="42.9855120" lon="-2.7863140">
        <ele>821.638062</ele>
        <time>2020-07-17T07:31:02.000Z</time>
      </trkpt>
      <trkpt lat="42.9854940" lon="-2.7862590">
        <ele>821.431030</ele>
        <time>2020-07-17T07:31:05.000Z</time>
      </trkpt>
      <trkpt lat="42.9854180" lon="-2.7861380">
        <ele>821.034973</ele>
        <time>2020-07-17T07:31:12.000Z</time>
      </trkpt>
      <trkpt lat="42.9854040" lon="-2.7861230">
        <ele>821.086060</ele>
        <time>2020-07-17T07:31:13.000Z</time>
      </trkpt>
      <trkpt lat="42.9853090" lon="-2.7860650">
        <ele>820.813965</ele>
        <time>2020-07-17T07:31:21.000Z</time>
      </trkpt>
      <trkpt lat="42.9852460" lon="-2.7860590">
        <ele>821.408020</ele>
        <time>2020-07-17T07:31:27.000Z</time>
      </trkpt>
      <trkpt lat="42.9851950" lon="-2.7860230">
        <ele>821.697998</ele>
        <time>2020-07-17T07:31:31.000Z</time>
      </trkpt>
      <trkpt lat="42.9851350" lon="-2.7859930">
        <ele>822.076050</ele>
        <time>2020-07-17T07:31:35.000Z</time>
      </trkpt>
      <trkpt lat="42.9850400" lon="-2.7859560">
        <ele>822.494019</ele>
        <time>2020-07-17T07:31:41.000Z</time>
      </trkpt>
      <trkpt lat="42.9849820" lon="-2.7859320">
        <ele>822.834045</ele>
        <time>2020-07-17T07:31:45.000Z</time>
      </trkpt>
      <trkpt lat="42.9848490" lon="-2.7858600">
        <ele>823.422058</ele>
        <time>2020-07-17T07:31:53.000Z</time>
      </trkpt>
      <trkpt lat="42.9847460" lon="-2.7858480">
        <ele>823.826050</ele>
        <time>2020-07-17T07:32:00.000Z</time>
      </trkpt>
      <trkpt lat="42.9846940" lon="-2.7858530">
        <ele>824.018005</ele>
        <time>2020-07-17T07:32:03.000Z</time>
      </trkpt>
      <trkpt lat="42.9845930" lon="-2.7858430">
        <ele>824.260986</ele>
        <time>2020-07-17T07:32:07.000Z</time>
      </trkpt>
      <trkpt lat="42.9843980" lon="-2.7857890">
        <ele>824.414001</ele>
        <time>2020-07-17T07:32:15.000Z</time>
      </trkpt>
      <trkpt lat="42.9842660" lon="-2.7857290">
        <ele>824.454041</ele>
        <time>2020-07-17T07:32:23.000Z</time>
      </trkpt>
      <trkpt lat="42.9842370" lon="-2.7857110">
        <ele>824.408997</ele>
        <time>2020-07-17T07:32:25.000Z</time>
      </trkpt>
      <trkpt lat="42.9841140" lon="-2.7856510">
        <ele>824.607971</ele>
        <time>2020-07-17T07:32:33.000Z</time>
      </trkpt>
      <trkpt lat="42.9840330" lon="-2.7855850">
        <ele>825.075989</ele>
        <time>2020-07-17T07:32:38.000Z</time>
      </trkpt>
      <trkpt lat="42.9840110" lon="-2.7855720">
        <ele>825.024048</ele>
        <time>2020-07-17T07:32:40.000Z</time>
      </trkpt>
      <trkpt lat="42.9839600" lon="-2.7855680">
        <ele>825.651978</ele>
        <time>2020-07-17T07:32:45.000Z</time>
      </trkpt>
      <trkpt lat="42.9838950" lon="-2.7855350">
        <ele>826.081970</ele>
        <time>2020-07-17T07:32:49.000Z</time>
      </trkpt>
      <trkpt lat="42.9837930" lon="-2.7854600">
        <ele>826.250000</ele>
        <time>2020-07-17T07:32:56.000Z</time>
      </trkpt>
      <trkpt lat="42.9837700" lon="-2.7854460">
        <ele>826.463989</ele>
        <time>2020-07-17T07:33:00.000Z</time>
      </trkpt>
      <trkpt lat="42.9837570" lon="-2.7854250">
        <ele>826.416016</ele>
        <time>2020-07-17T07:33:03.000Z</time>
      </trkpt>
      <trkpt lat="42.9836710" lon="-2.7852940">
        <ele>826.658997</ele>
        <time>2020-07-17T07:33:12.000Z</time>
      </trkpt>
      <trkpt lat="42.9836420" lon="-2.7852670">
        <ele>827.071960</ele>
        <time>2020-07-17T07:33:14.000Z</time>
      </trkpt>
      <trkpt lat="42.9835610" lon="-2.7851610">
        <ele>827.213013</ele>
        <time>2020-07-17T07:33:22.000Z</time>
      </trkpt>
      <trkpt lat="42.9834950" lon="-2.7850830">
        <ele>827.614014</ele>
        <time>2020-07-17T07:33:28.000Z</time>
      </trkpt>
      <trkpt lat="42.9834520" lon="-2.7850420">
        <ele>828.208008</ele>
        <time>2020-07-17T07:33:31.000Z</time>
      </trkpt>
      <trkpt lat="42.9834150" lon="-2.7849950">
        <ele>828.632019</ele>
        <time>2020-07-17T07:33:34.000Z</time>
      </trkpt>
      <trkpt lat="42.9833540" lon="-2.7849030">
        <ele>829.240051</ele>
        <time>2020-07-17T07:33:40.000Z</time>
      </trkpt>
      <trkpt lat="42.9833350" lon="-2.7848740">
        <ele>829.658020</ele>
        <time>2020-07-17T07:33:42.000Z</time>
      </trkpt>
      <trkpt lat="42.9832800" lon="-2.7848060">
        <ele>830.037964</ele>
        <time>2020-07-17T07:33:47.000Z</time>
      </trkpt>
      <trkpt lat="42.9832240" lon="-2.7847420">
        <ele>830.456055</ele>
        <time>2020-07-17T07:33:52.000Z</time>
      </trkpt>
      <trkpt lat="42.9832000" lon="-2.7847120">
        <ele>830.490051</ele>
        <time>2020-07-17T07:33:54.000Z</time>
      </trkpt>
      <trkpt lat="42.9831230" lon="-2.7846160">
        <ele>831.011963</ele>
        <time>2020-07-17T07:34:01.000Z</time>
      </trkpt>
      <trkpt lat="42.9831070" lon="-2.7845960">
        <ele>831.255005</ele>
        <time>2020-07-17T07:34:03.000Z</time>
      </trkpt>
      <trkpt lat="42.9830470" lon="-2.7845140">
        <ele>831.674988</ele>
        <time>2020-07-17T07:34:10.000Z</time>
      </trkpt>
      <trkpt lat="42.9830100" lon="-2.7844740">
        <ele>832.028015</ele>
        <time>2020-07-17T07:34:13.000Z</time>
      </trkpt>
      <trkpt lat="42.9829570" lon="-2.7844160">
        <ele>832.420044</ele>
        <time>2020-07-17T07:34:17.000Z</time>
      </trkpt>
      <trkpt lat="42.9828970" lon="-2.7843440">
        <ele>833.007996</ele>
        <time>2020-07-17T07:34:21.000Z</time>
      </trkpt>
      <trkpt lat="42.9828340" lon="-2.7842820">
        <ele>833.291992</ele>
        <time>2020-07-17T07:34:25.000Z</time>
      </trkpt>
      <trkpt lat="42.9827150" lon="-2.7842060">
        <ele>833.459961</ele>
        <time>2020-07-17T07:34:34.000Z</time>
      </trkpt>
      <trkpt lat="42.9826520" lon="-2.7841580">
        <ele>833.618042</ele>
        <time>2020-07-17T07:34:39.000Z</time>
      </trkpt>
      <trkpt lat="42.9825630" lon="-2.7840640">
        <ele>833.648010</ele>
        <time>2020-07-17T07:34:45.000Z</time>
      </trkpt>
      <trkpt lat="42.9824310" lon="-2.7839560">
        <ele>834.015991</ele>
        <time>2020-07-17T07:34:52.000Z</time>
      </trkpt>
      <trkpt lat="42.9823970" lon="-2.7839330">
        <ele>834.080017</ele>
        <time>2020-07-17T07:34:54.000Z</time>
      </trkpt>
      <trkpt lat="42.9822900" lon="-2.7838600">
        <ele>834.231995</ele>
        <time>2020-07-17T07:35:03.000Z</time>
      </trkpt>
      <trkpt lat="42.9822090" lon="-2.7837410">
        <ele>834.434998</ele>
        <time>2020-07-17T07:35:12.000Z</time>
      </trkpt>
      <trkpt lat="42.9821950" lon="-2.7837160">
        <ele>834.435974</ele>
        <time>2020-07-17T07:35:13.000Z</time>
      </trkpt>
      <trkpt lat="42.9821150" lon="-2.7835670">
        <ele>835.216980</ele>
        <time>2020-07-17T07:35:20.000Z</time>
      </trkpt>
      <trkpt lat="42.9820690" lon="-2.7834140">
        <ele>836.018005</ele>
        <time>2020-07-17T07:35:27.000Z</time>
      </trkpt>
      <trkpt lat="42.9820590" lon="-2.7833950">
        <ele>836.007996</ele>
        <time>2020-07-17T07:35:28.000Z</time>
      </trkpt>
      <trkpt lat="42.9819950" lon="-2.7832780">
        <ele>837.298035</ele>
        <time>2020-07-17T07:35:34.000Z</time>
      </trkpt>
      <trkpt lat="42.9819850" lon="-2.7832600">
        <ele>837.486023</ele>
        <time>2020-07-17T07:35:35.000Z</time>
      </trkpt>
      <trkpt lat="42.9819320" lon="-2.7831730">
        <ele>838.023987</ele>
        <time>2020-07-17T07:35:40.000Z</time>
      </trkpt>
      <trkpt lat="42.9819010" lon="-2.7830960">
        <ele>838.854004</ele>
        <time>2020-07-17T07:35:44.000Z</time>
      </trkpt>
      <trkpt lat="42.9818760" lon="-2.7830290">
        <ele>839.242004</ele>
        <time>2020-07-17T07:35:47.000Z</time>
      </trkpt>
      <trkpt lat="42.9818280" lon="-2.7829280">
        <ele>839.635986</ele>
        <time>2020-07-17T07:35:52.000Z</time>
      </trkpt>
      <trkpt lat="42.9818110" lon="-2.7828770">
        <ele>840.067993</ele>
        <time>2020-07-17T07:35:55.000Z</time>
      </trkpt>
      <trkpt lat="42.9817520" lon="-2.7827670">
        <ele>840.671021</ele>
        <time>2020-07-17T07:36:01.000Z</time>
      </trkpt>
      <trkpt lat="42.9817270" lon="-2.7826770">
        <ele>840.844971</ele>
        <time>2020-07-17T07:36:05.000Z</time>
      </trkpt>
      <trkpt lat="42.9816980" lon="-2.7825850">
        <ele>841.046997</ele>
        <time>2020-07-17T07:36:09.000Z</time>
      </trkpt>
      <trkpt lat="42.9816150" lon="-2.7823880">
        <ele>841.210999</ele>
        <time>2020-07-17T07:36:18.000Z</time>
      </trkpt>
      <trkpt lat="42.9815610" lon="-2.7822090">
        <ele>841.408020</ele>
        <time>2020-07-17T07:36:25.000Z</time>
      </trkpt>
      <trkpt lat="42.9815480" lon="-2.7821630">
        <ele>841.479004</ele>
        <time>2020-07-17T07:36:27.000Z</time>
      </trkpt>
      <trkpt lat="42.9815130" lon="-2.7820070">
        <ele>841.426941</ele>
        <time>2020-07-17T07:36:33.000Z</time>
      </trkpt>
      <trkpt lat="42.9814510" lon="-2.7818210">
        <ele>841.474976</ele>
        <time>2020-07-17T07:36:42.000Z</time>
      </trkpt>
      <trkpt lat="42.9813960" lon="-2.7816420">
        <ele>841.464966</ele>
        <time>2020-07-17T07:36:50.000Z</time>
      </trkpt>
      <trkpt lat="42.9813640" lon="-2.7815270">
        <ele>841.463013</ele>
        <time>2020-07-17T07:36:56.000Z</time>
      </trkpt>
      <trkpt lat="42.9813200" lon="-2.7813960">
        <ele>841.677002</ele>
        <time>2020-07-17T07:37:03.000Z</time>
      </trkpt>
      <trkpt lat="42.9813110" lon="-2.7813740">
        <ele>841.658997</ele>
        <time>2020-07-17T07:37:04.000Z</time>
      </trkpt>
      <trkpt lat="42.9812630" lon="-2.7812610">
        <ele>841.872009</ele>
        <time>2020-07-17T07:37:09.000Z</time>
      </trkpt>
      <trkpt lat="42.9812330" lon="-2.7811990">
        <ele>842.479004</ele>
        <time>2020-07-17T07:37:13.000Z</time>
      </trkpt>
      <trkpt lat="42.9812210" lon="-2.7811850">
        <ele>842.404968</ele>
        <time>2020-07-17T07:37:15.000Z</time>
      </trkpt>
      <trkpt lat="42.9812200" lon="-2.7811810">
        <ele>842.424988</ele>
        <time>2020-07-17T07:37:16.000Z</time>
      </trkpt>
      <trkpt lat="42.9810870" lon="-2.7809070">
        <ele>843.607971</ele>
        <time>2020-07-17T07:37:46.000Z</time>
      </trkpt>
      <trkpt lat="42.9810570" lon="-2.7808460">
        <ele>844.022034</ele>
        <time>2020-07-17T07:37:49.000Z</time>
      </trkpt>
      <trkpt lat="42.9809710" lon="-2.7807700">
        <ele>844.090027</ele>
        <time>2020-07-17T07:37:55.000Z</time>
      </trkpt>
      <trkpt lat="42.9809210" lon="-2.7806570">
        <ele>844.447998</ele>
        <time>2020-07-17T07:38:01.000Z</time>
      </trkpt>
      <trkpt lat="42.9809360" lon="-2.7805730">
        <ele>844.647949</ele>
        <time>2020-07-17T07:38:05.000Z</time>
      </trkpt>
      <trkpt lat="42.9809440" lon="-2.7805510">
        <ele>844.875977</ele>
        <time>2020-07-17T07:38:07.000Z</time>
      </trkpt>
      <trkpt lat="42.9809480" lon="-2.7805390">
        <ele>844.839966</ele>
        <time>2020-07-17T07:38:08.000Z</time>
      </trkpt>
      <trkpt lat="42.9810000" lon="-2.7804900">
        <ele>845.481995</ele>
        <time>2020-07-17T07:38:12.000Z</time>
      </trkpt>
      <trkpt lat="42.9810420" lon="-2.7804530">
        <ele>845.655029</ele>
        <time>2020-07-17T07:38:14.000Z</time>
      </trkpt>
      <trkpt lat="42.9811060" lon="-2.7803970">
        <ele>845.630981</ele>
        <time>2020-07-17T07:38:18.000Z</time>
      </trkpt>
      <trkpt lat="42.9811300" lon="-2.7803790">
        <ele>845.861023</ele>
        <time>2020-07-17T07:38:19.000Z</time>
      </trkpt>
      <trkpt lat="42.9811950" lon="-2.7803750">
        <ele>846.007019</ele>
        <time>2020-07-17T07:38:23.000Z</time>
      </trkpt>
      <trkpt lat="42.9812050" lon="-2.7803640">
        <ele>846.408020</ele>
        <time>2020-07-17T07:38:53.000Z</time>
      </trkpt>
      <trkpt lat="42.9812390" lon="-2.7803140">
        <ele>846.627991</ele>
        <time>2020-07-17T07:38:56.000Z</time>
      </trkpt>
      <trkpt lat="42.9812600" lon="-2.7802740">
        <ele>846.265991</ele>
        <time>2020-07-17T07:38:58.000Z</time>
      </trkpt>
      <trkpt lat="42.9813100" lon="-2.7801630">
        <ele>846.264038</ele>
        <time>2020-07-17T07:39:03.000Z</time>
      </trkpt>
      <trkpt lat="42.9813490" lon="-2.7801170">
        <ele>846.223999</ele>
        <time>2020-07-17T07:39:06.000Z</time>
      </trkpt>
      <trkpt lat="42.9814400" lon="-2.7800200">
        <ele>846.052002</ele>
        <time>2020-07-17T07:39:13.000Z</time>
      </trkpt>
      <trkpt lat="42.9814910" lon="-2.7799410">
        <ele>846.286011</ele>
        <time>2020-07-17T07:39:19.000Z</time>
      </trkpt>
      <trkpt lat="42.9815050" lon="-2.7799300">
        <ele>846.248047</ele>
        <time>2020-07-17T07:39:20.000Z</time>
      </trkpt>
      <trkpt lat="42.9816120" lon="-2.7798310">
        <ele>846.841064</ele>
        <time>2020-07-17T07:39:27.000Z</time>
      </trkpt>
      <trkpt lat="42.9817300" lon="-2.7796770">
        <ele>847.076050</ele>
        <time>2020-07-17T07:39:34.000Z</time>
      </trkpt>
      <trkpt lat="42.9817970" lon="-2.7795720">
        <ele>847.090027</ele>
        <time>2020-07-17T07:39:39.000Z</time>
      </trkpt>
      <trkpt lat="42.9818760" lon="-2.7794060">
        <ele>846.819031</ele>
        <time>2020-07-17T07:39:47.000Z</time>
      </trkpt>
      <trkpt lat="42.9818850" lon="-2.7792740">
        <ele>846.807983</ele>
        <time>2020-07-17T07:39:53.000Z</time>
      </trkpt>
      <trkpt lat="42.9818640" lon="-2.7791030">
        <ele>847.031982</ele>
        <time>2020-07-17T07:39:59.000Z</time>
      </trkpt>
      <trkpt lat="42.9818640" lon="-2.7790770">
        <ele>847.010010</ele>
        <time>2020-07-17T07:40:00.000Z</time>
      </trkpt>
      <trkpt lat="42.9818370" lon="-2.7789020">
        <ele>847.458008</ele>
        <time>2020-07-17T07:40:06.000Z</time>
      </trkpt>
      <trkpt lat="42.9818200" lon="-2.7787240">
        <ele>847.498047</ele>
        <time>2020-07-17T07:40:13.000Z</time>
      </trkpt>
      <trkpt lat="42.9818160" lon="-2.7785710">
        <ele>848.096008</ele>
        <time>2020-07-17T07:40:19.000Z</time>
      </trkpt>
      <trkpt lat="42.9818320" lon="-2.7785060">
        <ele>848.450012</ele>
        <time>2020-07-17T07:40:22.000Z</time>
      </trkpt>
      <trkpt lat="42.9818390" lon="-2.7783450">
        <ele>849.052002</ele>
        <time>2020-07-17T07:40:28.000Z</time>
      </trkpt>
      <trkpt lat="42.9818390" lon="-2.7783230">
        <ele>849.065002</ele>
        <time>2020-07-17T07:40:29.000Z</time>
      </trkpt>
      <trkpt lat="42.9818840" lon="-2.7780690">
        <ele>849.273010</ele>
        <time>2020-07-17T07:40:39.000Z</time>
      </trkpt>
      <trkpt lat="42.9819030" lon="-2.7777350">
        <ele>849.285034</ele>
        <time>2020-07-17T07:40:47.000Z</time>
      </trkpt>
      <trkpt lat="42.9820040" lon="-2.7774070">
        <ele>848.213013</ele>
        <time>2020-07-17T07:40:55.000Z</time>
      </trkpt>
      <trkpt lat="42.9820720" lon="-2.7772630">
        <ele>847.408020</ele>
        <time>2020-07-17T07:40:59.000Z</time>
      </trkpt>
      <trkpt lat="42.9821060" lon="-2.7771600">
        <ele>846.472046</ele>
        <time>2020-07-17T07:41:02.000Z</time>
      </trkpt>
      <trkpt lat="42.9821180" lon="-2.7771250">
        <ele>846.029968</ele>
        <time>2020-07-17T07:41:03.000Z</time>
      </trkpt>
      <trkpt lat="42.9821890" lon="-2.7769710">
        <ele>844.828003</ele>
        <time>2020-07-17T07:41:06.000Z</time>
      </trkpt>
      <trkpt lat="42.9822520" lon="-2.7768650">
        <ele>844.038025</ele>
        <time>2020-07-17T07:41:08.000Z</time>
      </trkpt>
      <trkpt lat="42.9822860" lon="-2.7768130">
        <ele>843.675964</ele>
        <time>2020-07-17T07:41:09.000Z</time>
      </trkpt>
      <trkpt lat="42.9823870" lon="-2.7766360">
        <ele>842.450012</ele>
        <time>2020-07-17T07:41:12.000Z</time>
      </trkpt>
      <trkpt lat="42.9824560" lon="-2.7765390">
        <ele>841.041992</ele>
        <time>2020-07-17T07:41:14.000Z</time>
      </trkpt>
      <trkpt lat="42.9824830" lon="-2.7765010">
        <ele>840.625000</ele>
        <time>2020-07-17T07:41:15.000Z</time>
      </trkpt>
      <trkpt lat="42.9825280" lon="-2.7764450">
        <ele>839.848999</ele>
        <time>2020-07-17T07:41:17.000Z</time>
      </trkpt>
      <trkpt lat="42.9825920" lon="-2.7763880">
        <ele>839.002014</ele>
        <time>2020-07-17T07:41:20.000Z</time>
      </trkpt>
      <trkpt lat="42.9826120" lon="-2.7763680">
        <ele>838.822021</ele>
        <time>2020-07-17T07:41:21.000Z</time>
      </trkpt>
      <trkpt lat="42.9826350" lon="-2.7763500">
        <ele>838.208008</ele>
        <time>2020-07-17T07:41:22.000Z</time>
      </trkpt>
      <trkpt lat="42.9826990" lon="-2.7762850">
        <ele>837.878967</ele>
        <time>2020-07-17T07:41:25.000Z</time>
      </trkpt>
      <trkpt lat="42.9828420" lon="-2.7761780">
        <ele>837.286987</ele>
        <time>2020-07-17T07:41:30.000Z</time>
      </trkpt>
      <trkpt lat="42.9830370" lon="-2.7760280">
        <ele>836.664978</ele>
        <time>2020-07-17T07:41:36.000Z</time>
      </trkpt>
      <trkpt lat="42.9831380" lon="-2.7759310">
        <ele>836.014954</ele>
        <time>2020-07-17T07:41:40.000Z</time>
      </trkpt>
      <trkpt lat="42.9832030" lon="-2.7758680">
        <ele>835.683044</ele>
        <time>2020-07-17T07:41:43.000Z</time>
      </trkpt>
      <trkpt lat="42.9832730" lon="-2.7757360">
        <ele>835.627014</ele>
        <time>2020-07-17T07:41:49.000Z</time>
      </trkpt>
      <trkpt lat="42.9833230" lon="-2.7755570">
        <ele>836.819031</ele>
        <time>2020-07-17T07:41:56.000Z</time>
      </trkpt>
      <trkpt lat="42.9833310" lon="-2.7755340">
        <ele>837.022034</ele>
        <time>2020-07-17T07:41:57.000Z</time>
      </trkpt>
      <trkpt lat="42.9833480" lon="-2.7754380">
        <ele>838.056030</ele>
        <time>2020-07-17T07:42:01.000Z</time>
      </trkpt>
      <trkpt lat="42.9833880" lon="-2.7753850">
        <ele>838.658997</ele>
        <time>2020-07-17T07:42:03.000Z</time>
      </trkpt>
      <trkpt lat="42.9834230" lon="-2.7753320">
        <ele>839.213989</ele>
        <time>2020-07-17T07:42:05.000Z</time>
      </trkpt>
      <trkpt lat="42.9835120" lon="-2.7752290">
        <ele>840.408020</ele>
        <time>2020-07-17T07:42:10.000Z</time>
      </trkpt>
      <trkpt lat="42.9836090" lon="-2.7751470">
        <ele>841.450012</ele>
        <time>2020-07-17T07:42:15.000Z</time>
      </trkpt>
      <trkpt lat="42.9836400" lon="-2.7751150">
        <ele>841.888062</ele>
        <time>2020-07-17T07:42:17.000Z</time>
      </trkpt>
      <trkpt lat="42.9837360" lon="-2.7749270">
        <ele>842.416016</ele>
        <time>2020-07-17T07:42:24.000Z</time>
      </trkpt>
      <trkpt lat="42.9837610" lon="-2.7748430">
        <ele>842.436035</ele>
        <time>2020-07-17T07:42:27.000Z</time>
      </trkpt>
      <trkpt lat="42.9837760" lon="-2.7747340">
        <ele>842.414001</ele>
        <time>2020-07-17T07:42:31.000Z</time>
      </trkpt>
      <trkpt lat="42.9838300" lon="-2.7745480">
        <ele>842.277954</ele>
        <time>2020-07-17T07:42:38.000Z</time>
      </trkpt>
      <trkpt lat="42.9839130" lon="-2.7743980">
        <ele>842.030029</ele>
        <time>2020-07-17T07:42:44.000Z</time>
      </trkpt>
      <trkpt lat="42.9840110" lon="-2.7741880">
        <ele>842.013000</ele>
        <time>2020-07-17T07:42:51.000Z</time>
      </trkpt>
      <trkpt lat="42.9841120" lon="-2.7740130">
        <ele>841.817993</ele>
        <time>2020-07-17T07:42:57.000Z</time>
      </trkpt>
      <trkpt lat="42.9841800" lon="-2.7738430">
        <ele>841.498047</ele>
        <time>2020-07-17T07:43:03.000Z</time>
      </trkpt>
      <trkpt lat="42.9842640" lon="-2.7736150">
        <ele>841.416992</ele>
        <time>2020-07-17T07:43:11.000Z</time>
      </trkpt>
      <trkpt lat="42.9842910" lon="-2.7734370">
        <ele>841.207947</ele>
        <time>2020-07-17T07:43:17.000Z</time>
      </trkpt>
      <trkpt lat="42.9843010" lon="-2.7732810">
        <ele>841.286011</ele>
        <time>2020-07-17T07:43:22.000Z</time>
      </trkpt>
      <trkpt lat="42.9842410" lon="-2.7730680">
        <ele>841.083984</ele>
        <time>2020-07-17T07:43:26.000Z</time>
      </trkpt>
      <trkpt lat="42.9842200" lon="-2.7730160">
        <ele>840.892029</ele>
        <time>2020-07-17T07:43:27.000Z</time>
      </trkpt>
      <trkpt lat="42.9841380" lon="-2.7728200">
        <ele>839.461975</ele>
        <time>2020-07-17T07:43:31.000Z</time>
      </trkpt>
      <trkpt lat="42.9841130" lon="-2.7727210">
        <ele>838.640015</ele>
        <time>2020-07-17T07:43:33.000Z</time>
      </trkpt>
      <trkpt lat="42.9841040" lon="-2.7726710">
        <ele>838.273987</ele>
        <time>2020-07-17T07:43:34.000Z</time>
      </trkpt>
      <trkpt lat="42.9840580" lon="-2.7723620">
        <ele>837.455994</ele>
        <time>2020-07-17T07:43:39.000Z</time>
      </trkpt>
      <trkpt lat="42.9840380" lon="-2.7722950">
        <ele>837.299011</ele>
        <time>2020-07-17T07:43:40.000Z</time>
      </trkpt>
      <trkpt lat="42.9839800" lon="-2.7721390">
        <ele>836.012024</ele>
        <time>2020-07-17T07:43:43.000Z</time>
      </trkpt>
      <trkpt lat="42.9839680" lon="-2.7720950">
        <ele>835.631958</ele>
        <time>2020-07-17T07:43:44.000Z</time>
      </trkpt>
      <trkpt lat="42.9839540" lon="-2.7719940">
        <ele>834.604980</ele>
        <time>2020-07-17T07:43:46.000Z</time>
      </trkpt>
      <trkpt lat="42.9839520" lon="-2.7718280">
        <ele>833.807983</ele>
        <time>2020-07-17T07:43:49.000Z</time>
      </trkpt>
      <trkpt lat="42.9839530" lon="-2.7717010">
        <ele>833.475952</ele>
        <time>2020-07-17T07:43:51.000Z</time>
      </trkpt>
      <trkpt lat="42.9839740" lon="-2.7713970">
        <ele>832.614014</ele>
        <time>2020-07-17T07:43:55.000Z</time>
      </trkpt>
      <trkpt lat="42.9839900" lon="-2.7713310">
        <ele>832.231995</ele>
        <time>2020-07-17T07:43:56.000Z</time>
      </trkpt>
      <trkpt lat="42.9840060" lon="-2.7712650">
        <ele>832.081970</ele>
        <time>2020-07-17T07:43:57.000Z</time>
      </trkpt>
      <trkpt lat="42.9840410" lon="-2.7711260">
        <ele>831.890015</ele>
        <time>2020-07-17T07:43:59.000Z</time>
      </trkpt>
      <trkpt lat="42.9840720" lon="-2.7709910">
        <ele>831.074036</ele>
        <time>2020-07-17T07:44:01.000Z</time>
      </trkpt>
      <trkpt lat="42.9840880" lon="-2.7707850">
        <ele>830.466003</ele>
        <time>2020-07-17T07:44:04.000Z</time>
      </trkpt>
      <trkpt lat="42.9840920" lon="-2.7706570">
        <ele>829.879028</ele>
        <time>2020-07-17T07:44:06.000Z</time>
      </trkpt>
      <trkpt lat="42.9840870" lon="-2.7705960">
        <ele>829.639038</ele>
        <time>2020-07-17T07:44:07.000Z</time>
      </trkpt>
      <trkpt lat="42.9840320" lon="-2.7704790">
        <ele>829.001038</ele>
        <time>2020-07-17T07:44:09.000Z</time>
      </trkpt>
      <trkpt lat="42.9839930" lon="-2.7704310">
        <ele>828.620972</ele>
        <time>2020-07-17T07:44:10.000Z</time>
      </trkpt>
      <trkpt lat="42.9839480" lon="-2.7703860">
        <ele>828.608032</ele>
        <time>2020-07-17T07:44:11.000Z</time>
      </trkpt>
      <trkpt lat="42.9838050" lon="-2.7702600">
        <ele>827.838013</ele>
        <time>2020-07-17T07:44:14.000Z</time>
      </trkpt>
      <trkpt lat="42.9836380" lon="-2.7700960">
        <ele>826.835999</ele>
        <time>2020-07-17T07:44:17.000Z</time>
      </trkpt>
      <trkpt lat="42.9835870" lon="-2.7700250">
        <ele>826.674011</ele>
        <time>2020-07-17T07:44:18.000Z</time>
      </trkpt>
      <trkpt lat="42.9835400" lon="-2.7699530">
        <ele>826.683960</ele>
        <time>2020-07-17T07:44:19.000Z</time>
      </trkpt>
      <trkpt lat="42.9834040" lon="-2.7697560">
        <ele>825.242004</ele>
        <time>2020-07-17T07:44:22.000Z</time>
      </trkpt>
      <trkpt lat="42.9833130" lon="-2.7696010">
        <ele>824.675964</ele>
        <time>2020-07-17T07:44:24.000Z</time>
      </trkpt>
      <trkpt lat="42.9832350" lon="-2.7694390">
        <ele>824.018005</ele>
        <time>2020-07-17T07:44:26.000Z</time>
      </trkpt>
      <trkpt lat="42.9831470" lon="-2.7692240">
        <ele>822.661011</ele>
        <time>2020-07-17T07:44:29.000Z</time>
      </trkpt>
      <trkpt lat="42.9830760" lon="-2.7690650">
        <ele>821.289063</ele>
        <time>2020-07-17T07:44:32.000Z</time>
      </trkpt>
      <trkpt lat="42.9830630" lon="-2.7690250">
        <ele>820.806030</ele>
        <time>2020-07-17T07:44:33.000Z</time>
      </trkpt>
      <trkpt lat="42.9830460" lon="-2.7689870">
        <ele>820.026001</ele>
        <time>2020-07-17T07:44:34.000Z</time>
      </trkpt>
      <trkpt lat="42.9829890" lon="-2.7689020">
        <ele>819.007996</ele>
        <time>2020-07-17T07:44:37.000Z</time>
      </trkpt>
      <trkpt lat="42.9829520" lon="-2.7688630">
        <ele>818.052979</ele>
        <time>2020-07-17T07:44:39.000Z</time>
      </trkpt>
      <trkpt lat="42.9829400" lon="-2.7688390">
        <ele>817.621033</ele>
        <time>2020-07-17T07:44:40.000Z</time>
      </trkpt>
      <trkpt lat="42.9828970" lon="-2.7687990">
        <ele>816.658997</ele>
        <time>2020-07-17T07:44:42.000Z</time>
      </trkpt>
      <trkpt lat="42.9828430" lon="-2.7687580">
        <ele>815.648987</ele>
        <time>2020-07-17T07:44:44.000Z</time>
      </trkpt>
      <trkpt lat="42.9828060" lon="-2.7687410">
        <ele>814.897034</ele>
        <time>2020-07-17T07:44:45.000Z</time>
      </trkpt>
      <trkpt lat="42.9827720" lon="-2.7687280">
        <ele>814.440979</ele>
        <time>2020-07-17T07:44:46.000Z</time>
      </trkpt>
      <trkpt lat="42.9826280" lon="-2.7686910">
        <ele>813.423035</ele>
        <time>2020-07-17T07:44:50.000Z</time>
      </trkpt>
      <trkpt lat="42.9825450" lon="-2.7686650">
        <ele>812.446045</ele>
        <time>2020-07-17T07:44:52.000Z</time>
      </trkpt>
      <trkpt lat="42.9825080" lon="-2.7686550">
        <ele>812.057007</ele>
        <time>2020-07-17T07:44:53.000Z</time>
      </trkpt>
      <trkpt lat="42.9824320" lon="-2.7686450">
        <ele>810.599976</ele>
        <time>2020-07-17T07:44:55.000Z</time>
      </trkpt>
      <trkpt lat="42.9823490" lon="-2.7686400">
        <ele>809.619995</ele>
        <time>2020-07-17T07:44:57.000Z</time>
      </trkpt>
      <trkpt lat="42.9822780" lon="-2.7686320">
        <ele>808.208008</ele>
        <time>2020-07-17T07:44:59.000Z</time>
      </trkpt>
      <trkpt lat="42.9822050" lon="-2.7686280">
        <ele>806.820007</ele>
        <time>2020-07-17T07:45:01.000Z</time>
      </trkpt>
      <trkpt lat="42.9821370" lon="-2.7686250">
        <ele>805.278015</ele>
        <time>2020-07-17T07:45:03.000Z</time>
      </trkpt>
      <trkpt lat="42.9820730" lon="-2.7686230">
        <ele>803.866028</ele>
        <time>2020-07-17T07:45:05.000Z</time>
      </trkpt>
      <trkpt lat="42.9819990" lon="-2.7686300">
        <ele>802.255981</ele>
        <time>2020-07-17T07:45:07.000Z</time>
      </trkpt>
      <trkpt lat="42.9819290" lon="-2.7686300">
        <ele>801.243958</ele>
        <time>2020-07-17T07:45:09.000Z</time>
      </trkpt>
      <trkpt lat="42.9818330" lon="-2.7686330">
        <ele>799.687988</ele>
        <time>2020-07-17T07:45:12.000Z</time>
      </trkpt>
      <trkpt lat="42.9817730" lon="-2.7686290">
        <ele>797.430054</ele>
        <time>2020-07-17T07:45:14.000Z</time>
      </trkpt>
      <trkpt lat="42.9817410" lon="-2.7686230">
        <ele>797.062988</ele>
        <time>2020-07-17T07:45:15.000Z</time>
      </trkpt>
      <trkpt lat="42.9817050" lon="-2.7686230">
        <ele>796.494995</ele>
        <time>2020-07-17T07:45:16.000Z</time>
      </trkpt>
      <trkpt lat="42.9816280" lon="-2.7686150">
        <ele>795.249023</ele>
        <time>2020-07-17T07:45:18.000Z</time>
      </trkpt>
      <trkpt lat="42.9815350" lon="-2.7685880">
        <ele>794.022949</ele>
        <time>2020-07-17T07:45:20.000Z</time>
      </trkpt>
      <trkpt lat="42.9814770" lon="-2.7685640">
        <ele>793.408020</ele>
        <time>2020-07-17T07:45:21.000Z</time>
      </trkpt>
      <trkpt lat="42.9814140" lon="-2.7685280">
        <ele>792.484009</ele>
        <time>2020-07-17T07:45:22.000Z</time>
      </trkpt>
      <trkpt lat="42.9812780" lon="-2.7684630">
        <ele>791.041992</ele>
        <time>2020-07-17T07:45:24.000Z</time>
      </trkpt>
      <trkpt lat="42.9811500" lon="-2.7683930">
        <ele>789.429993</ele>
        <time>2020-07-17T07:45:26.000Z</time>
      </trkpt>
      <trkpt lat="42.9810440" lon="-2.7683170">
        <ele>787.650024</ele>
        <time>2020-07-17T07:45:28.000Z</time>
      </trkpt>
      <trkpt lat="42.9809510" lon="-2.7682520">
        <ele>786.257996</ele>
        <time>2020-07-17T07:45:30.000Z</time>
      </trkpt>
      <trkpt lat="42.9809140" lon="-2.7682220">
        <ele>785.442017</ele>
        <time>2020-07-17T07:45:31.000Z</time>
      </trkpt>
      <trkpt lat="42.9808790" lon="-2.7681910">
        <ele>784.684021</ele>
        <time>2020-07-17T07:45:32.000Z</time>
      </trkpt>
      <trkpt lat="42.9808180" lon="-2.7681320">
        <ele>783.016968</ele>
        <time>2020-07-17T07:45:34.000Z</time>
      </trkpt>
      <trkpt lat="42.9807670" lon="-2.7680500">
        <ele>781.811035</ele>
        <time>2020-07-17T07:45:36.000Z</time>
      </trkpt>
      <trkpt lat="42.9807440" lon="-2.7680100">
        <ele>781.221008</ele>
        <time>2020-07-17T07:45:37.000Z</time>
      </trkpt>
      <trkpt lat="42.9807060" lon="-2.7679130">
        <ele>780.203003</ele>
        <time>2020-07-17T07:45:39.000Z</time>
      </trkpt>
      <trkpt lat="42.9806770" lon="-2.7678120">
        <ele>778.608032</ele>
        <time>2020-07-17T07:45:41.000Z</time>
      </trkpt>
      <trkpt lat="42.9806540" lon="-2.7677050">
        <ele>777.645996</ele>
        <time>2020-07-17T07:45:43.000Z</time>
      </trkpt>
      <trkpt lat="42.9806180" lon="-2.7675480">
        <ele>776.083984</ele>
        <time>2020-07-17T07:45:46.000Z</time>
      </trkpt>
      <trkpt lat="42.9806260" lon="-2.7674080">
        <ele>774.641968</ele>
        <time>2020-07-17T07:45:49.000Z</time>
      </trkpt>
      <trkpt lat="42.9806510" lon="-2.7673130">
        <ele>773.662048</ele>
        <time>2020-07-17T07:45:51.000Z</time>
      </trkpt>
      <trkpt lat="42.9806650" lon="-2.7672120">
        <ele>772.430054</ele>
        <time>2020-07-17T07:45:53.000Z</time>
      </trkpt>
      <trkpt lat="42.9806770" lon="-2.7671020">
        <ele>771.093994</ele>
        <time>2020-07-17T07:45:55.000Z</time>
      </trkpt>
      <trkpt lat="42.9806720" lon="-2.7669390">
        <ele>769.485962</ele>
        <time>2020-07-17T07:45:58.000Z</time>
      </trkpt>
      <trkpt lat="42.9806580" lon="-2.7668830">
        <ele>768.828979</ele>
        <time>2020-07-17T07:45:59.000Z</time>
      </trkpt>
      <trkpt lat="42.9806400" lon="-2.7668280">
        <ele>768.241028</ele>
        <time>2020-07-17T07:46:00.000Z</time>
      </trkpt>
      <trkpt lat="42.9805790" lon="-2.7666720">
        <ele>766.880981</ele>
        <time>2020-07-17T07:46:03.000Z</time>
      </trkpt>
      <trkpt lat="42.9805060" lon="-2.7665070">
        <ele>765.408997</ele>
        <time>2020-07-17T07:46:06.000Z</time>
      </trkpt>
      <trkpt lat="42.9804830" lon="-2.7664500">
        <ele>765.007996</ele>
        <time>2020-07-17T07:46:07.000Z</time>
      </trkpt>
      <trkpt lat="42.9804470" lon="-2.7663310">
        <ele>763.888977</ele>
        <time>2020-07-17T07:46:09.000Z</time>
      </trkpt>
      <trkpt lat="42.9804140" lon="-2.7662240">
        <ele>762.896973</ele>
        <time>2020-07-17T07:46:11.000Z</time>
      </trkpt>
      <trkpt lat="42.9803870" lon="-2.7661280">
        <ele>761.424988</ele>
        <time>2020-07-17T07:46:13.000Z</time>
      </trkpt>
      <trkpt lat="42.9803630" lon="-2.7660440">
        <ele>759.894958</ele>
        <time>2020-07-17T07:46:15.000Z</time>
      </trkpt>
      <trkpt lat="42.9803430" lon="-2.7659730">
        <ele>758.422974</ele>
        <time>2020-07-17T07:46:17.000Z</time>
      </trkpt>
      <trkpt lat="42.9803260" lon="-2.7659210">
        <ele>756.887024</ele>
        <time>2020-07-17T07:46:19.000Z</time>
      </trkpt>
      <trkpt lat="42.9803190" lon="-2.7659030">
        <ele>755.429016</ele>
        <time>2020-07-17T07:46:21.000Z</time>
      </trkpt>
      <trkpt lat="42.9803240" lon="-2.7658940">
        <ele>754.092041</ele>
        <time>2020-07-17T07:46:23.000Z</time>
      </trkpt>
      <trkpt lat="42.9803190" lon="-2.7658840">
        <ele>753.476990</ele>
        <time>2020-07-17T07:46:24.000Z</time>
      </trkpt>
      <trkpt lat="42.9803120" lon="-2.7658620">
        <ele>752.860962</ele>
        <time>2020-07-17T07:46:26.000Z</time>
      </trkpt>
      <trkpt lat="42.9802790" lon="-2.7657890">
        <ele>752.226990</ele>
        <time>2020-07-17T07:46:29.000Z</time>
      </trkpt>
      <trkpt lat="42.9802550" lon="-2.7657030">
        <ele>751.608032</ele>
        <time>2020-07-17T07:46:31.000Z</time>
      </trkpt>
      <trkpt lat="42.9801680" lon="-2.7655260">
        <ele>750.421997</ele>
        <time>2020-07-17T07:46:34.000Z</time>
      </trkpt>
      <trkpt lat="42.9800450" lon="-2.7653330">
        <ele>749.239990</ele>
        <time>2020-07-17T07:46:37.000Z</time>
      </trkpt>
      <trkpt lat="42.9799790" lon="-2.7652460">
        <ele>748.227966</ele>
        <time>2020-07-17T07:46:39.000Z</time>
      </trkpt>
      <trkpt lat="42.9799510" lon="-2.7652110">
        <ele>747.417969</ele>
        <time>2020-07-17T07:46:40.000Z</time>
      </trkpt>
      <trkpt lat="42.9798770" lon="-2.7651690">
        <ele>746.296021</ele>
        <time>2020-07-17T07:46:42.000Z</time>
      </trkpt>
      <trkpt lat="42.9798380" lon="-2.7651570">
        <ele>745.669983</ele>
        <time>2020-07-17T07:46:43.000Z</time>
      </trkpt>
      <trkpt lat="42.9797630" lon="-2.7651280">
        <ele>744.852051</ele>
        <time>2020-07-17T07:46:45.000Z</time>
      </trkpt>
      <trkpt lat="42.9797010" lon="-2.7651380">
        <ele>744.035034</ele>
        <time>2020-07-17T07:46:48.000Z</time>
      </trkpt>
      <trkpt lat="42.9796720" lon="-2.7651300">
        <ele>743.483032</ele>
        <time>2020-07-17T07:46:49.000Z</time>
      </trkpt>
      <trkpt lat="42.9795960" lon="-2.7651130">
        <ele>742.424988</ele>
        <time>2020-07-17T07:46:51.000Z</time>
      </trkpt>
      <trkpt lat="42.9795230" lon="-2.7650830">
        <ele>740.817017</ele>
        <time>2020-07-17T07:46:53.000Z</time>
      </trkpt>
      <trkpt lat="42.9794880" lon="-2.7650790">
        <ele>740.408020</ele>
        <time>2020-07-17T07:46:54.000Z</time>
      </trkpt>
      <trkpt lat="42.9794270" lon="-2.7650560">
        <ele>739.482971</ele>
        <time>2020-07-17T07:46:56.000Z</time>
      </trkpt>
      <trkpt lat="42.9793360" lon="-2.7649810">
        <ele>738.040955</ele>
        <time>2020-07-17T07:46:59.000Z</time>
      </trkpt>
      <trkpt lat="42.9793130" lon="-2.7649410">
        <ele>737.079041</ele>
        <time>2020-07-17T07:47:00.000Z</time>
      </trkpt>
      <trkpt lat="42.9792690" lon="-2.7649080">
        <ele>735.848938</ele>
        <time>2020-07-17T07:47:01.000Z</time>
      </trkpt>
      <trkpt lat="42.9791730" lon="-2.7648210">
        <ele>734.447021</ele>
        <time>2020-07-17T07:47:03.000Z</time>
      </trkpt>
      <trkpt lat="42.9791160" lon="-2.7647710">
        <ele>733.830994</ele>
        <time>2020-07-17T07:47:04.000Z</time>
      </trkpt>
      <trkpt lat="42.9790500" lon="-2.7647160">
        <ele>733.283020</ele>
        <time>2020-07-17T07:47:05.000Z</time>
      </trkpt>
      <trkpt lat="42.9789190" lon="-2.7646060">
        <ele>731.825989</ele>
        <time>2020-07-17T07:47:07.000Z</time>
      </trkpt>
      <trkpt lat="42.9788130" lon="-2.7645080">
        <ele>730.431030</ele>
        <time>2020-07-17T07:47:09.000Z</time>
      </trkpt>
      <trkpt lat="42.9787380" lon="-2.7644370">
        <ele>728.661011</ele>
        <time>2020-07-17T07:47:11.000Z</time>
      </trkpt>
      <trkpt lat="42.9787160" lon="-2.7644080">
        <ele>726.607056</ele>
        <time>2020-07-17T07:47:12.000Z</time>
      </trkpt>
      <trkpt lat="42.9786930" lon="-2.7643760">
        <ele>725.408020</ele>
        <time>2020-07-17T07:47:13.000Z</time>
      </trkpt>
      <trkpt lat="42.9786760" lon="-2.7643470">
        <ele>724.468018</ele>
        <time>2020-07-17T07:47:14.000Z</time>
      </trkpt>
      <trkpt lat="42.9786520" lon="-2.7642780">
        <ele>722.626038</ele>
        <time>2020-07-17T07:47:16.000Z</time>
      </trkpt>
      <trkpt lat="42.9786540" lon="-2.7642220">
        <ele>721.614014</ele>
        <time>2020-07-17T07:47:18.000Z</time>
      </trkpt>
      <trkpt lat="42.9786680" lon="-2.7642010">
        <ele>721.264038</ele>
        <time>2020-07-17T07:47:19.000Z</time>
      </trkpt>
      <trkpt lat="42.9787180" lon="-2.7641190">
        <ele>719.852051</ele>
        <time>2020-07-17T07:47:23.000Z</time>
      </trkpt>
      <trkpt lat="42.9787410" lon="-2.7640800">
        <ele>719.296021</ele>
        <time>2020-07-17T07:47:25.000Z</time>
      </trkpt>
      <trkpt lat="42.9787770" lon="-2.7640320">
        <ele>718.817993</ele>
        <time>2020-07-17T07:47:28.000Z</time>
      </trkpt>
      <trkpt lat="42.9788460" lon="-2.7640310">
        <ele>718.080994</ele>
        <time>2020-07-17T07:47:31.000Z</time>
      </trkpt>
      <trkpt lat="42.9788710" lon="-2.7640340">
        <ele>717.817017</ele>
        <time>2020-07-17T07:47:32.000Z</time>
      </trkpt>
      <trkpt lat="42.9789300" lon="-2.7640140">
        <ele>716.487000</ele>
        <time>2020-07-17T07:47:35.000Z</time>
      </trkpt>
      <trkpt lat="42.9789890" lon="-2.7639890">
        <ele>715.015015</ele>
        <time>2020-07-17T07:47:38.000Z</time>
      </trkpt>
      <trkpt lat="42.9790050" lon="-2.7639810">
        <ele>714.808044</ele>
        <time>2020-07-17T07:47:39.000Z</time>
      </trkpt>
      <trkpt lat="42.9791090" lon="-2.7639670">
        <ele>714.016052</ele>
        <time>2020-07-17T07:47:43.000Z</time>
      </trkpt>
      <trkpt lat="42.9792090" lon="-2.7639580">
        <ele>713.813965</ele>
        <time>2020-07-17T07:47:46.000Z</time>
      </trkpt>
      <trkpt lat="42.9793340" lon="-2.7639770">
        <ele>712.821960</ele>
        <time>2020-07-17T07:47:49.000Z</time>
      </trkpt>
      <trkpt lat="42.9794180" lon="-2.7639890">
        <ele>712.262024</ele>
        <time>2020-07-17T07:47:51.000Z</time>
      </trkpt>
      <trkpt lat="42.9794570" lon="-2.7639980">
        <ele>711.869995</ele>
        <time>2020-07-17T07:47:52.000Z</time>
      </trkpt>
      <trkpt lat="42.9795770" lon="-2.7640000">
        <ele>710.624023</ele>
        <time>2020-07-17T07:47:56.000Z</time>
      </trkpt>
      <trkpt lat="42.9795910" lon="-2.7639840">
        <ele>710.065979</ele>
        <time>2020-07-17T07:47:57.000Z</time>
      </trkpt>
      <trkpt lat="42.9796120" lon="-2.7639330">
        <ele>709.618958</ele>
        <time>2020-07-17T07:48:00.000Z</time>
      </trkpt>
      <trkpt lat="42.9796220" lon="-2.7639130">
        <ele>709.488953</ele>
        <time>2020-07-17T07:48:01.000Z</time>
      </trkpt>
      <trkpt lat="42.9796530" lon="-2.7638450">
        <ele>709.406006</ele>
        <time>2020-07-17T07:48:04.000Z</time>
      </trkpt>
      <trkpt lat="42.9796890" lon="-2.7637350">
        <ele>709.825989</ele>
        <time>2020-07-17T07:48:09.000Z</time>
      </trkpt>
      <trkpt lat="42.9797130" lon="-2.7636060">
        <ele>710.608032</ele>
        <time>2020-07-17T07:48:14.000Z</time>
      </trkpt>
      <trkpt lat="42.9797080" lon="-2.7635420">
        <ele>711.092957</ele>
        <time>2020-07-17T07:48:16.000Z</time>
      </trkpt>
      <trkpt lat="42.9797100" lon="-2.7634770">
        <ele>711.671021</ele>
        <time>2020-07-17T07:48:18.000Z</time>
      </trkpt>
      <trkpt lat="42.9797590" lon="-2.7633630">
        <ele>712.218994</ele>
        <time>2020-07-17T07:48:22.000Z</time>
      </trkpt>
      <trkpt lat="42.9798340" lon="-2.7631580">
        <ele>712.488953</ele>
        <time>2020-07-17T07:48:29.000Z</time>
      </trkpt>
      <trkpt lat="42.9798670" lon="-2.7630470">
        <ele>712.467041</ele>
        <time>2020-07-17T07:48:33.000Z</time>
      </trkpt>
      <trkpt lat="42.9798660" lon="-2.7630020">
        <ele>712.270996</ele>
        <time>2020-07-17T07:48:35.000Z</time>
      </trkpt>
      <trkpt lat="42.9799290" lon="-2.7628650">
        <ele>712.283020</ele>
        <time>2020-07-17T07:48:40.000Z</time>
      </trkpt>
      <trkpt lat="42.9800010" lon="-2.7626520">
        <ele>712.276001</ele>
        <time>2020-07-17T07:48:47.000Z</time>
      </trkpt>
      <trkpt lat="42.9800310" lon="-2.7624990">
        <ele>712.266052</ele>
        <time>2020-07-17T07:48:53.000Z</time>
      </trkpt>
      <trkpt lat="42.9800270" lon="-2.7622740">
        <ele>712.228943</ele>
        <time>2020-07-17T07:49:00.000Z</time>
      </trkpt>
      <trkpt lat="42.9800170" lon="-2.7622120">
        <ele>712.421021</ele>
        <time>2020-07-17T07:49:02.000Z</time>
      </trkpt>
      <trkpt lat="42.9799940" lon="-2.7620650">
        <ele>712.807983</ele>
        <time>2020-07-17T07:49:07.000Z</time>
      </trkpt>
      <trkpt lat="42.9799790" lon="-2.7620400">
        <ele>712.851013</ele>
        <time>2020-07-17T07:49:08.000Z</time>
      </trkpt>
      <trkpt lat="42.9799700" lon="-2.7619540">
        <ele>713.229004</ele>
        <time>2020-07-17T07:49:11.000Z</time>
      </trkpt>
      <trkpt lat="42.9799680" lon="-2.7618810">
        <ele>713.216980</ele>
        <time>2020-07-17T07:49:13.000Z</time>
      </trkpt>
      <trkpt lat="42.9799640" lon="-2.7617840">
        <ele>713.497009</ele>
        <time>2020-07-17T07:49:16.000Z</time>
      </trkpt>
      <trkpt lat="42.9799600" lon="-2.7617340">
        <ele>713.654968</ele>
        <time>2020-07-17T07:49:18.000Z</time>
      </trkpt>
      <trkpt lat="42.9799840" lon="-2.7615840">
        <ele>714.278992</ele>
        <time>2020-07-17T07:49:25.000Z</time>
      </trkpt>
      <trkpt lat="42.9799960" lon="-2.7615430">
        <ele>714.411011</ele>
        <time>2020-07-17T07:49:27.000Z</time>
      </trkpt>
      <trkpt lat="42.9800240" lon="-2.7615050">
        <ele>714.653992</ele>
        <time>2020-07-17T07:49:29.000Z</time>
      </trkpt>
      <trkpt lat="42.9800760" lon="-2.7614530">
        <ele>715.016968</ele>
        <time>2020-07-17T07:49:32.000Z</time>
      </trkpt>
      <trkpt lat="42.9801110" lon="-2.7614190">
        <ele>715.487000</ele>
        <time>2020-07-17T07:49:34.000Z</time>
      </trkpt>
      <trkpt lat="42.9801610" lon="-2.7613320">
        <ele>716.215027</ele>
        <time>2020-07-17T07:49:39.000Z</time>
      </trkpt>
      <trkpt lat="42.9801770" lon="-2.7612900">
        <ele>716.408020</ele>
        <time>2020-07-17T07:49:41.000Z</time>
      </trkpt>
      <trkpt lat="42.9802310" lon="-2.7611540">
        <ele>717.016052</ele>
        <time>2020-07-17T07:49:47.000Z</time>
      </trkpt>
      <trkpt lat="42.9802610" lon="-2.7610810">
        <ele>717.484009</ele>
        <time>2020-07-17T07:49:50.000Z</time>
      </trkpt>
      <trkpt lat="42.9803490" lon="-2.7609370">
        <ele>717.662048</ele>
        <time>2020-07-17T07:49:55.000Z</time>
      </trkpt>
      <trkpt lat="42.9804730" lon="-2.7607720">
        <ele>718.461975</ele>
        <time>2020-07-17T07:50:03.000Z</time>
      </trkpt>
      <trkpt lat="42.9804800" lon="-2.7607540">
        <ele>718.619995</ele>
        <time>2020-07-17T07:50:04.000Z</time>
      </trkpt>
      <trkpt lat="42.9804940" lon="-2.7606900">
        <ele>719.074036</ele>
        <time>2020-07-17T07:50:08.000Z</time>
      </trkpt>
      <trkpt lat="42.9805040" lon="-2.7606620">
        <ele>719.015991</ele>
        <time>2020-07-17T07:50:10.000Z</time>
      </trkpt>
      <trkpt lat="42.9805790" lon="-2.7605320">
        <ele>719.259033</ele>
        <time>2020-07-17T07:50:20.000Z</time>
      </trkpt>
      <trkpt lat="42.9805860" lon="-2.7605090">
        <ele>719.097961</ele>
        <time>2020-07-17T07:50:24.000Z</time>
      </trkpt>
      <trkpt lat="42.9809360" lon="-2.7603600">
        <ele>720.215027</ele>
        <time>2020-07-17T07:53:46.000Z</time>
      </trkpt>
      <trkpt lat="42.9809800" lon="-2.7603840">
        <ele>720.425964</ele>
        <time>2020-07-17T07:53:48.000Z</time>
      </trkpt>
      <trkpt lat="42.9811120" lon="-2.7603020">
        <ele>720.808044</ele>
        <time>2020-07-17T07:53:54.000Z</time>
      </trkpt>
      <trkpt lat="42.9811280" lon="-2.7602830">
        <ele>720.863953</ele>
        <time>2020-07-17T07:53:55.000Z</time>
      </trkpt>
      <trkpt lat="42.9811680" lon="-2.7602610">
        <ele>720.842041</ele>
        <time>2020-07-17T07:53:59.000Z</time>
      </trkpt>
      <trkpt lat="42.9814370" lon="-2.7601180">
        <ele>720.880005</ele>
        <time>2020-07-17T07:54:15.000Z</time>
      </trkpt>
      <trkpt lat="42.9814550" lon="-2.7601060">
        <ele>720.829956</ele>
        <time>2020-07-17T07:54:16.000Z</time>
      </trkpt>
      <trkpt lat="42.9816210" lon="-2.7600150">
        <ele>721.038025</ele>
        <time>2020-07-17T07:54:25.000Z</time>
      </trkpt>
      <trkpt lat="42.9816600" lon="-2.7599380">
        <ele>720.671997</ele>
        <time>2020-07-17T07:54:31.000Z</time>
      </trkpt>
      <trkpt lat="42.9816040" lon="-2.7596600">
        <ele>718.064026</ele>
        <time>2020-07-17T07:54:54.000Z</time>
      </trkpt>
      <trkpt lat="42.9815820" lon="-2.7596200">
        <ele>717.437012</ele>
        <time>2020-07-17T07:54:57.000Z</time>
      </trkpt>
      <trkpt lat="42.9815660" lon="-2.7595870">
        <ele>716.893005</ele>
        <time>2020-07-17T07:54:59.000Z</time>
      </trkpt>
      <trkpt lat="42.9815470" lon="-2.7595400">
        <ele>716.065002</ele>
        <time>2020-07-17T07:55:03.000Z</time>
      </trkpt>
      <trkpt lat="42.9815320" lon="-2.7595130">
        <ele>715.620972</ele>
        <time>2020-07-17T07:55:05.000Z</time>
      </trkpt>
      <trkpt lat="42.9814990" lon="-2.7594730">
        <ele>714.407959</ele>
        <time>2020-07-17T07:55:09.000Z</time>
      </trkpt>
      <trkpt lat="42.9814920" lon="-2.7594650">
        <ele>714.494019</ele>
        <time>2020-07-17T07:55:10.000Z</time>
      </trkpt>
      <trkpt lat="42.9814410" lon="-2.7594230">
        <ele>713.831970</ele>
        <time>2020-07-17T07:55:17.000Z</time>
      </trkpt>
      <trkpt lat="42.9814040" lon="-2.7594210">
        <ele>713.429993</ele>
        <time>2020-07-17T07:55:22.000Z</time>
      </trkpt>
      <trkpt lat="42.9813880" lon="-2.7594160">
        <ele>713.289978</ele>
        <time>2020-07-17T07:55:24.000Z</time>
      </trkpt>
      <trkpt lat="42.9812610" lon="-2.7593760">
        <ele>713.088013</ele>
        <time>2020-07-17T07:55:34.000Z</time>
      </trkpt>
      <trkpt lat="42.9811670" lon="-2.7593660">
        <ele>712.841980</ele>
        <time>2020-07-17T07:55:42.000Z</time>
      </trkpt>
      <trkpt lat="42.9811550" lon="-2.7593670">
        <ele>712.664001</ele>
        <time>2020-07-17T07:55:44.000Z</time>
      </trkpt>
      <trkpt lat="42.9811350" lon="-2.7593400">
        <ele>712.077026</ele>
        <time>2020-07-17T07:55:48.000Z</time>
      </trkpt>
      <trkpt lat="42.9811300" lon="-2.7593410">
        <ele>712.056030</ele>
        <time>2020-07-17T07:55:49.000Z</time>
      </trkpt>
      <trkpt lat="42.9811570" lon="-2.7593660">
        <ele>711.659058</ele>
        <time>2020-07-17T07:55:53.000Z</time>
      </trkpt>
      <trkpt lat="42.9810640" lon="-2.7592010">
        <ele>710.414001</ele>
        <time>2020-07-17T07:57:05.000Z</time>
      </trkpt>
      <trkpt lat="42.9810490" lon="-2.7591460">
        <ele>710.208008</ele>
        <time>2020-07-17T07:57:07.000Z</time>
      </trkpt>
      <trkpt lat="42.9810340" lon="-2.7589430">
        <ele>709.839966</ele>
        <time>2020-07-17T07:57:13.000Z</time>
      </trkpt>
      <trkpt lat="42.9810260" lon="-2.7588530">
        <ele>709.437988</ele>
        <time>2020-07-17T07:57:15.000Z</time>
      </trkpt>
      <trkpt lat="42.9809770" lon="-2.7586750">
        <ele>708.416016</ele>
        <time>2020-07-17T07:57:19.000Z</time>
      </trkpt>
      <trkpt lat="42.9808820" lon="-2.7584020">
        <ele>707.236023</ele>
        <time>2020-07-17T07:57:23.000Z</time>
      </trkpt>
      <trkpt lat="42.9808520" lon="-2.7583390">
        <ele>707.074036</ele>
        <time>2020-07-17T07:57:24.000Z</time>
      </trkpt>
      <trkpt lat="42.9807680" lon="-2.7581850">
        <ele>705.897949</ele>
        <time>2020-07-17T07:57:27.000Z</time>
      </trkpt>
      <trkpt lat="42.9807480" lon="-2.7581470">
        <ele>705.039978</ele>
        <time>2020-07-17T07:57:28.000Z</time>
      </trkpt>
      <trkpt lat="42.9807330" lon="-2.7581140">
        <ele>704.692993</ele>
        <time>2020-07-17T07:57:29.000Z</time>
      </trkpt>
      <trkpt lat="42.9806870" lon="-2.7579730">
        <ele>703.665039</ele>
        <time>2020-07-17T07:57:33.000Z</time>
      </trkpt>
      <trkpt lat="42.9805710" lon="-2.7577990">
        <ele>703.268005</ele>
        <time>2020-07-17T07:57:39.000Z</time>
      </trkpt>
      <trkpt lat="42.9804180" lon="-2.7575750">
        <ele>703.013977</ele>
        <time>2020-07-17T07:57:47.000Z</time>
      </trkpt>
      <trkpt lat="42.9802670" lon="-2.7573720">
        <ele>703.008057</ele>
        <time>2020-07-17T07:57:54.000Z</time>
      </trkpt>
      <trkpt lat="42.9801560" lon="-2.7571370">
        <ele>702.871033</ele>
        <time>2020-07-17T07:58:02.000Z</time>
      </trkpt>
      <trkpt lat="42.9800760" lon="-2.7569760">
        <ele>702.639038</ele>
        <time>2020-07-17T07:58:08.000Z</time>
      </trkpt>
      <trkpt lat="42.9800600" lon="-2.7569480">
        <ele>702.466980</ele>
        <time>2020-07-17T07:58:09.000Z</time>
      </trkpt>
      <trkpt lat="42.9799820" lon="-2.7568060">
        <ele>701.487000</ele>
        <time>2020-07-17T07:58:14.000Z</time>
      </trkpt>
      <trkpt lat="42.9799510" lon="-2.7567430">
        <ele>701.494995</ele>
        <time>2020-07-17T07:58:16.000Z</time>
      </trkpt>
      <trkpt lat="42.9798750" lon="-2.7565890">
        <ele>701.249023</ele>
        <time>2020-07-17T07:58:22.000Z</time>
      </trkpt>
      <trkpt lat="42.9797350" lon="-2.7563520">
        <ele>701.471008</ele>
        <time>2020-07-17T07:58:32.000Z</time>
      </trkpt>
      <trkpt lat="42.9795840" lon="-2.7560800">
        <ele>700.884033</ele>
        <time>2020-07-17T07:58:39.000Z</time>
      </trkpt>
      <trkpt lat="42.9795070" lon="-2.7559470">
        <ele>700.294983</ele>
        <time>2020-07-17T07:58:42.000Z</time>
      </trkpt>
      <trkpt lat="42.9794440" lon="-2.7558450">
        <ele>699.048950</ele>
        <time>2020-07-17T07:58:44.000Z</time>
      </trkpt>
      <trkpt lat="42.9793420" lon="-2.7556680">
        <ele>698.023010</ele>
        <time>2020-07-17T07:58:47.000Z</time>
      </trkpt>
      <trkpt lat="42.9793080" lon="-2.7556100">
        <ele>697.608032</ele>
        <time>2020-07-17T07:58:48.000Z</time>
      </trkpt>
      <trkpt lat="42.9792350" lon="-2.7555000">
        <ele>696.414001</ele>
        <time>2020-07-17T07:58:50.000Z</time>
      </trkpt>
      <trkpt lat="42.9791750" lon="-2.7554040">
        <ele>695.471985</ele>
        <time>2020-07-17T07:58:52.000Z</time>
      </trkpt>
      <trkpt lat="42.9791500" lon="-2.7553630">
        <ele>695.059998</ele>
        <time>2020-07-17T07:58:53.000Z</time>
      </trkpt>
      <trkpt lat="42.9791040" lon="-2.7552870">
        <ele>694.410034</ele>
        <time>2020-07-17T07:58:55.000Z</time>
      </trkpt>
      <trkpt lat="42.9790330" lon="-2.7550870">
        <ele>693.488037</ele>
        <time>2020-07-17T07:59:00.000Z</time>
      </trkpt>
      <trkpt lat="42.9789800" lon="-2.7549520">
        <ele>693.481995</ele>
        <time>2020-07-17T07:59:03.000Z</time>
      </trkpt>
      <trkpt lat="42.9789370" lon="-2.7548280">
        <ele>693.033997</ele>
        <time>2020-07-17T07:59:06.000Z</time>
      </trkpt>
      <trkpt lat="42.9788860" lon="-2.7546360">
        <ele>692.096985</ele>
        <time>2020-07-17T07:59:10.000Z</time>
      </trkpt>
      <trkpt lat="42.9788240" lon="-2.7545070">
        <ele>691.213013</ele>
        <time>2020-07-17T07:59:12.000Z</time>
      </trkpt>
      <trkpt lat="42.9787490" lon="-2.7543690">
        <ele>690.842957</ele>
        <time>2020-07-17T07:59:15.000Z</time>
      </trkpt>
      <trkpt lat="42.9786380" lon="-2.7541830">
        <ele>689.806946</ele>
        <time>2020-07-17T07:59:19.000Z</time>
      </trkpt>
      <trkpt lat="42.9786020" lon="-2.7541500">
        <ele>689.607971</ele>
        <time>2020-07-17T07:59:20.000Z</time>
      </trkpt>
      <trkpt lat="42.9785370" lon="-2.7540100">
        <ele>689.286011</ele>
        <time>2020-07-17T07:59:23.000Z</time>
      </trkpt>
      <trkpt lat="42.9785330" lon="-2.7539710">
        <ele>688.854004</ele>
        <time>2020-07-17T07:59:24.000Z</time>
      </trkpt>
      <trkpt lat="42.9785350" lon="-2.7539450">
        <ele>688.421997</ele>
        <time>2020-07-17T07:59:25.000Z</time>
      </trkpt>
      <trkpt lat="42.9785120" lon="-2.7538370">
        <ele>687.471985</ele>
        <time>2020-07-17T07:59:28.000Z</time>
      </trkpt>
      <trkpt lat="42.9785050" lon="-2.7538040">
        <ele>687.260010</ele>
        <time>2020-07-17T07:59:29.000Z</time>
      </trkpt>
      <trkpt lat="42.9784900" lon="-2.7537620">
        <ele>687.024048</ele>
        <time>2020-07-17T07:59:30.000Z</time>
      </trkpt>
      <trkpt lat="42.9784590" lon="-2.7535520">
        <ele>686.826050</ele>
        <time>2020-07-17T07:59:36.000Z</time>
      </trkpt>
      <trkpt lat="42.9784590" lon="-2.7535410">
        <ele>686.879028</ele>
        <time>2020-07-17T07:59:37.000Z</time>
      </trkpt>
      <trkpt lat="42.9785950" lon="-2.7541050">
        <ele>687.825012</ele>
        <time>2020-07-17T08:01:19.000Z</time>
      </trkpt>
      <trkpt lat="42.9785620" lon="-2.7540620">
        <ele>687.825989</ele>
        <time>2020-07-17T08:01:21.000Z</time>
      </trkpt>
      <trkpt lat="42.9785170" lon="-2.7539800">
        <ele>687.607971</ele>
        <time>2020-07-17T08:01:24.000Z</time>
      </trkpt>
      <trkpt lat="42.9785070" lon="-2.7539430">
        <ele>687.607971</ele>
        <time>2020-07-17T08:01:25.000Z</time>
      </trkpt>
      <trkpt lat="42.9785090" lon="-2.7539190">
        <ele>687.427002</ele>
        <time>2020-07-17T08:01:26.000Z</time>
      </trkpt>
      <trkpt lat="42.9785170" lon="-2.7538670">
        <ele>687.084961</ele>
        <time>2020-07-17T08:01:28.000Z</time>
      </trkpt>
      <trkpt lat="42.9785160" lon="-2.7537870">
        <ele>686.662964</ele>
        <time>2020-07-17T08:01:32.000Z</time>
      </trkpt>
      <trkpt lat="42.9785110" lon="-2.7537640">
        <ele>686.653015</ele>
        <time>2020-07-17T08:01:33.000Z</time>
      </trkpt>
      <trkpt lat="42.9785080" lon="-2.7535840">
        <ele>686.480957</ele>
        <time>2020-07-17T08:01:39.000Z</time>
      </trkpt>
      <trkpt lat="42.9785920" lon="-2.7534250">
        <ele>686.434998</ele>
        <time>2020-07-17T08:01:44.000Z</time>
      </trkpt>
      <trkpt lat="42.9786240" lon="-2.7534060">
        <ele>686.067017</ele>
        <time>2020-07-17T08:01:46.000Z</time>
      </trkpt>
      <trkpt lat="42.9786560" lon="-2.7534270">
        <ele>685.840027</ele>
        <time>2020-07-17T08:01:48.000Z</time>
      </trkpt>
      <trkpt lat="42.9787510" lon="-2.7535050">
        <ele>684.828979</ele>
        <time>2020-07-17T08:01:53.000Z</time>
      </trkpt>
      <trkpt lat="42.9787900" lon="-2.7535440">
        <ele>684.599976</ele>
        <time>2020-07-17T08:01:55.000Z</time>
      </trkpt>
      <trkpt lat="42.9788760" lon="-2.7536410">
        <ele>683.619995</ele>
        <time>2020-07-17T08:02:00.000Z</time>
      </trkpt>
      <trkpt lat="42.9789210" lon="-2.7537170">
        <ele>682.608032</ele>
        <time>2020-07-17T08:02:03.000Z</time>
      </trkpt>
      <trkpt lat="42.9789660" lon="-2.7537610">
        <ele>681.456970</ele>
        <time>2020-07-17T08:02:06.000Z</time>
      </trkpt>
      <trkpt lat="42.9790180" lon="-2.7537610">
        <ele>680.244995</ele>
        <time>2020-07-17T08:02:09.000Z</time>
      </trkpt>
      <trkpt lat="42.9790990" lon="-2.7537270">
        <ele>679.663025</ele>
        <time>2020-07-17T08:02:12.000Z</time>
      </trkpt>
      <trkpt lat="42.9791280" lon="-2.7537060">
        <ele>679.222961</ele>
        <time>2020-07-17T08:02:13.000Z</time>
      </trkpt>
      <trkpt lat="42.9792090" lon="-2.7536260">
        <ele>678.221008</ele>
        <time>2020-07-17T08:02:16.000Z</time>
      </trkpt>
      <trkpt lat="42.9792480" lon="-2.7535670">
        <ele>677.025024</ele>
        <time>2020-07-17T08:02:18.000Z</time>
      </trkpt>
      <trkpt lat="42.9792740" lon="-2.7535020">
        <ele>675.827026</ele>
        <time>2020-07-17T08:02:20.000Z</time>
      </trkpt>
      <trkpt lat="42.9792780" lon="-2.7534650">
        <ele>674.479980</ele>
        <time>2020-07-17T08:02:21.000Z</time>
      </trkpt>
      <trkpt lat="42.9792810" lon="-2.7533820">
        <ele>672.813049</ele>
        <time>2020-07-17T08:02:23.000Z</time>
      </trkpt>
      <trkpt lat="42.9792540" lon="-2.7532670">
        <ele>671.842957</ele>
        <time>2020-07-17T08:02:26.000Z</time>
      </trkpt>
      <trkpt lat="42.9792350" lon="-2.7531400">
        <ele>671.007019</ele>
        <time>2020-07-17T08:02:29.000Z</time>
      </trkpt>
      <trkpt lat="42.9792380" lon="-2.7530840">
        <ele>670.607971</ele>
        <time>2020-07-17T08:02:30.000Z</time>
      </trkpt>
      <trkpt lat="42.9792630" lon="-2.7528540">
        <ele>669.666016</ele>
        <time>2020-07-17T08:02:35.000Z</time>
      </trkpt>
      <trkpt lat="42.9792680" lon="-2.7528070">
        <ele>669.444031</ele>
        <time>2020-07-17T08:02:36.000Z</time>
      </trkpt>
      <trkpt lat="42.9792990" lon="-2.7525480">
        <ele>669.281982</ele>
        <time>2020-07-17T08:02:41.000Z</time>
      </trkpt>
      <trkpt lat="42.9792980" lon="-2.7524260">
        <ele>668.881958</ele>
        <time>2020-07-17T08:02:44.000Z</time>
      </trkpt>
      <trkpt lat="42.9793000" lon="-2.7523440">
        <ele>668.440002</ele>
        <time>2020-07-17T08:02:46.000Z</time>
      </trkpt>
      <trkpt lat="42.9793270" lon="-2.7521860">
        <ele>667.614014</ele>
        <time>2020-07-17T08:02:49.000Z</time>
      </trkpt>
      <trkpt lat="42.9793290" lon="-2.7519990">
        <ele>667.016052</ele>
        <time>2020-07-17T08:02:52.000Z</time>
      </trkpt>
      <trkpt lat="42.9793440" lon="-2.7519220">
        <ele>666.859009</ele>
        <time>2020-07-17T08:02:53.000Z</time>
      </trkpt>
      <trkpt lat="42.9793890" lon="-2.7517570">
        <ele>666.677979</ele>
        <time>2020-07-17T08:02:55.000Z</time>
      </trkpt>
      <trkpt lat="42.9794140" lon="-2.7516800">
        <ele>666.432983</ele>
        <time>2020-07-17T08:02:56.000Z</time>
      </trkpt>
      <trkpt lat="42.9794430" lon="-2.7516090">
        <ele>666.225952</ele>
        <time>2020-07-17T08:02:57.000Z</time>
      </trkpt>
      <trkpt lat="42.9795310" lon="-2.7513950">
        <ele>665.408020</ele>
        <time>2020-07-17T08:03:00.000Z</time>
      </trkpt>
      <trkpt lat="42.9795840" lon="-2.7512610">
        <ele>665.041992</ele>
        <time>2020-07-17T08:03:02.000Z</time>
      </trkpt>
      <trkpt lat="42.9796940" lon="-2.7508360">
        <ele>664.279968</ele>
        <time>2020-07-17T08:03:08.000Z</time>
      </trkpt>
      <trkpt lat="42.9796970" lon="-2.7507790">
        <ele>664.218018</ele>
        <time>2020-07-17T08:03:09.000Z</time>
      </trkpt>
      <trkpt lat="42.9796890" lon="-2.7505910">
        <ele>663.628052</ele>
        <time>2020-07-17T08:03:12.000Z</time>
      </trkpt>
      <trkpt lat="42.9796810" lon="-2.7504660">
        <ele>663.286011</ele>
        <time>2020-07-17T08:03:14.000Z</time>
      </trkpt>
      <trkpt lat="42.9796760" lon="-2.7503950">
        <ele>663.070007</ele>
        <time>2020-07-17T08:03:15.000Z</time>
      </trkpt>
      <trkpt lat="42.9796820" lon="-2.7503190">
        <ele>663.052002</ele>
        <time>2020-07-17T08:03:16.000Z</time>
      </trkpt>
      <trkpt lat="42.9797030" lon="-2.7501240">
        <ele>662.214966</ele>
        <time>2020-07-17T08:03:19.000Z</time>
      </trkpt>
      <trkpt lat="42.9797080" lon="-2.7500720">
        <ele>661.895020</ele>
        <time>2020-07-17T08:03:20.000Z</time>
      </trkpt>
      <trkpt lat="42.9797100" lon="-2.7497470">
        <ele>660.648987</ele>
        <time>2020-07-17T08:03:26.000Z</time>
      </trkpt>
      <trkpt lat="42.9796880" lon="-2.7494630">
        <ele>659.223022</ele>
        <time>2020-07-17T08:03:31.000Z</time>
      </trkpt>
      <trkpt lat="42.9796940" lon="-2.7493640">
        <ele>659.008057</ele>
        <time>2020-07-17T08:03:33.000Z</time>
      </trkpt>
      <trkpt lat="42.9797680" lon="-2.7490490">
        <ele>658.443970</ele>
        <time>2020-07-17T08:03:39.000Z</time>
      </trkpt>
      <trkpt lat="42.9797800" lon="-2.7489980">
        <ele>658.441956</ele>
        <time>2020-07-17T08:03:40.000Z</time>
      </trkpt>
      <trkpt lat="42.9797900" lon="-2.7488700">
        <ele>658.089966</ele>
        <time>2020-07-17T08:03:42.000Z</time>
      </trkpt>
      <trkpt lat="42.9797560" lon="-2.7486430">
        <ele>657.419983</ele>
        <time>2020-07-17T08:03:46.000Z</time>
      </trkpt>
      <trkpt lat="42.9798250" lon="-2.7483090">
        <ele>656.088013</ele>
        <time>2020-07-17T08:03:52.000Z</time>
      </trkpt>
      <trkpt lat="42.9798930" lon="-2.7479940">
        <ele>655.692017</ele>
        <time>2020-07-17T08:03:57.000Z</time>
      </trkpt>
      <trkpt lat="42.9799260" lon="-2.7478300">
        <ele>655.073975</ele>
        <time>2020-07-17T08:04:00.000Z</time>
      </trkpt>
      <trkpt lat="42.9800080" lon="-2.7475040">
        <ele>654.076965</ele>
        <time>2020-07-17T08:04:06.000Z</time>
      </trkpt>
      <trkpt lat="42.9800400" lon="-2.7472050">
        <ele>652.421997</ele>
        <time>2020-07-17T08:04:14.000Z</time>
      </trkpt>
      <trkpt lat="42.9800780" lon="-2.7470290">
        <ele>651.662048</ele>
        <time>2020-07-17T08:04:18.000Z</time>
      </trkpt>
      <trkpt lat="42.9800920" lon="-2.7469400">
        <ele>651.608032</ele>
        <time>2020-07-17T08:04:20.000Z</time>
      </trkpt>
      <trkpt lat="42.9801320" lon="-2.7466800">
        <ele>650.608032</ele>
        <time>2020-07-17T08:04:26.000Z</time>
      </trkpt>
      <trkpt lat="42.9801660" lon="-2.7464080">
        <ele>650.057007</ele>
        <time>2020-07-17T08:04:33.000Z</time>
      </trkpt>
      <trkpt lat="42.9801470" lon="-2.7462730">
        <ele>649.675049</ele>
        <time>2020-07-17T08:04:36.000Z</time>
      </trkpt>
      <trkpt lat="42.9801320" lon="-2.7461080">
        <ele>648.843018</ele>
        <time>2020-07-17T08:04:40.000Z</time>
      </trkpt>
      <trkpt lat="42.9800650" lon="-2.7458040">
        <ele>648.473022</ele>
        <time>2020-07-17T08:04:47.000Z</time>
      </trkpt>
      <trkpt lat="42.9800150" lon="-2.7455460">
        <ele>648.251038</ele>
        <time>2020-07-17T08:04:52.000Z</time>
      </trkpt>
      <trkpt lat="42.9800030" lon="-2.7454900">
        <ele>648.265015</ele>
        <time>2020-07-17T08:04:53.000Z</time>
      </trkpt>
      <trkpt lat="42.9799340" lon="-2.7452060">
        <ele>647.627014</ele>
        <time>2020-07-17T08:04:59.000Z</time>
      </trkpt>
      <trkpt lat="42.9799180" lon="-2.7451270">
        <ele>647.289978</ele>
        <time>2020-07-17T08:05:01.000Z</time>
      </trkpt>
      <trkpt lat="42.9798810" lon="-2.7449400">
        <ele>646.488037</ele>
        <time>2020-07-17T08:05:05.000Z</time>
      </trkpt>
      <trkpt lat="42.9798720" lon="-2.7448850">
        <ele>646.023987</ele>
        <time>2020-07-17T08:05:06.000Z</time>
      </trkpt>
      <trkpt lat="42.9798110" lon="-2.7446160">
        <ele>644.825989</ele>
        <time>2020-07-17T08:05:11.000Z</time>
      </trkpt>
      <trkpt lat="42.9797870" lon="-2.7445130">
        <ele>644.408020</ele>
        <time>2020-07-17T08:05:13.000Z</time>
      </trkpt>
      <trkpt lat="42.9797720" lon="-2.7443050">
        <ele>644.013000</ele>
        <time>2020-07-17T08:05:17.000Z</time>
      </trkpt>
      <trkpt lat="42.9797690" lon="-2.7442610">
        <ele>643.860962</ele>
        <time>2020-07-17T08:05:18.000Z</time>
      </trkpt>
      <trkpt lat="42.9797220" lon="-2.7440260">
        <ele>643.419006</ele>
        <time>2020-07-17T08:05:24.000Z</time>
      </trkpt>
      <trkpt lat="42.9796300" lon="-2.7439000">
        <ele>643.088989</ele>
        <time>2020-07-17T08:05:28.000Z</time>
      </trkpt>
      <trkpt lat="42.9796070" lon="-2.7438800">
        <ele>643.257019</ele>
        <time>2020-07-17T08:05:29.000Z</time>
      </trkpt>
      <trkpt lat="42.9795150" lon="-2.7437850">
        <ele>642.610962</ele>
        <time>2020-07-17T08:05:35.000Z</time>
      </trkpt>
      <trkpt lat="42.9794640" lon="-2.7437530">
        <ele>642.222961</ele>
        <time>2020-07-17T08:05:38.000Z</time>
      </trkpt>
      <trkpt lat="42.9793640" lon="-2.7436920">
        <ele>641.265991</ele>
        <time>2020-07-17T08:05:43.000Z</time>
      </trkpt>
      <trkpt lat="42.9793420" lon="-2.7436770">
        <ele>641.060974</ele>
        <time>2020-07-17T08:05:44.000Z</time>
      </trkpt>
      <trkpt lat="42.9792410" lon="-2.7436060">
        <ele>640.821045</ele>
        <time>2020-07-17T08:05:50.000Z</time>
      </trkpt>
      <trkpt lat="42.9791460" lon="-2.7434310">
        <ele>640.613037</ele>
        <time>2020-07-17T08:05:56.000Z</time>
      </trkpt>
      <trkpt lat="42.9790570" lon="-2.7431980">
        <ele>640.208008</ele>
        <time>2020-07-17T08:06:03.000Z</time>
      </trkpt>
      <trkpt lat="42.9789270" lon="-2.7428760">
        <ele>639.251038</ele>
        <time>2020-07-17T08:06:11.000Z</time>
      </trkpt>
      <trkpt lat="42.9789180" lon="-2.7428550">
        <ele>639.058960</ele>
        <time>2020-07-17T08:06:12.000Z</time>
      </trkpt>
      <trkpt lat="42.9789140" lon="-2.7428400">
        <ele>638.086975</ele>
        <time>2020-07-17T08:06:16.000Z</time>
      </trkpt>
      <trkpt lat="42.9788830" lon="-2.7424270">
        <ele>637.497009</ele>
        <time>2020-07-17T08:07:02.000Z</time>
      </trkpt>
      <trkpt lat="42.9788880" lon="-2.7423580">
        <ele>637.445007</ele>
        <time>2020-07-17T08:07:05.000Z</time>
      </trkpt>
      <trkpt lat="42.9788920" lon="-2.7422730">
        <ele>637.618958</ele>
        <time>2020-07-17T08:07:09.000Z</time>
      </trkpt>
      <trkpt lat="42.9788940" lon="-2.7421970">
        <ele>638.060974</ele>
        <time>2020-07-17T08:07:12.000Z</time>
      </trkpt>
      <trkpt lat="42.9788790" lon="-2.7419710">
        <ele>638.063965</ele>
        <time>2020-07-17T08:07:21.000Z</time>
      </trkpt>
      <trkpt lat="42.9787950" lon="-2.7417430">
        <ele>637.898987</ele>
        <time>2020-07-17T08:07:29.000Z</time>
      </trkpt>
      <trkpt lat="42.9787000" lon="-2.7417060">
        <ele>637.606995</ele>
        <time>2020-07-17T08:07:33.000Z</time>
      </trkpt>
      <trkpt lat="42.9786270" lon="-2.7416740">
        <ele>637.027039</ele>
        <time>2020-07-17T08:07:36.000Z</time>
      </trkpt>
      <trkpt lat="42.9784720" lon="-2.7416320">
        <ele>636.807983</ele>
        <time>2020-07-17T08:07:41.000Z</time>
      </trkpt>
      <trkpt lat="42.9784040" lon="-2.7416250">
        <ele>636.623962</ele>
        <time>2020-07-17T08:07:43.000Z</time>
      </trkpt>
      <trkpt lat="42.9782850" lon="-2.7415600">
        <ele>636.071960</ele>
        <time>2020-07-17T08:07:47.000Z</time>
      </trkpt>
      <trkpt lat="42.9781820" lon="-2.7414290">
        <ele>636.059998</ele>
        <time>2020-07-17T08:07:54.000Z</time>
      </trkpt>
      <trkpt lat="42.9780560" lon="-2.7413710">
        <ele>636.030029</ele>
        <time>2020-07-17T08:08:01.000Z</time>
      </trkpt>
      <trkpt lat="42.9779170" lon="-2.7413410">
        <ele>636.447998</ele>
        <time>2020-07-17T08:08:09.000Z</time>
      </trkpt>
      <trkpt lat="42.9777450" lon="-2.7412220">
        <ele>636.632019</ele>
        <time>2020-07-17T08:08:19.000Z</time>
      </trkpt>
      <trkpt lat="42.9775960" lon="-2.7411150">
        <ele>636.894043</ele>
        <time>2020-07-17T08:08:28.000Z</time>
      </trkpt>
      <trkpt lat="42.9774080" lon="-2.7409740">
        <ele>637.267029</ele>
        <time>2020-07-17T08:08:37.000Z</time>
      </trkpt>
      <trkpt lat="42.9771940" lon="-2.7407810">
        <ele>637.494995</ele>
        <time>2020-07-17T08:08:46.000Z</time>
      </trkpt>
      <trkpt lat="42.9769270" lon="-2.7405990">
        <ele>637.648987</ele>
        <time>2020-07-17T08:08:57.000Z</time>
      </trkpt>
      <trkpt lat="42.9768460" lon="-2.7370410">
        <ele>631.271973</ele>
        <time>2020-07-17T10:16:26.000Z</time>
      </trkpt>
      <trkpt lat="42.9770170" lon="-2.7372060">
        <ele>631.686035</ele>
        <time>2020-07-17T10:16:34.000Z</time>
      </trkpt>
      <trkpt lat="42.9770640" lon="-2.7372430">
        <ele>632.067993</ele>
        <time>2020-07-17T10:16:36.000Z</time>
      </trkpt>
      <trkpt lat="42.9772420" lon="-2.7373850">
        <ele>632.630981</ele>
        <time>2020-07-17T10:16:43.000Z</time>
      </trkpt>
      <trkpt lat="42.9773220" lon="-2.7374750">
        <ele>633.073975</ele>
        <time>2020-07-17T10:16:47.000Z</time>
      </trkpt>
      <trkpt lat="42.9774210" lon="-2.7375880">
        <ele>633.656006</ele>
        <time>2020-07-17T10:16:52.000Z</time>
      </trkpt>
      <trkpt lat="42.9774430" lon="-2.7376090">
        <ele>634.421021</ele>
        <time>2020-07-17T10:16:53.000Z</time>
      </trkpt>
      <trkpt lat="42.9775550" lon="-2.7377970">
        <ele>635.608032</ele>
        <time>2020-07-17T10:17:00.000Z</time>
      </trkpt>
      <trkpt lat="42.9776090" lon="-2.7380780">
        <ele>636.432007</ele>
        <time>2020-07-17T10:17:09.000Z</time>
      </trkpt>
      <trkpt lat="42.9776330" lon="-2.7381300">
        <ele>636.609985</ele>
        <time>2020-07-17T10:17:11.000Z</time>
      </trkpt>
      <trkpt lat="42.9777180" lon="-2.7382850">
        <ele>637.468018</ele>
        <time>2020-07-17T10:17:16.000Z</time>
      </trkpt>
      <trkpt lat="42.9778320" lon="-2.7384070">
        <ele>637.688049</ele>
        <time>2020-07-17T10:17:21.000Z</time>
      </trkpt>
      <trkpt lat="42.9778800" lon="-2.7384600">
        <ele>637.645996</ele>
        <time>2020-07-17T10:17:24.000Z</time>
      </trkpt>
      <trkpt lat="42.9779650" lon="-2.7386430">
        <ele>638.679993</ele>
        <time>2020-07-17T10:17:31.000Z</time>
      </trkpt>
      <trkpt lat="42.9780360" lon="-2.7387330">
        <ele>639.032043</ele>
        <time>2020-07-17T10:17:35.000Z</time>
      </trkpt>
      <trkpt lat="42.9781000" lon="-2.7387860">
        <ele>639.274963</ele>
        <time>2020-07-17T10:17:38.000Z</time>
      </trkpt>
      <trkpt lat="42.9782710" lon="-2.7390040">
        <ele>639.815979</ele>
        <time>2020-07-17T10:17:47.000Z</time>
      </trkpt>
      <trkpt lat="42.9783150" lon="-2.7390520">
        <ele>640.075989</ele>
        <time>2020-07-17T10:17:49.000Z</time>
      </trkpt>
      <trkpt lat="42.9784290" lon="-2.7391420">
        <ele>640.413025</ele>
        <time>2020-07-17T10:17:54.000Z</time>
      </trkpt>
      <trkpt lat="42.9785580" lon="-2.7393090">
        <ele>640.807983</ele>
        <time>2020-07-17T10:18:02.000Z</time>
      </trkpt>
      <trkpt lat="42.9786070" lon="-2.7394360">
        <ele>641.095947</ele>
        <time>2020-07-17T10:18:07.000Z</time>
      </trkpt>
      <trkpt lat="42.9786590" lon="-2.7395140">
        <ele>641.633972</ele>
        <time>2020-07-17T10:18:10.000Z</time>
      </trkpt>
      <trkpt lat="42.9788620" lon="-2.7397930">
        <ele>641.862000</ele>
        <time>2020-07-17T10:18:19.000Z</time>
      </trkpt>
      <trkpt lat="42.9789440" lon="-2.7399440">
        <ele>642.452026</ele>
        <time>2020-07-17T10:18:25.000Z</time>
      </trkpt>
      <trkpt lat="42.9790030" lon="-2.7400480">
        <ele>643.049988</ele>
        <time>2020-07-17T10:18:29.000Z</time>
      </trkpt>
      <trkpt lat="42.9790330" lon="-2.7400810">
        <ele>643.444031</ele>
        <time>2020-07-17T10:18:31.000Z</time>
      </trkpt>
      <trkpt lat="42.9791110" lon="-2.7401300">
        <ele>644.225952</ele>
        <time>2020-07-17T10:18:36.000Z</time>
      </trkpt>
      <trkpt lat="42.9791600" lon="-2.7401350">
        <ele>644.419006</ele>
        <time>2020-07-17T10:18:39.000Z</time>
      </trkpt>
      <trkpt lat="42.9792140" lon="-2.7401420">
        <ele>645.414978</ele>
        <time>2020-07-17T10:18:42.000Z</time>
      </trkpt>
      <trkpt lat="42.9792240" lon="-2.7401490">
        <ele>645.664978</ele>
        <time>2020-07-17T10:18:43.000Z</time>
      </trkpt>
      <trkpt lat="42.9792930" lon="-2.7401490">
        <ele>646.611023</ele>
        <time>2020-07-17T10:18:48.000Z</time>
      </trkpt>
      <trkpt lat="42.9793400" lon="-2.7401570">
        <ele>647.408020</ele>
        <time>2020-07-17T10:18:51.000Z</time>
      </trkpt>
      <trkpt lat="42.9793610" lon="-2.7401570">
        <ele>647.635986</ele>
        <time>2020-07-17T10:18:52.000Z</time>
      </trkpt>
      <trkpt lat="42.9794450" lon="-2.7402210">
        <ele>648.824036</ele>
        <time>2020-07-17T10:18:58.000Z</time>
      </trkpt>
      <trkpt lat="42.9794750" lon="-2.7402400">
        <ele>649.062012</ele>
        <time>2020-07-17T10:19:00.000Z</time>
      </trkpt>
      <trkpt lat="42.9795370" lon="-2.7402940">
        <ele>649.872009</ele>
        <time>2020-07-17T10:19:05.000Z</time>
      </trkpt>
      <trkpt lat="42.9795820" lon="-2.7403250">
        <ele>650.489990</ele>
        <time>2020-07-17T10:19:09.000Z</time>
      </trkpt>
      <trkpt lat="42.9796030" lon="-2.7403410">
        <ele>650.814026</ele>
        <time>2020-07-17T10:19:11.000Z</time>
      </trkpt>
      <trkpt lat="42.9796120" lon="-2.7403490">
        <ele>650.836060</ele>
        <time>2020-07-17T10:19:12.000Z</time>
      </trkpt>
      <trkpt lat="42.9796720" lon="-2.7404080">
        <ele>652.088989</ele>
        <time>2020-07-17T10:19:17.000Z</time>
      </trkpt>
      <trkpt lat="42.9797200" lon="-2.7404720">
        <ele>653.086975</ele>
        <time>2020-07-17T10:19:21.000Z</time>
      </trkpt>
      <trkpt lat="42.9797300" lon="-2.7404840">
        <ele>653.042053</ele>
        <time>2020-07-17T10:19:22.000Z</time>
      </trkpt>
      <trkpt lat="42.9798050" lon="-2.7405240">
        <ele>654.225952</ele>
        <time>2020-07-17T10:19:28.000Z</time>
      </trkpt>
      <trkpt lat="42.9798330" lon="-2.7405440">
        <ele>654.608032</ele>
        <time>2020-07-17T10:19:31.000Z</time>
      </trkpt>
      <trkpt lat="42.9799190" lon="-2.7405540">
        <ele>655.283020</ele>
        <time>2020-07-17T10:19:38.000Z</time>
      </trkpt>
      <trkpt lat="42.9799780" lon="-2.7405590">
        <ele>655.630981</ele>
        <time>2020-07-17T10:19:42.000Z</time>
      </trkpt>
      <trkpt lat="42.9800380" lon="-2.7405570">
        <ele>656.488953</ele>
        <time>2020-07-17T10:19:47.000Z</time>
      </trkpt>
      <trkpt lat="42.9800740" lon="-2.7405600">
        <ele>656.638977</ele>
        <time>2020-07-17T10:19:49.000Z</time>
      </trkpt>
      <trkpt lat="42.9801440" lon="-2.7405480">
        <ele>657.446960</ele>
        <time>2020-07-17T10:19:54.000Z</time>
      </trkpt>
      <trkpt lat="42.9802080" lon="-2.7405470">
        <ele>658.460999</ele>
        <time>2020-07-17T10:19:59.000Z</time>
      </trkpt>
      <trkpt lat="42.9802840" lon="-2.7405530">
        <ele>659.413025</ele>
        <time>2020-07-17T10:20:05.000Z</time>
      </trkpt>
      <trkpt lat="42.9803220" lon="-2.7405390">
        <ele>659.675964</ele>
        <time>2020-07-17T10:20:08.000Z</time>
      </trkpt>
      <trkpt lat="42.9803340" lon="-2.7405350">
        <ele>659.867981</ele>
        <time>2020-07-17T10:20:09.000Z</time>
      </trkpt>
      <trkpt lat="42.9805220" lon="-2.7404770">
        <ele>660.241943</ele>
        <time>2020-07-17T10:20:20.000Z</time>
      </trkpt>
      <trkpt lat="42.9806050" lon="-2.7404510">
        <ele>660.626038</ele>
        <time>2020-07-17T10:20:25.000Z</time>
      </trkpt>
      <trkpt lat="42.9806630" lon="-2.7404060">
        <ele>661.007996</ele>
        <time>2020-07-17T10:20:29.000Z</time>
      </trkpt>
      <trkpt lat="42.9807440" lon="-2.7403520">
        <ele>661.691040</ele>
        <time>2020-07-17T10:20:36.000Z</time>
      </trkpt>
      <trkpt lat="42.9808020" lon="-2.7403040">
        <ele>662.278992</ele>
        <time>2020-07-17T10:20:41.000Z</time>
      </trkpt>
      <trkpt lat="42.9808970" lon="-2.7402600">
        <ele>662.837036</ele>
        <time>2020-07-17T10:20:46.000Z</time>
      </trkpt>
      <trkpt lat="42.9809400" lon="-2.7402390">
        <ele>663.017029</ele>
        <time>2020-07-17T10:20:49.000Z</time>
      </trkpt>
      <trkpt lat="42.9810830" lon="-2.7401720">
        <ele>663.875000</ele>
        <time>2020-07-17T10:20:59.000Z</time>
      </trkpt>
      <trkpt lat="42.9811160" lon="-2.7401560">
        <ele>664.018982</ele>
        <time>2020-07-17T10:21:01.000Z</time>
      </trkpt>
      <trkpt lat="42.9811970" lon="-2.7400790">
        <ele>664.651001</ele>
        <time>2020-07-17T10:21:09.000Z</time>
      </trkpt>
      <trkpt lat="42.9812760" lon="-2.7400090">
        <ele>665.064026</ele>
        <time>2020-07-17T10:21:15.000Z</time>
      </trkpt>
      <trkpt lat="42.9813080" lon="-2.7399860">
        <ele>665.235962</ele>
        <time>2020-07-17T10:21:18.000Z</time>
      </trkpt>
      <trkpt lat="42.9813940" lon="-2.7399240">
        <ele>666.216980</ele>
        <time>2020-07-17T10:21:25.000Z</time>
      </trkpt>
      <trkpt lat="42.9814330" lon="-2.7398960">
        <ele>666.617981</ele>
        <time>2020-07-17T10:21:28.000Z</time>
      </trkpt>
      <trkpt lat="42.9815740" lon="-2.7397950">
        <ele>667.208008</ele>
        <time>2020-07-17T10:21:36.000Z</time>
      </trkpt>
      <trkpt lat="42.9815970" lon="-2.7397830">
        <ele>667.457947</ele>
        <time>2020-07-17T10:21:37.000Z</time>
      </trkpt>
      <trkpt lat="42.9817470" lon="-2.7396810">
        <ele>668.026001</ele>
        <time>2020-07-17T10:21:47.000Z</time>
      </trkpt>
      <trkpt lat="42.9818220" lon="-2.7396430">
        <ele>668.253967</ele>
        <time>2020-07-17T10:21:53.000Z</time>
      </trkpt>
      <trkpt lat="42.9818420" lon="-2.7396330">
        <ele>668.253967</ele>
        <time>2020-07-17T10:21:54.000Z</time>
      </trkpt>
      <trkpt lat="42.9818620" lon="-2.7396260">
        <ele>668.221985</ele>
        <time>2020-07-17T10:21:55.000Z</time>
      </trkpt>
      <trkpt lat="42.9818770" lon="-2.7396200">
        <ele>668.445984</ele>
        <time>2020-07-17T10:21:56.000Z</time>
      </trkpt>
      <trkpt lat="42.9820100" lon="-2.7395900">
        <ele>669.097961</ele>
        <time>2020-07-17T10:22:05.000Z</time>
      </trkpt>
      <trkpt lat="42.9820290" lon="-2.7395860">
        <ele>669.080994</ele>
        <time>2020-07-17T10:22:06.000Z</time>
      </trkpt>
      <trkpt lat="42.9820810" lon="-2.7395810">
        <ele>669.448059</ele>
        <time>2020-07-17T10:22:09.000Z</time>
      </trkpt>
      <trkpt lat="42.9821340" lon="-2.7395810">
        <ele>669.861023</ele>
        <time>2020-07-17T10:22:12.000Z</time>
      </trkpt>
      <trkpt lat="42.9821710" lon="-2.7395860">
        <ele>670.217041</ele>
        <time>2020-07-17T10:22:15.000Z</time>
      </trkpt>
      <trkpt lat="42.9826020" lon="-2.7394920">
        <ele>672.207947</ele>
        <time>2020-07-17T10:22:35.000Z</time>
      </trkpt>
      <trkpt lat="42.9826500" lon="-2.7394820">
        <ele>672.468994</ele>
        <time>2020-07-17T10:22:37.000Z</time>
      </trkpt>
      <trkpt lat="42.9827670" lon="-2.7394280">
        <ele>673.226990</ele>
        <time>2020-07-17T10:22:44.000Z</time>
      </trkpt>
      <trkpt lat="42.9828170" lon="-2.7394040">
        <ele>673.434998</ele>
        <time>2020-07-17T10:22:46.000Z</time>
      </trkpt>
      <trkpt lat="42.9828930" lon="-2.7393620">
        <ele>674.265015</ele>
        <time>2020-07-17T10:22:50.000Z</time>
      </trkpt>
      <trkpt lat="42.9829380" lon="-2.7393350">
        <ele>674.882996</ele>
        <time>2020-07-17T10:22:54.000Z</time>
      </trkpt>
      <trkpt lat="42.9829740" lon="-2.7393240">
        <ele>675.257019</ele>
        <time>2020-07-17T10:22:58.000Z</time>
      </trkpt>
      <trkpt lat="42.9830070" lon="-2.7393210">
        <ele>675.699036</ele>
        <time>2020-07-17T10:23:00.000Z</time>
      </trkpt>
      <trkpt lat="42.9830250" lon="-2.7393190">
        <ele>675.691956</ele>
        <time>2020-07-17T10:23:01.000Z</time>
      </trkpt>
      <trkpt lat="42.9831200" lon="-2.7393040">
        <ele>676.261963</ele>
        <time>2020-07-17T10:23:07.000Z</time>
      </trkpt>
      <trkpt lat="42.9831740" lon="-2.7393190">
        <ele>676.482971</ele>
        <time>2020-07-17T10:23:10.000Z</time>
      </trkpt>
      <trkpt lat="42.9831870" lon="-2.7393250">
        <ele>676.610962</ele>
        <time>2020-07-17T10:23:11.000Z</time>
      </trkpt>
      <trkpt lat="42.9833200" lon="-2.7393560">
        <ele>677.408020</ele>
        <time>2020-07-17T10:23:19.000Z</time>
      </trkpt>
      <trkpt lat="42.9833320" lon="-2.7393640">
        <ele>677.411011</ele>
        <time>2020-07-17T10:23:20.000Z</time>
      </trkpt>
      <trkpt lat="42.9834960" lon="-2.7393890">
        <ele>678.419006</ele>
        <time>2020-07-17T10:23:29.000Z</time>
      </trkpt>
      <trkpt lat="42.9835110" lon="-2.7393930">
        <ele>678.666992</ele>
        <time>2020-07-17T10:23:30.000Z</time>
      </trkpt>
      <trkpt lat="42.9835660" lon="-2.7394320">
        <ele>679.266968</ele>
        <time>2020-07-17T10:23:35.000Z</time>
      </trkpt>
      <trkpt lat="42.9836230" lon="-2.7394270">
        <ele>679.475037</ele>
        <time>2020-07-17T10:23:38.000Z</time>
      </trkpt>
      <trkpt lat="42.9836390" lon="-2.7394230">
        <ele>679.459045</ele>
        <time>2020-07-17T10:23:39.000Z</time>
      </trkpt>
      <trkpt lat="42.9836700" lon="-2.7394180">
        <ele>679.890991</ele>
        <time>2020-07-17T10:23:41.000Z</time>
      </trkpt>
      <trkpt lat="42.9838350" lon="-2.7394250">
        <ele>680.484009</ele>
        <time>2020-07-17T10:23:49.000Z</time>
      </trkpt>
      <trkpt lat="42.9839430" lon="-2.7394490">
        <ele>680.696960</ele>
        <time>2020-07-17T10:23:54.000Z</time>
      </trkpt>
      <trkpt lat="42.9840010" lon="-2.7394590">
        <ele>681.023010</ele>
        <time>2020-07-17T10:23:57.000Z</time>
      </trkpt>
      <trkpt lat="42.9840880" lon="-2.7394420">
        <ele>681.825012</ele>
        <time>2020-07-17T10:24:02.000Z</time>
      </trkpt>
      <trkpt lat="42.9841440" lon="-2.7394500">
        <ele>682.407959</ele>
        <time>2020-07-17T10:24:06.000Z</time>
      </trkpt>
      <trkpt lat="42.9841960" lon="-2.7394820">
        <ele>683.093994</ele>
        <time>2020-07-17T10:24:10.000Z</time>
      </trkpt>
      <trkpt lat="42.9843240" lon="-2.7395100">
        <ele>683.481995</ele>
        <time>2020-07-17T10:24:18.000Z</time>
      </trkpt>
      <trkpt lat="42.9844110" lon="-2.7395160">
        <ele>684.089966</ele>
        <time>2020-07-17T10:24:24.000Z</time>
      </trkpt>
      <trkpt lat="42.9844260" lon="-2.7395260">
        <ele>684.250000</ele>
        <time>2020-07-17T10:24:26.000Z</time>
      </trkpt>
      <trkpt lat="42.9844260" lon="-2.7395260">
        <ele>684.287964</ele>
        <time>2020-07-17T10:24:27.000Z</time>
      </trkpt>
      <trkpt lat="42.9845310" lon="-2.7395540">
        <ele>684.612000</ele>
        <time>2020-07-17T10:24:34.000Z</time>
      </trkpt>
      <trkpt lat="42.9845710" lon="-2.7395650">
        <ele>684.854004</ele>
        <time>2020-07-17T10:24:36.000Z</time>
      </trkpt>
      <trkpt lat="42.9846410" lon="-2.7395810">
        <ele>685.037048</ele>
        <time>2020-07-17T10:24:40.000Z</time>
      </trkpt>
      <trkpt lat="42.9847020" lon="-2.7395950">
        <ele>685.471008</ele>
        <time>2020-07-17T10:24:44.000Z</time>
      </trkpt>
      <trkpt lat="42.9847890" lon="-2.7395870">
        <ele>686.240967</ele>
        <time>2020-07-17T10:24:50.000Z</time>
      </trkpt>
      <trkpt lat="42.9848570" lon="-2.7395680">
        <ele>686.415039</ele>
        <time>2020-07-17T10:24:53.000Z</time>
      </trkpt>
      <trkpt lat="42.9848980" lon="-2.7395600">
        <ele>686.807983</ele>
        <time>2020-07-17T10:24:56.000Z</time>
      </trkpt>
      <trkpt lat="42.9849090" lon="-2.7395610">
        <ele>687.011963</ele>
        <time>2020-07-17T10:24:57.000Z</time>
      </trkpt>
      <trkpt lat="42.9850520" lon="-2.7395760">
        <ele>688.060059</ele>
        <time>2020-07-17T10:25:05.000Z</time>
      </trkpt>
      <trkpt lat="42.9850750" lon="-2.7395790">
        <ele>688.247986</ele>
        <time>2020-07-17T10:25:06.000Z</time>
      </trkpt>
      <trkpt lat="42.9851990" lon="-2.7396440">
        <ele>689.237976</ele>
        <time>2020-07-17T10:25:13.000Z</time>
      </trkpt>
      <trkpt lat="42.9852510" lon="-2.7396700">
        <ele>689.876038</ele>
        <time>2020-07-17T10:25:16.000Z</time>
      </trkpt>
      <trkpt lat="42.9853060" lon="-2.7397000">
        <ele>690.260010</ele>
        <time>2020-07-17T10:25:20.000Z</time>
      </trkpt>
      <trkpt lat="42.9853870" lon="-2.7397390">
        <ele>691.432007</ele>
        <time>2020-07-17T10:25:26.000Z</time>
      </trkpt>
      <trkpt lat="42.9853960" lon="-2.7397450">
        <ele>691.695007</ele>
        <time>2020-07-17T10:25:27.000Z</time>
      </trkpt>
      <trkpt lat="42.9854630" lon="-2.7397960">
        <ele>692.664978</ele>
        <time>2020-07-17T10:25:34.000Z</time>
      </trkpt>
      <trkpt lat="42.9855190" lon="-2.7398250">
        <ele>693.067993</ele>
        <time>2020-07-17T10:25:38.000Z</time>
      </trkpt>
      <trkpt lat="42.9855540" lon="-2.7398500">
        <ele>693.614014</ele>
        <time>2020-07-17T10:25:41.000Z</time>
      </trkpt>
      <trkpt lat="42.9856500" lon="-2.7399040">
        <ele>694.807983</ele>
        <time>2020-07-17T10:25:48.000Z</time>
      </trkpt>
      <trkpt lat="42.9856650" lon="-2.7399100">
        <ele>694.811035</ele>
        <time>2020-07-17T10:25:49.000Z</time>
      </trkpt>
      <trkpt lat="42.9857470" lon="-2.7399550">
        <ele>695.868958</ele>
        <time>2020-07-17T10:25:55.000Z</time>
      </trkpt>
      <trkpt lat="42.9858120" lon="-2.7399960">
        <ele>697.036987</ele>
        <time>2020-07-17T10:26:00.000Z</time>
      </trkpt>
      <trkpt lat="42.9858580" lon="-2.7400220">
        <ele>698.037048</ele>
        <time>2020-07-17T10:26:03.000Z</time>
      </trkpt>
      <trkpt lat="42.9859620" lon="-2.7400770">
        <ele>699.065002</ele>
        <time>2020-07-17T10:26:12.000Z</time>
      </trkpt>
      <trkpt lat="42.9859820" lon="-2.7400980">
        <ele>699.278992</ele>
        <time>2020-07-17T10:26:14.000Z</time>
      </trkpt>
      <trkpt lat="42.9860850" lon="-2.7401800">
        <ele>699.810974</ele>
        <time>2020-07-17T10:26:24.000Z</time>
      </trkpt>
      <trkpt lat="42.9861120" lon="-2.7401910">
        <ele>700.223999</ele>
        <time>2020-07-17T10:26:26.000Z</time>
      </trkpt>
      <trkpt lat="42.9862170" lon="-2.7402450">
        <ele>701.493042</ele>
        <time>2020-07-17T10:26:35.000Z</time>
      </trkpt>
      <trkpt lat="42.9862710" lon="-2.7402780">
        <ele>702.465027</ele>
        <time>2020-07-17T10:26:41.000Z</time>
      </trkpt>
      <trkpt lat="42.9863410" lon="-2.7403070">
        <ele>703.221008</ele>
        <time>2020-07-17T10:26:47.000Z</time>
      </trkpt>
      <trkpt lat="42.9863530" lon="-2.7403110">
        <ele>703.408020</ele>
        <time>2020-07-17T10:26:48.000Z</time>
      </trkpt>
      <trkpt lat="42.9864480" lon="-2.7403260">
        <ele>704.614014</ele>
        <time>2020-07-17T10:26:55.000Z</time>
      </trkpt>
      <trkpt lat="42.9865120" lon="-2.7403280">
        <ele>705.671997</ele>
        <time>2020-07-17T10:27:00.000Z</time>
      </trkpt>
      <trkpt lat="42.9865340" lon="-2.7403260">
        <ele>706.209961</ele>
        <time>2020-07-17T10:27:02.000Z</time>
      </trkpt>
      <trkpt lat="42.9865760" lon="-2.7403210">
        <ele>706.839966</ele>
        <time>2020-07-17T10:27:06.000Z</time>
      </trkpt>
      <trkpt lat="42.9866410" lon="-2.7403020">
        <ele>707.817993</ele>
        <time>2020-07-17T10:27:13.000Z</time>
      </trkpt>
      <trkpt lat="42.9866540" lon="-2.7403000">
        <ele>708.262024</ele>
        <time>2020-07-17T10:27:15.000Z</time>
      </trkpt>
      <trkpt lat="42.9866950" lon="-2.7402940">
        <ele>708.874023</ele>
        <time>2020-07-17T10:27:21.000Z</time>
      </trkpt>
      <trkpt lat="42.9867650" lon="-2.7402860">
        <ele>709.876953</ele>
        <time>2020-07-17T10:27:28.000Z</time>
      </trkpt>
      <trkpt lat="42.9868020" lon="-2.7402860">
        <ele>710.257996</ele>
        <time>2020-07-17T10:27:31.000Z</time>
      </trkpt>
      <trkpt lat="42.9869020" lon="-2.7402740">
        <ele>711.252014</ele>
        <time>2020-07-17T10:27:40.000Z</time>
      </trkpt>
      <trkpt lat="42.9869650" lon="-2.7402670">
        <ele>711.817017</ele>
        <time>2020-07-17T10:27:45.000Z</time>
      </trkpt>
      <trkpt lat="42.9870050" lon="-2.7402680">
        <ele>712.208008</ele>
        <time>2020-07-17T10:27:50.000Z</time>
      </trkpt>
      <trkpt lat="42.9870620" lon="-2.7402590">
        <ele>713.209961</ele>
        <time>2020-07-17T10:27:55.000Z</time>
      </trkpt>
      <trkpt lat="42.9871060" lon="-2.7402610">
        <ele>713.877991</ele>
        <time>2020-07-17T10:27:58.000Z</time>
      </trkpt>
      <trkpt lat="42.9871470" lon="-2.7402630">
        <ele>714.436035</ele>
        <time>2020-07-17T10:28:01.000Z</time>
      </trkpt>
      <trkpt lat="42.9872980" lon="-2.7402660">
        <ele>715.476013</ele>
        <time>2020-07-17T10:28:15.000Z</time>
      </trkpt>
      <trkpt lat="42.9873230" lon="-2.7402600">
        <ele>715.654053</ele>
        <time>2020-07-17T10:28:17.000Z</time>
      </trkpt>
      <trkpt lat="42.9874010" lon="-2.7402660">
        <ele>716.647949</ele>
        <time>2020-07-17T10:28:27.000Z</time>
      </trkpt>
      <trkpt lat="42.9874280" lon="-2.7402680">
        <ele>717.050049</ele>
        <time>2020-07-17T10:28:30.000Z</time>
      </trkpt>
      <trkpt lat="42.9875050" lon="-2.7402700">
        <ele>717.692993</ele>
        <time>2020-07-17T10:28:36.000Z</time>
      </trkpt>
      <trkpt lat="42.9875690" lon="-2.7402620">
        <ele>718.882019</ele>
        <time>2020-07-17T10:28:42.000Z</time>
      </trkpt>
      <trkpt lat="42.9875960" lon="-2.7402510">
        <ele>719.643005</ele>
        <time>2020-07-17T10:28:45.000Z</time>
      </trkpt>
      <trkpt lat="42.9876230" lon="-2.7402500">
        <ele>720.017029</ele>
        <time>2020-07-17T10:28:49.000Z</time>
      </trkpt>
      <trkpt lat="42.9877140" lon="-2.7402450">
        <ele>721.007996</ele>
        <time>2020-07-17T10:28:56.000Z</time>
      </trkpt>
      <trkpt lat="42.9877420" lon="-2.7402410">
        <ele>721.452942</ele>
        <time>2020-07-17T10:28:58.000Z</time>
      </trkpt>
      <trkpt lat="42.9877940" lon="-2.7402270">
        <ele>722.061035</ele>
        <time>2020-07-17T10:29:02.000Z</time>
      </trkpt>
      <trkpt lat="42.9878610" lon="-2.7402100">
        <ele>723.498962</ele>
        <time>2020-07-17T10:29:07.000Z</time>
      </trkpt>
      <trkpt lat="42.9879200" lon="-2.7401970">
        <ele>724.458984</ele>
        <time>2020-07-17T10:29:11.000Z</time>
      </trkpt>
      <trkpt lat="42.9879830" lon="-2.7401740">
        <ele>725.416992</ele>
        <time>2020-07-17T10:29:16.000Z</time>
      </trkpt>
      <trkpt lat="42.9880570" lon="-2.7401580">
        <ele>726.661011</ele>
        <time>2020-07-17T10:29:22.000Z</time>
      </trkpt>
      <trkpt lat="42.9881140" lon="-2.7401690">
        <ele>727.853027</ele>
        <time>2020-07-17T10:29:29.000Z</time>
      </trkpt>
      <trkpt lat="42.9881310" lon="-2.7401840">
        <ele>728.285950</ele>
        <time>2020-07-17T10:29:32.000Z</time>
      </trkpt>
      <trkpt lat="42.9881760" lon="-2.7402060">
        <ele>728.848999</ele>
        <time>2020-07-17T10:29:38.000Z</time>
      </trkpt>
      <trkpt lat="42.9882360" lon="-2.7402360">
        <ele>730.002014</ele>
        <time>2020-07-17T10:29:45.000Z</time>
      </trkpt>
      <trkpt lat="42.9882850" lon="-2.7402620">
        <ele>730.822021</ele>
        <time>2020-07-17T10:29:51.000Z</time>
      </trkpt>
      <trkpt lat="42.9883120" lon="-2.7402800">
        <ele>731.008057</ele>
        <time>2020-07-17T10:29:54.000Z</time>
      </trkpt>
      <trkpt lat="42.9883810" lon="-2.7403200">
        <ele>732.058960</ele>
        <time>2020-07-17T10:30:02.000Z</time>
      </trkpt>
      <trkpt lat="42.9884280" lon="-2.7403410">
        <ele>732.677002</ele>
        <time>2020-07-17T10:30:06.000Z</time>
      </trkpt>
      <trkpt lat="42.9884590" lon="-2.7403700">
        <ele>733.265015</ele>
        <time>2020-07-17T10:30:09.000Z</time>
      </trkpt>
      <trkpt lat="42.9885290" lon="-2.7404060">
        <ele>734.284973</ele>
        <time>2020-07-17T10:30:15.000Z</time>
      </trkpt>
      <trkpt lat="42.9885720" lon="-2.7404130">
        <ele>735.443054</ele>
        <time>2020-07-17T10:30:19.000Z</time>
      </trkpt>
      <trkpt lat="42.9885850" lon="-2.7403920">
        <ele>736.027039</ele>
        <time>2020-07-17T10:30:21.000Z</time>
      </trkpt>
      <trkpt lat="42.9886040" lon="-2.7403760">
        <ele>736.628967</ele>
        <time>2020-07-17T10:30:23.000Z</time>
      </trkpt>
      <trkpt lat="42.9886720" lon="-2.7403450">
        <ele>737.821960</ele>
        <time>2020-07-17T10:30:29.000Z</time>
      </trkpt>
      <trkpt lat="42.9887120" lon="-2.7403260">
        <ele>738.827026</ele>
        <time>2020-07-17T10:30:33.000Z</time>
      </trkpt>
      <trkpt lat="42.9887280" lon="-2.7403160">
        <ele>739.268005</ele>
        <time>2020-07-17T10:30:35.000Z</time>
      </trkpt>
      <trkpt lat="42.9887510" lon="-2.7403090">
        <ele>740.013977</ele>
        <time>2020-07-17T10:30:39.000Z</time>
      </trkpt>
      <trkpt lat="42.9887640" lon="-2.7403040">
        <ele>740.007996</ele>
        <time>2020-07-17T10:30:42.000Z</time>
      </trkpt>
      <trkpt lat="42.9887710" lon="-2.7400700">
        <ele>740.467041</ele>
        <time>2020-07-17T10:35:27.000Z</time>
      </trkpt>
      <trkpt lat="42.9887800" lon="-2.7400450">
        <ele>740.474976</ele>
        <time>2020-07-17T10:35:28.000Z</time>
      </trkpt>
      <trkpt lat="42.9887910" lon="-2.7399130">
        <ele>740.453064</ele>
        <time>2020-07-17T10:35:32.000Z</time>
      </trkpt>
      <trkpt lat="42.9887940" lon="-2.7398130">
        <ele>740.413025</ele>
        <time>2020-07-17T10:35:34.000Z</time>
      </trkpt>
      <trkpt lat="42.9888020" lon="-2.7395710">
        <ele>739.851013</ele>
        <time>2020-07-17T10:35:38.000Z</time>
      </trkpt>
      <trkpt lat="42.9888170" lon="-2.7394940">
        <ele>739.684998</ele>
        <time>2020-07-17T10:35:39.000Z</time>
      </trkpt>
      <trkpt lat="42.9888330" lon="-2.7393980">
        <ele>739.276978</ele>
        <time>2020-07-17T10:35:40.000Z</time>
      </trkpt>
      <trkpt lat="42.9888700" lon="-2.7391610">
        <ele>737.869995</ele>
        <time>2020-07-17T10:35:43.000Z</time>
      </trkpt>
      <trkpt lat="42.9888960" lon="-2.7390350">
        <ele>737.270996</ele>
        <time>2020-07-17T10:35:45.000Z</time>
      </trkpt>
      <trkpt lat="42.9889040" lon="-2.7389890">
        <ele>736.841003</ele>
        <time>2020-07-17T10:35:46.000Z</time>
      </trkpt>
      <trkpt lat="42.9889110" lon="-2.7388620">
        <ele>735.215027</ele>
        <time>2020-07-17T10:35:49.000Z</time>
      </trkpt>
      <trkpt lat="42.9889260" lon="-2.7387640">
        <ele>733.807983</ele>
        <time>2020-07-17T10:35:52.000Z</time>
      </trkpt>
      <trkpt lat="42.9889580" lon="-2.7387160">
        <ele>732.471985</ele>
        <time>2020-07-17T10:35:54.000Z</time>
      </trkpt>
      <trkpt lat="42.9889710" lon="-2.7387030">
        <ele>732.270020</ele>
        <time>2020-07-17T10:35:55.000Z</time>
      </trkpt>
      <trkpt lat="42.9890270" lon="-2.7386560">
        <ele>731.868042</ele>
        <time>2020-07-17T10:36:01.000Z</time>
      </trkpt>
      <trkpt lat="42.9891920" lon="-2.7386260">
        <ele>732.867981</ele>
        <time>2020-07-17T10:36:11.000Z</time>
      </trkpt>
      <trkpt lat="42.9892430" lon="-2.7386050">
        <ele>733.616028</ele>
        <time>2020-07-17T10:36:16.000Z</time>
      </trkpt>
      <trkpt lat="42.9892590" lon="-2.7385970">
        <ele>734.089966</ele>
        <time>2020-07-17T10:36:18.000Z</time>
      </trkpt>
      <trkpt lat="42.9892810" lon="-2.7385830">
        <ele>734.812012</ele>
        <time>2020-07-17T10:36:22.000Z</time>
      </trkpt>
      <trkpt lat="42.9893360" lon="-2.7385760">
        <ele>736.034973</ele>
        <time>2020-07-17T10:36:29.000Z</time>
      </trkpt>
      <trkpt lat="42.9893460" lon="-2.7385730">
        <ele>736.089050</ele>
        <time>2020-07-17T10:36:30.000Z</time>
      </trkpt>
      <trkpt lat="42.9894020" lon="-2.7385550">
        <ele>737.006042</ele>
        <time>2020-07-17T10:36:34.000Z</time>
      </trkpt>
      <trkpt lat="42.9895270" lon="-2.7384870">
        <ele>738.426025</ele>
        <time>2020-07-17T10:36:41.000Z</time>
      </trkpt>
      <trkpt lat="42.9895500" lon="-2.7384770">
        <ele>738.407959</ele>
        <time>2020-07-17T10:36:42.000Z</time>
      </trkpt>
      <trkpt lat="42.9896250" lon="-2.7384340">
        <ele>739.442993</ele>
        <time>2020-07-17T10:36:46.000Z</time>
      </trkpt>
      <trkpt lat="42.9896780" lon="-2.7384200">
        <ele>740.041016</ele>
        <time>2020-07-17T10:36:51.000Z</time>
      </trkpt>
      <trkpt lat="42.9896880" lon="-2.7384130">
        <ele>740.289001</ele>
        <time>2020-07-17T10:36:52.000Z</time>
      </trkpt>
      <trkpt lat="42.9897440" lon="-2.7384000">
        <ele>741.669006</ele>
        <time>2020-07-17T10:36:57.000Z</time>
      </trkpt>
      <trkpt lat="42.9897980" lon="-2.7383840">
        <ele>742.477051</ele>
        <time>2020-07-17T10:37:03.000Z</time>
      </trkpt>
      <trkpt lat="42.9898550" lon="-2.7383310">
        <ele>743.640991</ele>
        <time>2020-07-17T10:37:10.000Z</time>
      </trkpt>
      <trkpt lat="42.9899040" lon="-2.7383190">
        <ele>744.813049</ele>
        <time>2020-07-17T10:37:16.000Z</time>
      </trkpt>
      <trkpt lat="42.9899160" lon="-2.7383190">
        <ele>744.846008</ele>
        <time>2020-07-17T10:37:17.000Z</time>
      </trkpt>
      <trkpt lat="42.9899400" lon="-2.7383110">
        <ele>745.046021</ele>
        <time>2020-07-17T10:37:19.000Z</time>
      </trkpt>
      <trkpt lat="42.9900140" lon="-2.7382880">
        <ele>745.687988</ele>
        <time>2020-07-17T10:37:24.000Z</time>
      </trkpt>
      <trkpt lat="42.9900970" lon="-2.7382850">
        <ele>747.015991</ele>
        <time>2020-07-17T10:37:30.000Z</time>
      </trkpt>
      <trkpt lat="42.9901440" lon="-2.7382940">
        <ele>747.608032</ele>
        <time>2020-07-17T10:37:33.000Z</time>
      </trkpt>
      <trkpt lat="42.9901800" lon="-2.7382920">
        <ele>748.219055</ele>
        <time>2020-07-17T10:37:35.000Z</time>
      </trkpt>
      <trkpt lat="42.9902830" lon="-2.7383300">
        <ele>749.237000</ele>
        <time>2020-07-17T10:37:42.000Z</time>
      </trkpt>
      <trkpt lat="42.9902920" lon="-2.7383400">
        <ele>749.415039</ele>
        <time>2020-07-17T10:37:43.000Z</time>
      </trkpt>
      <trkpt lat="42.9903230" lon="-2.7383570">
        <ele>750.245056</ele>
        <time>2020-07-17T10:37:46.000Z</time>
      </trkpt>
      <trkpt lat="42.9903950" lon="-2.7384260">
        <ele>751.462952</ele>
        <time>2020-07-17T10:37:53.000Z</time>
      </trkpt>
      <trkpt lat="42.9904190" lon="-2.7384410">
        <ele>752.096985</ele>
        <time>2020-07-17T10:37:55.000Z</time>
      </trkpt>
      <trkpt lat="42.9904610" lon="-2.7384710">
        <ele>752.698975</ele>
        <time>2020-07-17T10:37:59.000Z</time>
      </trkpt>
      <trkpt lat="42.9905190" lon="-2.7385260">
        <ele>753.821960</ele>
        <time>2020-07-17T10:38:05.000Z</time>
      </trkpt>
      <trkpt lat="42.9905420" lon="-2.7385410">
        <ele>754.015991</ele>
        <time>2020-07-17T10:38:07.000Z</time>
      </trkpt>
      <trkpt lat="42.9906050" lon="-2.7385700">
        <ele>754.875977</ele>
        <time>2020-07-17T10:38:13.000Z</time>
      </trkpt>
      <trkpt lat="42.9906450" lon="-2.7386000">
        <ele>755.213013</ele>
        <time>2020-07-17T10:38:17.000Z</time>
      </trkpt>
      <trkpt lat="42.9907050" lon="-2.7386280">
        <ele>755.807983</ele>
        <time>2020-07-17T10:38:23.000Z</time>
      </trkpt>
      <trkpt lat="42.9907310" lon="-2.7386290">
        <ele>756.285950</ele>
        <time>2020-07-17T10:38:25.000Z</time>
      </trkpt>
      <trkpt lat="42.9908360" lon="-2.7386360">
        <ele>756.814026</ele>
        <time>2020-07-17T10:38:32.000Z</time>
      </trkpt>
      <trkpt lat="42.9909480" lon="-2.7386560">
        <ele>756.841980</ele>
        <time>2020-07-17T10:38:40.000Z</time>
      </trkpt>
      <trkpt lat="42.9910440" lon="-2.7386620">
        <ele>757.021973</ele>
        <time>2020-07-17T10:38:47.000Z</time>
      </trkpt>
      <trkpt lat="42.9910920" lon="-2.7386530">
        <ele>758.069946</ele>
        <time>2020-07-17T10:38:51.000Z</time>
      </trkpt>
      <trkpt lat="42.9911880" lon="-2.7386230">
        <ele>759.083984</ele>
        <time>2020-07-17T10:38:57.000Z</time>
      </trkpt>
      <trkpt lat="42.9913590" lon="-2.7385630">
        <ele>759.855957</ele>
        <time>2020-07-17T10:39:09.000Z</time>
      </trkpt>
      <trkpt lat="42.9915470" lon="-2.7385640">
        <ele>759.669006</ele>
        <time>2020-07-17T10:39:18.000Z</time>
      </trkpt>
      <trkpt lat="42.9917150" lon="-2.7385320">
        <ele>758.676025</ele>
        <time>2020-07-17T10:39:25.000Z</time>
      </trkpt>
      <trkpt lat="42.9919380" lon="-2.7384520">
        <ele>757.890015</ele>
        <time>2020-07-17T10:39:34.000Z</time>
      </trkpt>
      <trkpt lat="42.9919630" lon="-2.7384510">
        <ele>757.818970</ele>
        <time>2020-07-17T10:39:35.000Z</time>
      </trkpt>
      <trkpt lat="42.9921110" lon="-2.7385090">
        <ele>756.807983</ele>
        <time>2020-07-17T10:39:42.000Z</time>
      </trkpt>
      <trkpt lat="42.9921320" lon="-2.7385220">
        <ele>756.622009</ele>
        <time>2020-07-17T10:39:43.000Z</time>
      </trkpt>
      <trkpt lat="42.9922260" lon="-2.7386540">
        <ele>755.620056</ele>
        <time>2020-07-17T10:39:49.000Z</time>
      </trkpt>
      <trkpt lat="42.9922460" lon="-2.7386770">
        <ele>755.477966</ele>
        <time>2020-07-17T10:39:50.000Z</time>
      </trkpt>
      <trkpt lat="42.9923320" lon="-2.7388040">
        <ele>754.218018</ele>
        <time>2020-07-17T10:39:54.000Z</time>
      </trkpt>
      <trkpt lat="42.9924030" lon="-2.7389210">
        <ele>752.876038</ele>
        <time>2020-07-17T10:39:57.000Z</time>
      </trkpt>
      <trkpt lat="42.9924670" lon="-2.7390480">
        <ele>751.619995</ele>
        <time>2020-07-17T10:40:00.000Z</time>
      </trkpt>
      <trkpt lat="42.9925220" lon="-2.7391800">
        <ele>750.291992</ele>
        <time>2020-07-17T10:40:03.000Z</time>
      </trkpt>
      <trkpt lat="42.9925610" lon="-2.7392550">
        <ele>749.655029</ele>
        <time>2020-07-17T10:40:05.000Z</time>
      </trkpt>
      <trkpt lat="42.9925860" lon="-2.7392910">
        <ele>749.415039</ele>
        <time>2020-07-17T10:40:06.000Z</time>
      </trkpt>
      <trkpt lat="42.9927490" lon="-2.7394870">
        <ele>748.464966</ele>
        <time>2020-07-17T10:40:11.000Z</time>
      </trkpt>
      <trkpt lat="42.9927850" lon="-2.7395290">
        <ele>748.411011</ele>
        <time>2020-07-17T10:40:12.000Z</time>
      </trkpt>
      <trkpt lat="42.9930530" lon="-2.7398080">
        <ele>747.007996</ele>
        <time>2020-07-17T10:40:19.000Z</time>
      </trkpt>
      <trkpt lat="42.9932500" lon="-2.7399580">
        <ele>746.086060</ele>
        <time>2020-07-17T10:40:25.000Z</time>
      </trkpt>
      <trkpt lat="42.9932870" lon="-2.7399820">
        <ele>745.883972</ele>
        <time>2020-07-17T10:40:26.000Z</time>
      </trkpt>
      <trkpt lat="42.9935260" lon="-2.7401840">
        <ele>744.651978</ele>
        <time>2020-07-17T10:40:32.000Z</time>
      </trkpt>
      <trkpt lat="42.9936220" lon="-2.7402690">
        <ele>744.432007</ele>
        <time>2020-07-17T10:40:34.000Z</time>
      </trkpt>
      <trkpt lat="42.9938310" lon="-2.7405240">
        <ele>743.460022</ele>
        <time>2020-07-17T10:40:39.000Z</time>
      </trkpt>
      <trkpt lat="42.9939060" lon="-2.7405970">
        <ele>742.454041</ele>
        <time>2020-07-17T10:40:43.000Z</time>
      </trkpt>
      <trkpt lat="42.9939170" lon="-2.7405900">
        <ele>742.226013</ele>
        <time>2020-07-17T10:40:44.000Z</time>
      </trkpt>
      <trkpt lat="42.9939350" lon="-2.7405600">
        <ele>741.619019</ele>
        <time>2020-07-17T10:40:47.000Z</time>
      </trkpt>
      <trkpt lat="42.9939840" lon="-2.7405110">
        <ele>741.685974</ele>
        <time>2020-07-17T10:40:51.000Z</time>
      </trkpt>
      <trkpt lat="42.9940520" lon="-2.7404350">
        <ele>743.460022</ele>
        <time>2020-07-17T10:40:59.000Z</time>
      </trkpt>
      <trkpt lat="42.9940630" lon="-2.7404100">
        <ele>744.825989</ele>
        <time>2020-07-17T10:41:02.000Z</time>
      </trkpt>
      <trkpt lat="42.9940890" lon="-2.7403590">
        <ele>745.808044</ele>
        <time>2020-07-17T10:41:06.000Z</time>
      </trkpt>
      <trkpt lat="42.9941070" lon="-2.7403180">
        <ele>746.862976</ele>
        <time>2020-07-17T10:41:10.000Z</time>
      </trkpt>
      <trkpt lat="42.9941130" lon="-2.7403040">
        <ele>747.261047</ele>
        <time>2020-07-17T10:41:11.000Z</time>
      </trkpt>
      <trkpt lat="42.9941290" lon="-2.7402720">
        <ele>748.078979</ele>
        <time>2020-07-17T10:41:13.000Z</time>
      </trkpt>
      <trkpt lat="42.9941670" lon="-2.7401810">
        <ele>749.098999</ele>
        <time>2020-07-17T10:41:19.000Z</time>
      </trkpt>
      <trkpt lat="42.9941950" lon="-2.7401220">
        <ele>749.657043</ele>
        <time>2020-07-17T10:41:23.000Z</time>
      </trkpt>
      <trkpt lat="42.9942040" lon="-2.7400840">
        <ele>750.250977</ele>
        <time>2020-07-17T10:41:26.000Z</time>
      </trkpt>
      <trkpt lat="42.9942080" lon="-2.7400660">
        <ele>750.432983</ele>
        <time>2020-07-17T10:41:28.000Z</time>
      </trkpt>
      <trkpt lat="42.9957300" lon="-2.7383130">
        <ele>776.015991</ele>
        <time>2020-07-17T10:51:42.000Z</time>
      </trkpt>
      <trkpt lat="42.9957610" lon="-2.7382980">
        <ele>776.083008</ele>
        <time>2020-07-17T10:51:44.000Z</time>
      </trkpt>
      <trkpt lat="42.9958850" lon="-2.7382610">
        <ele>775.825012</ele>
        <time>2020-07-17T10:51:53.000Z</time>
      </trkpt>
      <trkpt lat="42.9959580" lon="-2.7382570">
        <ele>775.816956</ele>
        <time>2020-07-17T10:51:58.000Z</time>
      </trkpt>
      <trkpt lat="42.9960650" lon="-2.7382850">
        <ele>776.007996</ele>
        <time>2020-07-17T10:52:05.000Z</time>
      </trkpt>
      <trkpt lat="42.9961890" lon="-2.7383230">
        <ele>776.233032</ele>
        <time>2020-07-17T10:52:13.000Z</time>
      </trkpt>
      <trkpt lat="42.9963300" lon="-2.7383600">
        <ele>776.881042</ele>
        <time>2020-07-17T10:52:22.000Z</time>
      </trkpt>
      <trkpt lat="42.9964890" lon="-2.7384380">
        <ele>776.688965</ele>
        <time>2020-07-17T10:52:31.000Z</time>
      </trkpt>
      <trkpt lat="42.9966470" lon="-2.7384770">
        <ele>776.619019</ele>
        <time>2020-07-17T10:52:40.000Z</time>
      </trkpt>
      <trkpt lat="42.9968230" lon="-2.7384710">
        <ele>776.276978</ele>
        <time>2020-07-17T10:52:48.000Z</time>
      </trkpt>
      <trkpt lat="42.9969850" lon="-2.7384750">
        <ele>775.811035</ele>
        <time>2020-07-17T10:52:55.000Z</time>
      </trkpt>
      <trkpt lat="42.9970450" lon="-2.7384450">
        <ele>775.633057</ele>
        <time>2020-07-17T10:52:57.000Z</time>
      </trkpt>
      <trkpt lat="42.9972360" lon="-2.7383480">
        <ele>775.286011</ele>
        <time>2020-07-17T10:53:04.000Z</time>
      </trkpt>
      <trkpt lat="42.9973210" lon="-2.7383280">
        <ele>775.095032</ele>
        <time>2020-07-17T10:53:07.000Z</time>
      </trkpt>
      <trkpt lat="42.9974760" lon="-2.7383100">
        <ele>774.648987</ele>
        <time>2020-07-17T10:53:13.000Z</time>
      </trkpt>
      <trkpt lat="42.9976850" lon="-2.7383540">
        <ele>774.622986</ele>
        <time>2020-07-17T10:53:22.000Z</time>
      </trkpt>
      <trkpt lat="42.9979450" lon="-2.7384320">
        <ele>774.408020</ele>
        <time>2020-07-17T10:53:29.000Z</time>
      </trkpt>
      <trkpt lat="42.9981280" lon="-2.7384850">
        <ele>773.874023</ele>
        <time>2020-07-17T10:53:33.000Z</time>
      </trkpt>
      <trkpt lat="42.9982480" lon="-2.7385270">
        <ele>773.411987</ele>
        <time>2020-07-17T10:53:36.000Z</time>
      </trkpt>
      <trkpt lat="42.9984220" lon="-2.7385720">
        <ele>772.679993</ele>
        <time>2020-07-17T10:53:39.000Z</time>
      </trkpt>
      <trkpt lat="42.9985680" lon="-2.7386190">
        <ele>771.880005</ele>
        <time>2020-07-17T10:53:41.000Z</time>
      </trkpt>
      <trkpt lat="42.9986300" lon="-2.7386520">
        <ele>771.677979</ele>
        <time>2020-07-17T10:53:42.000Z</time>
      </trkpt>
      <trkpt lat="42.9987520" lon="-2.7387300">
        <ele>770.422058</ele>
        <time>2020-07-17T10:53:44.000Z</time>
      </trkpt>
      <trkpt lat="42.9988560" lon="-2.7388150">
        <ele>769.424011</ele>
        <time>2020-07-17T10:53:46.000Z</time>
      </trkpt>
      <trkpt lat="42.9989020" lon="-2.7388590">
        <ele>768.636963</ele>
        <time>2020-07-17T10:53:47.000Z</time>
      </trkpt>
      <trkpt lat="42.9989460" lon="-2.7389090">
        <ele>767.841003</ele>
        <time>2020-07-17T10:53:48.000Z</time>
      </trkpt>
      <trkpt lat="42.9990340" lon="-2.7389830">
        <ele>766.880981</ele>
        <time>2020-07-17T10:53:50.000Z</time>
      </trkpt>
      <trkpt lat="42.9991130" lon="-2.7390520">
        <ele>765.609009</ele>
        <time>2020-07-17T10:53:52.000Z</time>
      </trkpt>
      <trkpt lat="42.9991860" lon="-2.7391510">
        <ele>765.007996</ele>
        <time>2020-07-17T10:53:54.000Z</time>
      </trkpt>
      <trkpt lat="42.9992550" lon="-2.7392660">
        <ele>764.669006</ele>
        <time>2020-07-17T10:53:56.000Z</time>
      </trkpt>
      <trkpt lat="42.9993370" lon="-2.7394190">
        <ele>763.896973</ele>
        <time>2020-07-17T10:53:59.000Z</time>
      </trkpt>
      <trkpt lat="42.9993570" lon="-2.7394610">
        <ele>763.654968</ele>
        <time>2020-07-17T10:54:00.000Z</time>
      </trkpt>
      <trkpt lat="42.9994220" lon="-2.7395810">
        <ele>762.294983</ele>
        <time>2020-07-17T10:54:03.000Z</time>
      </trkpt>
      <trkpt lat="42.9994810" lon="-2.7396790">
        <ele>761.213013</ele>
        <time>2020-07-17T10:54:05.000Z</time>
      </trkpt>
      <trkpt lat="42.9995120" lon="-2.7397390">
        <ele>761.036987</ele>
        <time>2020-07-17T10:54:06.000Z</time>
      </trkpt>
      <trkpt lat="42.9996140" lon="-2.7399250">
        <ele>759.878967</ele>
        <time>2020-07-17T10:54:10.000Z</time>
      </trkpt>
      <trkpt lat="42.9996680" lon="-2.7400350">
        <ele>758.842041</ele>
        <time>2020-07-17T10:54:12.000Z</time>
      </trkpt>
      <trkpt lat="42.9996940" lon="-2.7400890">
        <ele>758.288025</ele>
        <time>2020-07-17T10:54:13.000Z</time>
      </trkpt>
      <trkpt lat="42.9997240" lon="-2.7401380">
        <ele>757.424011</ele>
        <time>2020-07-17T10:54:14.000Z</time>
      </trkpt>
      <trkpt lat="42.9998100" lon="-2.7402100">
        <ele>756.025940</ele>
        <time>2020-07-17T10:54:16.000Z</time>
      </trkpt>
      <trkpt lat="42.9999130" lon="-2.7402700">
        <ele>755.007996</ele>
        <time>2020-07-17T10:54:18.000Z</time>
      </trkpt>
      <trkpt lat="42.9999760" lon="-2.7402870">
        <ele>753.843018</ele>
        <time>2020-07-17T10:54:19.000Z</time>
      </trkpt>
      <trkpt lat="43.0001400" lon="-2.7403120">
        <ele>752.840942</ele>
        <time>2020-07-17T10:54:22.000Z</time>
      </trkpt>
      <trkpt lat="43.0001950" lon="-2.7403040">
        <ele>752.438965</ele>
        <time>2020-07-17T10:54:23.000Z</time>
      </trkpt>
      <trkpt lat="43.0002920" lon="-2.7402710">
        <ele>751.468994</ele>
        <time>2020-07-17T10:54:25.000Z</time>
      </trkpt>
      <trkpt lat="43.0003980" lon="-2.7402720">
        <ele>750.057007</ele>
        <time>2020-07-17T10:54:27.000Z</time>
      </trkpt>
      <trkpt lat="43.0004450" lon="-2.7402960">
        <ele>749.271057</ele>
        <time>2020-07-17T10:54:28.000Z</time>
      </trkpt>
      <trkpt lat="43.0004890" lon="-2.7403260">
        <ele>748.812988</ele>
        <time>2020-07-17T10:54:29.000Z</time>
      </trkpt>
      <trkpt lat="43.0005660" lon="-2.7403990">
        <ele>747.635986</ele>
        <time>2020-07-17T10:54:31.000Z</time>
      </trkpt>
      <trkpt lat="43.0005960" lon="-2.7404360">
        <ele>747.038025</ele>
        <time>2020-07-17T10:54:32.000Z</time>
      </trkpt>
      <trkpt lat="43.0006260" lon="-2.7404750">
        <ele>746.470032</ele>
        <time>2020-07-17T10:54:33.000Z</time>
      </trkpt>
      <trkpt lat="43.0006750" lon="-2.7405430">
        <ele>745.416992</ele>
        <time>2020-07-17T10:54:35.000Z</time>
      </trkpt>
      <trkpt lat="43.0007430" lon="-2.7406220">
        <ele>744.807983</ele>
        <time>2020-07-17T10:54:38.000Z</time>
      </trkpt>
      <trkpt lat="43.0009120" lon="-2.7407140">
        <ele>744.458008</ele>
        <time>2020-07-17T10:54:44.000Z</time>
      </trkpt>
      <trkpt lat="43.0010370" lon="-2.7408190">
        <ele>744.255981</ele>
        <time>2020-07-17T10:54:47.000Z</time>
      </trkpt>
      <trkpt lat="43.0010730" lon="-2.7408720">
        <ele>744.263977</ele>
        <time>2020-07-17T10:54:48.000Z</time>
      </trkpt>
      <trkpt lat="43.0011900" lon="-2.7411000">
        <ele>743.064026</ele>
        <time>2020-07-17T10:54:52.000Z</time>
      </trkpt>
      <trkpt lat="43.0012180" lon="-2.7411540">
        <ele>742.651978</ele>
        <time>2020-07-17T10:54:53.000Z</time>
      </trkpt>
      <trkpt lat="43.0012840" lon="-2.7412420">
        <ele>742.066040</ele>
        <time>2020-07-17T10:54:55.000Z</time>
      </trkpt>
      <trkpt lat="43.0013550" lon="-2.7412970">
        <ele>741.247986</ele>
        <time>2020-07-17T10:54:57.000Z</time>
      </trkpt>
      <trkpt lat="43.0014220" lon="-2.7413290">
        <ele>740.691040</ele>
        <time>2020-07-17T10:54:59.000Z</time>
      </trkpt>
      <trkpt lat="43.0015670" lon="-2.7413790">
        <ele>740.082947</ele>
        <time>2020-07-17T10:55:03.000Z</time>
      </trkpt>
      <trkpt lat="43.0017670" lon="-2.7415410">
        <ele>739.824951</ele>
        <time>2020-07-17T10:55:09.000Z</time>
      </trkpt>
      <trkpt lat="43.0017980" lon="-2.7415780">
        <ele>739.817017</ele>
        <time>2020-07-17T10:55:10.000Z</time>
      </trkpt>
      <trkpt lat="43.0020330" lon="-2.7418400">
        <ele>739.208008</ele>
        <time>2020-07-17T10:55:17.000Z</time>
      </trkpt>
      <trkpt lat="43.0021670" lon="-2.7419900">
        <ele>739.083008</ele>
        <time>2020-07-17T10:55:23.000Z</time>
      </trkpt>
      <trkpt lat="43.0023130" lon="-2.7422020">
        <ele>739.260986</ele>
        <time>2020-07-17T10:55:30.000Z</time>
      </trkpt>
      <trkpt lat="43.0023760" lon="-2.7423900">
        <ele>740.059021</ele>
        <time>2020-07-17T10:55:36.000Z</time>
      </trkpt>
      <trkpt lat="43.0024340" lon="-2.7426540">
        <ele>740.268982</ele>
        <time>2020-07-17T10:55:44.000Z</time>
      </trkpt>
      <trkpt lat="43.0024710" lon="-2.7430390">
        <ele>740.846985</ele>
        <time>2020-07-17T10:55:54.000Z</time>
      </trkpt>
      <trkpt lat="43.0025250" lon="-2.7433710">
        <ele>740.830994</ele>
        <time>2020-07-17T10:56:01.000Z</time>
      </trkpt>
      <trkpt lat="43.0026080" lon="-2.7437730">
        <ele>740.862976</ele>
        <time>2020-07-17T10:56:07.000Z</time>
      </trkpt>
      <trkpt lat="43.0027650" lon="-2.7440690">
        <ele>740.426025</ele>
        <time>2020-07-17T10:56:13.000Z</time>
      </trkpt>
      <trkpt lat="43.0028410" lon="-2.7442190">
        <ele>739.612000</ele>
        <time>2020-07-17T10:56:16.000Z</time>
      </trkpt>
      <trkpt lat="43.0028600" lon="-2.7442740">
        <ele>738.831970</ele>
        <time>2020-07-17T10:56:17.000Z</time>
      </trkpt>
      <trkpt lat="43.0028910" lon="-2.7444170">
        <ele>737.804993</ele>
        <time>2020-07-17T10:56:20.000Z</time>
      </trkpt>
      <trkpt lat="43.0029210" lon="-2.7445180">
        <ele>736.408020</ele>
        <time>2020-07-17T10:56:24.000Z</time>
      </trkpt>
      <trkpt lat="43.0029300" lon="-2.7445230">
        <ele>736.226013</ele>
        <time>2020-07-17T10:56:25.000Z</time>
      </trkpt>
      <trkpt lat="43.0029380" lon="-2.7445290">
        <ele>735.473999</ele>
        <time>2020-07-17T10:56:28.000Z</time>
      </trkpt>
      <trkpt lat="43.0029380" lon="-2.7445270">
        <ele>735.281982</ele>
        <time>2020-07-17T10:56:29.000Z</time>
      </trkpt>
      <trkpt lat="43.0029070" lon="-2.7443640">
        <ele>734.291992</ele>
        <time>2020-07-17T10:56:40.000Z</time>
      </trkpt>
      <trkpt lat="43.0029080" lon="-2.7443260">
        <ele>734.250000</ele>
        <time>2020-07-17T10:56:41.000Z</time>
      </trkpt>
      <trkpt lat="43.0029360" lon="-2.7442130">
        <ele>733.814026</ele>
        <time>2020-07-17T10:56:45.000Z</time>
      </trkpt>
      <trkpt lat="43.0029630" lon="-2.7441330">
        <ele>733.486023</ele>
        <time>2020-07-17T10:56:48.000Z</time>
      </trkpt>
      <trkpt lat="43.0029710" lon="-2.7441010">
        <ele>733.449036</ele>
        <time>2020-07-17T10:56:49.000Z</time>
      </trkpt>
      <trkpt lat="43.0029650" lon="-2.7439030">
        <ele>732.825012</ele>
        <time>2020-07-17T10:56:56.000Z</time>
      </trkpt>
      <trkpt lat="43.0029380" lon="-2.7436890">
        <ele>732.225952</ele>
        <time>2020-07-17T10:57:01.000Z</time>
      </trkpt>
      <trkpt lat="43.0029290" lon="-2.7436470">
        <ele>732.007996</ele>
        <time>2020-07-17T10:57:02.000Z</time>
      </trkpt>
      <trkpt lat="43.0029170" lon="-2.7434020">
        <ele>731.208008</ele>
        <time>2020-07-17T10:57:07.000Z</time>
      </trkpt>
      <trkpt lat="43.0029190" lon="-2.7433490">
        <ele>730.617004</ele>
        <time>2020-07-17T10:57:08.000Z</time>
      </trkpt>
      <trkpt lat="43.0029210" lon="-2.7432980">
        <ele>730.075012</ele>
        <time>2020-07-17T10:57:09.000Z</time>
      </trkpt>
      <trkpt lat="43.0029250" lon="-2.7432060">
        <ele>728.882996</ele>
        <time>2020-07-17T10:57:11.000Z</time>
      </trkpt>
      <trkpt lat="43.0029310" lon="-2.7430630">
        <ele>727.833008</ele>
        <time>2020-07-17T10:57:14.000Z</time>
      </trkpt>
      <trkpt lat="43.0029340" lon="-2.7429660">
        <ele>727.080994</ele>
        <time>2020-07-17T10:57:16.000Z</time>
      </trkpt>
      <trkpt lat="43.0029350" lon="-2.7428720">
        <ele>726.424988</ele>
        <time>2020-07-17T10:57:18.000Z</time>
      </trkpt>
      <trkpt lat="43.0029230" lon="-2.7426920">
        <ele>725.036987</ele>
        <time>2020-07-17T10:57:22.000Z</time>
      </trkpt>
      <trkpt lat="43.0029140" lon="-2.7425870">
        <ele>724.630005</ele>
        <time>2020-07-17T10:57:24.000Z</time>
      </trkpt>
      <trkpt lat="43.0029080" lon="-2.7424780">
        <ele>723.845032</ele>
        <time>2020-07-17T10:57:26.000Z</time>
      </trkpt>
      <trkpt lat="43.0028860" lon="-2.7423260">
        <ele>722.647034</ele>
        <time>2020-07-17T10:57:29.000Z</time>
      </trkpt>
      <trkpt lat="43.0028680" lon="-2.7422330">
        <ele>721.411011</ele>
        <time>2020-07-17T10:57:31.000Z</time>
      </trkpt>
      <trkpt lat="43.0028580" lon="-2.7421870">
        <ele>720.607971</ele>
        <time>2020-07-17T10:57:32.000Z</time>
      </trkpt>
      <trkpt lat="43.0028480" lon="-2.7421430">
        <ele>719.289001</ele>
        <time>2020-07-17T10:57:33.000Z</time>
      </trkpt>
      <trkpt lat="43.0028300" lon="-2.7420630">
        <ele>717.867004</ele>
        <time>2020-07-17T10:57:35.000Z</time>
      </trkpt>
      <trkpt lat="43.0028180" lon="-2.7419920">
        <ele>716.474976</ele>
        <time>2020-07-17T10:57:37.000Z</time>
      </trkpt>
      <trkpt lat="43.0028140" lon="-2.7419630">
        <ele>715.885010</ele>
        <time>2020-07-17T10:57:38.000Z</time>
      </trkpt>
      <trkpt lat="43.0028160" lon="-2.7419410">
        <ele>715.273010</ele>
        <time>2020-07-17T10:57:39.000Z</time>
      </trkpt>
      <trkpt lat="43.0028330" lon="-2.7419100">
        <ele>714.226990</ele>
        <time>2020-07-17T10:57:41.000Z</time>
      </trkpt>
      <trkpt lat="43.0028470" lon="-2.7419040">
        <ele>713.448975</ele>
        <time>2020-07-17T10:57:42.000Z</time>
      </trkpt>
      <trkpt lat="43.0028650" lon="-2.7419020">
        <ele>713.041992</ele>
        <time>2020-07-17T10:57:43.000Z</time>
      </trkpt>
      <trkpt lat="43.0029120" lon="-2.7419150">
        <ele>711.854004</ele>
        <time>2020-07-17T10:57:46.000Z</time>
      </trkpt>
      <trkpt lat="43.0029530" lon="-2.7419320">
        <ele>710.856018</ele>
        <time>2020-07-17T10:57:49.000Z</time>
      </trkpt>
      <trkpt lat="43.0029580" lon="-2.7419370">
        <ele>710.610962</ele>
        <time>2020-07-17T10:57:50.000Z</time>
      </trkpt>
      <trkpt lat="43.0029610" lon="-2.7419400">
        <ele>710.407959</ele>
        <time>2020-07-17T10:57:51.000Z</time>
      </trkpt>
      <trkpt lat="43.0030790" lon="-2.7419740">
        <ele>709.650024</ele>
        <time>2020-07-17T10:58:20.000Z</time>
      </trkpt>
      <trkpt lat="43.0031270" lon="-2.7419830">
        <ele>709.627991</ele>
        <time>2020-07-17T10:58:22.000Z</time>
      </trkpt>
      <trkpt lat="43.0033680" lon="-2.7419880">
        <ele>709.216003</ele>
        <time>2020-07-17T10:58:31.000Z</time>
      </trkpt>
      <trkpt lat="43.0036330" lon="-2.7420570">
        <ele>708.876038</ele>
        <time>2020-07-17T10:58:41.000Z</time>
      </trkpt>
      <trkpt lat="43.0038390" lon="-2.7420430">
        <ele>708.814026</ele>
        <time>2020-07-17T10:58:51.000Z</time>
      </trkpt>
      <trkpt lat="43.0039540" lon="-2.7420190">
        <ele>708.817993</ele>
        <time>2020-07-17T10:58:56.000Z</time>
      </trkpt>
      <trkpt lat="43.0040570" lon="-2.7420180">
        <ele>708.890015</ele>
        <time>2020-07-17T10:59:00.000Z</time>
      </trkpt>
      <trkpt lat="43.0042810" lon="-2.7420590">
        <ele>708.682983</ele>
        <time>2020-07-17T10:59:07.000Z</time>
      </trkpt>
      <trkpt lat="43.0044810" lon="-2.7421260">
        <ele>708.635010</ele>
        <time>2020-07-17T10:59:15.000Z</time>
      </trkpt>
      <trkpt lat="43.0047170" lon="-2.7421560">
        <ele>708.885986</ele>
        <time>2020-07-17T10:59:24.000Z</time>
      </trkpt>
      <trkpt lat="43.0048960" lon="-2.7421410">
        <ele>709.413940</ele>
        <time>2020-07-17T10:59:32.000Z</time>
      </trkpt>
      <trkpt lat="43.0050890" lon="-2.7422390">
        <ele>710.007996</ele>
        <time>2020-07-17T10:59:40.000Z</time>
      </trkpt>
      <trkpt lat="43.0052650" lon="-2.7424140">
        <ele>710.817993</ele>
        <time>2020-07-17T10:59:48.000Z</time>
      </trkpt>
      <trkpt lat="43.0053550" lon="-2.7425350">
        <ele>711.016052</ele>
        <time>2020-07-17T10:59:53.000Z</time>
      </trkpt>
      <trkpt lat="43.0054490" lon="-2.7427140">
        <ele>711.443970</ele>
        <time>2020-07-17T11:00:00.000Z</time>
      </trkpt>
      <trkpt lat="43.0055770" lon="-2.7429300">
        <ele>711.674011</ele>
        <time>2020-07-17T11:00:09.000Z</time>
      </trkpt>
      <trkpt lat="43.0057280" lon="-2.7431740">
        <ele>712.282043</ele>
        <time>2020-07-17T11:00:19.000Z</time>
      </trkpt>
      <trkpt lat="43.0057430" lon="-2.7432000">
        <ele>712.266052</ele>
        <time>2020-07-17T11:00:20.000Z</time>
      </trkpt>
      <trkpt lat="43.0058730" lon="-2.7434910">
        <ele>713.257996</ele>
        <time>2020-07-17T11:00:31.000Z</time>
      </trkpt>
      <trkpt lat="43.0058860" lon="-2.7435130">
        <ele>713.471008</ele>
        <time>2020-07-17T11:00:32.000Z</time>
      </trkpt>
      <trkpt lat="43.0060450" lon="-2.7437490">
        <ele>714.236023</ele>
        <time>2020-07-17T11:00:43.000Z</time>
      </trkpt>
      <trkpt lat="43.0060740" lon="-2.7437950">
        <ele>714.416992</ele>
        <time>2020-07-17T11:00:45.000Z</time>
      </trkpt>
      <trkpt lat="43.0062310" lon="-2.7439920">
        <ele>715.417969</ele>
        <time>2020-07-17T11:00:54.000Z</time>
      </trkpt>
      <trkpt lat="43.0062490" lon="-2.7440150">
        <ele>715.408020</ele>
        <time>2020-07-17T11:00:55.000Z</time>
      </trkpt>
      <trkpt lat="43.0063650" lon="-2.7442490">
        <ele>716.667969</ele>
        <time>2020-07-17T11:01:04.000Z</time>
      </trkpt>
      <trkpt lat="43.0064360" lon="-2.7444490">
        <ele>717.856018</ele>
        <time>2020-07-17T11:01:12.000Z</time>
      </trkpt>
      <trkpt lat="43.0064890" lon="-2.7445890">
        <ele>718.684021</ele>
        <time>2020-07-17T11:01:18.000Z</time>
      </trkpt>
      <trkpt lat="43.0065960" lon="-2.7446690">
        <ele>718.833984</ele>
        <time>2020-07-17T11:01:24.000Z</time>
      </trkpt>
      <trkpt lat="43.0067340" lon="-2.7445580">
        <ele>718.821960</ele>
        <time>2020-07-17T11:01:29.000Z</time>
      </trkpt>
      <trkpt lat="43.0068680" lon="-2.7444740">
        <ele>718.645996</ele>
        <time>2020-07-17T11:01:33.000Z</time>
      </trkpt>
      <trkpt lat="43.0069700" lon="-2.7444940">
        <ele>718.447998</ele>
        <time>2020-07-17T11:01:39.000Z</time>
      </trkpt>
      <trkpt lat="43.0070650" lon="-2.7445990">
        <ele>719.091003</ele>
        <time>2020-07-17T11:01:48.000Z</time>
      </trkpt>
      <trkpt lat="43.0070770" lon="-2.7446130">
        <ele>719.296021</ele>
        <time>2020-07-17T11:01:49.000Z</time>
      </trkpt>
      <trkpt lat="43.0071260" lon="-2.7446930">
        <ele>720.231018</ele>
        <time>2020-07-17T11:01:54.000Z</time>
      </trkpt>
      <trkpt lat="43.0071910" lon="-2.7447880">
        <ele>721.424011</ele>
        <time>2020-07-17T11:02:00.000Z</time>
      </trkpt>
      <trkpt lat="43.0072970" lon="-2.7448890">
        <ele>722.007996</ele>
        <time>2020-07-17T11:02:08.000Z</time>
      </trkpt>
      <trkpt lat="43.0073210" lon="-2.7449250">
        <ele>722.473999</ele>
        <time>2020-07-17T11:02:10.000Z</time>
      </trkpt>
      <trkpt lat="43.0073810" lon="-2.7450050">
        <ele>722.692017</ele>
        <time>2020-07-17T11:02:14.000Z</time>
      </trkpt>
      <trkpt lat="43.0075370" lon="-2.7451670">
        <ele>722.820007</ele>
        <time>2020-07-17T11:02:22.000Z</time>
      </trkpt>
      <trkpt lat="43.0076860" lon="-2.7454320">
        <ele>722.889954</ele>
        <time>2020-07-17T11:02:31.000Z</time>
      </trkpt>
      <trkpt lat="43.0079270" lon="-2.7458310">
        <ele>722.417969</ele>
        <time>2020-07-17T11:02:43.000Z</time>
      </trkpt>
      <trkpt lat="43.0080790" lon="-2.7459320">
        <ele>722.252014</ele>
        <time>2020-07-17T11:02:49.000Z</time>
      </trkpt>
      <trkpt lat="43.0082380" lon="-2.7460100">
        <ele>722.294006</ele>
        <time>2020-07-17T11:02:56.000Z</time>
      </trkpt>
      <trkpt lat="43.0083980" lon="-2.7460950">
        <ele>721.887024</ele>
        <time>2020-07-17T11:03:04.000Z</time>
      </trkpt>
      <trkpt lat="43.0085500" lon="-2.7462020">
        <ele>722.063965</ele>
        <time>2020-07-17T11:03:13.000Z</time>
      </trkpt>
      <trkpt lat="43.0087280" lon="-2.7462420">
        <ele>722.205994</ele>
        <time>2020-07-17T11:03:22.000Z</time>
      </trkpt>
      <trkpt lat="43.0088950" lon="-2.7462700">
        <ele>722.216003</ele>
        <time>2020-07-17T11:03:31.000Z</time>
      </trkpt>
      <trkpt lat="43.0090530" lon="-2.7463280">
        <ele>722.408020</ele>
        <time>2020-07-17T11:03:39.000Z</time>
      </trkpt>
      <trkpt lat="43.0091920" lon="-2.7463070">
        <ele>722.830994</ele>
        <time>2020-07-17T11:03:46.000Z</time>
      </trkpt>
      <trkpt lat="43.0094370" lon="-2.7463870">
        <ele>723.619019</ele>
        <time>2020-07-17T11:03:56.000Z</time>
      </trkpt>
      <trkpt lat="43.0095800" lon="-2.7464290">
        <ele>723.637024</ele>
        <time>2020-07-17T11:04:03.000Z</time>
      </trkpt>
      <trkpt lat="43.0096540" lon="-2.7464490">
        <ele>723.697021</ele>
        <time>2020-07-17T11:04:07.000Z</time>
      </trkpt>
      <trkpt lat="43.0098280" lon="-2.7465060">
        <ele>724.214966</ele>
        <time>2020-07-17T11:04:16.000Z</time>
      </trkpt>
      <trkpt lat="43.0099560" lon="-2.7465990">
        <ele>724.669006</ele>
        <time>2020-07-17T11:04:24.000Z</time>
      </trkpt>
      <trkpt lat="43.0100620" lon="-2.7467650">
        <ele>725.210999</ele>
        <time>2020-07-17T11:04:32.000Z</time>
      </trkpt>
      <trkpt lat="43.0101770" lon="-2.7469950">
        <ele>725.674011</ele>
        <time>2020-07-17T11:04:40.000Z</time>
      </trkpt>
      <trkpt lat="43.0102450" lon="-2.7470570">
        <ele>725.612000</ele>
        <time>2020-07-17T11:04:43.000Z</time>
      </trkpt>
      <trkpt lat="43.0103580" lon="-2.7470990">
        <ele>726.031982</ele>
        <time>2020-07-17T11:04:48.000Z</time>
      </trkpt>
      <trkpt lat="43.0105730" lon="-2.7470620">
        <ele>726.804993</ele>
        <time>2020-07-17T11:04:56.000Z</time>
      </trkpt>
      <trkpt lat="43.0106290" lon="-2.7470530">
        <ele>727.007996</ele>
        <time>2020-07-17T11:04:58.000Z</time>
      </trkpt>
      <trkpt lat="43.0108670" lon="-2.7470840">
        <ele>727.486023</ele>
        <time>2020-07-17T11:05:08.000Z</time>
      </trkpt>
      <trkpt lat="43.0109990" lon="-2.7471650">
        <ele>727.833984</ele>
        <time>2020-07-17T11:05:15.000Z</time>
      </trkpt>
      <trkpt lat="43.0110920" lon="-2.7472540">
        <ele>729.092041</ele>
        <time>2020-07-17T11:05:24.000Z</time>
      </trkpt>
      <trkpt lat="43.0111810" lon="-2.7473530">
        <ele>730.091980</ele>
        <time>2020-07-17T11:05:31.000Z</time>
      </trkpt>
      <trkpt lat="43.0112250" lon="-2.7473940">
        <ele>730.459961</ele>
        <time>2020-07-17T11:05:34.000Z</time>
      </trkpt>
      <trkpt lat="43.0113540" lon="-2.7475800">
        <ele>730.424011</ele>
        <time>2020-07-17T11:05:44.000Z</time>
      </trkpt>
      <trkpt lat="43.0114800" lon="-2.7477260">
        <ele>730.456055</ele>
        <time>2020-07-17T11:05:53.000Z</time>
      </trkpt>
      <trkpt lat="43.0116150" lon="-2.7478510">
        <ele>731.239014</ele>
        <time>2020-07-17T11:06:01.000Z</time>
      </trkpt>
      <trkpt lat="43.0116750" lon="-2.7479150">
        <ele>731.669006</ele>
        <time>2020-07-17T11:06:05.000Z</time>
      </trkpt>
      <trkpt lat="43.0118160" lon="-2.7480500">
        <ele>731.803955</ele>
        <time>2020-07-17T11:06:15.000Z</time>
      </trkpt>
      <trkpt lat="43.0119080" lon="-2.7481330">
        <ele>732.224060</ele>
        <time>2020-07-17T11:06:21.000Z</time>
      </trkpt>
      <trkpt lat="43.0119640" lon="-2.7481560">
        <ele>732.407959</ele>
        <time>2020-07-17T11:06:24.000Z</time>
      </trkpt>
      <trkpt lat="43.0121610" lon="-2.7482600">
        <ele>733.281006</ele>
        <time>2020-07-17T11:06:33.000Z</time>
      </trkpt>
      <trkpt lat="43.0121800" lon="-2.7482700">
        <ele>733.458984</ele>
        <time>2020-07-17T11:06:34.000Z</time>
      </trkpt>
      <trkpt lat="43.0122980" lon="-2.7483300">
        <ele>734.476990</ele>
        <time>2020-07-17T11:06:41.000Z</time>
      </trkpt>
      <trkpt lat="43.0123650" lon="-2.7483610">
        <ele>735.216980</ele>
        <time>2020-07-17T11:06:45.000Z</time>
      </trkpt>
      <trkpt lat="43.0124110" lon="-2.7483840">
        <ele>735.695007</ele>
        <time>2020-07-17T11:06:48.000Z</time>
      </trkpt>
      <trkpt lat="43.0125240" lon="-2.7484260">
        <ele>736.468994</ele>
        <time>2020-07-17T11:06:55.000Z</time>
      </trkpt>
      <trkpt lat="43.0125760" lon="-2.7484400">
        <ele>736.621033</ele>
        <time>2020-07-17T11:06:58.000Z</time>
      </trkpt>
      <trkpt lat="43.0127150" lon="-2.7484690">
        <ele>737.673950</ele>
        <time>2020-07-17T11:07:08.000Z</time>
      </trkpt>
      <trkpt lat="43.0128040" lon="-2.7484940">
        <ele>738.872009</ele>
        <time>2020-07-17T11:07:16.000Z</time>
      </trkpt>
      <trkpt lat="43.0128770" lon="-2.7484860">
        <ele>739.413025</ele>
        <time>2020-07-17T11:07:21.000Z</time>
      </trkpt>
      <trkpt lat="43.0128930" lon="-2.7484850">
        <ele>739.614014</ele>
        <time>2020-07-17T11:07:22.000Z</time>
      </trkpt>
      <trkpt lat="43.0130170" lon="-2.7485090">
        <ele>740.607971</ele>
        <time>2020-07-17T11:07:30.000Z</time>
      </trkpt>
      <trkpt lat="43.0130470" lon="-2.7485210">
        <ele>741.072021</ele>
        <time>2020-07-17T11:07:32.000Z</time>
      </trkpt>
      <trkpt lat="43.0131270" lon="-2.7485410">
        <ele>741.679993</ele>
        <time>2020-07-17T11:07:38.000Z</time>
      </trkpt>
      <trkpt lat="43.0132130" lon="-2.7485390">
        <ele>742.867981</ele>
        <time>2020-07-17T11:07:44.000Z</time>
      </trkpt>
      <trkpt lat="43.0132280" lon="-2.7485400">
        <ele>742.828064</ele>
        <time>2020-07-17T11:07:45.000Z</time>
      </trkpt>
      <trkpt lat="43.0133580" lon="-2.7485360">
        <ele>743.876038</ele>
        <time>2020-07-17T11:07:54.000Z</time>
      </trkpt>
      <trkpt lat="43.0133690" lon="-2.7485350">
        <ele>743.890015</ele>
        <time>2020-07-17T11:07:55.000Z</time>
      </trkpt>
      <trkpt lat="43.0135240" lon="-2.7484830">
        <ele>744.862000</ele>
        <time>2020-07-17T11:08:04.000Z</time>
      </trkpt>
      <trkpt lat="43.0135430" lon="-2.7484740">
        <ele>744.814941</ele>
        <time>2020-07-17T11:08:05.000Z</time>
      </trkpt>
      <trkpt lat="43.0136050" lon="-2.7484370">
        <ele>745.870972</ele>
        <time>2020-07-17T11:08:10.000Z</time>
      </trkpt>
      <trkpt lat="43.0136400" lon="-2.7483970">
        <ele>746.440979</ele>
        <time>2020-07-17T11:08:14.000Z</time>
      </trkpt>
      <trkpt lat="43.0136670" lon="-2.7483660">
        <ele>747.015015</ele>
        <time>2020-07-17T11:08:18.000Z</time>
      </trkpt>
      <trkpt lat="43.0137260" lon="-2.7483070">
        <ele>748.007996</ele>
        <time>2020-07-17T11:08:25.000Z</time>
      </trkpt>
      <trkpt lat="43.0137320" lon="-2.7482980">
        <ele>748.261963</ele>
        <time>2020-07-17T11:08:26.000Z</time>
      </trkpt>
      <trkpt lat="43.0138270" lon="-2.7481940">
        <ele>749.289978</ele>
        <time>2020-07-17T11:08:34.000Z</time>
      </trkpt>
      <trkpt lat="43.0138960" lon="-2.7481450">
        <ele>750.218018</ele>
        <time>2020-07-17T11:08:40.000Z</time>
      </trkpt>
      <trkpt lat="43.0139110" lon="-2.7481360">
        <ele>750.237976</ele>
        <time>2020-07-17T11:08:41.000Z</time>
      </trkpt>
      <trkpt lat="43.0140650" lon="-2.7480190">
        <ele>751.085999</ele>
        <time>2020-07-17T11:08:51.000Z</time>
      </trkpt>
      <trkpt lat="43.0141630" lon="-2.7478900">
        <ele>751.469971</ele>
        <time>2020-07-17T11:09:00.000Z</time>
      </trkpt>
      <trkpt lat="43.0141970" lon="-2.7478130">
        <ele>751.452026</ele>
        <time>2020-07-17T11:09:04.000Z</time>
      </trkpt>
      <trkpt lat="43.0142640" lon="-2.7476370">
        <ele>752.014954</ele>
        <time>2020-07-17T11:09:11.000Z</time>
      </trkpt>
      <trkpt lat="43.0142840" lon="-2.7475720">
        <ele>752.684998</ele>
        <time>2020-07-17T11:09:14.000Z</time>
      </trkpt>
      <trkpt lat="43.0143730" lon="-2.7474270">
        <ele>752.888977</ele>
        <time>2020-07-17T11:09:20.000Z</time>
      </trkpt>
      <trkpt lat="43.0144950" lon="-2.7472880">
        <ele>753.216980</ele>
        <time>2020-07-17T11:09:27.000Z</time>
      </trkpt>
      <trkpt lat="43.0146130" lon="-2.7471550">
        <ele>753.208008</ele>
        <time>2020-07-17T11:09:32.000Z</time>
      </trkpt>
      <trkpt lat="43.0148410" lon="-2.7468890">
        <ele>753.223022</ele>
        <time>2020-07-17T11:09:38.000Z</time>
      </trkpt>
      <trkpt lat="43.0151360" lon="-2.7465700">
        <ele>751.681030</ele>
        <time>2020-07-17T11:09:44.000Z</time>
      </trkpt>
      <trkpt lat="43.0152910" lon="-2.7464540">
        <ele>750.268982</ele>
        <time>2020-07-17T11:09:48.000Z</time>
      </trkpt>
      <trkpt lat="43.0153990" lon="-2.7464070">
        <ele>749.678955</ele>
        <time>2020-07-17T11:09:53.000Z</time>
      </trkpt>
      <trkpt lat="43.0155280" lon="-2.7463480">
        <ele>749.826965</ele>
        <time>2020-07-17T11:10:02.000Z</time>
      </trkpt>
      <trkpt lat="43.0156800" lon="-2.7463010">
        <ele>750.261047</ele>
        <time>2020-07-17T11:10:12.000Z</time>
      </trkpt>
      <trkpt lat="43.0157940" lon="-2.7462850">
        <ele>751.222961</ele>
        <time>2020-07-17T11:10:20.000Z</time>
      </trkpt>
      <trkpt lat="43.0158080" lon="-2.7462860">
        <ele>751.216003</ele>
        <time>2020-07-17T11:10:21.000Z</time>
      </trkpt>
      <trkpt lat="43.0159480" lon="-2.7462570">
        <ele>752.495972</ele>
        <time>2020-07-17T11:10:30.000Z</time>
      </trkpt>
      <trkpt lat="43.0159640" lon="-2.7462480">
        <ele>752.630981</ele>
        <time>2020-07-17T11:10:31.000Z</time>
      </trkpt>
      <trkpt lat="43.0161260" lon="-2.7461920">
        <ele>753.024048</ele>
        <time>2020-07-17T11:10:40.000Z</time>
      </trkpt>
      <trkpt lat="43.0161900" lon="-2.7461830">
        <ele>753.408020</ele>
        <time>2020-07-17T11:10:43.000Z</time>
      </trkpt>
      <trkpt lat="43.0163460" lon="-2.7461410">
        <ele>754.044006</ele>
        <time>2020-07-17T11:10:50.000Z</time>
      </trkpt>
      <trkpt lat="43.0164930" lon="-2.7461050">
        <ele>754.281982</ele>
        <time>2020-07-17T11:10:58.000Z</time>
      </trkpt>
      <trkpt lat="43.0165290" lon="-2.7461010">
        <ele>754.480042</ele>
        <time>2020-07-17T11:11:00.000Z</time>
      </trkpt>
      <trkpt lat="43.0167030" lon="-2.7461120">
        <ele>754.660034</ele>
        <time>2020-07-17T11:11:08.000Z</time>
      </trkpt>
      <trkpt lat="43.0168740" lon="-2.7461420">
        <ele>755.228027</ele>
        <time>2020-07-17T11:11:15.000Z</time>
      </trkpt>
      <trkpt lat="43.0169390" lon="-2.7461720">
        <ele>755.831970</ele>
        <time>2020-07-17T11:11:18.000Z</time>
      </trkpt>
      <trkpt lat="43.0169840" lon="-2.7461840">
        <ele>756.213989</ele>
        <time>2020-07-17T11:11:20.000Z</time>
      </trkpt>
      <trkpt lat="43.0171390" lon="-2.7461850">
        <ele>757.297058</ele>
        <time>2020-07-17T11:11:28.000Z</time>
      </trkpt>
      <trkpt lat="43.0172650" lon="-2.7461250">
        <ele>758.283997</ele>
        <time>2020-07-17T11:11:36.000Z</time>
      </trkpt>
      <trkpt lat="43.0172770" lon="-2.7461140">
        <ele>758.406982</ele>
        <time>2020-07-17T11:11:37.000Z</time>
      </trkpt>
      <trkpt lat="43.0173530" lon="-2.7460570">
        <ele>759.216980</ele>
        <time>2020-07-17T11:11:42.000Z</time>
      </trkpt>
      <trkpt lat="43.0174080" lon="-2.7459790">
        <ele>759.807983</ele>
        <time>2020-07-17T11:11:46.000Z</time>
      </trkpt>
      <trkpt lat="43.0174270" lon="-2.7459410">
        <ele>760.473022</ele>
        <time>2020-07-17T11:11:48.000Z</time>
      </trkpt>
      <trkpt lat="43.0174710" lon="-2.7458690">
        <ele>761.460999</ele>
        <time>2020-07-17T11:11:52.000Z</time>
      </trkpt>
      <trkpt lat="43.0175330" lon="-2.7457700">
        <ele>762.698975</ele>
        <time>2020-07-17T11:11:58.000Z</time>
      </trkpt>
      <trkpt lat="43.0175990" lon="-2.7456530">
        <ele>763.619019</ele>
        <time>2020-07-17T11:12:06.000Z</time>
      </trkpt>
      <trkpt lat="43.0176340" lon="-2.7456090">
        <ele>763.827026</ele>
        <time>2020-07-17T11:12:09.000Z</time>
      </trkpt>
      <trkpt lat="43.0177200" lon="-2.7455160">
        <ele>764.671021</ele>
        <time>2020-07-17T11:12:17.000Z</time>
      </trkpt>
      <trkpt lat="43.0178150" lon="-2.7454190">
        <ele>764.863037</ele>
        <time>2020-07-17T11:12:25.000Z</time>
      </trkpt>
      <trkpt lat="43.0179780" lon="-2.7453020">
        <ele>765.895996</ele>
        <time>2020-07-17T11:12:40.000Z</time>
      </trkpt>
      <trkpt lat="43.0180140" lon="-2.7452790">
        <ele>766.241943</ele>
        <time>2020-07-17T11:12:43.000Z</time>
      </trkpt>
      <trkpt lat="43.0180670" lon="-2.7452550">
        <ele>766.822021</ele>
        <time>2020-07-17T11:12:47.000Z</time>
      </trkpt>
      <trkpt lat="43.0182140" lon="-2.7452130">
        <ele>767.014038</ele>
        <time>2020-07-17T11:12:54.000Z</time>
      </trkpt>
      <trkpt lat="43.0183840" lon="-2.7451310">
        <ele>767.007996</ele>
        <time>2020-07-17T11:13:01.000Z</time>
      </trkpt>
      <trkpt lat="43.0185030" lon="-2.7449570">
        <ele>766.448975</ele>
        <time>2020-07-17T11:13:06.000Z</time>
      </trkpt>
      <trkpt lat="43.0185340" lon="-2.7447660">
        <ele>765.666992</ele>
        <time>2020-07-17T11:13:11.000Z</time>
      </trkpt>
      <trkpt lat="43.0185430" lon="-2.7446980">
        <ele>765.664978</ele>
        <time>2020-07-17T11:13:13.000Z</time>
      </trkpt>
      <trkpt lat="43.0186160" lon="-2.7444880">
        <ele>765.294983</ele>
        <time>2020-07-17T11:13:21.000Z</time>
      </trkpt>
      <trkpt lat="43.0187600" lon="-2.7441900">
        <ele>765.273010</ele>
        <time>2020-07-17T11:13:31.000Z</time>
      </trkpt>
      <trkpt lat="43.0189430" lon="-2.7438580">
        <ele>765.876953</ele>
        <time>2020-07-17T11:13:42.000Z</time>
      </trkpt>
      <trkpt lat="43.0190820" lon="-2.7436150">
        <ele>766.818970</ele>
        <time>2020-07-17T11:13:51.000Z</time>
      </trkpt>
      <trkpt lat="43.0191220" lon="-2.7435650">
        <ele>767.071960</ele>
        <time>2020-07-17T11:13:54.000Z</time>
      </trkpt>
      <trkpt lat="43.0192540" lon="-2.7434400">
        <ele>767.865967</ele>
        <time>2020-07-17T11:14:02.000Z</time>
      </trkpt>
      <trkpt lat="43.0192910" lon="-2.7434120">
        <ele>767.828979</ele>
        <time>2020-07-17T11:14:04.000Z</time>
      </trkpt>
      <trkpt lat="43.0194040" lon="-2.7433150">
        <ele>768.821045</ele>
        <time>2020-07-17T11:14:11.000Z</time>
      </trkpt>
      <trkpt lat="43.0194210" lon="-2.7433080">
        <ele>769.007996</ele>
        <time>2020-07-17T11:14:12.000Z</time>
      </trkpt>
      <trkpt lat="43.0194870" lon="-2.7432920">
        <ele>769.830994</ele>
        <time>2020-07-17T11:14:16.000Z</time>
      </trkpt>
      <trkpt lat="43.0195490" lon="-2.7432940">
        <ele>770.489014</ele>
        <time>2020-07-17T11:14:21.000Z</time>
      </trkpt>
      <trkpt lat="43.0196170" lon="-2.7432690">
        <ele>771.077026</ele>
        <time>2020-07-17T11:14:25.000Z</time>
      </trkpt>
      <trkpt lat="43.0196960" lon="-2.7432230">
        <ele>771.436951</ele>
        <time>2020-07-17T11:14:29.000Z</time>
      </trkpt>
      <trkpt lat="43.0198110" lon="-2.7431040">
        <ele>771.614990</ele>
        <time>2020-07-17T11:14:34.000Z</time>
      </trkpt>
      <trkpt lat="43.0198940" lon="-2.7429980">
        <ele>771.898987</ele>
        <time>2020-07-17T11:14:40.000Z</time>
      </trkpt>
      <trkpt lat="43.0199950" lon="-2.7428720">
        <ele>772.051025</ele>
        <time>2020-07-17T11:14:47.000Z</time>
      </trkpt>
      <trkpt lat="43.0200060" lon="-2.7428600">
        <ele>772.263977</ele>
        <time>2020-07-17T11:14:48.000Z</time>
      </trkpt>
      <trkpt lat="43.0201210" lon="-2.7427380">
        <ele>772.638000</ele>
        <time>2020-07-17T11:14:55.000Z</time>
      </trkpt>
      <trkpt lat="43.0202230" lon="-2.7426870">
        <ele>773.270020</ele>
        <time>2020-07-17T11:15:00.000Z</time>
      </trkpt>
      <trkpt lat="43.0203330" lon="-2.7426330">
        <ele>773.617004</ele>
        <time>2020-07-17T11:15:05.000Z</time>
      </trkpt>
      <trkpt lat="43.0204230" lon="-2.7426020">
        <ele>774.408020</ele>
        <time>2020-07-17T11:15:09.000Z</time>
      </trkpt>
      <trkpt lat="43.0205150" lon="-2.7425880">
        <ele>775.047974</ele>
        <time>2020-07-17T11:15:14.000Z</time>
      </trkpt>
      <trkpt lat="43.0205710" lon="-2.7425710">
        <ele>775.496033</ele>
        <time>2020-07-17T11:15:17.000Z</time>
      </trkpt>
      <trkpt lat="43.0206620" lon="-2.7425200">
        <ele>776.484009</ele>
        <time>2020-07-17T11:15:21.000Z</time>
      </trkpt>
      <trkpt lat="43.0207000" lon="-2.7424780">
        <ele>776.683960</ele>
        <time>2020-07-17T11:15:23.000Z</time>
      </trkpt>
      <trkpt lat="43.0207780" lon="-2.7423570">
        <ele>777.041992</ele>
        <time>2020-07-17T11:15:28.000Z</time>
      </trkpt>
      <trkpt lat="43.0208040" lon="-2.7422070">
        <ele>777.625977</ele>
        <time>2020-07-17T11:15:34.000Z</time>
      </trkpt>
      <trkpt lat="43.0207990" lon="-2.7420330">
        <ele>777.847961</ele>
        <time>2020-07-17T11:15:40.000Z</time>
      </trkpt>
      <trkpt lat="43.0208100" lon="-2.7419630">
        <ele>778.081055</ele>
        <time>2020-07-17T11:15:42.000Z</time>
      </trkpt>
      <trkpt lat="43.0208690" lon="-2.7416920">
        <ele>778.889038</ele>
        <time>2020-07-17T11:15:50.000Z</time>
      </trkpt>
      <trkpt lat="43.0208870" lon="-2.7416570">
        <ele>778.805969</ele>
        <time>2020-07-17T11:15:51.000Z</time>
      </trkpt>
      <trkpt lat="43.0210360" lon="-2.7414940">
        <ele>779.026001</ele>
        <time>2020-07-17T11:15:58.000Z</time>
      </trkpt>
      <trkpt lat="43.0211750" lon="-2.7414200">
        <ele>779.007996</ele>
        <time>2020-07-17T11:16:04.000Z</time>
      </trkpt>
      <trkpt lat="43.0213330" lon="-2.7413370">
        <ele>779.692993</ele>
        <time>2020-07-17T11:16:13.000Z</time>
      </trkpt>
      <trkpt lat="43.0213630" lon="-2.7413240">
        <ele>780.061035</ele>
        <time>2020-07-17T11:16:15.000Z</time>
      </trkpt>
      <trkpt lat="43.0214450" lon="-2.7413010">
        <ele>781.218994</ele>
        <time>2020-07-17T11:16:19.000Z</time>
      </trkpt>
      <trkpt lat="43.0215120" lon="-2.7412580">
        <ele>782.249023</ele>
        <time>2020-07-17T11:16:22.000Z</time>
      </trkpt>
      <trkpt lat="43.0215310" lon="-2.7412400">
        <ele>782.437012</ele>
        <time>2020-07-17T11:16:23.000Z</time>
      </trkpt>
      <trkpt lat="43.0215930" lon="-2.7411850">
        <ele>783.431030</ele>
        <time>2020-07-17T11:16:26.000Z</time>
      </trkpt>
      <trkpt lat="43.0216660" lon="-2.7411190">
        <ele>784.472961</ele>
        <time>2020-07-17T11:16:30.000Z</time>
      </trkpt>
      <trkpt lat="43.0216830" lon="-2.7411020">
        <ele>784.816040</ele>
        <time>2020-07-17T11:16:31.000Z</time>
      </trkpt>
      <trkpt lat="43.0217790" lon="-2.7409640">
        <ele>786.071960</ele>
        <time>2020-07-17T11:16:38.000Z</time>
      </trkpt>
      <trkpt lat="43.0217900" lon="-2.7409500">
        <ele>786.013000</ele>
        <time>2020-07-17T11:16:39.000Z</time>
      </trkpt>
      <trkpt lat="43.0218360" lon="-2.7408600">
        <ele>787.213989</ele>
        <time>2020-07-17T11:16:44.000Z</time>
      </trkpt>
      <trkpt lat="43.0218420" lon="-2.7407980">
        <ele>787.408020</ele>
        <time>2020-07-17T11:16:47.000Z</time>
      </trkpt>
      <trkpt lat="43.0218390" lon="-2.7407150">
        <ele>788.222046</ele>
        <time>2020-07-17T11:16:51.000Z</time>
      </trkpt>
      <trkpt lat="43.0218360" lon="-2.7406020">
        <ele>788.640015</ele>
        <time>2020-07-17T11:16:56.000Z</time>
      </trkpt>
      <trkpt lat="43.0218220" lon="-2.7404990">
        <ele>789.257996</ele>
        <time>2020-07-17T11:17:02.000Z</time>
      </trkpt>
      <trkpt lat="43.0217550" lon="-2.7403410">
        <ele>790.078003</ele>
        <time>2020-07-17T11:17:10.000Z</time>
      </trkpt>
      <trkpt lat="43.0216670" lon="-2.7401740">
        <ele>790.015991</ele>
        <time>2020-07-17T11:17:17.000Z</time>
      </trkpt>
      <trkpt lat="43.0215980" lon="-2.7399260">
        <ele>790.230042</ele>
        <time>2020-07-17T11:17:26.000Z</time>
      </trkpt>
      <trkpt lat="43.0215210" lon="-2.7397010">
        <ele>790.251953</ele>
        <time>2020-07-17T11:17:32.000Z</time>
      </trkpt>
      <trkpt lat="43.0214110" lon="-2.7393760">
        <ele>789.885010</ele>
        <time>2020-07-17T11:17:40.000Z</time>
      </trkpt>
      <trkpt lat="43.0213670" lon="-2.7391340">
        <ele>789.837036</ele>
        <time>2020-07-17T11:17:48.000Z</time>
      </trkpt>
      <trkpt lat="43.0213630" lon="-2.7388700">
        <ele>790.248962</ele>
        <time>2020-07-17T11:17:56.000Z</time>
      </trkpt>
      <trkpt lat="43.0213540" lon="-2.7388130">
        <ele>790.413025</ele>
        <time>2020-07-17T11:17:58.000Z</time>
      </trkpt>
      <trkpt lat="43.0213170" lon="-2.7386380">
        <ele>791.207947</ele>
        <time>2020-07-17T11:18:04.000Z</time>
      </trkpt>
      <trkpt lat="43.0213100" lon="-2.7386100">
        <ele>791.498047</ele>
        <time>2020-07-17T11:18:05.000Z</time>
      </trkpt>
      <trkpt lat="43.0212730" lon="-2.7384780">
        <ele>792.226013</ele>
        <time>2020-07-17T11:18:12.000Z</time>
      </trkpt>
      <trkpt lat="43.0212790" lon="-2.7384770">
        <ele>792.293945</ele>
        <time>2020-07-17T11:18:13.000Z</time>
      </trkpt>
      <trkpt lat="43.0213270" lon="-2.7385390">
        <ele>792.223999</ele>
        <time>2020-07-17T11:18:19.000Z</time>
      </trkpt>
      <trkpt lat="43.0213450" lon="-2.7386000">
        <ele>792.281982</ele>
        <time>2020-07-17T11:18:21.000Z</time>
      </trkpt>
      <trkpt lat="43.0214170" lon="-2.7388180">
        <ele>792.265991</ele>
        <time>2020-07-17T11:18:28.000Z</time>
      </trkpt>
      <trkpt lat="43.0214280" lon="-2.7388490">
        <ele>791.848022</ele>
        <time>2020-07-17T11:18:31.000Z</time>
      </trkpt>
      <trkpt lat="43.0214720" lon="-2.7387590">
        <ele>791.450989</ele>
        <time>2020-07-17T11:19:26.000Z</time>
      </trkpt>
      <trkpt lat="43.0215730" lon="-2.7386360">
        <ele>792.256042</ele>
        <time>2020-07-17T11:19:35.000Z</time>
      </trkpt>
      <trkpt lat="43.0216270" lon="-2.7385940">
        <ele>792.859009</ele>
        <time>2020-07-17T11:19:39.000Z</time>
      </trkpt>
      <trkpt lat="43.0216940" lon="-2.7385240">
        <ele>793.413940</ele>
        <time>2020-07-17T11:19:44.000Z</time>
      </trkpt>
      <trkpt lat="43.0217190" lon="-2.7384930">
        <ele>793.807983</ele>
        <time>2020-07-17T11:19:46.000Z</time>
      </trkpt>
      <trkpt lat="43.0217990" lon="-2.7384400">
        <ele>794.880005</ele>
        <time>2020-07-17T11:19:52.000Z</time>
      </trkpt>
      <trkpt lat="43.0218110" lon="-2.7384370">
        <ele>795.028015</ele>
        <time>2020-07-17T11:19:53.000Z</time>
      </trkpt>
      <trkpt lat="43.0218980" lon="-2.7385090">
        <ele>796.066040</ele>
        <time>2020-07-17T11:20:00.000Z</time>
      </trkpt>
      <trkpt lat="43.0220580" lon="-2.7386390">
        <ele>796.445984</ele>
        <time>2020-07-17T11:20:08.000Z</time>
      </trkpt>
      <trkpt lat="43.0222070" lon="-2.7387910">
        <ele>796.214050</ele>
        <time>2020-07-17T11:20:17.000Z</time>
      </trkpt>
      <trkpt lat="43.0222620" lon="-2.7388810">
        <ele>795.877991</ele>
        <time>2020-07-17T11:20:22.000Z</time>
      </trkpt>
      <trkpt lat="43.0222780" lon="-2.7388980">
        <ele>795.840027</ele>
        <time>2020-07-17T11:20:23.000Z</time>
      </trkpt>
      <trkpt lat="43.0223970" lon="-2.7390060">
        <ele>795.893005</ele>
        <time>2020-07-17T11:20:31.000Z</time>
      </trkpt>
      <trkpt lat="43.0225180" lon="-2.7390530">
        <ele>796.071960</ele>
        <time>2020-07-17T11:20:39.000Z</time>
      </trkpt>
      <trkpt lat="43.0226320" lon="-2.7391490">
        <ele>796.613037</ele>
        <time>2020-07-17T11:20:48.000Z</time>
      </trkpt>
      <trkpt lat="43.0227020" lon="-2.7391980">
        <ele>797.013977</ele>
        <time>2020-07-17T11:20:52.000Z</time>
      </trkpt>
      <trkpt lat="43.0227870" lon="-2.7392510">
        <ele>797.608032</ele>
        <time>2020-07-17T11:20:57.000Z</time>
      </trkpt>
      <trkpt lat="43.0228970" lon="-2.7392430">
        <ele>798.021973</ele>
        <time>2020-07-17T11:21:04.000Z</time>
      </trkpt>
      <trkpt lat="43.0230570" lon="-2.7392350">
        <ele>798.640015</ele>
        <time>2020-07-17T11:21:14.000Z</time>
      </trkpt>
      <trkpt lat="43.0231970" lon="-2.7392380">
        <ele>799.098022</ele>
        <time>2020-07-17T11:21:22.000Z</time>
      </trkpt>
      <trkpt lat="43.0232290" lon="-2.7392470">
        <ele>799.098022</ele>
        <time>2020-07-17T11:21:24.000Z</time>
      </trkpt>
      <trkpt lat="43.0233050" lon="-2.7392480">
        <ele>799.046021</ele>
        <time>2020-07-17T11:21:28.000Z</time>
      </trkpt>
      <trkpt lat="43.0234400" lon="-2.7392380">
        <ele>799.080017</ele>
        <time>2020-07-17T11:21:34.000Z</time>
      </trkpt>
      <trkpt lat="43.0236410" lon="-2.7391840">
        <ele>798.211975</ele>
        <time>2020-07-17T11:21:41.000Z</time>
      </trkpt>
      <trkpt lat="43.0238010" lon="-2.7391350">
        <ele>798.074951</ele>
        <time>2020-07-17T11:21:45.000Z</time>
      </trkpt>
      <trkpt lat="43.0238730" lon="-2.7390730">
        <ele>797.686035</ele>
        <time>2020-07-17T11:21:47.000Z</time>
      </trkpt>
      <trkpt lat="43.0239200" lon="-2.7389870">
        <ele>796.859985</ele>
        <time>2020-07-17T11:21:49.000Z</time>
      </trkpt>
      <trkpt lat="43.0239610" lon="-2.7389130">
        <ele>795.425964</ele>
        <time>2020-07-17T11:21:51.000Z</time>
      </trkpt>
      <trkpt lat="43.0239860" lon="-2.7388900">
        <ele>794.807983</ele>
        <time>2020-07-17T11:21:52.000Z</time>
      </trkpt>
      <trkpt lat="43.0240070" lon="-2.7388750">
        <ele>794.232971</ele>
        <time>2020-07-17T11:21:53.000Z</time>
      </trkpt>
      <trkpt lat="43.0240390" lon="-2.7388450">
        <ele>792.810974</ele>
        <time>2020-07-17T11:21:55.000Z</time>
      </trkpt>
      <trkpt lat="43.0240690" lon="-2.7387970">
        <ele>791.448975</ele>
        <time>2020-07-17T11:21:57.000Z</time>
      </trkpt>
      <trkpt lat="43.0241120" lon="-2.7387120">
        <ele>790.079041</ele>
        <time>2020-07-17T11:21:59.000Z</time>
      </trkpt>
      <trkpt lat="43.0241840" lon="-2.7385320">
        <ele>788.877014</ele>
        <time>2020-07-17T11:22:02.000Z</time>
      </trkpt>
      <trkpt lat="43.0242120" lon="-2.7384540">
        <ele>788.471008</ele>
        <time>2020-07-17T11:22:03.000Z</time>
      </trkpt>
      <trkpt lat="43.0242690" lon="-2.7382850">
        <ele>787.663025</ele>
        <time>2020-07-17T11:22:05.000Z</time>
      </trkpt>
      <trkpt lat="43.0242940" lon="-2.7381990">
        <ele>787.226013</ele>
        <time>2020-07-17T11:22:06.000Z</time>
      </trkpt>
      <trkpt lat="43.0243080" lon="-2.7381140">
        <ele>786.879028</ele>
        <time>2020-07-17T11:22:07.000Z</time>
      </trkpt>
      <trkpt lat="43.0243220" lon="-2.7380250">
        <ele>786.404968</ele>
        <time>2020-07-17T11:22:08.000Z</time>
      </trkpt>
      <trkpt lat="43.0243410" lon="-2.7378700">
        <ele>784.825012</ele>
        <time>2020-07-17T11:22:10.000Z</time>
      </trkpt>
      <trkpt lat="43.0243380" lon="-2.7377380">
        <ele>783.607971</ele>
        <time>2020-07-17T11:22:12.000Z</time>
      </trkpt>
      <trkpt lat="43.0241990" lon="-2.7375320">
        <ele>782.481995</ele>
        <time>2020-07-17T11:22:16.000Z</time>
      </trkpt>
      <trkpt lat="43.0241060" lon="-2.7374910">
        <ele>781.659973</ele>
        <time>2020-07-17T11:22:18.000Z</time>
      </trkpt>
      <trkpt lat="43.0240690" lon="-2.7374750">
        <ele>781.078003</ele>
        <time>2020-07-17T11:22:19.000Z</time>
      </trkpt>
      <trkpt lat="43.0240420" lon="-2.7374540">
        <ele>780.297974</ele>
        <time>2020-07-17T11:22:20.000Z</time>
      </trkpt>
      <trkpt lat="43.0240200" lon="-2.7374240">
        <ele>779.485962</ele>
        <time>2020-07-17T11:22:21.000Z</time>
      </trkpt>
      <trkpt lat="43.0240080" lon="-2.7373740">
        <ele>776.619995</ele>
        <time>2020-07-17T11:22:23.000Z</time>
      </trkpt>
      <trkpt lat="43.0240120" lon="-2.7373480">
        <ele>775.622009</ele>
        <time>2020-07-17T11:22:24.000Z</time>
      </trkpt>
      <trkpt lat="43.0240200" lon="-2.7373160">
        <ele>774.625000</ele>
        <time>2020-07-17T11:22:25.000Z</time>
      </trkpt>
      <trkpt lat="43.0240590" lon="-2.7372760">
        <ele>773.441040</ele>
        <time>2020-07-17T11:22:27.000Z</time>
      </trkpt>
      <trkpt lat="43.0240980" lon="-2.7372480">
        <ele>772.681030</ele>
        <time>2020-07-17T11:22:29.000Z</time>
      </trkpt>
      <trkpt lat="43.0241160" lon="-2.7372350">
        <ele>772.408936</ele>
        <time>2020-07-17T11:22:30.000Z</time>
      </trkpt>
      <trkpt lat="43.0241410" lon="-2.7372110">
        <ele>771.208008</ele>
        <time>2020-07-17T11:22:33.000Z</time>
      </trkpt>
      <trkpt lat="43.0241430" lon="-2.7372070">
        <ele>770.268982</ele>
        <time>2020-07-17T11:22:35.000Z</time>
      </trkpt>
      <trkpt lat="43.0240780" lon="-2.7369460">
        <ele>767.496948</ele>
        <time>2020-07-17T11:26:49.000Z</time>
      </trkpt>
      <trkpt lat="43.0240290" lon="-2.7369060">
        <ele>767.475037</ele>
        <time>2020-07-17T11:26:51.000Z</time>
      </trkpt>
      <trkpt lat="43.0239400" lon="-2.7368280">
        <ele>766.494995</ele>
        <time>2020-07-17T11:26:54.000Z</time>
      </trkpt>
      <trkpt lat="43.0238820" lon="-2.7367540">
        <ele>765.212952</ele>
        <time>2020-07-17T11:26:56.000Z</time>
      </trkpt>
      <trkpt lat="43.0238290" lon="-2.7366640">
        <ele>764.036987</ele>
        <time>2020-07-17T11:26:58.000Z</time>
      </trkpt>
      <trkpt lat="43.0237820" lon="-2.7365670">
        <ele>762.248962</ele>
        <time>2020-07-17T11:27:00.000Z</time>
      </trkpt>
      <trkpt lat="43.0237470" lon="-2.7364750">
        <ele>760.492004</ele>
        <time>2020-07-17T11:27:02.000Z</time>
      </trkpt>
      <trkpt lat="43.0237370" lon="-2.7364330">
        <ele>759.895996</ele>
        <time>2020-07-17T11:27:03.000Z</time>
      </trkpt>
      <trkpt lat="43.0237300" lon="-2.7363840">
        <ele>758.031006</ele>
        <time>2020-07-17T11:27:04.000Z</time>
      </trkpt>
      <trkpt lat="43.0237190" lon="-2.7363360">
        <ele>757.224060</ele>
        <time>2020-07-17T11:27:05.000Z</time>
      </trkpt>
      <trkpt lat="43.0237090" lon="-2.7362940">
        <ele>756.008057</ele>
        <time>2020-07-17T11:27:06.000Z</time>
      </trkpt>
      <trkpt lat="43.0236940" lon="-2.7362610">
        <ele>755.033997</ele>
        <time>2020-07-17T11:27:07.000Z</time>
      </trkpt>
      <trkpt lat="43.0236770" lon="-2.7362380">
        <ele>754.021973</ele>
        <time>2020-07-17T11:27:08.000Z</time>
      </trkpt>
      <trkpt lat="43.0236530" lon="-2.7362190">
        <ele>752.869995</ele>
        <time>2020-07-17T11:27:09.000Z</time>
      </trkpt>
      <trkpt lat="43.0236240" lon="-2.7362130">
        <ele>752.069946</ele>
        <time>2020-07-17T11:27:10.000Z</time>
      </trkpt>
      <trkpt lat="43.0235950" lon="-2.7362180">
        <ele>751.227966</ele>
        <time>2020-07-17T11:27:11.000Z</time>
      </trkpt>
      <trkpt lat="43.0235670" lon="-2.7362310">
        <ele>750.492004</ele>
        <time>2020-07-17T11:27:12.000Z</time>
      </trkpt>
      <trkpt lat="43.0235460" lon="-2.7362480">
        <ele>749.634033</ele>
        <time>2020-07-17T11:27:13.000Z</time>
      </trkpt>
      <trkpt lat="43.0235080" lon="-2.7362890">
        <ele>748.267029</ele>
        <time>2020-07-17T11:27:15.000Z</time>
      </trkpt>
      <trkpt lat="43.0234440" lon="-2.7363510">
        <ele>746.896057</ele>
        <time>2020-07-17T11:27:18.000Z</time>
      </trkpt>
      <trkpt lat="43.0233730" lon="-2.7363610">
        <ele>745.630981</ele>
        <time>2020-07-17T11:27:21.000Z</time>
      </trkpt>
      <trkpt lat="43.0233220" lon="-2.7363210">
        <ele>744.624023</ele>
        <time>2020-07-17T11:27:23.000Z</time>
      </trkpt>
      <trkpt lat="43.0232760" lon="-2.7362330">
        <ele>743.607971</ele>
        <time>2020-07-17T11:27:25.000Z</time>
      </trkpt>
      <trkpt lat="43.0232490" lon="-2.7361210">
        <ele>742.263977</ele>
        <time>2020-07-17T11:27:27.000Z</time>
      </trkpt>
      <trkpt lat="43.0232360" lon="-2.7359910">
        <ele>740.851990</ele>
        <time>2020-07-17T11:27:29.000Z</time>
      </trkpt>
      <trkpt lat="43.0232370" lon="-2.7359300">
        <ele>740.269958</ele>
        <time>2020-07-17T11:27:30.000Z</time>
      </trkpt>
      <trkpt lat="43.0232420" lon="-2.7358830">
        <ele>739.630005</ele>
        <time>2020-07-17T11:27:31.000Z</time>
      </trkpt>
      <trkpt lat="43.0232500" lon="-2.7358360">
        <ele>739.037964</ele>
        <time>2020-07-17T11:27:32.000Z</time>
      </trkpt>
      <trkpt lat="43.0232660" lon="-2.7357930">
        <ele>738.631958</ele>
        <time>2020-07-17T11:27:33.000Z</time>
      </trkpt>
      <trkpt lat="43.0233060" lon="-2.7356720">
        <ele>737.294006</ele>
        <time>2020-07-17T11:27:36.000Z</time>
      </trkpt>
      <trkpt lat="43.0233420" lon="-2.7355670">
        <ele>735.666992</ele>
        <time>2020-07-17T11:27:38.000Z</time>
      </trkpt>
      <trkpt lat="43.0233800" lon="-2.7354670">
        <ele>734.096008</ele>
        <time>2020-07-17T11:27:40.000Z</time>
      </trkpt>
      <trkpt lat="43.0234240" lon="-2.7353960">
        <ele>733.031006</ele>
        <time>2020-07-17T11:27:42.000Z</time>
      </trkpt>
      <trkpt lat="43.0234640" lon="-2.7353400">
        <ele>730.424011</ele>
        <time>2020-07-17T11:27:44.000Z</time>
      </trkpt>
      <trkpt lat="43.0235060" lon="-2.7353110">
        <ele>729.208008</ele>
        <time>2020-07-17T11:27:46.000Z</time>
      </trkpt>
      <trkpt lat="43.0235460" lon="-2.7352830">
        <ele>728.063965</ele>
        <time>2020-07-17T11:27:48.000Z</time>
      </trkpt>
      <trkpt lat="43.0235930" lon="-2.7352670">
        <ele>726.862000</ele>
        <time>2020-07-17T11:27:50.000Z</time>
      </trkpt>
      <trkpt lat="43.0236140" lon="-2.7352490">
        <ele>726.220032</ele>
        <time>2020-07-17T11:27:51.000Z</time>
      </trkpt>
      <trkpt lat="43.0236550" lon="-2.7352060">
        <ele>725.640015</ele>
        <time>2020-07-17T11:27:53.000Z</time>
      </trkpt>
      <trkpt lat="43.0236900" lon="-2.7351460">
        <ele>724.068054</ele>
        <time>2020-07-17T11:27:56.000Z</time>
      </trkpt>
      <trkpt lat="43.0236970" lon="-2.7351380">
        <ele>723.651978</ele>
        <time>2020-07-17T11:27:57.000Z</time>
      </trkpt>
      <trkpt lat="43.0237000" lon="-2.7351330">
        <ele>723.033997</ele>
        <time>2020-07-17T11:27:58.000Z</time>
      </trkpt>
      <trkpt lat="43.0237090" lon="-2.7351330">
        <ele>721.857056</ele>
        <time>2020-07-17T11:28:00.000Z</time>
      </trkpt>
      <trkpt lat="43.0237160" lon="-2.7351290">
        <ele>720.664978</ele>
        <time>2020-07-17T11:28:02.000Z</time>
      </trkpt>
      <trkpt lat="43.0237140" lon="-2.7351270">
        <ele>719.868042</ele>
        <time>2020-07-17T11:28:03.000Z</time>
      </trkpt>
      <trkpt lat="43.0237080" lon="-2.7351240">
        <ele>719.213989</ele>
        <time>2020-07-17T11:28:04.000Z</time>
      </trkpt>
      <trkpt lat="43.0236610" lon="-2.7350930">
        <ele>718.208008</ele>
        <time>2020-07-17T11:28:10.000Z</time>
      </trkpt>
      <trkpt lat="43.0236370" lon="-2.7350760">
        <ele>718.221008</ele>
        <time>2020-07-17T11:28:12.000Z</time>
      </trkpt>
      <trkpt lat="43.0236120" lon="-2.7350570">
        <ele>718.218994</ele>
        <time>2020-07-17T11:28:16.000Z</time>
      </trkpt>
      <trkpt lat="43.0235470" lon="-2.7350490">
        <ele>718.066956</ele>
        <time>2020-07-17T11:28:21.000Z</time>
      </trkpt>
      <trkpt lat="43.0235260" lon="-2.7350330">
        <ele>718.027039</ele>
        <time>2020-07-17T11:28:28.000Z</time>
      </trkpt>
      <trkpt lat="43.0235380" lon="-2.7350320">
        <ele>718.234985</ele>
        <time>2020-07-17T11:28:35.000Z</time>
      </trkpt>
      <trkpt lat="43.0234930" lon="-2.7350710">
        <ele>718.249023</ele>
        <time>2020-07-17T11:28:41.000Z</time>
      </trkpt>
      <trkpt lat="43.0236270" lon="-2.7350220">
        <ele>718.241028</ele>
        <time>2020-07-17T11:28:47.000Z</time>
      </trkpt>
      <trkpt lat="43.0237500" lon="-2.7350150">
        <ele>718.264038</ele>
        <time>2020-07-17T11:28:53.000Z</time>
      </trkpt>
      <trkpt lat="43.0238130" lon="-2.7350050">
        <ele>718.066956</ele>
        <time>2020-07-17T11:29:00.000Z</time>
      </trkpt>
      <trkpt lat="43.0238070" lon="-2.7350170">
        <ele>718.080994</ele>
        <time>2020-07-17T11:29:01.000Z</time>
      </trkpt>
      <trkpt lat="43.0237530" lon="-2.7350460">
        <ele>718.018982</ele>
        <time>2020-07-17T11:29:06.000Z</time>
      </trkpt>
      <trkpt lat="43.0237130" lon="-2.7350720">
        <ele>718.007996</ele>
        <time>2020-07-17T11:29:13.000Z</time>
      </trkpt>
      <trkpt lat="43.0236850" lon="-2.7351020">
        <ele>718.221008</ele>
        <time>2020-07-17T11:29:20.000Z</time>
      </trkpt>
      <trkpt lat="43.0236510" lon="-2.7350540">
        <ele>718.289001</ele>
        <time>2020-07-17T11:29:27.000Z</time>
      </trkpt>
      <trkpt lat="43.0236540" lon="-2.7350280">
        <ele>718.216980</ele>
        <time>2020-07-17T11:29:34.000Z</time>
      </trkpt>
      <trkpt lat="43.0237040" lon="-2.7350050">
        <ele>718.216980</ele>
        <time>2020-07-17T11:29:38.000Z</time>
      </trkpt>
      <trkpt lat="43.0237160" lon="-2.7349840">
        <ele>718.265015</ele>
        <time>2020-07-17T11:29:39.000Z</time>
      </trkpt>
      <trkpt lat="43.0237370" lon="-2.7350060">
        <ele>718.269043</ele>
        <time>2020-07-17T11:29:41.000Z</time>
      </trkpt>
      <trkpt lat="43.0237630" lon="-2.7350520">
        <ele>718.221008</ele>
        <time>2020-07-17T11:29:45.000Z</time>
      </trkpt>
      <trkpt lat="43.0238960" lon="-2.7349900">
        <ele>718.023987</ele>
        <time>2020-07-17T11:30:04.000Z</time>
      </trkpt>
      <trkpt lat="43.0239810" lon="-2.7349730">
        <ele>717.876038</ele>
        <time>2020-07-17T11:30:06.000Z</time>
      </trkpt>
      <trkpt lat="43.0241090" lon="-2.7349610">
        <ele>717.090027</ele>
        <time>2020-07-17T11:30:09.000Z</time>
      </trkpt>
      <trkpt lat="43.0241790" lon="-2.7349420">
        <ele>715.218994</ele>
        <time>2020-07-17T11:30:11.000Z</time>
      </trkpt>
      <trkpt lat="43.0242140" lon="-2.7349350">
        <ele>714.607971</ele>
        <time>2020-07-17T11:30:12.000Z</time>
      </trkpt>
      <trkpt lat="43.0242430" lon="-2.7349290">
        <ele>714.041992</ele>
        <time>2020-07-17T11:30:13.000Z</time>
      </trkpt>
      <trkpt lat="43.0242900" lon="-2.7349030">
        <ele>713.209961</ele>
        <time>2020-07-17T11:30:15.000Z</time>
      </trkpt>
      <trkpt lat="43.0243110" lon="-2.7348680">
        <ele>712.867981</ele>
        <time>2020-07-17T11:30:16.000Z</time>
      </trkpt>
      <trkpt lat="43.0243260" lon="-2.7348260">
        <ele>712.237976</ele>
        <time>2020-07-17T11:30:17.000Z</time>
      </trkpt>
      <trkpt lat="43.0243390" lon="-2.7347380">
        <ele>711.625977</ele>
        <time>2020-07-17T11:30:19.000Z</time>
      </trkpt>
      <trkpt lat="43.0243320" lon="-2.7346630">
        <ele>710.690002</ele>
        <time>2020-07-17T11:30:21.000Z</time>
      </trkpt>
      <trkpt lat="43.0243220" lon="-2.7346290">
        <ele>710.092041</ele>
        <time>2020-07-17T11:30:22.000Z</time>
      </trkpt>
      <trkpt lat="43.0243160" lon="-2.7345880">
        <ele>709.625000</ele>
        <time>2020-07-17T11:30:23.000Z</time>
      </trkpt>
      <trkpt lat="43.0242960" lon="-2.7345000">
        <ele>708.057983</ele>
        <time>2020-07-17T11:30:25.000Z</time>
      </trkpt>
      <trkpt lat="43.0242810" lon="-2.7344380">
        <ele>707.252014</ele>
        <time>2020-07-17T11:30:26.000Z</time>
      </trkpt>
      <trkpt lat="43.0242650" lon="-2.7343710">
        <ele>706.416992</ele>
        <time>2020-07-17T11:30:27.000Z</time>
      </trkpt>
      <trkpt lat="43.0242190" lon="-2.7342530">
        <ele>704.808044</ele>
        <time>2020-07-17T11:30:29.000Z</time>
      </trkpt>
      <trkpt lat="43.0241750" lon="-2.7341420">
        <ele>703.690063</ele>
        <time>2020-07-17T11:30:31.000Z</time>
      </trkpt>
      <trkpt lat="43.0241140" lon="-2.7340330">
        <ele>702.247986</ele>
        <time>2020-07-17T11:30:33.000Z</time>
      </trkpt>
      <trkpt lat="43.0240850" lon="-2.7339780">
        <ele>701.676025</ele>
        <time>2020-07-17T11:30:34.000Z</time>
      </trkpt>
      <trkpt lat="43.0240570" lon="-2.7339260">
        <ele>701.026001</ele>
        <time>2020-07-17T11:30:35.000Z</time>
      </trkpt>
      <trkpt lat="43.0240340" lon="-2.7338750">
        <ele>700.253967</ele>
        <time>2020-07-17T11:30:36.000Z</time>
      </trkpt>
      <trkpt lat="43.0240140" lon="-2.7338300">
        <ele>699.648010</ele>
        <time>2020-07-17T11:30:37.000Z</time>
      </trkpt>
      <trkpt lat="43.0239820" lon="-2.7337530">
        <ele>698.420044</ele>
        <time>2020-07-17T11:30:39.000Z</time>
      </trkpt>
      <trkpt lat="43.0239660" lon="-2.7337150">
        <ele>698.023010</ele>
        <time>2020-07-17T11:30:40.000Z</time>
      </trkpt>
      <trkpt lat="43.0239480" lon="-2.7336720">
        <ele>697.487976</ele>
        <time>2020-07-17T11:30:41.000Z</time>
      </trkpt>
      <trkpt lat="43.0239220" lon="-2.7335750">
        <ele>696.223999</ele>
        <time>2020-07-17T11:30:43.000Z</time>
      </trkpt>
      <trkpt lat="43.0239010" lon="-2.7334630">
        <ele>695.026001</ele>
        <time>2020-07-17T11:30:45.000Z</time>
      </trkpt>
      <trkpt lat="43.0238820" lon="-2.7332740">
        <ele>693.007996</ele>
        <time>2020-07-17T11:30:48.000Z</time>
      </trkpt>
      <trkpt lat="43.0238710" lon="-2.7330840">
        <ele>691.643005</ele>
        <time>2020-07-17T11:30:51.000Z</time>
      </trkpt>
      <trkpt lat="43.0238670" lon="-2.7330230">
        <ele>690.890991</ele>
        <time>2020-07-17T11:30:52.000Z</time>
      </trkpt>
      <trkpt lat="43.0238590" lon="-2.7329630">
        <ele>689.869019</ele>
        <time>2020-07-17T11:30:53.000Z</time>
      </trkpt>
      <trkpt lat="43.0238450" lon="-2.7328530">
        <ele>688.468994</ele>
        <time>2020-07-17T11:30:55.000Z</time>
      </trkpt>
      <trkpt lat="43.0238410" lon="-2.7327620">
        <ele>686.416992</ele>
        <time>2020-07-17T11:30:57.000Z</time>
      </trkpt>
      <trkpt lat="43.0238400" lon="-2.7327050">
        <ele>686.091003</ele>
        <time>2020-07-17T11:30:58.000Z</time>
      </trkpt>
      <trkpt lat="43.0238440" lon="-2.7326480">
        <ele>685.412964</ele>
        <time>2020-07-17T11:30:59.000Z</time>
      </trkpt>
      <trkpt lat="43.0238570" lon="-2.7325400">
        <ele>684.266052</ele>
        <time>2020-07-17T11:31:01.000Z</time>
      </trkpt>
      <trkpt lat="43.0238730" lon="-2.7324470">
        <ele>683.093994</ele>
        <time>2020-07-17T11:31:03.000Z</time>
      </trkpt>
      <trkpt lat="43.0238910" lon="-2.7323640">
        <ele>681.856995</ele>
        <time>2020-07-17T11:31:05.000Z</time>
      </trkpt>
      <trkpt lat="43.0239250" lon="-2.7323130">
        <ele>680.221985</ele>
        <time>2020-07-17T11:31:07.000Z</time>
      </trkpt>
      <trkpt lat="43.0239690" lon="-2.7322700">
        <ele>678.807983</ele>
        <time>2020-07-17T11:31:09.000Z</time>
      </trkpt>
      <trkpt lat="43.0239910" lon="-2.7322530">
        <ele>678.024048</ele>
        <time>2020-07-17T11:31:10.000Z</time>
      </trkpt>
      <trkpt lat="43.0240150" lon="-2.7322490">
        <ele>677.271973</ele>
        <time>2020-07-17T11:31:11.000Z</time>
      </trkpt>
      <trkpt lat="43.0240580" lon="-2.7322290">
        <ele>675.869934</ele>
        <time>2020-07-17T11:31:13.000Z</time>
      </trkpt>
      <trkpt lat="43.0241040" lon="-2.7322130">
        <ele>674.890015</ele>
        <time>2020-07-17T11:31:15.000Z</time>
      </trkpt>
      <trkpt lat="43.0241520" lon="-2.7322170">
        <ele>673.877991</ele>
        <time>2020-07-17T11:31:17.000Z</time>
      </trkpt>
      <trkpt lat="43.0241810" lon="-2.7322130">
        <ele>673.481995</ele>
        <time>2020-07-17T11:31:18.000Z</time>
      </trkpt>
      <trkpt lat="43.0242580" lon="-2.7322000">
        <ele>672.244019</ele>
        <time>2020-07-17T11:31:21.000Z</time>
      </trkpt>
      <trkpt lat="43.0243020" lon="-2.7321720">
        <ele>671.417053</ele>
        <time>2020-07-17T11:31:23.000Z</time>
      </trkpt>
      <trkpt lat="43.0243270" lon="-2.7321490">
        <ele>671.013977</ele>
        <time>2020-07-17T11:31:24.000Z</time>
      </trkpt>
      <trkpt lat="43.0243700" lon="-2.7320870">
        <ele>670.053955</ele>
        <time>2020-07-17T11:31:26.000Z</time>
      </trkpt>
      <trkpt lat="43.0244190" lon="-2.7320220">
        <ele>668.609009</ele>
        <time>2020-07-17T11:31:28.000Z</time>
      </trkpt>
      <trkpt lat="43.0244430" lon="-2.7319880">
        <ele>668.208008</ele>
        <time>2020-07-17T11:31:29.000Z</time>
      </trkpt>
      <trkpt lat="43.0244790" lon="-2.7319200">
        <ele>666.886047</ele>
        <time>2020-07-17T11:31:31.000Z</time>
      </trkpt>
      <trkpt lat="43.0245060" lon="-2.7318550">
        <ele>665.654053</ele>
        <time>2020-07-17T11:31:33.000Z</time>
      </trkpt>
      <trkpt lat="43.0245240" lon="-2.7317850">
        <ele>664.632019</ele>
        <time>2020-07-17T11:31:35.000Z</time>
      </trkpt>
      <trkpt lat="43.0245290" lon="-2.7316650">
        <ele>663.492004</ele>
        <time>2020-07-17T11:31:38.000Z</time>
      </trkpt>
      <trkpt lat="43.0245270" lon="-2.7315300">
        <ele>662.250061</ele>
        <time>2020-07-17T11:31:41.000Z</time>
      </trkpt>
      <trkpt lat="43.0245130" lon="-2.7314490">
        <ele>661.044006</ele>
        <time>2020-07-17T11:31:43.000Z</time>
      </trkpt>
      <trkpt lat="43.0244770" lon="-2.7313680">
        <ele>660.056030</ele>
        <time>2020-07-17T11:31:45.000Z</time>
      </trkpt>
      <trkpt lat="43.0244340" lon="-2.7312490">
        <ele>658.659058</ele>
        <time>2020-07-17T11:31:48.000Z</time>
      </trkpt>
      <trkpt lat="43.0244340" lon="-2.7312130">
        <ele>658.445984</ele>
        <time>2020-07-17T11:31:49.000Z</time>
      </trkpt>
      <trkpt lat="43.0244530" lon="-2.7310100">
        <ele>657.687988</ele>
        <time>2020-07-17T11:31:55.000Z</time>
      </trkpt>
      <trkpt lat="43.0244520" lon="-2.7309800">
        <ele>657.615967</ele>
        <time>2020-07-17T11:31:56.000Z</time>
      </trkpt>
      <trkpt lat="43.0244370" lon="-2.7309310">
        <ele>657.407959</ele>
        <time>2020-07-17T11:31:58.000Z</time>
      </trkpt>
      <trkpt lat="43.0244260" lon="-2.7308610">
        <ele>657.268982</ele>
        <time>2020-07-17T11:32:01.000Z</time>
      </trkpt>
      <trkpt lat="43.0244310" lon="-2.7308030">
        <ele>656.416992</ele>
        <time>2020-07-17T11:32:03.000Z</time>
      </trkpt>
      <trkpt lat="43.0244240" lon="-2.7306720">
        <ele>655.215027</ele>
        <time>2020-07-17T11:32:07.000Z</time>
      </trkpt>
      <trkpt lat="43.0244200" lon="-2.7306010">
        <ele>654.094971</ele>
        <time>2020-07-17T11:32:09.000Z</time>
      </trkpt>
      <trkpt lat="43.0244460" lon="-2.7305140">
        <ele>652.653015</ele>
        <time>2020-07-17T11:32:12.000Z</time>
      </trkpt>
      <trkpt lat="43.0244490" lon="-2.7304960">
        <ele>652.447021</ele>
        <time>2020-07-17T11:32:13.000Z</time>
      </trkpt>
      <trkpt lat="43.0244400" lon="-2.7304410">
        <ele>652.039001</ele>
        <time>2020-07-17T11:32:17.000Z</time>
      </trkpt>
      <trkpt lat="43.0244360" lon="-2.7304330">
        <ele>652.071960</ele>
        <time>2020-07-17T11:32:18.000Z</time>
      </trkpt>
      <trkpt lat="43.0244460" lon="-2.7303950">
        <ele>652.851990</ele>
        <time>2020-07-17T11:32:27.000Z</time>
      </trkpt>
      <trkpt lat="43.0244740" lon="-2.7303110">
        <ele>654.053040</ele>
        <time>2020-07-17T11:32:40.000Z</time>
      </trkpt>
      <trkpt lat="43.0244750" lon="-2.7302980">
        <ele>654.208008</ele>
        <time>2020-07-17T11:32:42.000Z</time>
      </trkpt>
      <trkpt lat="43.0244810" lon="-2.7302750">
        <ele>654.608032</ele>
        <time>2020-07-17T11:32:47.000Z</time>
      </trkpt>
      <trkpt lat="43.0243030" lon="-2.7298930">
        <ele>656.640015</ele>
        <time>2020-07-17T11:35:57.000Z</time>
      </trkpt>
      <trkpt lat="43.0242950" lon="-2.7298380">
        <ele>657.028015</ele>
        <time>2020-07-17T11:36:00.000Z</time>
      </trkpt>
      <trkpt lat="43.0242750" lon="-2.7298080">
        <ele>657.236023</ele>
        <time>2020-07-17T11:36:03.000Z</time>
      </trkpt>
      <trkpt lat="43.0242580" lon="-2.7297630">
        <ele>657.425964</ele>
        <time>2020-07-17T11:36:06.000Z</time>
      </trkpt>
      <trkpt lat="43.0242410" lon="-2.7297190">
        <ele>657.854004</ele>
        <time>2020-07-17T11:36:09.000Z</time>
      </trkpt>
      <trkpt lat="43.0242440" lon="-2.7296140">
        <ele>658.228027</ele>
        <time>2020-07-17T11:36:16.000Z</time>
      </trkpt>
      <trkpt lat="43.0243120" lon="-2.7293840">
        <ele>658.230042</ele>
        <time>2020-07-17T11:36:23.000Z</time>
      </trkpt>
      <trkpt lat="43.0243920" lon="-2.7291580">
        <ele>657.852966</ele>
        <time>2020-07-17T11:36:27.000Z</time>
      </trkpt>
      <trkpt lat="43.0244030" lon="-2.7290870">
        <ele>657.635010</ele>
        <time>2020-07-17T11:36:28.000Z</time>
      </trkpt>
      <trkpt lat="43.0244070" lon="-2.7289650">
        <ele>657.485962</ele>
        <time>2020-07-17T11:36:30.000Z</time>
      </trkpt>
      <trkpt lat="43.0243990" lon="-2.7288670">
        <ele>657.213989</ele>
        <time>2020-07-17T11:36:32.000Z</time>
      </trkpt>
      <trkpt lat="43.0243960" lon="-2.7287900">
        <ele>656.807983</ele>
        <time>2020-07-17T11:36:34.000Z</time>
      </trkpt>
      <trkpt lat="43.0243840" lon="-2.7286640">
        <ele>656.487976</ele>
        <time>2020-07-17T11:36:38.000Z</time>
      </trkpt>
      <trkpt lat="43.0243510" lon="-2.7283890">
        <ele>656.476013</ele>
        <time>2020-07-17T11:36:45.000Z</time>
      </trkpt>
      <trkpt lat="43.0243600" lon="-2.7282780">
        <ele>656.424011</ele>
        <time>2020-07-17T11:36:47.000Z</time>
      </trkpt>
      <trkpt lat="43.0243860" lon="-2.7280730">
        <ele>656.444031</ele>
        <time>2020-07-17T11:36:50.000Z</time>
      </trkpt>
      <trkpt lat="43.0244110" lon="-2.7279180">
        <ele>656.462036</ele>
        <time>2020-07-17T11:36:52.000Z</time>
      </trkpt>
      <trkpt lat="43.0244730" lon="-2.7276500">
        <ele>656.065979</ele>
        <time>2020-07-17T11:36:55.000Z</time>
      </trkpt>
      <trkpt lat="43.0244910" lon="-2.7275540">
        <ele>655.618042</ele>
        <time>2020-07-17T11:36:56.000Z</time>
      </trkpt>
      <trkpt lat="43.0245500" lon="-2.7273830">
        <ele>655.060974</ele>
        <time>2020-07-17T11:36:58.000Z</time>
      </trkpt>
      <trkpt lat="43.0245940" lon="-2.7273080">
        <ele>654.614990</ele>
        <time>2020-07-17T11:36:59.000Z</time>
      </trkpt>
      <trkpt lat="43.0246390" lon="-2.7272330">
        <ele>654.265015</ele>
        <time>2020-07-17T11:37:00.000Z</time>
      </trkpt>
      <trkpt lat="43.0247360" lon="-2.7270560">
        <ele>653.411011</ele>
        <time>2020-07-17T11:37:02.000Z</time>
      </trkpt>
      <trkpt lat="43.0248640" lon="-2.7267750">
        <ele>652.408020</ele>
        <time>2020-07-17T11:37:05.000Z</time>
      </trkpt>
      <trkpt lat="43.0249030" lon="-2.7266770">
        <ele>652.276001</ele>
        <time>2020-07-17T11:37:06.000Z</time>
      </trkpt>
      <trkpt lat="43.0249800" lon="-2.7264830">
        <ele>651.083984</ele>
        <time>2020-07-17T11:37:08.000Z</time>
      </trkpt>
      <trkpt lat="43.0250380" lon="-2.7262780">
        <ele>650.091980</ele>
        <time>2020-07-17T11:37:10.000Z</time>
      </trkpt>
      <trkpt lat="43.0250550" lon="-2.7261600">
        <ele>649.682007</ele>
        <time>2020-07-17T11:37:11.000Z</time>
      </trkpt>
      <trkpt lat="43.0250860" lon="-2.7258460">
        <ele>648.680054</ele>
        <time>2020-07-17T11:37:14.000Z</time>
      </trkpt>
      <trkpt lat="43.0250960" lon="-2.7257800">
        <ele>648.434021</ele>
        <time>2020-07-17T11:37:15.000Z</time>
      </trkpt>
      <trkpt lat="43.0251630" lon="-2.7255400">
        <ele>647.695984</ele>
        <time>2020-07-17T11:37:20.000Z</time>
      </trkpt>
      <trkpt lat="43.0252020" lon="-2.7254300">
        <ele>646.419006</ele>
        <time>2020-07-17T11:37:22.000Z</time>
      </trkpt>
      <trkpt lat="43.0252470" lon="-2.7253180">
        <ele>645.466980</ele>
        <time>2020-07-17T11:37:24.000Z</time>
      </trkpt>
      <trkpt lat="43.0253080" lon="-2.7251390">
        <ele>644.280945</ele>
        <time>2020-07-17T11:37:27.000Z</time>
      </trkpt>
      <trkpt lat="43.0253400" lon="-2.7250380">
        <ele>643.618958</ele>
        <time>2020-07-17T11:37:29.000Z</time>
      </trkpt>
      <trkpt lat="43.0253870" lon="-2.7248880">
        <ele>643.007996</ele>
        <time>2020-07-17T11:37:33.000Z</time>
      </trkpt>
      <trkpt lat="43.0253960" lon="-2.7248630">
        <ele>643.070984</ele>
        <time>2020-07-17T11:37:34.000Z</time>
      </trkpt>
      <trkpt lat="43.0254080" lon="-2.7248450">
        <ele>643.079041</ele>
        <time>2020-07-17T11:37:35.000Z</time>
      </trkpt>
      <trkpt lat="43.0254180" lon="-2.7247440">
        <ele>642.666992</ele>
        <time>2020-07-17T11:37:41.000Z</time>
      </trkpt>
      <trkpt lat="43.0254980" lon="-2.7248110">
        <ele>642.416992</ele>
        <time>2020-07-17T11:37:47.000Z</time>
      </trkpt>
      <trkpt lat="43.0254980" lon="-2.7248640">
        <ele>642.614990</ele>
        <time>2020-07-17T11:37:51.000Z</time>
      </trkpt>
      <trkpt lat="43.0255390" lon="-2.7247380">
        <ele>642.238953</ele>
        <time>2020-07-17T11:42:17.000Z</time>
      </trkpt>
      <trkpt lat="43.0255750" lon="-2.7247440">
        <ele>642.240967</ele>
        <time>2020-07-17T11:42:19.000Z</time>
      </trkpt>
      <trkpt lat="43.0256690" lon="-2.7246570">
        <ele>642.073975</ele>
        <time>2020-07-17T11:42:26.000Z</time>
      </trkpt>
      <trkpt lat="43.0257320" lon="-2.7245320">
        <ele>641.624023</ele>
        <time>2020-07-17T11:42:32.000Z</time>
      </trkpt>
      <trkpt lat="43.0257870" lon="-2.7244630">
        <ele>641.604004</ele>
        <time>2020-07-17T11:42:36.000Z</time>
      </trkpt>
      <trkpt lat="43.0258180" lon="-2.7244230">
        <ele>641.613953</ele>
        <time>2020-07-17T11:42:38.000Z</time>
      </trkpt>
      <trkpt lat="43.0259190" lon="-2.7242240">
        <ele>641.608032</ele>
        <time>2020-07-17T11:42:46.000Z</time>
      </trkpt>
      <trkpt lat="43.0260710" lon="-2.7239590">
        <ele>641.416992</ele>
        <time>2020-07-17T11:42:54.000Z</time>
      </trkpt>
      <trkpt lat="43.0262170" lon="-2.7236440">
        <ele>640.874939</ele>
        <time>2020-07-17T11:43:00.000Z</time>
      </trkpt>
      <trkpt lat="43.0263890" lon="-2.7232640">
        <ele>639.612976</ele>
        <time>2020-07-17T11:43:06.000Z</time>
      </trkpt>
      <trkpt lat="43.0264140" lon="-2.7232050">
        <ele>639.482971</ele>
        <time>2020-07-17T11:43:07.000Z</time>
      </trkpt>
      <trkpt lat="43.0264700" lon="-2.7230320">
        <ele>638.640991</ele>
        <time>2020-07-17T11:43:10.000Z</time>
      </trkpt>
      <trkpt lat="43.0265290" lon="-2.7228540">
        <ele>638.494995</ele>
        <time>2020-07-17T11:43:14.000Z</time>
      </trkpt>
      <trkpt lat="43.0266920" lon="-2.7224800">
        <ele>637.876953</ele>
        <time>2020-07-17T11:43:22.000Z</time>
      </trkpt>
      <trkpt lat="43.0267650" lon="-2.7221660">
        <ele>637.670044</ele>
        <time>2020-07-17T11:43:28.000Z</time>
      </trkpt>
      <trkpt lat="43.0267850" lon="-2.7218750">
        <ele>637.041992</ele>
        <time>2020-07-17T11:43:34.000Z</time>
      </trkpt>
      <trkpt lat="43.0268880" lon="-2.7215730">
        <ele>636.621948</ele>
        <time>2020-07-17T11:43:41.000Z</time>
      </trkpt>
      <trkpt lat="43.0270460" lon="-2.7211640">
        <ele>636.414001</ele>
        <time>2020-07-17T11:43:50.000Z</time>
      </trkpt>
      <trkpt lat="43.0271380" lon="-2.7209720">
        <ele>636.007996</ele>
        <time>2020-07-17T11:43:54.000Z</time>
      </trkpt>
      <trkpt lat="43.0272180" lon="-2.7208440">
        <ele>635.679016</ele>
        <time>2020-07-17T11:43:57.000Z</time>
      </trkpt>
      <trkpt lat="43.0272610" lon="-2.7208140">
        <ele>635.297058</ele>
        <time>2020-07-17T11:43:58.000Z</time>
      </trkpt>
      <trkpt lat="43.0273150" lon="-2.7207940">
        <ele>635.095032</ele>
        <time>2020-07-17T11:43:59.000Z</time>
      </trkpt>
      <trkpt lat="43.0274550" lon="-2.7207200">
        <ele>633.465027</ele>
        <time>2020-07-17T11:44:02.000Z</time>
      </trkpt>
      <trkpt lat="43.0275260" lon="-2.7206660">
        <ele>632.273010</ele>
        <time>2020-07-17T11:44:04.000Z</time>
      </trkpt>
      <trkpt lat="43.0277990" lon="-2.7205270">
        <ele>631.437012</ele>
        <time>2020-07-17T11:44:10.000Z</time>
      </trkpt>
      <trkpt lat="43.0279510" lon="-2.7204050">
        <ele>631.239014</ele>
        <time>2020-07-17T11:44:14.000Z</time>
      </trkpt>
      <trkpt lat="43.0280290" lon="-2.7203000">
        <ele>631.022034</ele>
        <time>2020-07-17T11:44:16.000Z</time>
      </trkpt>
      <trkpt lat="43.0282200" lon="-2.7199510">
        <ele>631.065979</ele>
        <time>2020-07-17T11:44:22.000Z</time>
      </trkpt>
      <trkpt lat="43.0283270" lon="-2.7197680">
        <ele>631.028992</ele>
        <time>2020-07-17T11:44:25.000Z</time>
      </trkpt>
      <trkpt lat="43.0283790" lon="-2.7196340">
        <ele>631.020996</ele>
        <time>2020-07-17T11:44:27.000Z</time>
      </trkpt>
      <trkpt lat="43.0284730" lon="-2.7193310">
        <ele>631.008057</ele>
        <time>2020-07-17T11:44:32.000Z</time>
      </trkpt>
      <trkpt lat="43.0285100" lon="-2.7192220">
        <ele>631.091003</ele>
        <time>2020-07-17T11:44:34.000Z</time>
      </trkpt>
      <trkpt lat="43.0286330" lon="-2.7189130">
        <ele>630.669006</ele>
        <time>2020-07-17T11:44:40.000Z</time>
      </trkpt>
      <trkpt lat="43.0288410" lon="-2.7184730">
        <ele>629.886963</ele>
        <time>2020-07-17T11:44:49.000Z</time>
      </trkpt>
      <trkpt lat="43.0289030" lon="-2.7183830">
        <ele>629.677002</ele>
        <time>2020-07-17T11:44:51.000Z</time>
      </trkpt>
      <trkpt lat="43.0290610" lon="-2.7182660">
        <ele>629.484985</ele>
        <time>2020-07-17T11:44:54.000Z</time>
      </trkpt>
      <trkpt lat="43.0291140" lon="-2.7182070">
        <ele>629.478943</ele>
        <time>2020-07-17T11:44:55.000Z</time>
      </trkpt>
      <trkpt lat="43.0293090" lon="-2.7181900">
        <ele>628.851013</ele>
        <time>2020-07-17T11:44:58.000Z</time>
      </trkpt>
      <trkpt lat="43.0293470" lon="-2.7181500">
        <ele>628.674011</ele>
        <time>2020-07-17T11:44:59.000Z</time>
      </trkpt>
      <trkpt lat="43.0293680" lon="-2.7181080">
        <ele>628.411011</ele>
        <time>2020-07-17T11:45:00.000Z</time>
      </trkpt>
      <trkpt lat="43.0294720" lon="-2.7180070">
        <ele>627.821045</ele>
        <time>2020-07-17T11:45:03.000Z</time>
      </trkpt>
      <trkpt lat="43.0296520" lon="-2.7178180">
        <ele>627.402954</ele>
        <time>2020-07-17T11:45:08.000Z</time>
      </trkpt>
      <trkpt lat="43.0296910" lon="-2.7177560">
        <ele>627.208008</ele>
        <time>2020-07-17T11:45:09.000Z</time>
      </trkpt>
      <trkpt lat="43.0298140" lon="-2.7175490">
        <ele>626.236023</ele>
        <time>2020-07-17T11:45:13.000Z</time>
      </trkpt>
      <trkpt lat="43.0299140" lon="-2.7173980">
        <ele>625.273987</ele>
        <time>2020-07-17T11:45:18.000Z</time>
      </trkpt>
      <trkpt lat="43.0299930" lon="-2.7172640">
        <ele>625.011963</ele>
        <time>2020-07-17T11:45:22.000Z</time>
      </trkpt>
      <trkpt lat="43.0300820" lon="-2.7170830">
        <ele>624.831970</ele>
        <time>2020-07-17T11:45:26.000Z</time>
      </trkpt>
      <trkpt lat="43.0301660" lon="-2.7168070">
        <ele>624.690002</ele>
        <time>2020-07-17T11:45:32.000Z</time>
      </trkpt>
      <trkpt lat="43.0302840" lon="-2.7164160">
        <ele>624.454041</ele>
        <time>2020-07-17T11:45:39.000Z</time>
      </trkpt>
      <trkpt lat="43.0304650" lon="-2.7159970">
        <ele>624.455994</ele>
        <time>2020-07-17T11:45:45.000Z</time>
      </trkpt>
      <trkpt lat="43.0305070" lon="-2.7159230">
        <ele>624.288940</ele>
        <time>2020-07-17T11:45:46.000Z</time>
      </trkpt>
      <trkpt lat="43.0306660" lon="-2.7156690">
        <ele>623.458008</ele>
        <time>2020-07-17T11:45:50.000Z</time>
      </trkpt>
      <trkpt lat="43.0306970" lon="-2.7156060">
        <ele>623.252014</ele>
        <time>2020-07-17T11:45:51.000Z</time>
      </trkpt>
      <trkpt lat="43.0308030" lon="-2.7152850">
        <ele>622.217041</ele>
        <time>2020-07-17T11:45:56.000Z</time>
      </trkpt>
      <trkpt lat="43.0308190" lon="-2.7151780">
        <ele>622.007996</ele>
        <time>2020-07-17T11:45:58.000Z</time>
      </trkpt>
      <trkpt lat="43.0308840" lon="-2.7149800">
        <ele>622.010010</ele>
        <time>2020-07-17T11:46:02.000Z</time>
      </trkpt>
      <trkpt lat="43.0309080" lon="-2.7148500">
        <ele>621.898010</ele>
        <time>2020-07-17T11:46:04.000Z</time>
      </trkpt>
      <trkpt lat="43.0308800" lon="-2.7146520">
        <ele>621.616028</ele>
        <time>2020-07-17T11:46:07.000Z</time>
      </trkpt>
      <trkpt lat="43.0308340" lon="-2.7145220">
        <ele>621.296021</ele>
        <time>2020-07-17T11:46:10.000Z</time>
      </trkpt>
      <trkpt lat="43.0308090" lon="-2.7144540">
        <ele>620.814026</ele>
        <time>2020-07-17T11:46:12.000Z</time>
      </trkpt>
      <trkpt lat="43.0307920" lon="-2.7143860">
        <ele>620.487976</ele>
        <time>2020-07-17T11:46:14.000Z</time>
      </trkpt>
      <trkpt lat="43.0307930" lon="-2.7140220">
        <ele>619.469971</ele>
        <time>2020-07-17T11:46:23.000Z</time>
      </trkpt>
      <trkpt lat="43.0308110" lon="-2.7139310">
        <ele>619.613037</ele>
        <time>2020-07-17T11:46:25.000Z</time>
      </trkpt>
      <trkpt lat="43.0308290" lon="-2.7137260">
        <ele>619.651978</ele>
        <time>2020-07-17T11:46:29.000Z</time>
      </trkpt>
      <trkpt lat="43.0308300" lon="-2.7134030">
        <ele>619.453003</ele>
        <time>2020-07-17T11:46:35.000Z</time>
      </trkpt>
      <trkpt lat="43.0309220" lon="-2.7130940">
        <ele>609.192017</ele>
        <time>2019-08-02T10:58:55.000Z</time>
      </trkpt>
      <trkpt lat="43.0309320" lon="-2.7130940">
        <ele>609.148987</ele>
        <time>2019-08-02T10:58:45.000Z</time>
      </trkpt>
      <trkpt lat="43.0309260" lon="-2.7130950">
        <ele>609.116028</ele>
        <time>2019-08-02T10:58:36.000Z</time>
      </trkpt>
      <trkpt lat="43.0309260" lon="-2.7131120">
        <ele>609.118958</ele>
        <time>2019-08-02T10:58:32.000Z</time>
      </trkpt>
      <trkpt lat="43.0309340" lon="-2.7131360">
        <ele>609.193970</ele>
        <time>2019-08-02T10:58:31.000Z</time>
      </trkpt>
      <trkpt lat="43.0309470" lon="-2.7131580">
        <ele>609.197998</ele>
        <time>2019-08-02T10:58:30.000Z</time>
      </trkpt>
      <trkpt lat="43.0309570" lon="-2.7131760">
        <ele>609.108032</ele>
        <time>2019-08-02T10:58:29.000Z</time>
      </trkpt>
      <trkpt lat="43.0309750" lon="-2.7131890">
        <ele>609.110962</ele>
        <time>2019-08-02T10:58:28.000Z</time>
      </trkpt>
      <trkpt lat="43.0310220" lon="-2.7131980">
        <ele>609.101013</ele>
        <time>2019-08-02T10:58:26.000Z</time>
      </trkpt>
      <trkpt lat="43.0310680" lon="-2.7131780">
        <ele>609.151001</ele>
        <time>2019-08-02T10:58:24.000Z</time>
      </trkpt>
      <trkpt lat="43.0312440" lon="-2.7131470">
        <ele>609.185974</ele>
        <time>2019-08-02T10:58:16.000Z</time>
      </trkpt>
      <trkpt lat="43.0314220" lon="-2.7130690">
        <ele>609.130005</ele>
        <time>2019-08-02T10:58:07.000Z</time>
      </trkpt>
      <trkpt lat="43.0314530" lon="-2.7129850">
        <ele>609.153015</ele>
        <time>2019-08-02T10:58:03.000Z</time>
      </trkpt>
      <trkpt lat="43.0314970" lon="-2.7128480">
        <ele>610.049988</ele>
        <time>2019-08-02T10:57:57.000Z</time>
      </trkpt>
      <trkpt lat="43.0315560" lon="-2.7128080">
        <ele>610.517029</ele>
        <time>2019-08-02T10:57:54.000Z</time>
      </trkpt>
      <trkpt lat="43.0317050" lon="-2.7128530">
        <ele>611.510010</ele>
        <time>2019-08-02T10:57:47.000Z</time>
      </trkpt>
      <trkpt lat="43.0317670" lon="-2.7128840">
        <ele>611.525024</ele>
        <time>2019-08-02T10:57:42.000Z</time>
      </trkpt>
      <trkpt lat="43.0317840" lon="-2.7128930">
        <ele>611.539001</ele>
        <time>2019-08-02T10:57:36.000Z</time>
      </trkpt>
      <trkpt lat="43.0318300" lon="-2.7128970">
        <ele>611.507996</ele>
        <time>2019-08-02T10:57:28.000Z</time>
      </trkpt>
      <trkpt lat="43.0318910" lon="-2.7129190">
        <ele>611.513977</ele>
        <time>2019-08-02T10:57:19.000Z</time>
      </trkpt>
      <trkpt lat="43.0319030" lon="-2.7129210">
        <ele>611.567993</ele>
        <time>2019-08-02T10:57:11.000Z</time>
      </trkpt>
      <trkpt lat="43.0319420" lon="-2.7129380">
        <ele>611.565002</ele>
        <time>2019-08-02T10:57:03.000Z</time>
      </trkpt>
      <trkpt lat="43.0320080" lon="-2.7129370">
        <ele>612.039001</ele>
        <time>2019-08-02T10:56:55.000Z</time>
      </trkpt>
      <trkpt lat="43.0321150" lon="-2.7129400">
        <ele>612.013000</ele>
        <time>2019-08-02T10:56:46.000Z</time>
      </trkpt>
      <trkpt lat="43.0321490" lon="-2.7129480">
        <ele>612.085999</ele>
        <time>2019-08-02T10:56:38.000Z</time>
      </trkpt>
      <trkpt lat="43.0321570" lon="-2.7129580">
        <ele>612.023010</ele>
        <time>2019-08-02T10:56:30.000Z</time>
      </trkpt>
      <trkpt lat="43.0322130" lon="-2.7129960">
        <ele>612.950012</ele>
        <time>2019-08-02T10:56:23.000Z</time>
      </trkpt>
      <trkpt lat="43.0323380" lon="-2.7130370">
        <ele>613.442993</ele>
        <time>2019-08-02T10:56:16.000Z</time>
      </trkpt>
      <trkpt lat="43.0323540" lon="-2.7130440">
        <ele>613.478027</ele>
        <time>2019-08-02T10:56:15.000Z</time>
      </trkpt>
      <trkpt lat="43.0323670" lon="-2.7130490">
        <ele>613.492004</ele>
        <time>2019-08-02T10:56:14.000Z</time>
      </trkpt>
      <trkpt lat="43.0323800" lon="-2.7130570">
        <ele>613.408020</ele>
        <time>2019-08-02T10:56:13.000Z</time>
      </trkpt>
      <trkpt lat="43.0323910" lon="-2.7130650">
        <ele>613.421021</ele>
        <time>2019-08-02T10:56:12.000Z</time>
      </trkpt>
      <trkpt lat="43.0324570" lon="-2.7130950">
        <ele>613.965027</ele>
        <time>2019-08-02T10:56:08.000Z</time>
      </trkpt>
      <trkpt lat="43.0325750" lon="-2.7131410">
        <ele>614.992981</ele>
        <time>2019-08-02T10:56:02.000Z</time>
      </trkpt>
      <trkpt lat="43.0326290" lon="-2.7131400">
        <ele>614.968994</ele>
        <time>2019-08-02T10:55:56.000Z</time>
      </trkpt>
      <trkpt lat="43.0326350" lon="-2.7131310">
        <ele>614.982971</ele>
        <time>2019-08-02T10:55:47.000Z</time>
      </trkpt>
      <trkpt lat="43.0326470" lon="-2.7131260">
        <ele>615.325989</ele>
        <time>2019-08-02T10:55:33.000Z</time>
      </trkpt>
      <trkpt lat="43.0326490" lon="-2.7131140">
        <ele>615.312988</ele>
        <time>2019-08-02T10:55:20.000Z</time>
      </trkpt>
      <trkpt lat="43.0326520" lon="-2.7131040">
        <ele>615.859985</ele>
        <time>2019-08-02T10:55:11.000Z</time>
      </trkpt>
      <trkpt lat="43.0326690" lon="-2.7130970">
        <ele>615.872986</ele>
        <time>2019-08-02T10:55:06.000Z</time>
      </trkpt>
      <trkpt lat="43.0327730" lon="-2.7130730">
        <ele>616.838013</ele>
        <time>2019-08-02T10:55:00.000Z</time>
      </trkpt>
      <trkpt lat="43.0329270" lon="-2.7131070">
        <ele>618.242004</ele>
        <time>2019-08-02T10:54:54.000Z</time>
      </trkpt>
      <trkpt lat="43.0330650" lon="-2.7131450">
        <ele>621.608032</ele>
        <time>2019-08-02T10:54:49.000Z</time>
      </trkpt>
      <trkpt lat="43.0331970" lon="-2.7131530">
        <ele>624.523987</ele>
        <time>2019-08-02T10:54:44.000Z</time>
      </trkpt>
      <trkpt lat="43.0332190" lon="-2.7131600">
        <ele>625.430969</ele>
        <time>2019-08-02T10:54:43.000Z</time>
      </trkpt>
      <trkpt lat="43.0332400" lon="-2.7131680">
        <ele>625.996033</ele>
        <time>2019-08-02T10:54:42.000Z</time>
      </trkpt>
      <trkpt lat="43.0332570" lon="-2.7131780">
        <ele>626.452026</ele>
        <time>2019-08-02T10:54:41.000Z</time>
      </trkpt>
      <trkpt lat="43.0332710" lon="-2.7131840">
        <ele>626.425964</ele>
        <time>2019-08-02T10:54:40.000Z</time>
      </trkpt>
      <trkpt lat="43.0333600" lon="-2.7132080">
        <ele>628.389038</ele>
        <time>2019-08-02T10:54:35.000Z</time>
      </trkpt>
      <trkpt lat="43.0335110" lon="-2.7132720">
        <ele>631.736023</ele>
        <time>2019-08-02T10:54:28.000Z</time>
      </trkpt>
      <trkpt lat="43.0335810" lon="-2.7132970">
        <ele>633.173035</ele>
        <time>2019-08-02T10:54:25.000Z</time>
      </trkpt>
      <trkpt lat="43.0337820" lon="-2.7133610">
        <ele>635.085999</ele>
        <time>2019-08-02T10:54:17.000Z</time>
      </trkpt>
      <trkpt lat="43.0339330" lon="-2.7134010">
        <ele>636.591003</ele>
        <time>2019-08-02T10:54:09.000Z</time>
      </trkpt>
      <trkpt lat="43.0341250" lon="-2.7134910">
        <ele>638.494995</ele>
        <time>2019-08-02T10:54:01.000Z</time>
      </trkpt>
      <trkpt lat="43.0342370" lon="-2.7135730">
        <ele>639.407959</ele>
        <time>2019-08-02T10:53:54.000Z</time>
      </trkpt>
      <trkpt lat="43.0343170" lon="-2.7136190">
        <ele>640.814026</ele>
        <time>2019-08-02T10:53:50.000Z</time>
      </trkpt>
      <trkpt lat="43.0343350" lon="-2.7136290">
        <ele>640.803955</ele>
        <time>2019-08-02T10:53:49.000Z</time>
      </trkpt>
      <trkpt lat="43.0343480" lon="-2.7136330">
        <ele>640.823975</ele>
        <time>2019-08-02T10:53:48.000Z</time>
      </trkpt>
      <trkpt lat="43.0343650" lon="-2.7136360">
        <ele>640.864990</ele>
        <time>2019-08-02T10:53:47.000Z</time>
      </trkpt>
      <trkpt lat="43.0343830" lon="-2.7136500">
        <ele>640.848999</ele>
        <time>2019-08-02T10:53:34.000Z</time>
      </trkpt>
      <trkpt lat="43.0344320" lon="-2.7136840">
        <ele>640.821960</ele>
        <time>2019-08-02T10:53:27.000Z</time>
      </trkpt>
      <trkpt lat="43.0345450" lon="-2.7136990">
        <ele>639.828979</ele>
        <time>2019-08-02T10:53:20.000Z</time>
      </trkpt>
      <trkpt lat="43.0346600" lon="-2.7136970">
        <ele>637.935974</ele>
        <time>2019-08-02T10:53:14.000Z</time>
      </trkpt>
      <trkpt lat="43.0346820" lon="-2.7136980">
        <ele>637.999023</ele>
        <time>2019-08-02T10:53:13.000Z</time>
      </trkpt>
      <trkpt lat="43.0347030" lon="-2.7136980">
        <ele>637.973999</ele>
        <time>2019-08-02T10:53:12.000Z</time>
      </trkpt>
      <trkpt lat="43.0347230" lon="-2.7137000">
        <ele>637.948059</ele>
        <time>2019-08-02T10:53:11.000Z</time>
      </trkpt>
      <trkpt lat="43.0347450" lon="-2.7137070">
        <ele>637.908020</ele>
        <time>2019-08-02T10:53:10.000Z</time>
      </trkpt>
      <trkpt lat="43.0347670" lon="-2.7137160">
        <ele>637.916992</ele>
        <time>2019-08-02T10:53:09.000Z</time>
      </trkpt>
      <trkpt lat="43.0348700" lon="-2.7137460">
        <ele>638.906982</ele>
        <time>2019-08-02T10:53:04.000Z</time>
      </trkpt>
      <trkpt lat="43.0350220" lon="-2.7137400">
        <ele>642.755066</ele>
        <time>2019-08-02T10:52:56.000Z</time>
      </trkpt>
      <trkpt lat="43.0351550" lon="-2.7138050">
        <ele>646.143982</ele>
        <time>2019-08-02T10:52:49.000Z</time>
      </trkpt>
      <trkpt lat="43.0352750" lon="-2.7139360">
        <ele>649.078003</ele>
        <time>2019-08-02T10:52:42.000Z</time>
      </trkpt>
      <trkpt lat="43.0354040" lon="-2.7140520">
        <ele>652.810974</ele>
        <time>2019-08-02T10:52:34.000Z</time>
      </trkpt>
      <trkpt lat="43.0355570" lon="-2.7141170">
        <ele>656.287964</ele>
        <time>2019-08-02T10:52:25.000Z</time>
      </trkpt>
      <trkpt lat="43.0355730" lon="-2.7141210">
        <ele>657.674988</ele>
        <time>2019-08-02T10:52:24.000Z</time>
      </trkpt>
      <trkpt lat="43.0355810" lon="-2.7141240">
        <ele>657.638000</ele>
        <time>2019-08-02T10:52:18.000Z</time>
      </trkpt>
      <trkpt lat="43.0355910" lon="-2.7141380">
        <ele>657.622986</ele>
        <time>2019-08-02T10:52:11.000Z</time>
      </trkpt>
      <trkpt lat="43.0356050" lon="-2.7141460">
        <ele>657.677002</ele>
        <time>2019-08-02T10:52:05.000Z</time>
      </trkpt>
      <trkpt lat="43.0356150" lon="-2.7141510">
        <ele>657.608032</ele>
        <time>2019-08-02T10:52:04.000Z</time>
      </trkpt>
      <trkpt lat="43.0356240" lon="-2.7141620">
        <ele>657.621033</ele>
        <time>2019-08-02T10:52:03.000Z</time>
      </trkpt>
      <trkpt lat="43.0356270" lon="-2.7141770">
        <ele>657.628967</ele>
        <time>2019-08-02T10:52:02.000Z</time>
      </trkpt>
      <trkpt lat="43.0356200" lon="-2.7141870">
        <ele>657.646973</ele>
        <time>2019-08-02T10:52:01.000Z</time>
      </trkpt>
      <trkpt lat="43.0355830" lon="-2.7141930">
        <ele>657.682007</ele>
        <time>2019-08-02T10:51:59.000Z</time>
      </trkpt>
      <trkpt lat="43.0355810" lon="-2.7141920">
        <ele>657.662048</ele>
        <time>2019-08-02T10:50:02.000Z</time>
      </trkpt>
      <trkpt lat="43.0357580" lon="-2.7142850">
        <ele>656.275024</ele>
        <time>2019-08-02T10:49:54.000Z</time>
      </trkpt>
      <trkpt lat="43.0359270" lon="-2.7143840">
        <ele>655.751953</ele>
        <time>2019-08-02T10:49:48.000Z</time>
      </trkpt>
      <trkpt lat="43.0362780" lon="-2.7145000">
        <ele>655.718994</ele>
        <time>2019-08-02T10:49:39.000Z</time>
      </trkpt>
      <trkpt lat="43.0365810" lon="-2.7145460">
        <ele>655.252014</ele>
        <time>2019-08-02T10:49:31.000Z</time>
      </trkpt>
      <trkpt lat="43.0366200" lon="-2.7145510">
        <ele>655.217041</ele>
        <time>2019-08-02T10:49:30.000Z</time>
      </trkpt>
      <trkpt lat="43.0366610" lon="-2.7145520">
        <ele>653.351013</ele>
        <time>2019-08-02T10:49:29.000Z</time>
      </trkpt>
      <trkpt lat="43.0367070" lon="-2.7145520">
        <ele>653.307983</ele>
        <time>2019-08-02T10:49:28.000Z</time>
      </trkpt>
      <trkpt lat="43.0367560" lon="-2.7145470">
        <ele>653.325989</ele>
        <time>2019-08-02T10:49:27.000Z</time>
      </trkpt>
      <trkpt lat="43.0368070" lon="-2.7145380">
        <ele>653.323975</ele>
        <time>2019-08-02T10:49:26.000Z</time>
      </trkpt>
      <trkpt lat="43.0369890" lon="-2.7144530">
        <ele>653.888000</ele>
        <time>2019-08-02T10:49:23.000Z</time>
      </trkpt>
      <trkpt lat="43.0370560" lon="-2.7144290">
        <ele>654.854004</ele>
        <time>2019-08-02T10:49:22.000Z</time>
      </trkpt>
      <trkpt lat="43.0371220" lon="-2.7144180">
        <ele>655.778015</ele>
        <time>2019-08-02T10:49:21.000Z</time>
      </trkpt>
      <trkpt lat="43.0373060" lon="-2.7144470">
        <ele>658.611023</ele>
        <time>2019-08-02T10:49:18.000Z</time>
      </trkpt>
      <trkpt lat="43.0374280" lon="-2.7144610">
        <ele>660.038025</ele>
        <time>2019-08-02T10:49:16.000Z</time>
      </trkpt>
      <trkpt lat="43.0374850" lon="-2.7144630">
        <ele>661.094971</ele>
        <time>2019-08-02T10:49:15.000Z</time>
      </trkpt>
      <trkpt lat="43.0375420" lon="-2.7144670">
        <ele>662.057983</ele>
        <time>2019-08-02T10:49:14.000Z</time>
      </trkpt>
      <trkpt lat="43.0377830" lon="-2.7144480">
        <ele>664.872986</ele>
        <time>2019-08-02T10:49:10.000Z</time>
      </trkpt>
      <trkpt lat="43.0380140" lon="-2.7144310">
        <ele>668.776978</ele>
        <time>2019-08-02T10:49:06.000Z</time>
      </trkpt>
      <trkpt lat="43.0382400" lon="-2.7144190">
        <ele>672.108032</ele>
        <time>2019-08-02T10:49:02.000Z</time>
      </trkpt>
      <trkpt lat="43.0386000" lon="-2.7144410">
        <ele>675.414001</ele>
        <time>2019-08-02T10:48:56.000Z</time>
      </trkpt>
      <trkpt lat="43.0390240" lon="-2.7145180">
        <ele>678.821960</ele>
        <time>2019-08-02T10:48:49.000Z</time>
      </trkpt>
      <trkpt lat="43.0392470" lon="-2.7145960">
        <ele>681.242004</ele>
        <time>2019-08-02T10:48:45.000Z</time>
      </trkpt>
      <trkpt lat="43.0396400" lon="-2.7147800">
        <ele>683.635010</ele>
        <time>2019-08-02T10:48:38.000Z</time>
      </trkpt>
      <trkpt lat="43.0400580" lon="-2.7149420">
        <ele>687.068970</ele>
        <time>2019-08-02T10:48:30.000Z</time>
      </trkpt>
      <trkpt lat="43.0404050" lon="-2.7150280">
        <ele>689.892029</ele>
        <time>2019-08-02T10:48:23.000Z</time>
      </trkpt>
      <trkpt lat="43.0404500" lon="-2.7150460">
        <ele>689.828979</ele>
        <time>2019-08-02T10:48:22.000Z</time>
      </trkpt>
      <trkpt lat="43.0404960" lon="-2.7150640">
        <ele>690.325989</ele>
        <time>2019-08-02T10:48:21.000Z</time>
      </trkpt>
      <trkpt lat="43.0405400" lon="-2.7150750">
        <ele>690.378967</ele>
        <time>2019-08-02T10:48:20.000Z</time>
      </trkpt>
      <trkpt lat="43.0407290" lon="-2.7151310">
        <ele>691.814026</ele>
        <time>2019-08-02T10:48:14.000Z</time>
      </trkpt>
      <trkpt lat="43.0408840" lon="-2.7151670">
        <ele>691.877991</ele>
        <time>2019-08-02T10:48:06.000Z</time>
      </trkpt>
      <trkpt lat="43.0409470" lon="-2.7151730">
        <ele>691.807983</ele>
        <time>2019-08-02T10:47:58.000Z</time>
      </trkpt>
      <trkpt lat="43.0409400" lon="-2.7151870">
        <ele>691.811035</ele>
        <time>2019-08-02T10:47:46.000Z</time>
      </trkpt>
      <trkpt lat="43.0409310" lon="-2.7151710">
        <ele>691.355957</ele>
        <time>2019-08-02T10:47:35.000Z</time>
      </trkpt>
      <trkpt lat="43.0409240" lon="-2.7151640">
        <ele>691.353943</ele>
        <time>2019-08-02T10:47:19.000Z</time>
      </trkpt>
      <trkpt lat="43.0409240" lon="-2.7151800">
        <ele>691.338989</ele>
        <time>2019-08-02T10:47:04.000Z</time>
      </trkpt>
      <trkpt lat="43.0410110" lon="-2.7152010">
        <ele>691.312988</ele>
        <time>2019-08-02T10:46:56.000Z</time>
      </trkpt>
      <trkpt lat="43.0411080" lon="-2.7152150">
        <ele>690.325989</ele>
        <time>2019-08-02T10:46:49.000Z</time>
      </trkpt>
      <trkpt lat="43.0411990" lon="-2.7152540">
        <ele>688.962952</ele>
        <time>2019-08-02T10:46:41.000Z</time>
      </trkpt>
      <trkpt lat="43.0413130" lon="-2.7152730">
        <ele>687.410034</ele>
        <time>2019-08-02T10:46:33.000Z</time>
      </trkpt>
      <trkpt lat="43.0414310" lon="-2.7153210">
        <ele>686.062988</ele>
        <time>2019-08-02T10:46:24.000Z</time>
      </trkpt>
      <trkpt lat="43.0415510" lon="-2.7153830">
        <ele>684.197998</ele>
        <time>2019-08-02T10:46:14.000Z</time>
      </trkpt>
      <trkpt lat="43.0416380" lon="-2.7154880">
        <ele>681.731995</ele>
        <time>2019-08-02T10:46:05.000Z</time>
      </trkpt>
      <trkpt lat="43.0417300" lon="-2.7155220">
        <ele>679.708008</ele>
        <time>2019-08-02T10:45:57.000Z</time>
      </trkpt>
      <trkpt lat="43.0418470" lon="-2.7155470">
        <ele>677.820007</ele>
        <time>2019-08-02T10:45:48.000Z</time>
      </trkpt>
      <trkpt lat="43.0419780" lon="-2.7156020">
        <ele>675.472961</ele>
        <time>2019-08-02T10:45:38.000Z</time>
      </trkpt>
      <trkpt lat="43.0420970" lon="-2.7156270">
        <ele>673.591980</ele>
        <time>2019-08-02T10:45:30.000Z</time>
      </trkpt>
      <trkpt lat="43.0421870" lon="-2.7156160">
        <ele>672.120972</ele>
        <time>2019-08-02T10:45:24.000Z</time>
      </trkpt>
      <trkpt lat="43.0423450" lon="-2.7156100">
        <ele>671.175049</ele>
        <time>2019-08-02T10:45:17.000Z</time>
      </trkpt>
      <trkpt lat="43.0424370" lon="-2.7156090">
        <ele>669.257996</ele>
        <time>2019-08-02T10:45:09.000Z</time>
      </trkpt>
      <trkpt lat="43.0425200" lon="-2.7156230">
        <ele>666.845032</ele>
        <time>2019-08-02T10:45:01.000Z</time>
      </trkpt>
      <trkpt lat="43.0426180" lon="-2.7156230">
        <ele>665.342041</ele>
        <time>2019-08-02T10:44:53.000Z</time>
      </trkpt>
      <trkpt lat="43.0426820" lon="-2.7156290">
        <ele>663.414978</ele>
        <time>2019-08-02T10:44:46.000Z</time>
      </trkpt>
      <trkpt lat="43.0427530" lon="-2.7156340">
        <ele>662.450012</ele>
        <time>2019-08-02T10:44:39.000Z</time>
      </trkpt>
      <trkpt lat="43.0428180" lon="-2.7156190">
        <ele>660.583984</ele>
        <time>2019-08-02T10:44:31.000Z</time>
      </trkpt>
      <trkpt lat="43.0429010" lon="-2.7156390">
        <ele>658.107971</ele>
        <time>2019-08-02T10:44:23.000Z</time>
      </trkpt>
      <trkpt lat="43.0429970" lon="-2.7156390">
        <ele>656.211060</ele>
        <time>2019-08-02T10:44:15.000Z</time>
      </trkpt>
      <trkpt lat="43.0431320" lon="-2.7156790">
        <ele>653.364990</ele>
        <time>2019-08-02T10:44:06.000Z</time>
      </trkpt>
      <trkpt lat="43.0432920" lon="-2.7157280">
        <ele>650.914978</ele>
        <time>2019-08-02T10:43:57.000Z</time>
      </trkpt>
      <trkpt lat="43.0433090" lon="-2.7157260">
        <ele>650.985962</ele>
        <time>2019-08-02T10:43:56.000Z</time>
      </trkpt>
      <trkpt lat="43.0433790" lon="-2.7157000">
        <ele>650.430054</ele>
        <time>2019-08-02T10:43:52.000Z</time>
      </trkpt>
      <trkpt lat="43.0434640" lon="-2.7155930">
        <ele>649.552979</ele>
        <time>2019-08-02T10:43:46.000Z</time>
      </trkpt>
      <trkpt lat="43.0435570" lon="-2.7154200">
        <ele>647.529968</ele>
        <time>2019-08-02T10:43:38.000Z</time>
      </trkpt>
      <trkpt lat="43.0436650" lon="-2.7152800">
        <ele>644.757019</ele>
        <time>2019-08-02T10:43:30.000Z</time>
      </trkpt>
      <trkpt lat="43.0437150" lon="-2.7151790">
        <ele>642.750000</ele>
        <time>2019-08-02T10:43:25.000Z</time>
      </trkpt>
      <trkpt lat="43.0437220" lon="-2.7151550">
        <ele>642.794983</ele>
        <time>2019-08-02T10:43:24.000Z</time>
      </trkpt>
      <trkpt lat="43.0437260" lon="-2.7151360">
        <ele>642.338989</ele>
        <time>2019-08-02T10:43:23.000Z</time>
      </trkpt>
      <trkpt lat="43.0437620" lon="-2.7150110">
        <ele>640.307983</ele>
        <time>2019-08-02T10:43:17.000Z</time>
      </trkpt>
      <trkpt lat="43.0437830" lon="-2.7147990">
        <ele>637.926025</ele>
        <time>2019-08-02T10:43:08.000Z</time>
      </trkpt>
      <trkpt lat="43.0438050" lon="-2.7146060">
        <ele>637.442017</ele>
        <time>2019-08-02T10:43:00.000Z</time>
      </trkpt>
      <trkpt lat="43.0438220" lon="-2.7144050">
        <ele>636.568054</ele>
        <time>2019-08-02T10:42:52.000Z</time>
      </trkpt>
      <trkpt lat="43.0438480" lon="-2.7143540">
        <ele>636.533997</ele>
        <time>2019-08-02T10:42:42.000Z</time>
      </trkpt>
      <trkpt lat="43.0438400" lon="-2.7143730">
        <ele>636.557983</ele>
        <time>2019-08-02T10:42:24.000Z</time>
      </trkpt>
      <trkpt lat="43.0438110" lon="-2.7143690">
        <ele>636.580994</ele>
        <time>2019-08-02T10:42:06.000Z</time>
      </trkpt>
      <trkpt lat="43.0437760" lon="-2.7143970">
        <ele>636.568054</ele>
        <time>2019-08-02T10:41:53.000Z</time>
      </trkpt>
      <trkpt lat="43.0438090" lon="-2.7143420">
        <ele>636.575012</ele>
        <time>2019-08-02T10:41:36.000Z</time>
      </trkpt>
      <trkpt lat="43.0438070" lon="-2.7143270">
        <ele>636.088013</ele>
        <time>2019-08-02T10:41:19.000Z</time>
      </trkpt>
      <trkpt lat="43.0438320" lon="-2.7143700">
        <ele>636.043030</ele>
        <time>2019-08-02T10:41:03.000Z</time>
      </trkpt>
      <trkpt lat="43.0438340" lon="-2.7143580">
        <ele>636.057007</ele>
        <time>2019-08-02T10:40:47.000Z</time>
      </trkpt>
      <trkpt lat="43.0438460" lon="-2.7143410">
        <ele>636.007996</ele>
        <time>2019-08-02T10:40:33.000Z</time>
      </trkpt>
      <trkpt lat="43.0438480" lon="-2.7143080">
        <ele>636.009033</ele>
        <time>2019-08-02T10:40:18.000Z</time>
      </trkpt>
      <trkpt lat="43.0438580" lon="-2.7142640">
        <ele>636.080994</ele>
        <time>2019-08-02T10:40:03.000Z</time>
      </trkpt>
      <trkpt lat="43.0438690" lon="-2.7142770">
        <ele>635.540955</ele>
        <time>2019-08-02T10:39:53.000Z</time>
      </trkpt>
      <trkpt lat="43.0439030" lon="-2.7142450">
        <ele>635.519043</ele>
        <time>2019-08-02T10:39:37.000Z</time>
      </trkpt>
      <trkpt lat="43.0438940" lon="-2.7142840">
        <ele>635.562988</ele>
        <time>2019-08-02T10:39:19.000Z</time>
      </trkpt>
      <trkpt lat="43.0438790" lon="-2.7142880">
        <ele>635.015991</ele>
        <time>2019-08-02T10:38:59.000Z</time>
      </trkpt>
      <trkpt lat="43.0438660" lon="-2.7142850">
        <ele>635.022949</ele>
        <time>2019-08-02T10:38:51.000Z</time>
      </trkpt>
      <trkpt lat="43.0438690" lon="-2.7142610">
        <ele>634.689941</ele>
        <time>2019-08-02T10:38:42.000Z</time>
      </trkpt>
      <trkpt lat="43.0439090" lon="-2.7141270">
        <ele>634.193054</ele>
        <time>2019-08-02T10:38:34.000Z</time>
      </trkpt>
      <trkpt lat="43.0440780" lon="-2.7138300">
        <ele>633.148010</ele>
        <time>2019-08-02T10:38:25.000Z</time>
      </trkpt>
      <trkpt lat="43.0442290" lon="-2.7136530">
        <ele>632.261963</ele>
        <time>2019-08-02T10:38:18.000Z</time>
      </trkpt>
      <trkpt lat="43.0443670" lon="-2.7134780">
        <ele>631.208008</ele>
        <time>2019-08-02T10:38:12.000Z</time>
      </trkpt>
      <trkpt lat="43.0445590" lon="-2.7132460">
        <ele>630.218994</ele>
        <time>2019-08-02T10:38:04.000Z</time>
      </trkpt>
      <trkpt lat="43.0447400" lon="-2.7130630">
        <ele>628.380981</ele>
        <time>2019-08-02T10:37:57.000Z</time>
      </trkpt>
      <trkpt lat="43.0449110" lon="-2.7129440">
        <ele>626.491028</ele>
        <time>2019-08-02T10:37:51.000Z</time>
      </trkpt>
      <trkpt lat="43.0450390" lon="-2.7129270">
        <ele>624.921997</ele>
        <time>2019-08-02T10:37:47.000Z</time>
      </trkpt>
      <trkpt lat="43.0453230" lon="-2.7129130">
        <ele>625.496033</ele>
        <time>2019-08-02T10:37:40.000Z</time>
      </trkpt>
      <trkpt lat="43.0454400" lon="-2.7129150">
        <ele>626.998962</ele>
        <time>2019-08-02T10:37:38.000Z</time>
      </trkpt>
      <trkpt lat="43.0455000" lon="-2.7129170">
        <ele>626.995972</ele>
        <time>2019-08-02T10:37:37.000Z</time>
      </trkpt>
      <trkpt lat="43.0456090" lon="-2.7129040">
        <ele>626.942993</ele>
        <time>2019-08-02T10:37:35.000Z</time>
      </trkpt>
      <trkpt lat="43.0458050" lon="-2.7128750">
        <ele>626.945984</ele>
        <time>2019-08-02T10:37:28.000Z</time>
      </trkpt>
      <trkpt lat="43.0460150" lon="-2.7128660">
        <ele>624.990967</ele>
        <time>2019-08-02T10:37:20.000Z</time>
      </trkpt>
      <trkpt lat="43.0462270" lon="-2.7128640">
        <ele>624.054993</ele>
        <time>2019-08-02T10:37:12.000Z</time>
      </trkpt>
      <trkpt lat="43.0463610" lon="-2.7128560">
        <ele>623.007996</ele>
        <time>2019-08-02T10:37:06.000Z</time>
      </trkpt>
      <trkpt lat="43.0465140" lon="-2.7127940">
        <ele>621.614014</ele>
        <time>2019-08-02T10:37:00.000Z</time>
      </trkpt>
      <trkpt lat="43.0466870" lon="-2.7127210">
        <ele>619.704041</ele>
        <time>2019-08-02T10:36:53.000Z</time>
      </trkpt>
      <trkpt lat="43.0469010" lon="-2.7127000">
        <ele>619.223999</ele>
        <time>2019-08-02T10:36:46.000Z</time>
      </trkpt>
      <trkpt lat="43.0470960" lon="-2.7126970">
        <ele>618.296021</ele>
        <time>2019-08-02T10:36:39.000Z</time>
      </trkpt>
      <trkpt lat="43.0473010" lon="-2.7126870">
        <ele>617.380005</ele>
        <time>2019-08-02T10:36:33.000Z</time>
      </trkpt>
      <trkpt lat="43.0473480" lon="-2.7126840">
        <ele>617.393005</ele>
        <time>2019-08-02T10:36:32.000Z</time>
      </trkpt>
      <trkpt lat="43.0475010" lon="-2.7126320">
        <ele>617.719971</ele>
        <time>2019-08-02T10:36:29.000Z</time>
      </trkpt>
      <trkpt lat="43.0475550" lon="-2.7126130">
        <ele>617.737000</ele>
        <time>2019-08-02T10:36:28.000Z</time>
      </trkpt>
      <trkpt lat="43.0476100" lon="-2.7126020">
        <ele>618.279968</ele>
        <time>2019-08-02T10:36:27.000Z</time>
      </trkpt>
      <trkpt lat="43.0477690" lon="-2.7125940">
        <ele>619.734985</ele>
        <time>2019-08-02T10:36:24.000Z</time>
      </trkpt>
      <trkpt lat="43.0478160" lon="-2.7125930">
        <ele>621.169006</ele>
        <time>2019-08-02T10:36:23.000Z</time>
      </trkpt>
      <trkpt lat="43.0479110" lon="-2.7125760">
        <ele>621.608032</ele>
        <time>2019-08-02T10:36:21.000Z</time>
      </trkpt>
      <trkpt lat="43.0482380" lon="-2.7124400">
        <ele>623.513000</ele>
        <time>2019-08-02T10:36:13.000Z</time>
      </trkpt>
      <trkpt lat="43.0484900" lon="-2.7123100">
        <ele>624.520996</ele>
        <time>2019-08-02T10:36:05.000Z</time>
      </trkpt>
      <trkpt lat="43.0486650" lon="-2.7122410">
        <ele>624.060974</ele>
        <time>2019-08-02T10:35:58.000Z</time>
      </trkpt>
      <trkpt lat="43.0488480" lon="-2.7121830">
        <ele>624.083984</ele>
        <time>2019-08-02T10:35:50.000Z</time>
      </trkpt>
      <trkpt lat="43.0489790" lon="-2.7121180">
        <ele>624.048035</ele>
        <time>2019-08-02T10:35:42.000Z</time>
      </trkpt>
      <trkpt lat="43.0490270" lon="-2.7121110">
        <ele>624.031006</ele>
        <time>2019-08-02T10:35:34.000Z</time>
      </trkpt>
      <trkpt lat="43.0490240" lon="-2.7121410">
        <ele>624.028015</ele>
        <time>2019-08-02T10:35:17.000Z</time>
      </trkpt>
      <trkpt lat="43.0489990" lon="-2.7121480">
        <ele>623.554993</ele>
        <time>2019-08-02T10:35:04.000Z</time>
      </trkpt>
      <trkpt lat="43.0489900" lon="-2.7121660">
        <ele>623.547974</ele>
        <time>2019-08-02T10:34:50.000Z</time>
      </trkpt>
      <trkpt lat="43.0490340" lon="-2.7120920">
        <ele>623.513000</ele>
        <time>2019-08-02T10:34:36.000Z</time>
      </trkpt>
      <trkpt lat="43.0490610" lon="-2.7120790">
        <ele>623.577026</ele>
        <time>2019-08-02T10:34:25.000Z</time>
      </trkpt>
      <trkpt lat="43.0490660" lon="-2.7120950">
        <ele>623.507996</ele>
        <time>2019-08-02T10:34:14.000Z</time>
      </trkpt>
      <trkpt lat="43.0490980" lon="-2.7120910">
        <ele>623.508972</ele>
        <time>2019-08-02T10:34:08.000Z</time>
      </trkpt>
      <trkpt lat="43.0492120" lon="-2.7120830">
        <ele>622.580994</ele>
        <time>2019-08-02T10:33:59.000Z</time>
      </trkpt>
      <trkpt lat="43.0493130" lon="-2.7121200">
        <ele>621.140991</ele>
        <time>2019-08-02T10:33:52.000Z</time>
      </trkpt>
      <trkpt lat="43.0494030" lon="-2.7122030">
        <ele>619.215027</ele>
        <time>2019-08-02T10:33:44.000Z</time>
      </trkpt>
      <trkpt lat="43.0494970" lon="-2.7122740">
        <ele>616.818970</ele>
        <time>2019-08-02T10:33:37.000Z</time>
      </trkpt>
      <trkpt lat="43.0495920" lon="-2.7123620">
        <ele>614.942017</ele>
        <time>2019-08-02T10:33:30.000Z</time>
      </trkpt>
      <trkpt lat="43.0497060" lon="-2.7124990">
        <ele>612.569031</ele>
        <time>2019-08-02T10:33:20.000Z</time>
      </trkpt>
      <trkpt lat="43.0497640" lon="-2.7125600">
        <ele>610.565979</ele>
        <time>2019-08-02T10:33:13.000Z</time>
      </trkpt>
      <trkpt lat="43.0497600" lon="-2.7125740">
        <ele>610.568970</ele>
        <time>2019-08-02T10:33:11.000Z</time>
      </trkpt>
      <trkpt lat="43.0497100" lon="-2.7125680">
        <ele>610.593994</ele>
        <time>2019-08-02T10:33:07.000Z</time>
      </trkpt>
      <trkpt lat="43.0496520" lon="-2.7125940">
        <ele>610.557983</ele>
        <time>2019-08-02T10:33:02.000Z</time>
      </trkpt>
      <trkpt lat="43.0496080" lon="-2.7126070">
        <ele>610.507996</ele>
        <time>2019-08-02T10:32:59.000Z</time>
      </trkpt>
      <trkpt lat="43.0494670" lon="-2.7125440">
        <ele>611.010986</ele>
        <time>2019-08-02T10:32:51.000Z</time>
      </trkpt>
      <trkpt lat="43.0493810" lon="-2.7125510">
        <ele>611.000977</ele>
        <time>2019-08-02T10:32:46.000Z</time>
      </trkpt>
      <trkpt lat="43.0492530" lon="-2.7125300">
        <ele>611.550964</ele>
        <time>2019-08-02T10:32:40.000Z</time>
      </trkpt>
      <trkpt lat="43.0492370" lon="-2.7125290">
        <ele>611.522034</ele>
        <time>2019-08-02T10:32:39.000Z</time>
      </trkpt>
      <trkpt lat="43.0490460" lon="-2.7124720">
        <ele>612.515991</ele>
        <time>2019-08-02T10:32:31.000Z</time>
      </trkpt>
      <trkpt lat="43.0489190" lon="-2.7125440">
        <ele>613.499023</ele>
        <time>2019-08-02T10:32:24.000Z</time>
      </trkpt>
      <trkpt lat="43.0489050" lon="-2.7125700">
        <ele>612.976013</ele>
        <time>2019-08-02T10:32:23.000Z</time>
      </trkpt>
      <trkpt lat="43.0488120" lon="-2.7127450">
        <ele>612.052979</ele>
        <time>2019-08-02T10:32:14.000Z</time>
      </trkpt>
      <trkpt lat="43.0488760" lon="-2.7127620">
        <ele>611.515991</ele>
        <time>2019-08-02T10:32:10.000Z</time>
      </trkpt>
      <trkpt lat="43.0489200" lon="-2.7127480">
        <ele>611.520996</ele>
        <time>2019-08-02T10:32:08.000Z</time>
      </trkpt>
      <trkpt lat="43.0489770" lon="-2.7127260">
        <ele>610.034973</ele>
        <time>2019-08-02T10:32:05.000Z</time>
      </trkpt>
      <trkpt lat="43.0491470" lon="-2.7127520">
        <ele>610.007996</ele>
        <time>2019-08-02T10:31:58.000Z</time>
      </trkpt>
      <trkpt lat="43.0492620" lon="-2.7127070">
        <ele>610.013977</ele>
        <time>2019-08-02T10:31:52.000Z</time>
      </trkpt>
      <trkpt lat="43.0493370" lon="-2.7126180">
        <ele>611.503967</ele>
        <time>2019-08-02T10:31:46.000Z</time>
      </trkpt>
      <trkpt lat="43.0493620" lon="-2.7126160">
        <ele>611.523987</ele>
        <time>2019-08-02T10:31:41.000Z</time>
      </trkpt>
      <trkpt lat="43.0493730" lon="-2.7126100">
        <ele>611.591980</ele>
        <time>2019-08-02T10:31:16.000Z</time>
      </trkpt>
      <trkpt lat="43.0493780" lon="-2.7125770">
        <ele>611.585999</ele>
        <time>2019-08-02T10:30:57.000Z</time>
      </trkpt>
      <trkpt lat="43.0494080" lon="-2.7125990">
        <ele>611.549011</ele>
        <time>2019-08-02T10:30:37.000Z</time>
      </trkpt>
      <trkpt lat="43.0494490" lon="-2.7125540">
        <ele>611.026001</ele>
        <time>2019-08-02T10:30:19.000Z</time>
      </trkpt>
      <trkpt lat="43.0494240" lon="-2.7125880">
        <ele>611.083008</ele>
        <time>2019-08-02T10:29:55.000Z</time>
      </trkpt>
      <trkpt lat="43.0493740" lon="-2.7126150">
        <ele>611.075989</ele>
        <time>2019-08-02T10:29:36.000Z</time>
      </trkpt>
      <trkpt lat="43.0493990" lon="-2.7126060">
        <ele>611.051025</ele>
        <time>2019-08-02T10:29:28.000Z</time>
      </trkpt>
      <trkpt lat="43.0494310" lon="-2.7126310">
        <ele>611.085022</ele>
        <time>2019-08-02T10:29:22.000Z</time>
      </trkpt>
      <trkpt lat="43.0494960" lon="-2.7126300">
        <ele>611.007996</ele>
        <time>2019-08-02T10:29:16.000Z</time>
      </trkpt>
      <trkpt lat="43.0495360" lon="-2.7125730">
        <ele>611.014038</ele>
        <time>2019-08-02T10:29:11.000Z</time>
      </trkpt>
      <trkpt lat="43.0495500" lon="-2.7125650">
        <ele>611.004028</ele>
        <time>2019-08-02T10:29:10.000Z</time>
      </trkpt>
      <trkpt lat="43.0496000" lon="-2.7125530">
        <ele>611.023987</ele>
        <time>2019-08-02T10:29:07.000Z</time>
      </trkpt>
      <trkpt lat="43.0496130" lon="-2.7125610">
        <ele>611.052979</ele>
        <time>2019-08-02T10:29:06.000Z</time>
      </trkpt>
      <trkpt lat="43.0496770" lon="-2.7126520">
        <ele>611.067017</ele>
        <time>2019-08-02T10:28:58.000Z</time>
      </trkpt>
      <trkpt lat="43.0497670" lon="-2.7126240">
        <ele>611.079956</ele>
        <time>2019-08-02T10:28:50.000Z</time>
      </trkpt>
      <trkpt lat="43.0497800" lon="-2.7126200">
        <ele>611.077026</ele>
        <time>2019-08-02T10:28:49.000Z</time>
      </trkpt>
      <trkpt lat="43.0498030" lon="-2.7126140">
        <ele>611.023987</ele>
        <time>2019-08-02T10:28:47.000Z</time>
      </trkpt>
      <trkpt lat="43.0498170" lon="-2.7126070">
        <ele>611.087036</ele>
        <time>2019-08-02T10:28:46.000Z</time>
      </trkpt>
      <trkpt lat="43.0498940" lon="-2.7126260">
        <ele>610.552002</ele>
        <time>2019-08-02T10:28:41.000Z</time>
      </trkpt>
      <trkpt lat="43.0500260" lon="-2.7126970">
        <ele>609.616028</ele>
        <time>2019-08-02T10:28:32.000Z</time>
      </trkpt>
      <trkpt lat="43.0501990" lon="-2.7128180">
        <ele>608.607971</ele>
        <time>2019-08-02T10:28:23.000Z</time>
      </trkpt>
      <trkpt lat="43.0503890" lon="-2.7129600">
        <ele>607.620972</ele>
        <time>2019-08-02T10:28:14.000Z</time>
      </trkpt>
      <trkpt lat="43.0504840" lon="-2.7130880">
        <ele>607.601013</ele>
        <time>2019-08-02T10:28:08.000Z</time>
      </trkpt>
      <trkpt lat="43.0506980" lon="-2.7132020">
        <ele>607.638977</ele>
        <time>2019-08-02T10:28:01.000Z</time>
      </trkpt>
      <trkpt lat="43.0507390" lon="-2.7132120">
        <ele>607.638000</ele>
        <time>2019-08-02T10:28:00.000Z</time>
      </trkpt>
      <trkpt lat="43.0507810" lon="-2.7132220">
        <ele>607.632019</ele>
        <time>2019-08-02T10:27:59.000Z</time>
      </trkpt>
      <trkpt lat="43.0508230" lon="-2.7132280">
        <ele>607.695007</ele>
        <time>2019-08-02T10:27:58.000Z</time>
      </trkpt>
      <trkpt lat="43.0508670" lon="-2.7132280">
        <ele>607.661987</ele>
        <time>2019-08-02T10:27:57.000Z</time>
      </trkpt>
      <trkpt lat="43.0509110" lon="-2.7132250">
        <ele>607.679016</ele>
        <time>2019-08-02T10:27:56.000Z</time>
      </trkpt>
      <trkpt lat="43.0510010" lon="-2.7132040">
        <ele>607.612000</ele>
        <time>2019-08-02T10:27:54.000Z</time>
      </trkpt>
      <trkpt lat="43.0510450" lon="-2.7131950">
        <ele>607.637024</ele>
        <time>2019-08-02T10:27:53.000Z</time>
      </trkpt>
      <trkpt lat="43.0512250" lon="-2.7131940">
        <ele>609.130981</ele>
        <time>2019-08-02T10:27:49.000Z</time>
      </trkpt>
      <trkpt lat="43.0512660" lon="-2.7131930">
        <ele>609.108032</ele>
        <time>2019-08-02T10:27:48.000Z</time>
      </trkpt>
      <trkpt lat="43.0516240" lon="-2.7132130">
        <ele>609.125977</ele>
        <time>2019-08-02T10:27:39.000Z</time>
      </trkpt>
      <trkpt lat="43.0517600" lon="-2.7132710">
        <ele>609.124023</ele>
        <time>2019-08-02T10:27:36.000Z</time>
      </trkpt>
      <trkpt lat="43.0522000" lon="-2.7134190">
        <ele>608.687988</ele>
        <time>2019-08-02T10:27:26.000Z</time>
      </trkpt>
      <trkpt lat="43.0522430" lon="-2.7134350">
        <ele>608.668030</ele>
        <time>2019-08-02T10:27:25.000Z</time>
      </trkpt>
      <trkpt lat="43.0525270" lon="-2.7136140">
        <ele>606.711975</ele>
        <time>2019-08-02T10:27:18.000Z</time>
      </trkpt>
      <trkpt lat="43.0525660" lon="-2.7136530">
        <ele>606.794983</ele>
        <time>2019-08-02T10:27:17.000Z</time>
      </trkpt>
      <trkpt lat="43.0526090" lon="-2.7136930">
        <ele>605.712036</ele>
        <time>2019-08-02T10:27:16.000Z</time>
      </trkpt>
      <trkpt lat="43.0526570" lon="-2.7137310">
        <ele>605.749023</ele>
        <time>2019-08-02T10:27:15.000Z</time>
      </trkpt>
      <trkpt lat="43.0527100" lon="-2.7137600">
        <ele>605.752014</ele>
        <time>2019-08-02T10:27:14.000Z</time>
      </trkpt>
      <trkpt lat="43.0528860" lon="-2.7138160">
        <ele>605.796997</ele>
        <time>2019-08-02T10:27:11.000Z</time>
      </trkpt>
      <trkpt lat="43.0532850" lon="-2.7140270">
        <ele>606.741028</ele>
        <time>2019-08-02T10:27:05.000Z</time>
      </trkpt>
      <trkpt lat="43.0536970" lon="-2.7144230">
        <ele>609.607971</ele>
        <time>2019-08-02T10:26:58.000Z</time>
      </trkpt>
      <trkpt lat="43.0538160" lon="-2.7145210">
        <ele>610.017029</ele>
        <time>2019-08-02T10:26:56.000Z</time>
      </trkpt>
      <trkpt lat="43.0542560" lon="-2.7147960">
        <ele>612.043030</ele>
        <time>2019-08-02T10:26:49.000Z</time>
      </trkpt>
      <trkpt lat="43.0544820" lon="-2.7149460">
        <ele>612.981995</ele>
        <time>2019-08-02T10:26:45.000Z</time>
      </trkpt>
      <trkpt lat="43.0545410" lon="-2.7149800">
        <ele>612.968018</ele>
        <time>2019-08-02T10:26:44.000Z</time>
      </trkpt>
      <trkpt lat="43.0547950" lon="-2.7150520">
        <ele>613.951965</ele>
        <time>2019-08-02T10:26:40.000Z</time>
      </trkpt>
      <trkpt lat="43.0548580" lon="-2.7150590">
        <ele>614.445007</ele>
        <time>2019-08-02T10:26:39.000Z</time>
      </trkpt>
      <trkpt lat="43.0550350" lon="-2.7150510">
        <ele>615.862000</ele>
        <time>2019-08-02T10:26:36.000Z</time>
      </trkpt>
      <trkpt lat="43.0550920" lon="-2.7150500">
        <ele>615.878967</ele>
        <time>2019-08-02T10:26:35.000Z</time>
      </trkpt>
      <trkpt lat="43.0551470" lon="-2.7150560">
        <ele>617.341980</ele>
        <time>2019-08-02T10:26:34.000Z</time>
      </trkpt>
      <trkpt lat="43.0555760" lon="-2.7152400">
        <ele>617.346985</ele>
        <time>2019-08-02T10:26:25.000Z</time>
      </trkpt>
      <trkpt lat="43.0557540" lon="-2.7153130">
        <ele>617.370972</ele>
        <time>2019-08-02T10:26:21.000Z</time>
      </trkpt>
      <trkpt lat="43.0562070" lon="-2.7154130">
        <ele>616.807983</ele>
        <time>2019-08-02T10:26:11.000Z</time>
      </trkpt>
      <trkpt lat="43.0562510" lon="-2.7154290">
        <ele>616.825989</ele>
        <time>2019-08-02T10:26:10.000Z</time>
      </trkpt>
      <trkpt lat="43.0566420" lon="-2.7156390">
        <ele>616.324036</ele>
        <time>2019-08-02T10:26:01.000Z</time>
      </trkpt>
      <trkpt lat="43.0568200" lon="-2.7157270">
        <ele>615.888000</ele>
        <time>2019-08-02T10:25:57.000Z</time>
      </trkpt>
      <trkpt lat="43.0571510" lon="-2.7159760">
        <ele>615.375977</ele>
        <time>2019-08-02T10:25:49.000Z</time>
      </trkpt>
      <trkpt lat="43.0575560" lon="-2.7162540">
        <ele>614.469971</ele>
        <time>2019-08-02T10:25:40.000Z</time>
      </trkpt>
      <trkpt lat="43.0579810" lon="-2.7166540">
        <ele>614.453003</ele>
        <time>2019-08-02T10:25:31.000Z</time>
      </trkpt>
      <trkpt lat="43.0580330" lon="-2.7167030">
        <ele>614.429993</ele>
        <time>2019-08-02T10:25:30.000Z</time>
      </trkpt>
      <trkpt lat="43.0585000" lon="-2.7170800">
        <ele>614.966980</ele>
        <time>2019-08-02T10:25:22.000Z</time>
      </trkpt>
      <trkpt lat="43.0585640" lon="-2.7171260">
        <ele>614.929993</ele>
        <time>2019-08-02T10:25:21.000Z</time>
      </trkpt>
      <trkpt lat="43.0587600" lon="-2.7172250">
        <ele>615.894958</ele>
        <time>2019-08-02T10:25:18.000Z</time>
      </trkpt>
      <trkpt lat="43.0588220" lon="-2.7172570">
        <ele>616.888977</ele>
        <time>2019-08-02T10:25:17.000Z</time>
      </trkpt>
      <trkpt lat="43.0588840" lon="-2.7172980">
        <ele>616.807983</ele>
        <time>2019-08-02T10:25:16.000Z</time>
      </trkpt>
      <trkpt lat="43.0589430" lon="-2.7173430">
        <ele>617.313965</ele>
        <time>2019-08-02T10:25:15.000Z</time>
      </trkpt>
      <trkpt lat="43.0590870" lon="-2.7175010">
        <ele>619.768005</ele>
        <time>2019-08-02T10:25:12.000Z</time>
      </trkpt>
      <trkpt lat="43.0593950" lon="-2.7178120">
        <ele>619.765015</ele>
        <time>2019-08-02T10:25:03.000Z</time>
      </trkpt>
      <trkpt lat="43.0597670" lon="-2.7181380">
        <ele>619.783997</ele>
        <time>2019-08-02T10:24:53.000Z</time>
      </trkpt>
      <trkpt lat="43.0601270" lon="-2.7184170">
        <ele>619.757996</ele>
        <time>2019-08-02T10:24:44.000Z</time>
      </trkpt>
      <trkpt lat="43.0601700" lon="-2.7184470">
        <ele>619.770996</ele>
        <time>2019-08-02T10:24:43.000Z</time>
      </trkpt>
      <trkpt lat="43.0602130" lon="-2.7184820">
        <ele>619.757996</ele>
        <time>2019-08-02T10:24:42.000Z</time>
      </trkpt>
      <trkpt lat="43.0602540" lon="-2.7185240">
        <ele>619.734985</ele>
        <time>2019-08-02T10:24:41.000Z</time>
      </trkpt>
      <trkpt lat="43.0602900" lon="-2.7185760">
        <ele>619.757996</ele>
        <time>2019-08-02T10:24:40.000Z</time>
      </trkpt>
      <trkpt lat="43.0604600" lon="-2.7190040">
        <ele>620.173035</ele>
        <time>2019-08-02T10:24:34.000Z</time>
      </trkpt>
      <trkpt lat="43.0606510" lon="-2.7195340">
        <ele>621.656982</ele>
        <time>2019-08-02T10:24:27.000Z</time>
      </trkpt>
      <trkpt lat="43.0608640" lon="-2.7200920">
        <ele>623.007996</ele>
        <time>2019-08-02T10:24:19.000Z</time>
      </trkpt>
      <trkpt lat="43.0608930" lon="-2.7201500">
        <ele>623.009033</ele>
        <time>2019-08-02T10:24:18.000Z</time>
      </trkpt>
      <trkpt lat="43.0609240" lon="-2.7202080">
        <ele>623.080994</ele>
        <time>2019-08-02T10:24:17.000Z</time>
      </trkpt>
      <trkpt lat="43.0609580" lon="-2.7202630">
        <ele>623.041016</ele>
        <time>2019-08-02T10:24:16.000Z</time>
      </trkpt>
      <trkpt lat="43.0609980" lon="-2.7203140">
        <ele>623.064026</ele>
        <time>2019-08-02T10:24:15.000Z</time>
      </trkpt>
      <trkpt lat="43.0610370" lon="-2.7203630">
        <ele>623.028015</ele>
        <time>2019-08-02T10:24:14.000Z</time>
      </trkpt>
      <trkpt lat="43.0610740" lon="-2.7204110">
        <ele>623.060974</ele>
        <time>2019-08-02T10:24:13.000Z</time>
      </trkpt>
      <trkpt lat="43.0611100" lon="-2.7204580">
        <ele>623.018005</ele>
        <time>2019-08-02T10:24:12.000Z</time>
      </trkpt>
      <trkpt lat="43.0611430" lon="-2.7205110">
        <ele>623.084961</ele>
        <time>2019-08-02T10:24:11.000Z</time>
      </trkpt>
      <trkpt lat="43.0614320" lon="-2.7210530">
        <ele>623.018005</ele>
        <time>2019-08-02T10:24:03.000Z</time>
      </trkpt>
      <trkpt lat="43.0616100" lon="-2.7215380">
        <ele>624.083008</ele>
        <time>2019-08-02T10:23:57.000Z</time>
      </trkpt>
      <trkpt lat="43.0617890" lon="-2.7223870">
        <ele>625.926941</ele>
        <time>2019-08-02T10:23:48.000Z</time>
      </trkpt>
      <trkpt lat="43.0618160" lon="-2.7224740">
        <ele>626.407959</ele>
        <time>2019-08-02T10:23:47.000Z</time>
      </trkpt>
      <trkpt lat="43.0618490" lon="-2.7225580">
        <ele>626.916016</ele>
        <time>2019-08-02T10:23:46.000Z</time>
      </trkpt>
      <trkpt lat="43.0619040" lon="-2.7227130">
        <ele>628.888000</ele>
        <time>2019-08-02T10:23:44.000Z</time>
      </trkpt>
      <trkpt lat="43.0619900" lon="-2.7229950">
        <ele>630.746033</ele>
        <time>2019-08-02T10:23:40.000Z</time>
      </trkpt>
      <trkpt lat="43.0620120" lon="-2.7230630">
        <ele>631.257996</ele>
        <time>2019-08-02T10:23:39.000Z</time>
      </trkpt>
      <trkpt lat="43.0620380" lon="-2.7231220">
        <ele>631.742004</ele>
        <time>2019-08-02T10:23:38.000Z</time>
      </trkpt>
      <trkpt lat="43.0620680" lon="-2.7231660">
        <ele>632.685059</ele>
        <time>2019-08-02T10:23:37.000Z</time>
      </trkpt>
      <trkpt lat="43.0620960" lon="-2.7231930">
        <ele>632.631958</ele>
        <time>2019-08-02T10:23:36.000Z</time>
      </trkpt>
      <trkpt lat="43.0621300" lon="-2.7232010">
        <ele>633.119019</ele>
        <time>2019-08-02T10:23:35.000Z</time>
      </trkpt>
      <trkpt lat="43.0621640" lon="-2.7231990">
        <ele>633.112000</ele>
        <time>2019-08-02T10:23:34.000Z</time>
      </trkpt>
      <trkpt lat="43.0622060" lon="-2.7231850">
        <ele>633.117004</ele>
        <time>2019-08-02T10:23:33.000Z</time>
      </trkpt>
      <trkpt lat="43.0622920" lon="-2.7230870">
        <ele>633.641052</ele>
        <time>2019-08-02T10:23:30.000Z</time>
      </trkpt>
      <trkpt lat="43.0623220" lon="-2.7230460">
        <ele>634.107971</ele>
        <time>2019-08-02T10:23:29.000Z</time>
      </trkpt>
      <trkpt lat="43.0623540" lon="-2.7230100">
        <ele>634.117004</ele>
        <time>2019-08-02T10:23:28.000Z</time>
      </trkpt>
      <trkpt lat="43.0624690" lon="-2.7229250">
        <ele>634.606995</ele>
        <time>2019-08-02T10:23:25.000Z</time>
      </trkpt>
      <trkpt lat="43.0625070" lon="-2.7229010">
        <ele>635.083984</ele>
        <time>2019-08-02T10:23:24.000Z</time>
      </trkpt>
      <trkpt lat="43.0627030" lon="-2.7228020">
        <ele>636.043030</ele>
        <time>2019-08-02T10:23:19.000Z</time>
      </trkpt>
      <trkpt lat="43.0629930" lon="-2.7226710">
        <ele>636.067017</ele>
        <time>2019-08-02T10:23:11.000Z</time>
      </trkpt>
      <trkpt lat="43.0633010" lon="-2.7225700">
        <ele>635.570007</ele>
        <time>2019-08-02T10:23:01.000Z</time>
      </trkpt>
      <trkpt lat="43.0635300" lon="-2.7224900">
        <ele>634.636963</ele>
        <time>2019-08-02T10:22:54.000Z</time>
      </trkpt>
      <trkpt lat="43.0637180" lon="-2.7222660">
        <ele>634.164001</ele>
        <time>2019-08-02T10:22:47.000Z</time>
      </trkpt>
      <trkpt lat="43.0637830" lon="-2.7220730">
        <ele>634.156982</ele>
        <time>2019-08-02T10:22:43.000Z</time>
      </trkpt>
      <trkpt lat="43.0638180" lon="-2.7217140">
        <ele>634.152039</ele>
        <time>2019-08-02T10:22:36.000Z</time>
      </trkpt>
      <trkpt lat="43.0637860" lon="-2.7212420">
        <ele>634.186035</ele>
        <time>2019-08-02T10:22:26.000Z</time>
      </trkpt>
      <trkpt lat="43.0637730" lon="-2.7208020">
        <ele>633.107971</ele>
        <time>2019-08-02T10:22:17.000Z</time>
      </trkpt>
      <trkpt lat="43.0638590" lon="-2.7205120">
        <ele>631.721008</ele>
        <time>2019-08-02T10:22:10.000Z</time>
      </trkpt>
      <trkpt lat="43.0639290" lon="-2.7201730">
        <ele>630.700989</ele>
        <time>2019-08-02T10:22:03.000Z</time>
      </trkpt>
      <trkpt lat="43.0638900" lon="-2.7197520">
        <ele>630.739014</ele>
        <time>2019-08-02T10:21:55.000Z</time>
      </trkpt>
      <trkpt lat="43.0639390" lon="-2.7193410">
        <ele>630.244995</ele>
        <time>2019-08-02T10:21:47.000Z</time>
      </trkpt>
      <trkpt lat="43.0640260" lon="-2.7190220">
        <ele>630.229004</ele>
        <time>2019-08-02T10:21:40.000Z</time>
      </trkpt>
      <trkpt lat="43.0640690" lon="-2.7188000">
        <ele>630.231995</ele>
        <time>2019-08-02T10:21:34.000Z</time>
      </trkpt>
      <trkpt lat="43.0641770" lon="-2.7185480">
        <ele>628.818970</ele>
        <time>2019-08-02T10:21:27.000Z</time>
      </trkpt>
      <trkpt lat="43.0642990" lon="-2.7183710">
        <ele>627.835999</ele>
        <time>2019-08-02T10:21:21.000Z</time>
      </trkpt>
      <trkpt lat="43.0644520" lon="-2.7181680">
        <ele>626.489014</ele>
        <time>2019-08-02T10:21:14.000Z</time>
      </trkpt>
      <trkpt lat="43.0644770" lon="-2.7181390">
        <ele>626.473999</ele>
        <time>2019-08-02T10:21:13.000Z</time>
      </trkpt>
      <trkpt lat="43.0646230" lon="-2.7179290">
        <ele>624.958008</ele>
        <time>2019-08-02T10:21:07.000Z</time>
      </trkpt>
      <trkpt lat="43.0646510" lon="-2.7178850">
        <ele>624.908020</ele>
        <time>2019-08-02T10:21:06.000Z</time>
      </trkpt>
      <trkpt lat="43.0646780" lon="-2.7178380">
        <ele>624.916992</ele>
        <time>2019-08-02T10:21:05.000Z</time>
      </trkpt>
      <trkpt lat="43.0647010" lon="-2.7177840">
        <ele>624.951965</ele>
        <time>2019-08-02T10:21:04.000Z</time>
      </trkpt>
      <trkpt lat="43.0647180" lon="-2.7177290">
        <ele>624.958008</ele>
        <time>2019-08-02T10:21:03.000Z</time>
      </trkpt>
      <trkpt lat="43.0647290" lon="-2.7176720">
        <ele>624.983032</ele>
        <time>2019-08-02T10:21:02.000Z</time>
      </trkpt>
      <trkpt lat="43.0647320" lon="-2.7176140">
        <ele>624.937012</ele>
        <time>2019-08-02T10:21:01.000Z</time>
      </trkpt>
      <trkpt lat="43.0646580" lon="-2.7172410">
        <ele>625.440002</ele>
        <time>2019-08-02T10:20:54.000Z</time>
      </trkpt>
      <trkpt lat="43.0645810" lon="-2.7167380">
        <ele>625.976990</ele>
        <time>2019-08-02T10:20:45.000Z</time>
      </trkpt>
      <trkpt lat="43.0645870" lon="-2.7165720">
        <ele>626.963989</ele>
        <time>2019-08-02T10:20:42.000Z</time>
      </trkpt>
      <trkpt lat="43.0646180" lon="-2.7162070">
        <ele>626.996948</ele>
        <time>2019-08-02T10:20:35.000Z</time>
      </trkpt>
      <trkpt lat="43.0646490" lon="-2.7158640">
        <ele>626.961975</ele>
        <time>2019-08-02T10:20:28.000Z</time>
      </trkpt>
      <trkpt lat="43.0646960" lon="-2.7157460">
        <ele>626.485962</ele>
        <time>2019-08-02T10:20:25.000Z</time>
      </trkpt>
      <trkpt lat="43.0648130" lon="-2.7154670">
        <ele>626.907959</ele>
        <time>2019-08-02T10:20:18.000Z</time>
      </trkpt>
      <trkpt lat="43.0648980" lon="-2.7152630">
        <ele>626.412964</ele>
        <time>2019-08-02T10:20:11.000Z</time>
      </trkpt>
      <trkpt lat="43.0650260" lon="-2.7150300">
        <ele>625.948975</ele>
        <time>2019-08-02T10:20:01.000Z</time>
      </trkpt>
      <trkpt lat="43.0651300" lon="-2.7148580">
        <ele>624.036987</ele>
        <time>2019-08-02T10:19:53.000Z</time>
      </trkpt>
      <trkpt lat="43.0652620" lon="-2.7146850">
        <ele>623.076965</ele>
        <time>2019-08-02T10:19:44.000Z</time>
      </trkpt>
      <trkpt lat="43.0654180" lon="-2.7145720">
        <ele>621.630981</ele>
        <time>2019-08-02T10:19:36.000Z</time>
      </trkpt>
      <trkpt lat="43.0656150" lon="-2.7144920">
        <ele>620.124023</ele>
        <time>2019-08-02T10:19:26.000Z</time>
      </trkpt>
      <trkpt lat="43.0657800" lon="-2.7144100">
        <ele>618.770996</ele>
        <time>2019-08-02T10:19:18.000Z</time>
      </trkpt>
      <trkpt lat="43.0658760" lon="-2.7142440">
        <ele>617.747986</ele>
        <time>2019-08-02T10:19:11.000Z</time>
      </trkpt>
      <trkpt lat="43.0659120" lon="-2.7140790">
        <ele>616.851013</ele>
        <time>2019-08-02T10:19:03.000Z</time>
      </trkpt>
      <trkpt lat="43.0658300" lon="-2.7138240">
        <ele>614.995972</ele>
        <time>2019-08-02T10:18:55.000Z</time>
      </trkpt>
      <trkpt lat="43.0656680" lon="-2.7135650">
        <ele>613.960022</ele>
        <time>2019-08-02T10:18:47.000Z</time>
      </trkpt>
      <trkpt lat="43.0655400" lon="-2.7133170">
        <ele>612.908020</ele>
        <time>2019-08-02T10:18:40.000Z</time>
      </trkpt>
      <trkpt lat="43.0654810" lon="-2.7130720">
        <ele>612.019043</ele>
        <time>2019-08-02T10:18:33.000Z</time>
      </trkpt>
      <trkpt lat="43.0654840" lon="-2.7130300">
        <ele>612.090027</ele>
        <time>2019-08-02T10:18:32.000Z</time>
      </trkpt>
      <trkpt lat="43.0654870" lon="-2.7129890">
        <ele>612.075989</ele>
        <time>2019-08-02T10:18:31.000Z</time>
      </trkpt>
      <trkpt lat="43.0654900" lon="-2.7129500">
        <ele>612.070984</ele>
        <time>2019-08-02T10:18:30.000Z</time>
      </trkpt>
      <trkpt lat="43.0654980" lon="-2.7129080">
        <ele>611.575012</ele>
        <time>2019-08-02T10:18:29.000Z</time>
      </trkpt>
      <trkpt lat="43.0655020" lon="-2.7128730">
        <ele>611.567993</ele>
        <time>2019-08-02T10:18:28.000Z</time>
      </trkpt>
      <trkpt lat="43.0655100" lon="-2.7128400">
        <ele>611.565002</ele>
        <time>2019-08-02T10:18:27.000Z</time>
      </trkpt>
      <trkpt lat="43.0655140" lon="-2.7128130">
        <ele>611.012024</ele>
        <time>2019-08-02T10:18:26.000Z</time>
      </trkpt>
      <trkpt lat="43.0656030" lon="-2.7125680">
        <ele>610.054993</ele>
        <time>2019-08-02T10:18:18.000Z</time>
      </trkpt>
      <trkpt lat="43.0656570" lon="-2.7124590">
        <ele>608.619995</ele>
        <time>2019-08-02T10:18:14.000Z</time>
      </trkpt>
      <trkpt lat="43.0657440" lon="-2.7122540">
        <ele>608.684021</ele>
        <time>2019-08-02T10:18:07.000Z</time>
      </trkpt>
      <trkpt lat="43.0658360" lon="-2.7120820">
        <ele>608.607971</ele>
        <time>2019-08-02T10:18:00.000Z</time>
      </trkpt>
      <trkpt lat="43.0659040" lon="-2.7119360">
        <ele>608.614990</ele>
        <time>2019-08-02T10:17:55.000Z</time>
      </trkpt>
      <trkpt lat="43.0659510" lon="-2.7117730">
        <ele>608.687012</ele>
        <time>2019-08-02T10:17:48.000Z</time>
      </trkpt>
      <trkpt lat="43.0659670" lon="-2.7115840">
        <ele>608.617004</ele>
        <time>2019-08-02T10:17:41.000Z</time>
      </trkpt>
      <trkpt lat="43.0659740" lon="-2.7114260">
        <ele>608.623962</ele>
        <time>2019-08-02T10:17:33.000Z</time>
      </trkpt>
      <trkpt lat="43.0659680" lon="-2.7114110">
        <ele>608.617981</ele>
        <time>2019-08-02T10:17:32.000Z</time>
      </trkpt>
      <trkpt lat="43.0659570" lon="-2.7114090">
        <ele>608.651001</ele>
        <time>2019-08-02T10:17:27.000Z</time>
      </trkpt>
      <trkpt lat="43.0659510" lon="-2.7114010">
        <ele>608.627991</ele>
        <time>2019-08-02T10:17:26.000Z</time>
      </trkpt>
      <trkpt lat="43.0659370" lon="-2.7113870">
        <ele>608.684998</ele>
        <time>2019-08-02T10:17:19.000Z</time>
      </trkpt>
      <trkpt lat="43.0659490" lon="-2.7113790">
        <ele>608.678040</ele>
        <time>2019-08-02T10:17:07.000Z</time>
      </trkpt>
      <trkpt lat="43.0659680" lon="-2.7113850">
        <ele>608.613037</ele>
        <time>2019-08-02T10:16:49.000Z</time>
      </trkpt>
      <trkpt lat="43.0659620" lon="-2.7113990">
        <ele>608.677002</ele>
        <time>2019-08-02T10:16:36.000Z</time>
      </trkpt>
      <trkpt lat="43.0659510" lon="-2.7114140">
        <ele>608.607971</ele>
        <time>2019-08-02T10:16:25.000Z</time>
      </trkpt>
      <trkpt lat="43.0659510" lon="-2.7114210">
        <ele>608.614014</ele>
        <time>2019-08-02T10:16:16.000Z</time>
      </trkpt>
      <trkpt lat="43.0659560" lon="-2.7114170">
        <ele>608.622009</ele>
        <time>2019-08-02T10:16:09.000Z</time>
      </trkpt>
      <trkpt lat="43.0659520" lon="-2.7114270">
        <ele>608.641968</ele>
        <time>2019-08-02T10:15:56.000Z</time>
      </trkpt>
      <trkpt lat="43.0659480" lon="-2.7114370">
        <ele>608.682983</ele>
        <time>2019-08-02T10:15:47.000Z</time>
      </trkpt>
      <trkpt lat="43.0659430" lon="-2.7114340">
        <ele>608.637024</ele>
        <time>2019-08-02T10:15:33.000Z</time>
      </trkpt>
      <trkpt lat="43.0659450" lon="-2.7114280">
        <ele>608.630005</ele>
        <time>2019-08-02T10:15:24.000Z</time>
      </trkpt>
      <trkpt lat="43.0659390" lon="-2.7114200">
        <ele>608.666992</ele>
        <time>2019-08-02T10:15:12.000Z</time>
      </trkpt>
      <trkpt lat="43.0659400" lon="-2.7114140">
        <ele>608.614014</ele>
        <time>2019-08-02T10:15:03.000Z</time>
      </trkpt>
      <trkpt lat="43.0659210" lon="-2.7114470">
        <ele>608.647034</ele>
        <time>2019-08-02T10:14:48.000Z</time>
      </trkpt>
      <trkpt lat="43.0659140" lon="-2.7114610">
        <ele>608.692017</ele>
        <time>2019-08-02T10:14:42.000Z</time>
      </trkpt>
      <trkpt lat="43.0659180" lon="-2.7114590">
        <ele>608.666016</ele>
        <time>2019-08-02T10:14:28.000Z</time>
      </trkpt>
      <trkpt lat="43.0659130" lon="-2.7114580">
        <ele>608.607971</ele>
        <time>2019-08-02T10:14:17.000Z</time>
      </trkpt>
      <trkpt lat="43.0659140" lon="-2.7114570">
        <ele>608.611023</ele>
        <time>2019-08-02T10:14:06.000Z</time>
      </trkpt>
      <trkpt lat="43.0659210" lon="-2.7114450">
        <ele>608.692017</ele>
        <time>2019-08-02T10:13:53.000Z</time>
      </trkpt>
      <trkpt lat="43.0659500" lon="-2.7114130">
        <ele>608.631958</ele>
        <time>2019-08-02T10:13:33.000Z</time>
      </trkpt>
      <trkpt lat="43.0659530" lon="-2.7114100">
        <ele>608.627014</ele>
        <time>2019-08-02T10:13:20.000Z</time>
      </trkpt>
      <trkpt lat="43.0659430" lon="-2.7114160">
        <ele>608.651001</ele>
        <time>2019-08-02T10:13:06.000Z</time>
      </trkpt>
      <trkpt lat="43.0659320" lon="-2.7114270">
        <ele>608.694031</ele>
        <time>2019-08-02T10:12:55.000Z</time>
      </trkpt>
      <trkpt lat="43.0659360" lon="-2.7114330">
        <ele>608.631042</ele>
        <time>2019-08-02T10:12:46.000Z</time>
      </trkpt>
      <trkpt lat="43.0659450" lon="-2.7114310">
        <ele>608.127991</ele>
        <time>2019-08-02T10:12:37.000Z</time>
      </trkpt>
      <trkpt lat="43.0659490" lon="-2.7114370">
        <ele>608.190979</ele>
        <time>2019-08-02T10:12:26.000Z</time>
      </trkpt>
      <trkpt lat="43.0659390" lon="-2.7114430">
        <ele>608.185974</ele>
        <time>2019-08-02T10:12:13.000Z</time>
      </trkpt>
      <trkpt lat="43.0659490" lon="-2.7114220">
        <ele>608.150024</ele>
        <time>2019-08-02T10:12:04.000Z</time>
      </trkpt>
      <trkpt lat="43.0659430" lon="-2.7114250">
        <ele>608.107971</ele>
        <time>2019-08-02T10:11:53.000Z</time>
      </trkpt>
      <trkpt lat="43.0659240" lon="-2.7114430">
        <ele>608.114990</ele>
        <time>2019-08-02T10:11:42.000Z</time>
      </trkpt>
      <trkpt lat="43.0659220" lon="-2.7114420">
        <ele>608.140991</ele>
        <time>2019-08-02T10:11:30.000Z</time>
      </trkpt>
      <trkpt lat="43.0659320" lon="-2.7114410">
        <ele>608.170959</ele>
        <time>2019-08-02T10:11:17.000Z</time>
      </trkpt>
      <trkpt lat="43.0659270" lon="-2.7114430">
        <ele>608.168030</ele>
        <time>2019-08-02T10:11:09.000Z</time>
      </trkpt>
      <trkpt lat="43.0659290" lon="-2.7114350">
        <ele>608.122009</ele>
        <time>2019-08-02T10:10:58.000Z</time>
      </trkpt>
      <trkpt lat="43.0659280" lon="-2.7114300">
        <ele>608.135010</ele>
        <time>2019-08-02T10:10:49.000Z</time>
      </trkpt>
      <trkpt lat="43.0659170" lon="-2.7114370">
        <ele>608.122009</ele>
        <time>2019-08-02T10:10:32.000Z</time>
      </trkpt>
      <trkpt lat="43.0659350" lon="-2.7114190">
        <ele>608.199036</ele>
        <time>2019-08-02T10:10:16.000Z</time>
      </trkpt>
      <trkpt lat="43.0659340" lon="-2.7114250">
        <ele>608.112000</ele>
        <time>2019-08-02T10:10:01.000Z</time>
      </trkpt>
      <trkpt lat="43.0659470" lon="-2.7114090">
        <ele>608.197021</ele>
        <time>2019-08-02T10:09:45.000Z</time>
      </trkpt>
      <trkpt lat="43.0659510" lon="-2.7114010">
        <ele>608.120972</ele>
        <time>2019-08-02T10:09:29.000Z</time>
      </trkpt>
      <trkpt lat="43.0659450" lon="-2.7114050">
        <ele>607.608032</ele>
        <time>2019-08-02T10:09:20.000Z</time>
      </trkpt>
      <trkpt lat="43.0659440" lon="-2.7113940">
        <ele>607.626038</ele>
        <time>2019-08-02T10:09:04.000Z</time>
      </trkpt>
      <trkpt lat="43.0659390" lon="-2.7114050">
        <ele>607.624023</ele>
        <time>2019-08-02T10:08:49.000Z</time>
      </trkpt>
      <trkpt lat="43.0659510" lon="-2.7113930">
        <ele>607.687988</ele>
        <time>2019-08-02T10:08:35.000Z</time>
      </trkpt>
      <trkpt lat="43.0659540" lon="-2.7113980">
        <ele>607.643005</ele>
        <time>2019-08-02T10:08:22.000Z</time>
      </trkpt>
      <trkpt lat="43.0659640" lon="-2.7113940">
        <ele>607.627014</ele>
        <time>2019-08-02T10:08:08.000Z</time>
      </trkpt>
      <trkpt lat="43.0659680" lon="-2.7113880">
        <ele>607.640015</ele>
        <time>2019-08-02T10:07:57.000Z</time>
      </trkpt>
      <trkpt lat="43.0659700" lon="-2.7113850">
        <ele>607.617004</ele>
        <time>2019-08-02T10:07:48.000Z</time>
      </trkpt>
      <trkpt lat="43.0659650" lon="-2.7113980">
        <ele>607.674011</ele>
        <time>2019-08-02T10:07:38.000Z</time>
      </trkpt>
      <trkpt lat="43.0659760" lon="-2.7113850">
        <ele>607.637024</ele>
        <time>2019-08-02T10:07:28.000Z</time>
      </trkpt>
      <trkpt lat="43.0659800" lon="-2.7113750">
        <ele>607.661987</ele>
        <time>2019-08-02T10:07:17.000Z</time>
      </trkpt>
      <trkpt lat="43.0659790" lon="-2.7113720">
        <ele>607.656006</ele>
        <time>2019-08-02T10:07:07.000Z</time>
      </trkpt>
      <trkpt lat="43.0659870" lon="-2.7113620">
        <ele>607.608032</ele>
        <time>2019-08-02T10:06:59.000Z</time>
      </trkpt>
      <trkpt lat="43.0660020" lon="-2.7113550">
        <ele>607.614014</ele>
        <time>2019-08-02T10:06:47.000Z</time>
      </trkpt>
      <trkpt lat="43.0660080" lon="-2.7113410">
        <ele>607.685974</ele>
        <time>2019-08-02T10:06:29.000Z</time>
      </trkpt>
      <trkpt lat="43.0660230" lon="-2.7113230">
        <ele>607.635010</ele>
        <time>2019-08-02T10:06:14.000Z</time>
      </trkpt>
      <trkpt lat="43.0660430" lon="-2.7112960">
        <ele>607.610962</ele>
        <time>2019-08-02T10:05:56.000Z</time>
      </trkpt>
      <trkpt lat="43.0660440" lon="-2.7113060">
        <ele>607.665039</ele>
        <time>2019-08-02T10:05:43.000Z</time>
      </trkpt>
      <trkpt lat="43.0660390" lon="-2.7113160">
        <ele>607.677979</ele>
        <time>2019-08-02T10:05:35.000Z</time>
      </trkpt>
      <trkpt lat="43.0660350" lon="-2.7113190">
        <ele>607.625000</ele>
        <time>2019-08-02T10:05:22.000Z</time>
      </trkpt>
      <trkpt lat="43.0660260" lon="-2.7113310">
        <ele>607.632019</ele>
        <time>2019-08-02T10:05:10.000Z</time>
      </trkpt>
      <trkpt lat="43.0660320" lon="-2.7113290">
        <ele>608.184998</ele>
        <time>2019-08-02T10:04:56.000Z</time>
      </trkpt>
      <trkpt lat="43.0660230" lon="-2.7113460">
        <ele>608.190002</ele>
        <time>2019-08-02T10:04:46.000Z</time>
      </trkpt>
      <trkpt lat="43.0659850" lon="-2.7113840">
        <ele>608.134033</ele>
        <time>2019-08-02T10:04:28.000Z</time>
      </trkpt>
      <trkpt lat="43.0659790" lon="-2.7113900">
        <ele>608.107971</ele>
        <time>2019-08-02T10:04:14.000Z</time>
      </trkpt>
      <trkpt lat="43.0659690" lon="-2.7113950">
        <ele>608.111023</ele>
        <time>2019-08-02T10:03:56.000Z</time>
      </trkpt>
      <trkpt lat="43.0659590" lon="-2.7113900">
        <ele>608.164978</ele>
        <time>2019-08-02T10:03:37.000Z</time>
      </trkpt>
      <trkpt lat="43.0659500" lon="-2.7113940">
        <ele>608.114990</ele>
        <time>2019-08-02T10:03:20.000Z</time>
      </trkpt>
      <trkpt lat="43.0659760" lon="-2.7113830">
        <ele>608.130981</ele>
        <time>2019-08-02T10:03:08.000Z</time>
      </trkpt>
      <trkpt lat="43.0660000" lon="-2.7113620">
        <ele>608.174988</ele>
        <time>2019-08-02T10:02:58.000Z</time>
      </trkpt>
      <trkpt lat="43.0660000" lon="-2.7113700">
        <ele>608.138000</ele>
        <time>2019-08-02T10:02:44.000Z</time>
      </trkpt>
      <trkpt lat="43.0659680" lon="-2.7113920">
        <ele>608.154968</ele>
        <time>2019-08-02T10:02:29.000Z</time>
      </trkpt>
      <trkpt lat="43.0659700" lon="-2.7113930">
        <ele>608.132019</ele>
        <time>2019-08-02T10:02:14.000Z</time>
      </trkpt>
      <trkpt lat="43.0660160" lon="-2.7113540">
        <ele>608.154968</ele>
        <time>2019-08-02T10:01:55.000Z</time>
      </trkpt>
      <trkpt lat="43.0660250" lon="-2.7113420">
        <ele>608.119995</ele>
        <time>2019-08-02T10:01:41.000Z</time>
      </trkpt>
      <trkpt lat="43.0660380" lon="-2.7113410">
        <ele>608.134033</ele>
        <time>2019-08-02T10:01:21.000Z</time>
      </trkpt>
      <trkpt lat="43.0660530" lon="-2.7113300">
        <ele>608.107971</ele>
        <time>2019-08-02T10:01:02.000Z</time>
      </trkpt>
      <trkpt lat="43.0659980" lon="-2.7113770">
        <ele>608.114990</ele>
        <time>2019-08-02T10:00:38.000Z</time>
      </trkpt>
      <trkpt lat="43.0659190" lon="-2.7114510">
        <ele>608.687012</ele>
        <time>2019-08-02T10:00:17.000Z</time>
      </trkpt>
      <trkpt lat="43.0659440" lon="-2.7114220">
        <ele>608.617004</ele>
        <time>2019-08-02T10:00:00.000Z</time>
      </trkpt>
      <trkpt lat="43.0660000" lon="-2.7113860">
        <ele>608.663025</ele>
        <time>2019-08-02T09:59:36.000Z</time>
      </trkpt>
      <trkpt lat="43.0659970" lon="-2.7113910">
        <ele>608.637024</ele>
        <time>2019-08-02T09:59:18.000Z</time>
      </trkpt>
      <trkpt lat="43.0659900" lon="-2.7113960">
        <ele>608.679993</ele>
        <time>2019-08-02T09:59:05.000Z</time>
      </trkpt>
      <trkpt lat="43.0659600" lon="-2.7114300">
        <ele>608.656982</ele>
        <time>2019-08-02T09:58:43.000Z</time>
      </trkpt>
      <trkpt lat="43.0659550" lon="-2.7114290">
        <ele>608.674011</ele>
        <time>2019-08-02T09:58:33.000Z</time>
      </trkpt>
      <trkpt lat="43.0659580" lon="-2.7114270">
        <ele>608.696960</ele>
        <time>2019-08-02T09:58:21.000Z</time>
      </trkpt>
      <trkpt lat="43.0659690" lon="-2.7114140">
        <ele>608.622009</ele>
        <time>2019-08-02T09:58:07.000Z</time>
      </trkpt>
      <trkpt lat="43.0659770" lon="-2.7114020">
        <ele>608.185974</ele>
        <time>2019-08-02T09:57:53.000Z</time>
      </trkpt>
      <trkpt lat="43.0659830" lon="-2.7113960">
        <ele>608.107971</ele>
        <time>2019-08-02T09:57:34.000Z</time>
      </trkpt>
      <trkpt lat="43.0659660" lon="-2.7114090">
        <ele>608.114990</ele>
        <time>2019-08-02T09:57:15.000Z</time>
      </trkpt>
      <trkpt lat="43.0659600" lon="-2.7114150">
        <ele>608.122986</ele>
        <time>2019-08-02T09:56:56.000Z</time>
      </trkpt>
      <trkpt lat="43.0659990" lon="-2.7113800">
        <ele>608.632996</ele>
        <time>2019-08-02T09:56:41.000Z</time>
      </trkpt>
      <trkpt lat="43.0660080" lon="-2.7113780">
        <ele>608.666992</ele>
        <time>2019-08-02T09:56:25.000Z</time>
      </trkpt>
      <trkpt lat="43.0660120" lon="-2.7113690">
        <ele>608.651001</ele>
        <time>2019-08-02T09:56:08.000Z</time>
      </trkpt>
      <trkpt lat="43.0659850" lon="-2.7113780">
        <ele>608.684021</ele>
        <time>2019-08-02T09:55:49.000Z</time>
      </trkpt>
      <trkpt lat="43.0659690" lon="-2.7113840">
        <ele>608.671021</ele>
        <time>2019-08-02T09:55:36.000Z</time>
      </trkpt>
      <trkpt lat="43.0659770" lon="-2.7113810">
        <ele>608.627991</ele>
        <time>2019-08-02T09:55:21.000Z</time>
      </trkpt>
      <trkpt lat="43.0659890" lon="-2.7113980">
        <ele>608.671021</ele>
        <time>2019-08-02T09:55:15.000Z</time>
      </trkpt>
      <trkpt lat="43.0659850" lon="-2.7114180">
        <ele>608.686035</ele>
        <time>2019-08-02T09:55:12.000Z</time>
      </trkpt>
      <trkpt lat="43.0660000" lon="-2.7114390">
        <ele>608.649963</ele>
        <time>2019-08-02T09:55:08.000Z</time>
      </trkpt>
      <trkpt lat="43.0661210" lon="-2.7112770">
        <ele>608.607971</ele>
        <time>2019-08-02T09:55:02.000Z</time>
      </trkpt>
      <trkpt lat="43.0662370" lon="-2.7110420">
        <ele>608.619995</ele>
        <time>2019-08-02T09:54:55.000Z</time>
      </trkpt>
      <trkpt lat="43.0663680" lon="-2.7107660">
        <ele>608.627991</ele>
        <time>2019-08-02T09:54:46.000Z</time>
      </trkpt>
      <trkpt lat="43.0664940" lon="-2.7105970">
        <ele>608.674988</ele>
        <time>2019-08-02T09:54:40.000Z</time>
      </trkpt>
      <trkpt lat="43.0666090" lon="-2.7103950">
        <ele>609.612976</ele>
        <time>2019-08-02T09:54:35.000Z</time>
      </trkpt>
      <trkpt lat="43.0666270" lon="-2.7103550">
        <ele>610.557007</ele>
        <time>2019-08-02T09:54:34.000Z</time>
      </trkpt>
      <trkpt lat="43.0666480" lon="-2.7103130">
        <ele>610.020020</ele>
        <time>2019-08-02T09:54:33.000Z</time>
      </trkpt>
      <trkpt lat="43.0666750" lon="-2.7102680">
        <ele>610.546997</ele>
        <time>2019-08-02T09:54:32.000Z</time>
      </trkpt>
      <trkpt lat="43.0667080" lon="-2.7102270">
        <ele>611.523987</ele>
        <time>2019-08-02T09:54:31.000Z</time>
      </trkpt>
      <trkpt lat="43.0667670" lon="-2.7101820">
        <ele>612.046997</ele>
        <time>2019-08-02T09:54:29.000Z</time>
      </trkpt>
      <trkpt lat="43.0668810" lon="-2.7101150">
        <ele>612.911987</ele>
        <time>2019-08-02T09:54:25.000Z</time>
      </trkpt>
      <trkpt lat="43.0670350" lon="-2.7100400">
        <ele>614.955994</ele>
        <time>2019-08-02T09:54:22.000Z</time>
      </trkpt>
      <trkpt lat="43.0672940" lon="-2.7099270">
        <ele>618.208008</ele>
        <time>2019-08-02T09:54:18.000Z</time>
      </trkpt>
      <trkpt lat="43.0675080" lon="-2.7098310">
        <ele>622.117981</ele>
        <time>2019-08-02T09:54:15.000Z</time>
      </trkpt>
      <trkpt lat="43.0675660" lon="-2.7097960">
        <ele>623.017029</ele>
        <time>2019-08-02T09:54:14.000Z</time>
      </trkpt>
      <trkpt lat="43.0676260" lon="-2.7097650">
        <ele>624.036011</ele>
        <time>2019-08-02T09:54:13.000Z</time>
      </trkpt>
      <trkpt lat="43.0676870" lon="-2.7097540">
        <ele>625.478027</ele>
        <time>2019-08-02T09:54:12.000Z</time>
      </trkpt>
      <trkpt lat="43.0677390" lon="-2.7097390">
        <ele>626.432007</ele>
        <time>2019-08-02T09:54:11.000Z</time>
      </trkpt>
      <trkpt lat="43.0677890" lon="-2.7097210">
        <ele>627.415039</ele>
        <time>2019-08-02T09:54:10.000Z</time>
      </trkpt>
      <trkpt lat="43.0678400" lon="-2.7097020">
        <ele>627.881958</ele>
        <time>2019-08-02T09:54:09.000Z</time>
      </trkpt>
      <trkpt lat="43.0678920" lon="-2.7096790">
        <ele>629.318970</ele>
        <time>2019-08-02T09:54:08.000Z</time>
      </trkpt>
      <trkpt lat="43.0679430" lon="-2.7096510">
        <ele>629.862000</ele>
        <time>2019-08-02T09:54:07.000Z</time>
      </trkpt>
      <trkpt lat="43.0679880" lon="-2.7096140">
        <ele>630.737000</ele>
        <time>2019-08-02T09:54:06.000Z</time>
      </trkpt>
      <trkpt lat="43.0680280" lon="-2.7095740">
        <ele>631.250977</ele>
        <time>2019-08-02T09:54:05.000Z</time>
      </trkpt>
      <trkpt lat="43.0680680" lon="-2.7095260">
        <ele>631.707947</ele>
        <time>2019-08-02T09:54:04.000Z</time>
      </trkpt>
      <trkpt lat="43.0681120" lon="-2.7094750">
        <ele>632.626038</ele>
        <time>2019-08-02T09:54:03.000Z</time>
      </trkpt>
      <trkpt lat="43.0682890" lon="-2.7092700">
        <ele>635.523987</ele>
        <time>2019-08-02T09:53:59.000Z</time>
      </trkpt>
      <trkpt lat="43.0684720" lon="-2.7090700">
        <ele>638.987976</ele>
        <time>2019-08-02T09:53:55.000Z</time>
      </trkpt>
      <trkpt lat="43.0686610" lon="-2.7088600">
        <ele>641.895996</ele>
        <time>2019-08-02T09:53:50.000Z</time>
      </trkpt>
      <trkpt lat="43.0689090" lon="-2.7085920">
        <ele>645.110046</ele>
        <time>2019-08-02T09:53:44.000Z</time>
      </trkpt>
      <trkpt lat="43.0691290" lon="-2.7083410">
        <ele>648.513000</ele>
        <time>2019-08-02T09:53:38.000Z</time>
      </trkpt>
      <trkpt lat="43.0691590" lon="-2.7082890">
        <ele>649.549988</ele>
        <time>2019-08-02T09:53:37.000Z</time>
      </trkpt>
      <trkpt lat="43.0691830" lon="-2.7082350">
        <ele>649.986938</ele>
        <time>2019-08-02T09:53:36.000Z</time>
      </trkpt>
      <trkpt lat="43.0692150" lon="-2.7081250">
        <ele>650.410034</ele>
        <time>2019-08-02T09:53:34.000Z</time>
      </trkpt>
      <trkpt lat="43.0692270" lon="-2.7080680">
        <ele>651.414978</ele>
        <time>2019-08-02T09:53:33.000Z</time>
      </trkpt>
      <trkpt lat="43.0692350" lon="-2.7080050">
        <ele>651.428955</ele>
        <time>2019-08-02T09:53:32.000Z</time>
      </trkpt>
      <trkpt lat="43.0692390" lon="-2.7079370">
        <ele>651.907959</ele>
        <time>2019-08-02T09:53:31.000Z</time>
      </trkpt>
      <trkpt lat="43.0692660" lon="-2.7073730">
        <ele>653.814026</ele>
        <time>2019-08-02T09:53:24.000Z</time>
      </trkpt>
      <trkpt lat="43.0692990" lon="-2.7068800">
        <ele>657.268005</ele>
        <time>2019-08-02T09:53:18.000Z</time>
      </trkpt>
      <trkpt lat="43.0693440" lon="-2.7063140">
        <ele>659.164978</ele>
        <time>2019-08-02T09:53:10.000Z</time>
      </trkpt>
      <trkpt lat="43.0693480" lon="-2.7062400">
        <ele>659.138977</ele>
        <time>2019-08-02T09:53:09.000Z</time>
      </trkpt>
      <trkpt lat="43.0693430" lon="-2.7060060">
        <ele>659.143005</ele>
        <time>2019-08-02T09:53:06.000Z</time>
      </trkpt>
      <trkpt lat="43.0693410" lon="-2.7059280">
        <ele>659.166016</ele>
        <time>2019-08-02T09:53:05.000Z</time>
      </trkpt>
      <trkpt lat="43.0693370" lon="-2.7058490">
        <ele>659.182983</ele>
        <time>2019-08-02T09:53:04.000Z</time>
      </trkpt>
      <trkpt lat="43.0693240" lon="-2.7057670">
        <ele>659.179993</ele>
        <time>2019-08-02T09:53:03.000Z</time>
      </trkpt>
      <trkpt lat="43.0693070" lon="-2.7056810">
        <ele>659.132996</ele>
        <time>2019-08-02T09:53:02.000Z</time>
      </trkpt>
      <trkpt lat="43.0692960" lon="-2.7055870">
        <ele>659.157959</ele>
        <time>2019-08-02T09:53:01.000Z</time>
      </trkpt>
      <trkpt lat="43.0692930" lon="-2.7054900">
        <ele>659.192017</ele>
        <time>2019-08-02T09:53:00.000Z</time>
      </trkpt>
      <trkpt lat="43.0693010" lon="-2.7053880">
        <ele>659.608032</ele>
        <time>2019-08-02T09:52:59.000Z</time>
      </trkpt>
      <trkpt lat="43.0693190" lon="-2.7052880">
        <ele>659.620972</ele>
        <time>2019-08-02T09:52:58.000Z</time>
      </trkpt>
      <trkpt lat="43.0694150" lon="-2.7050310">
        <ele>662.064941</ele>
        <time>2019-08-02T09:52:55.000Z</time>
      </trkpt>
      <trkpt lat="43.0694460" lon="-2.7049600">
        <ele>662.492981</ele>
        <time>2019-08-02T09:52:54.000Z</time>
      </trkpt>
      <trkpt lat="43.0694750" lon="-2.7048880">
        <ele>662.942017</ele>
        <time>2019-08-02T09:52:53.000Z</time>
      </trkpt>
      <trkpt lat="43.0694960" lon="-2.7048110">
        <ele>662.935974</ele>
        <time>2019-08-02T09:52:52.000Z</time>
      </trkpt>
      <trkpt lat="43.0695110" lon="-2.7047310">
        <ele>662.968994</ele>
        <time>2019-08-02T09:52:51.000Z</time>
      </trkpt>
      <trkpt lat="43.0695210" lon="-2.7046490">
        <ele>662.996033</ele>
        <time>2019-08-02T09:52:50.000Z</time>
      </trkpt>
      <trkpt lat="43.0695620" lon="-2.7040300">
        <ele>663.953003</ele>
        <time>2019-08-02T09:52:43.000Z</time>
      </trkpt>
      <trkpt lat="43.0695740" lon="-2.7039390">
        <ele>664.416016</ele>
        <time>2019-08-02T09:52:42.000Z</time>
      </trkpt>
      <trkpt lat="43.0695910" lon="-2.7038490">
        <ele>664.411011</ele>
        <time>2019-08-02T09:52:41.000Z</time>
      </trkpt>
      <trkpt lat="43.0696130" lon="-2.7037610">
        <ele>665.385010</ele>
        <time>2019-08-02T09:52:40.000Z</time>
      </trkpt>
      <trkpt lat="43.0698210" lon="-2.7031360">
        <ele>667.708008</ele>
        <time>2019-08-02T09:52:33.000Z</time>
      </trkpt>
      <trkpt lat="43.0699430" lon="-2.7027610">
        <ele>670.119995</ele>
        <time>2019-08-02T09:52:29.000Z</time>
      </trkpt>
      <trkpt lat="43.0700510" lon="-2.7024730">
        <ele>674.500000</ele>
        <time>2019-08-02T09:52:25.000Z</time>
      </trkpt>
      <trkpt lat="43.0701810" lon="-2.7022990">
        <ele>676.929016</ele>
        <time>2019-08-02T09:52:19.000Z</time>
      </trkpt>
      <trkpt lat="43.0703360" lon="-2.7021640">
        <ele>678.369019</ele>
        <time>2019-08-02T09:52:13.000Z</time>
      </trkpt>
      <trkpt lat="43.0705140" lon="-2.7020100">
        <ele>678.353027</ele>
        <time>2019-08-02T09:52:06.000Z</time>
      </trkpt>
      <trkpt lat="43.0707100" lon="-2.7017910">
        <ele>677.356018</ele>
        <time>2019-08-02T09:51:58.000Z</time>
      </trkpt>
      <trkpt lat="43.0707370" lon="-2.7017590">
        <ele>677.343018</ele>
        <time>2019-08-02T09:51:57.000Z</time>
      </trkpt>
      <trkpt lat="43.0709580" lon="-2.7015980">
        <ele>675.929993</ele>
        <time>2019-08-02T09:51:50.000Z</time>
      </trkpt>
      <trkpt lat="43.0711690" lon="-2.7015420">
        <ele>675.973022</ele>
        <time>2019-08-02T09:51:43.000Z</time>
      </trkpt>
      <trkpt lat="43.0713470" lon="-2.7014890">
        <ele>675.987976</ele>
        <time>2019-08-02T09:51:36.000Z</time>
      </trkpt>
      <trkpt lat="43.0716470" lon="-2.7014300">
        <ele>675.932007</ele>
        <time>2019-08-02T09:51:29.000Z</time>
      </trkpt>
      <trkpt lat="43.0721230" lon="-2.7013470">
        <ele>677.807983</ele>
        <time>2019-08-02T09:51:21.000Z</time>
      </trkpt>
      <trkpt lat="43.0722450" lon="-2.7013330">
        <ele>678.820007</ele>
        <time>2019-08-02T09:51:19.000Z</time>
      </trkpt>
      <trkpt lat="43.0726940" lon="-2.7013400">
        <ele>681.273010</ele>
        <time>2019-08-02T09:51:11.000Z</time>
      </trkpt>
      <trkpt lat="43.0727500" lon="-2.7013370">
        <ele>681.791992</ele>
        <time>2019-08-02T09:51:10.000Z</time>
      </trkpt>
      <trkpt lat="43.0729250" lon="-2.7013280">
        <ele>683.184998</ele>
        <time>2019-08-02T09:51:07.000Z</time>
      </trkpt>
      <trkpt lat="43.0729840" lon="-2.7013300">
        <ele>683.139038</ele>
        <time>2019-08-02T09:51:06.000Z</time>
      </trkpt>
      <trkpt lat="43.0730420" lon="-2.7013310">
        <ele>683.192017</ele>
        <time>2019-08-02T09:51:05.000Z</time>
      </trkpt>
      <trkpt lat="43.0731020" lon="-2.7013230">
        <ele>683.628967</ele>
        <time>2019-08-02T09:51:04.000Z</time>
      </trkpt>
      <trkpt lat="43.0731600" lon="-2.7013110">
        <ele>684.155945</ele>
        <time>2019-08-02T09:51:03.000Z</time>
      </trkpt>
      <trkpt lat="43.0732150" lon="-2.7013040">
        <ele>684.198975</ele>
        <time>2019-08-02T09:51:02.000Z</time>
      </trkpt>
      <trkpt lat="43.0732710" lon="-2.7012960">
        <ele>684.654053</ele>
        <time>2019-08-02T09:51:01.000Z</time>
      </trkpt>
      <trkpt lat="43.0733250" lon="-2.7012850">
        <ele>685.047974</ele>
        <time>2019-08-02T09:51:00.000Z</time>
      </trkpt>
      <trkpt lat="43.0734860" lon="-2.7012210">
        <ele>686.507996</ele>
        <time>2019-08-02T09:50:57.000Z</time>
      </trkpt>
      <trkpt lat="43.0735330" lon="-2.7012040">
        <ele>686.507996</ele>
        <time>2019-08-02T09:50:56.000Z</time>
      </trkpt>
      <trkpt lat="43.0735790" lon="-2.7011820">
        <ele>687.052979</ele>
        <time>2019-08-02T09:50:55.000Z</time>
      </trkpt>
      <trkpt lat="43.0736220" lon="-2.7011540">
        <ele>687.951965</ele>
        <time>2019-08-02T09:50:54.000Z</time>
      </trkpt>
      <trkpt lat="43.0736650" lon="-2.7011170">
        <ele>687.934998</ele>
        <time>2019-08-02T09:50:53.000Z</time>
      </trkpt>
      <trkpt lat="43.0738250" lon="-2.7009530">
        <ele>689.429016</ele>
        <time>2019-08-02T09:50:49.000Z</time>
      </trkpt>
      <trkpt lat="43.0739610" lon="-2.7007630">
        <ele>690.892029</ele>
        <time>2019-08-02T09:50:45.000Z</time>
      </trkpt>
      <trkpt lat="43.0739890" lon="-2.7007170">
        <ele>690.819031</ele>
        <time>2019-08-02T09:50:44.000Z</time>
      </trkpt>
      <trkpt lat="43.0740490" lon="-2.7006300">
        <ele>691.835999</ele>
        <time>2019-08-02T09:50:42.000Z</time>
      </trkpt>
      <trkpt lat="43.0741610" lon="-2.7004290">
        <ele>692.289001</ele>
        <time>2019-08-02T09:50:38.000Z</time>
      </trkpt>
      <trkpt lat="43.0743370" lon="-2.7001320">
        <ele>694.273987</ele>
        <time>2019-08-02T09:50:32.000Z</time>
      </trkpt>
      <trkpt lat="43.0745480" lon="-2.6998660">
        <ele>696.697998</ele>
        <time>2019-08-02T09:50:25.000Z</time>
      </trkpt>
      <trkpt lat="43.0746270" lon="-2.6997920">
        <ele>697.007996</ele>
        <time>2019-08-02T09:50:23.000Z</time>
      </trkpt>
      <trkpt lat="43.0746670" lon="-2.6997610">
        <ele>697.522949</ele>
        <time>2019-08-02T09:50:22.000Z</time>
      </trkpt>
      <trkpt lat="43.0749510" lon="-2.6995940">
        <ele>700.903015</ele>
        <time>2019-08-02T09:50:14.000Z</time>
      </trkpt>
      <trkpt lat="43.0749910" lon="-2.6995830">
        <ele>701.459045</ele>
        <time>2019-08-02T09:50:13.000Z</time>
      </trkpt>
      <trkpt lat="43.0750750" lon="-2.6995800">
        <ele>702.383972</ele>
        <time>2019-08-02T09:50:11.000Z</time>
      </trkpt>
      <trkpt lat="43.0751220" lon="-2.6995890">
        <ele>702.398010</ele>
        <time>2019-08-02T09:50:10.000Z</time>
      </trkpt>
      <trkpt lat="43.0751680" lon="-2.6996080">
        <ele>702.310974</ele>
        <time>2019-08-02T09:50:09.000Z</time>
      </trkpt>
      <trkpt lat="43.0752550" lon="-2.6996670">
        <ele>702.867981</ele>
        <time>2019-08-02T09:50:07.000Z</time>
      </trkpt>
      <trkpt lat="43.0755910" lon="-2.6999350">
        <ele>704.735046</ele>
        <time>2019-08-02T09:49:59.000Z</time>
      </trkpt>
      <trkpt lat="43.0757750" lon="-2.7000580">
        <ele>705.728027</ele>
        <time>2019-08-02T09:49:53.000Z</time>
      </trkpt>
      <trkpt lat="43.0758600" lon="-2.7001530">
        <ele>706.232971</ele>
        <time>2019-08-02T09:49:46.000Z</time>
      </trkpt>
      <trkpt lat="43.0758710" lon="-2.7001650">
        <ele>706.237000</ele>
        <time>2019-08-02T09:49:45.000Z</time>
      </trkpt>
      <trkpt lat="43.0758820" lon="-2.7001750">
        <ele>706.208008</ele>
        <time>2019-08-02T09:49:44.000Z</time>
      </trkpt>
      <trkpt lat="43.0758990" lon="-2.7001870">
        <ele>706.209045</ele>
        <time>2019-08-02T09:49:43.000Z</time>
      </trkpt>
      <trkpt lat="43.0759130" lon="-2.7001890">
        <ele>706.281006</ele>
        <time>2019-08-02T09:49:42.000Z</time>
      </trkpt>
      <trkpt lat="43.0759320" lon="-2.7001240">
        <ele>706.241028</ele>
        <time>2019-08-02T09:49:38.000Z</time>
      </trkpt>
      <trkpt lat="43.0759340" lon="-2.7001020">
        <ele>706.296997</ele>
        <time>2019-08-02T09:49:37.000Z</time>
      </trkpt>
      <trkpt lat="43.0759340" lon="-2.7000880">
        <ele>706.221008</ele>
        <time>2019-08-02T09:49:36.000Z</time>
      </trkpt>
      <trkpt lat="43.0759270" lon="-2.7000660">
        <ele>706.294006</ele>
        <time>2019-08-02T09:49:35.000Z</time>
      </trkpt>
      <trkpt lat="43.0759160" lon="-2.7000520">
        <ele>706.241028</ele>
        <time>2019-08-02T09:49:34.000Z</time>
      </trkpt>
      <trkpt lat="43.0758990" lon="-2.7000500">
        <ele>706.268005</ele>
        <time>2019-08-02T09:49:33.000Z</time>
      </trkpt>
      <trkpt lat="43.0758820" lon="-2.7000580">
        <ele>706.250977</ele>
        <time>2019-08-02T09:49:32.000Z</time>
      </trkpt>
      <trkpt lat="43.0758680" lon="-2.7000750">
        <ele>706.276001</ele>
        <time>2019-08-02T09:49:31.000Z</time>
      </trkpt>
      <trkpt lat="43.0758580" lon="-2.7000940">
        <ele>707.630005</ele>
        <time>2019-08-02T09:49:30.000Z</time>
      </trkpt>
      <trkpt lat="43.0758560" lon="-2.7001150">
        <ele>707.608032</ele>
        <time>2019-08-02T09:49:29.000Z</time>
      </trkpt>
      <trkpt lat="43.0758600" lon="-2.7001350">
        <ele>707.614990</ele>
        <time>2019-08-02T09:49:28.000Z</time>
      </trkpt>
      <trkpt lat="43.0758680" lon="-2.7001490">
        <ele>707.640991</ele>
        <time>2019-08-02T09:49:27.000Z</time>
      </trkpt>
      <trkpt lat="43.0758890" lon="-2.7001650">
        <ele>707.671021</ele>
        <time>2019-08-02T09:49:26.000Z</time>
      </trkpt>
      <trkpt lat="43.0759060" lon="-2.7001700">
        <ele>707.674011</ele>
        <time>2019-08-02T09:49:25.000Z</time>
      </trkpt>
      <trkpt lat="43.0759180" lon="-2.7001660">
        <ele>707.647949</ele>
        <time>2019-08-02T09:49:24.000Z</time>
      </trkpt>
      <trkpt lat="43.0759270" lon="-2.7001510">
        <ele>707.610962</ele>
        <time>2019-08-02T09:49:23.000Z</time>
      </trkpt>
      <trkpt lat="43.0759700" lon="-2.7000280">
        <ele>707.697998</ele>
        <time>2019-08-02T09:49:18.000Z</time>
      </trkpt>
      <trkpt lat="43.0761760" lon="-2.6998700">
        <ele>707.665039</ele>
        <time>2019-08-02T09:49:11.000Z</time>
      </trkpt>
      <trkpt lat="43.0763980" lon="-2.6997700">
        <ele>707.687988</ele>
        <time>2019-08-02T09:49:04.000Z</time>
      </trkpt>
      <trkpt lat="43.0766100" lon="-2.6997590">
        <ele>707.683044</ele>
        <time>2019-08-02T09:48:57.000Z</time>
      </trkpt>
      <trkpt lat="43.0768100" lon="-2.6998200">
        <ele>706.796997</ele>
        <time>2019-08-02T09:48:50.000Z</time>
      </trkpt>
      <trkpt lat="43.0770030" lon="-2.6999220">
        <ele>705.708008</ele>
        <time>2019-08-02T09:48:43.000Z</time>
      </trkpt>
      <trkpt lat="43.0771970" lon="-2.7000150">
        <ele>705.710022</ele>
        <time>2019-08-02T09:48:37.000Z</time>
      </trkpt>
      <trkpt lat="43.0773800" lon="-2.7001100">
        <ele>704.763977</ele>
        <time>2019-08-02T09:48:30.000Z</time>
      </trkpt>
      <trkpt lat="43.0774040" lon="-2.7001330">
        <ele>704.742981</ele>
        <time>2019-08-02T09:48:29.000Z</time>
      </trkpt>
      <trkpt lat="43.0775150" lon="-2.7003480">
        <ele>703.846985</ele>
        <time>2019-08-02T09:48:23.000Z</time>
      </trkpt>
      <trkpt lat="43.0775300" lon="-2.7005740">
        <ele>703.871033</ele>
        <time>2019-08-02T09:48:18.000Z</time>
      </trkpt>
      <trkpt lat="43.0775240" lon="-2.7006330">
        <ele>703.864014</ele>
        <time>2019-08-02T09:48:17.000Z</time>
      </trkpt>
      <trkpt lat="43.0775250" lon="-2.7006950">
        <ele>703.390991</ele>
        <time>2019-08-02T09:48:16.000Z</time>
      </trkpt>
      <trkpt lat="43.0775340" lon="-2.7007620">
        <ele>703.317993</ele>
        <time>2019-08-02T09:48:15.000Z</time>
      </trkpt>
      <trkpt lat="43.0775510" lon="-2.7008300">
        <ele>703.320984</ele>
        <time>2019-08-02T09:48:14.000Z</time>
      </trkpt>
      <trkpt lat="43.0775770" lon="-2.7008820">
        <ele>703.825989</ele>
        <time>2019-08-02T09:48:13.000Z</time>
      </trkpt>
      <trkpt lat="43.0778160" lon="-2.7010300">
        <ele>706.229980</ele>
        <time>2019-08-02T09:48:06.000Z</time>
      </trkpt>
      <trkpt lat="43.0778830" lon="-2.7010990">
        <ele>707.108032</ele>
        <time>2019-08-02T09:48:03.000Z</time>
      </trkpt>
      <trkpt lat="43.0780310" lon="-2.7012660">
        <ele>707.120972</ele>
        <time>2019-08-02T09:47:56.000Z</time>
      </trkpt>
      <trkpt lat="43.0781510" lon="-2.7014150">
        <ele>707.156006</ele>
        <time>2019-08-02T09:47:50.000Z</time>
      </trkpt>
      <trkpt lat="43.0782790" lon="-2.7015900">
        <ele>707.174011</ele>
        <time>2019-08-02T09:47:43.000Z</time>
      </trkpt>
      <trkpt lat="43.0784400" lon="-2.7017890">
        <ele>707.136963</ele>
        <time>2019-08-02T09:47:35.000Z</time>
      </trkpt>
      <trkpt lat="43.0785920" lon="-2.7018930">
        <ele>707.190979</ele>
        <time>2019-08-02T09:47:26.000Z</time>
      </trkpt>
      <trkpt lat="43.0787380" lon="-2.7019340">
        <ele>706.734009</ele>
        <time>2019-08-02T09:47:19.000Z</time>
      </trkpt>
      <trkpt lat="43.0788710" lon="-2.7018460">
        <ele>705.271057</ele>
        <time>2019-08-02T09:47:13.000Z</time>
      </trkpt>
      <trkpt lat="43.0791040" lon="-2.7016820">
        <ele>703.317993</ele>
        <time>2019-08-02T09:47:05.000Z</time>
      </trkpt>
      <trkpt lat="43.0793810" lon="-2.7015680">
        <ele>700.930969</ele>
        <time>2019-08-02T09:46:56.000Z</time>
      </trkpt>
      <trkpt lat="43.0795040" lon="-2.7013700">
        <ele>699.585999</ele>
        <time>2019-08-02T09:46:50.000Z</time>
      </trkpt>
      <trkpt lat="43.0796020" lon="-2.7010700">
        <ele>699.080017</ele>
        <time>2019-08-02T09:46:42.000Z</time>
      </trkpt>
      <trkpt lat="43.0797120" lon="-2.7008190">
        <ele>698.507996</ele>
        <time>2019-08-02T09:46:35.000Z</time>
      </trkpt>
      <trkpt lat="43.0798490" lon="-2.7006510">
        <ele>698.514954</ele>
        <time>2019-08-02T09:46:28.000Z</time>
      </trkpt>
      <trkpt lat="43.0799510" lon="-2.7005870">
        <ele>697.041016</ele>
        <time>2019-08-02T09:46:23.000Z</time>
      </trkpt>
      <trkpt lat="43.0801140" lon="-2.7004610">
        <ele>697.070984</ele>
        <time>2019-08-02T09:46:17.000Z</time>
      </trkpt>
      <trkpt lat="43.0802050" lon="-2.7003330">
        <ele>697.588013</ele>
        <time>2019-08-02T09:46:14.000Z</time>
      </trkpt>
      <trkpt lat="43.0803410" lon="-2.7000220">
        <ele>698.541992</ele>
        <time>2019-08-02T09:46:07.000Z</time>
      </trkpt>
      <trkpt lat="43.0803550" lon="-2.6999840">
        <ele>698.565002</ele>
        <time>2019-08-02T09:46:06.000Z</time>
      </trkpt>
      <trkpt lat="43.0803710" lon="-2.6999490">
        <ele>698.512024</ele>
        <time>2019-08-02T09:46:05.000Z</time>
      </trkpt>
      <trkpt lat="43.0803900" lon="-2.6999170">
        <ele>698.539001</ele>
        <time>2019-08-02T09:46:04.000Z</time>
      </trkpt>
      <trkpt lat="43.0804120" lon="-2.6998840">
        <ele>698.591980</ele>
        <time>2019-08-02T09:46:03.000Z</time>
      </trkpt>
      <trkpt lat="43.0804430" lon="-2.6998530">
        <ele>698.596985</ele>
        <time>2019-08-02T09:46:02.000Z</time>
      </trkpt>
      <trkpt lat="43.0804770" lon="-2.6998250">
        <ele>699.020996</ele>
        <time>2019-08-02T09:46:01.000Z</time>
      </trkpt>
      <trkpt lat="43.0805110" lon="-2.6998060">
        <ele>699.007996</ele>
        <time>2019-08-02T09:46:00.000Z</time>
      </trkpt>
      <trkpt lat="43.0805500" lon="-2.6998010">
        <ele>699.026001</ele>
        <time>2019-08-02T09:45:59.000Z</time>
      </trkpt>
      <trkpt lat="43.0808720" lon="-2.7000010">
        <ele>701.460022</ele>
        <time>2019-08-02T09:45:50.000Z</time>
      </trkpt>
      <trkpt lat="43.0810890" lon="-2.7002050">
        <ele>703.885986</ele>
        <time>2019-08-02T09:45:43.000Z</time>
      </trkpt>
      <trkpt lat="43.0811140" lon="-2.7002310">
        <ele>703.815002</ele>
        <time>2019-08-02T09:45:42.000Z</time>
      </trkpt>
      <trkpt lat="43.0812550" lon="-2.7003650">
        <ele>704.789001</ele>
        <time>2019-08-02T09:45:36.000Z</time>
      </trkpt>
      <trkpt lat="43.0813670" lon="-2.7004940">
        <ele>704.752014</ele>
        <time>2019-08-02T09:45:29.000Z</time>
      </trkpt>
      <trkpt lat="43.0813840" lon="-2.7005450">
        <ele>704.778992</ele>
        <time>2019-08-02T09:45:23.000Z</time>
      </trkpt>
      <trkpt lat="43.0813740" lon="-2.7005630">
        <ele>704.756042</ele>
        <time>2019-08-02T09:45:08.000Z</time>
      </trkpt>
      <trkpt lat="43.0814150" lon="-2.7005470">
        <ele>704.768982</ele>
        <time>2019-08-02T09:44:49.000Z</time>
      </trkpt>
      <trkpt lat="43.0814080" lon="-2.7005200">
        <ele>704.744019</ele>
        <time>2019-08-02T09:44:33.000Z</time>
      </trkpt>
      <trkpt lat="43.0814170" lon="-2.7005310">
        <ele>704.718018</ele>
        <time>2019-08-02T09:44:19.000Z</time>
      </trkpt>
      <trkpt lat="43.0814490" lon="-2.7005850">
        <ele>704.307983</ele>
        <time>2019-08-02T09:44:14.000Z</time>
      </trkpt>
      <trkpt lat="43.0815700" lon="-2.7008960">
        <ele>701.922974</ele>
        <time>2019-08-02T09:44:04.000Z</time>
      </trkpt>
      <trkpt lat="43.0816730" lon="-2.7010970">
        <ele>700.903015</ele>
        <time>2019-08-02T09:43:57.000Z</time>
      </trkpt>
      <trkpt lat="43.0818480" lon="-2.7012620">
        <ele>699.559021</ele>
        <time>2019-08-02T09:43:49.000Z</time>
      </trkpt>
      <trkpt lat="43.0819950" lon="-2.7014290">
        <ele>699.075012</ele>
        <time>2019-08-02T09:43:42.000Z</time>
      </trkpt>
      <trkpt lat="43.0820420" lon="-2.7014700">
        <ele>697.578979</ele>
        <time>2019-08-02T09:43:40.000Z</time>
      </trkpt>
      <trkpt lat="43.0820650" lon="-2.7014920">
        <ele>697.541992</ele>
        <time>2019-08-02T09:43:39.000Z</time>
      </trkpt>
      <trkpt lat="43.0820890" lon="-2.7015170">
        <ele>697.578979</ele>
        <time>2019-08-02T09:43:38.000Z</time>
      </trkpt>
      <trkpt lat="43.0821210" lon="-2.7015450">
        <ele>697.536011</ele>
        <time>2019-08-02T09:43:37.000Z</time>
      </trkpt>
      <trkpt lat="43.0821600" lon="-2.7015620">
        <ele>697.558960</ele>
        <time>2019-08-02T09:43:36.000Z</time>
      </trkpt>
      <trkpt lat="43.0822870" lon="-2.7015140">
        <ele>698.044006</ele>
        <time>2019-08-02T09:43:33.000Z</time>
      </trkpt>
      <trkpt lat="43.0823330" lon="-2.7014920">
        <ele>698.528015</ele>
        <time>2019-08-02T09:43:32.000Z</time>
      </trkpt>
      <trkpt lat="43.0824450" lon="-2.7014100">
        <ele>699.908020</ele>
        <time>2019-08-02T09:43:29.000Z</time>
      </trkpt>
      <trkpt lat="43.0827280" lon="-2.7011590">
        <ele>702.810974</ele>
        <time>2019-08-02T09:43:22.000Z</time>
      </trkpt>
      <trkpt lat="43.0828600" lon="-2.7010370">
        <ele>705.255981</ele>
        <time>2019-08-02T09:43:18.000Z</time>
      </trkpt>
      <trkpt lat="43.0830310" lon="-2.7009090">
        <ele>707.153992</ele>
        <time>2019-08-02T09:43:10.000Z</time>
      </trkpt>
      <trkpt lat="43.0832190" lon="-2.7008410">
        <ele>707.144043</ele>
        <time>2019-08-02T09:43:01.000Z</time>
      </trkpt>
      <trkpt lat="43.0833850" lon="-2.7008130">
        <ele>707.158020</ele>
        <time>2019-08-02T09:42:54.000Z</time>
      </trkpt>
      <trkpt lat="43.0835310" lon="-2.7008200">
        <ele>707.140991</ele>
        <time>2019-08-02T09:42:46.000Z</time>
      </trkpt>
      <trkpt lat="43.0835700" lon="-2.7008450">
        <ele>706.727966</ele>
        <time>2019-08-02T09:42:32.000Z</time>
      </trkpt>
      <trkpt lat="43.0836060" lon="-2.7008560">
        <ele>706.764954</ele>
        <time>2019-08-02T09:42:24.000Z</time>
      </trkpt>
      <trkpt lat="43.0837040" lon="-2.7008740">
        <ele>706.747986</ele>
        <time>2019-08-02T09:42:17.000Z</time>
      </trkpt>
      <trkpt lat="43.0838150" lon="-2.7008940">
        <ele>706.773010</ele>
        <time>2019-08-02T09:42:10.000Z</time>
      </trkpt>
      <trkpt lat="43.0839110" lon="-2.7008960">
        <ele>706.766968</ele>
        <time>2019-08-02T09:42:03.000Z</time>
      </trkpt>
      <trkpt lat="43.0839610" lon="-2.7008890">
        <ele>706.707947</ele>
        <time>2019-08-02T09:41:52.000Z</time>
      </trkpt>
      <trkpt lat="43.0839920" lon="-2.7008790">
        <ele>706.216980</ele>
        <time>2019-08-02T09:41:46.000Z</time>
      </trkpt>
      <trkpt lat="43.0841130" lon="-2.7008610">
        <ele>705.260986</ele>
        <time>2019-08-02T09:41:38.000Z</time>
      </trkpt>
      <trkpt lat="43.0842590" lon="-2.7008080">
        <ele>704.747986</ele>
        <time>2019-08-02T09:41:29.000Z</time>
      </trkpt>
      <trkpt lat="43.0844280" lon="-2.7007540">
        <ele>703.853943</ele>
        <time>2019-08-02T09:41:18.000Z</time>
      </trkpt>
      <trkpt lat="43.0845730" lon="-2.7006880">
        <ele>703.877991</ele>
        <time>2019-08-02T09:41:09.000Z</time>
      </trkpt>
      <trkpt lat="43.0846950" lon="-2.7006510">
        <ele>702.890991</ele>
        <time>2019-08-02T09:41:00.000Z</time>
      </trkpt>
      <trkpt lat="43.0848270" lon="-2.7006070">
        <ele>700.998047</ele>
        <time>2019-08-02T09:40:51.000Z</time>
      </trkpt>
      <trkpt lat="43.0849560" lon="-2.7005880">
        <ele>699.934998</ele>
        <time>2019-08-02T09:40:43.000Z</time>
      </trkpt>
      <trkpt lat="43.0850400" lon="-2.7004920">
        <ele>698.588013</ele>
        <time>2019-08-02T09:40:36.000Z</time>
      </trkpt>
      <trkpt lat="43.0850700" lon="-2.7003090">
        <ele>696.162964</ele>
        <time>2019-08-02T09:40:28.000Z</time>
      </trkpt>
      <trkpt lat="43.0850650" lon="-2.7002860">
        <ele>696.157043</ele>
        <time>2019-08-02T09:40:27.000Z</time>
      </trkpt>
      <trkpt lat="43.0849830" lon="-2.7001740">
        <ele>694.608032</ele>
        <time>2019-08-02T09:40:20.000Z</time>
      </trkpt>
      <trkpt lat="43.0848800" lon="-2.7000900">
        <ele>692.721008</ele>
        <time>2019-08-02T09:40:12.000Z</time>
      </trkpt>
      <trkpt lat="43.0847470" lon="-2.7000330">
        <ele>691.328979</ele>
        <time>2019-08-02T09:40:02.000Z</time>
      </trkpt>
      <trkpt lat="43.0846310" lon="-2.6999580">
        <ele>689.846985</ele>
        <time>2019-08-02T09:39:53.000Z</time>
      </trkpt>
      <trkpt lat="43.0846210" lon="-2.6999450">
        <ele>689.892029</ele>
        <time>2019-08-02T09:39:52.000Z</time>
      </trkpt>
      <trkpt lat="43.0846110" lon="-2.6999340">
        <ele>688.976013</ele>
        <time>2019-08-02T09:39:51.000Z</time>
      </trkpt>
      <trkpt lat="43.0845990" lon="-2.6999090">
        <ele>688.989014</ele>
        <time>2019-08-02T09:39:49.000Z</time>
      </trkpt>
      <trkpt lat="43.0846380" lon="-2.6997640">
        <ele>687.056030</ele>
        <time>2019-08-02T09:39:40.000Z</time>
      </trkpt>
      <trkpt lat="43.0846450" lon="-2.6997470">
        <ele>687.013000</ele>
        <time>2019-08-02T09:39:39.000Z</time>
      </trkpt>
      <trkpt lat="43.0847110" lon="-2.6996760">
        <ele>685.516052</ele>
        <time>2019-08-02T09:39:33.000Z</time>
      </trkpt>
      <trkpt lat="43.0847270" lon="-2.6996640">
        <ele>685.091003</ele>
        <time>2019-08-02T09:39:32.000Z</time>
      </trkpt>
      <trkpt lat="43.0847440" lon="-2.6996530">
        <ele>684.615051</ele>
        <time>2019-08-02T09:39:31.000Z</time>
      </trkpt>
      <trkpt lat="43.0847550" lon="-2.6996440">
        <ele>684.608032</ele>
        <time>2019-08-02T09:39:30.000Z</time>
      </trkpt>
      <trkpt lat="43.0847720" lon="-2.6996340">
        <ele>684.114014</ele>
        <time>2019-08-02T09:39:29.000Z</time>
      </trkpt>
      <trkpt lat="43.0847890" lon="-2.6996260">
        <ele>684.168030</ele>
        <time>2019-08-02T09:39:28.000Z</time>
      </trkpt>
      <trkpt lat="43.0848000" lon="-2.6996180">
        <ele>684.127014</ele>
        <time>2019-08-02T09:39:27.000Z</time>
      </trkpt>
      <trkpt lat="43.0848100" lon="-2.6996120">
        <ele>683.625977</ele>
        <time>2019-08-02T09:39:26.000Z</time>
      </trkpt>
      <trkpt lat="43.0848560" lon="-2.6995720">
        <ele>683.149963</ele>
        <time>2019-08-02T09:39:22.000Z</time>
      </trkpt>
      <trkpt lat="43.0849370" lon="-2.6995020">
        <ele>681.723022</ele>
        <time>2019-08-02T09:39:15.000Z</time>
      </trkpt>
      <trkpt lat="43.0850170" lon="-2.6994060">
        <ele>680.760010</ele>
        <time>2019-08-02T09:39:06.000Z</time>
      </trkpt>
      <trkpt lat="43.0850940" lon="-2.6993060">
        <ele>678.867004</ele>
        <time>2019-08-02T09:38:57.000Z</time>
      </trkpt>
      <trkpt lat="43.0851010" lon="-2.6992960">
        <ele>678.820007</ele>
        <time>2019-08-02T09:38:56.000Z</time>
      </trkpt>
      <trkpt lat="43.0851110" lon="-2.6992810">
        <ele>678.315002</ele>
        <time>2019-08-02T09:38:55.000Z</time>
      </trkpt>
      <trkpt lat="43.0851470" lon="-2.6992310">
        <ele>677.399048</ele>
        <time>2019-08-02T09:38:51.000Z</time>
      </trkpt>
      <trkpt lat="43.0852060" lon="-2.6990710">
        <ele>675.908020</ele>
        <time>2019-08-02T09:38:42.000Z</time>
      </trkpt>
      <trkpt lat="43.0851980" lon="-2.6988910">
        <ele>674.518005</ele>
        <time>2019-08-02T09:38:34.000Z</time>
      </trkpt>
      <trkpt lat="43.0851080" lon="-2.6986890">
        <ele>672.544006</ele>
        <time>2019-08-02T09:38:25.000Z</time>
      </trkpt>
      <trkpt lat="43.0849870" lon="-2.6985380">
        <ele>671.662964</ele>
        <time>2019-08-02T09:38:17.000Z</time>
      </trkpt>
      <trkpt lat="43.0849680" lon="-2.6985160">
        <ele>671.641968</ele>
        <time>2019-08-02T09:38:16.000Z</time>
      </trkpt>
      <trkpt lat="43.0848810" lon="-2.6984060">
        <ele>670.676025</ele>
        <time>2019-08-02T09:38:10.000Z</time>
      </trkpt>
      <trkpt lat="43.0847450" lon="-2.6982460">
        <ele>670.128967</ele>
        <time>2019-08-02T09:38:02.000Z</time>
      </trkpt>
      <trkpt lat="43.0847300" lon="-2.6982220">
        <ele>670.115967</ele>
        <time>2019-08-02T09:38:01.000Z</time>
      </trkpt>
      <trkpt lat="43.0847100" lon="-2.6981990">
        <ele>670.143005</ele>
        <time>2019-08-02T09:38:00.000Z</time>
      </trkpt>
      <trkpt lat="43.0846930" lon="-2.6981770">
        <ele>670.185974</ele>
        <time>2019-08-02T09:37:59.000Z</time>
      </trkpt>
      <trkpt lat="43.0846770" lon="-2.6981530">
        <ele>670.151001</ele>
        <time>2019-08-02T09:37:58.000Z</time>
      </trkpt>
      <trkpt lat="43.0846620" lon="-2.6981310">
        <ele>670.114990</ele>
        <time>2019-08-02T09:37:57.000Z</time>
      </trkpt>
      <trkpt lat="43.0846460" lon="-2.6981070">
        <ele>670.108032</ele>
        <time>2019-08-02T09:37:56.000Z</time>
      </trkpt>
      <trkpt lat="43.0846270" lon="-2.6980820">
        <ele>670.110962</ele>
        <time>2019-08-02T09:37:55.000Z</time>
      </trkpt>
      <trkpt lat="43.0846070" lon="-2.6980590">
        <ele>670.146973</ele>
        <time>2019-08-02T09:37:54.000Z</time>
      </trkpt>
      <trkpt lat="43.0845930" lon="-2.6980390">
        <ele>669.725952</ele>
        <time>2019-08-02T09:37:53.000Z</time>
      </trkpt>
      <trkpt lat="43.0844930" lon="-2.6979120">
        <ele>669.283997</ele>
        <time>2019-08-02T09:37:47.000Z</time>
      </trkpt>
      <trkpt lat="43.0843880" lon="-2.6978030">
        <ele>668.748047</ele>
        <time>2019-08-02T09:37:41.000Z</time>
      </trkpt>
      <trkpt lat="43.0842640" lon="-2.6976690">
        <ele>667.760986</ele>
        <time>2019-08-02T09:37:34.000Z</time>
      </trkpt>
      <trkpt lat="43.0841250" lon="-2.6975070">
        <ele>666.817993</ele>
        <time>2019-08-02T09:37:26.000Z</time>
      </trkpt>
      <trkpt lat="43.0839690" lon="-2.6972740">
        <ele>666.335022</ele>
        <time>2019-08-02T09:37:16.000Z</time>
      </trkpt>
      <trkpt lat="43.0838740" lon="-2.6970380">
        <ele>665.848022</ele>
        <time>2019-08-02T09:37:08.000Z</time>
      </trkpt>
      <trkpt lat="43.0838430" lon="-2.6967700">
        <ele>665.333008</ele>
        <time>2019-08-02T09:37:00.000Z</time>
      </trkpt>
      <trkpt lat="43.0838920" lon="-2.6965900">
        <ele>664.496948</ele>
        <time>2019-08-02T09:36:53.000Z</time>
      </trkpt>
      <trkpt lat="43.0839590" lon="-2.6964340">
        <ele>662.408020</ele>
        <time>2019-08-02T09:36:45.000Z</time>
      </trkpt>
      <trkpt lat="43.0840170" lon="-2.6962610">
        <ele>661.016052</ele>
        <time>2019-08-02T09:36:37.000Z</time>
      </trkpt>
      <trkpt lat="43.0840040" lon="-2.6960670">
        <ele>660.088013</ele>
        <time>2019-08-02T09:36:29.000Z</time>
      </trkpt>
      <trkpt lat="43.0839090" lon="-2.6958560">
        <ele>659.645996</ele>
        <time>2019-08-02T09:36:20.000Z</time>
      </trkpt>
      <trkpt lat="43.0837930" lon="-2.6956170">
        <ele>659.177979</ele>
        <time>2019-08-02T09:36:11.000Z</time>
      </trkpt>
      <trkpt lat="43.0836900" lon="-2.6954630">
        <ele>658.641968</ele>
        <time>2019-08-02T09:36:04.000Z</time>
      </trkpt>
      <trkpt lat="43.0835750" lon="-2.6953430">
        <ele>658.635010</ele>
        <time>2019-08-02T09:35:57.000Z</time>
      </trkpt>
      <trkpt lat="43.0834430" lon="-2.6952360">
        <ele>658.162048</ele>
        <time>2019-08-02T09:35:49.000Z</time>
      </trkpt>
      <trkpt lat="43.0833220" lon="-2.6951650">
        <ele>657.619019</ele>
        <time>2019-08-02T09:35:42.000Z</time>
      </trkpt>
      <trkpt lat="43.0831540" lon="-2.6950150">
        <ele>655.791992</ele>
        <time>2019-08-02T09:35:32.000Z</time>
      </trkpt>
      <trkpt lat="43.0830360" lon="-2.6948470">
        <ele>654.847046</ele>
        <time>2019-08-02T09:35:24.000Z</time>
      </trkpt>
      <trkpt lat="43.0829320" lon="-2.6946690">
        <ele>653.851013</ele>
        <time>2019-08-02T09:35:16.000Z</time>
      </trkpt>
      <trkpt lat="43.0828110" lon="-2.6945300">
        <ele>652.308044</ele>
        <time>2019-08-02T09:35:08.000Z</time>
      </trkpt>
      <trkpt lat="43.0826510" lon="-2.6944750">
        <ele>651.916992</ele>
        <time>2019-08-02T09:35:00.000Z</time>
      </trkpt>
      <trkpt lat="43.0825050" lon="-2.6944290">
        <ele>650.907043</ele>
        <time>2019-08-02T09:34:52.000Z</time>
      </trkpt>
      <trkpt lat="43.0824880" lon="-2.6944180">
        <ele>650.983948</ele>
        <time>2019-08-02T09:34:51.000Z</time>
      </trkpt>
      <trkpt lat="43.0824700" lon="-2.6944090">
        <ele>650.927979</ele>
        <time>2019-08-02T09:34:50.000Z</time>
      </trkpt>
      <trkpt lat="43.0824530" lon="-2.6944030">
        <ele>650.492004</ele>
        <time>2019-08-02T09:34:49.000Z</time>
      </trkpt>
      <trkpt lat="43.0824380" lon="-2.6943930">
        <ele>650.465027</ele>
        <time>2019-08-02T09:34:48.000Z</time>
      </trkpt>
      <trkpt lat="43.0824210" lon="-2.6943840">
        <ele>650.471985</ele>
        <time>2019-08-02T09:34:47.000Z</time>
      </trkpt>
      <trkpt lat="43.0824070" lon="-2.6943730">
        <ele>649.929016</ele>
        <time>2019-08-02T09:34:46.000Z</time>
      </trkpt>
      <trkpt lat="43.0823070" lon="-2.6942820">
        <ele>649.591980</ele>
        <time>2019-08-02T09:34:40.000Z</time>
      </trkpt>
      <trkpt lat="43.0821370" lon="-2.6940880">
        <ele>648.516968</ele>
        <time>2019-08-02T09:34:29.000Z</time>
      </trkpt>
      <trkpt lat="43.0820270" lon="-2.6939390">
        <ele>648.051025</ele>
        <time>2019-08-02T09:34:21.000Z</time>
      </trkpt>
      <trkpt lat="43.0819300" lon="-2.6937510">
        <ele>647.507996</ele>
        <time>2019-08-02T09:34:12.000Z</time>
      </trkpt>
      <trkpt lat="43.0818430" lon="-2.6935800">
        <ele>647.125977</ele>
        <time>2019-08-02T09:34:05.000Z</time>
      </trkpt>
      <trkpt lat="43.0817410" lon="-2.6934090">
        <ele>647.124023</ele>
        <time>2019-08-02T09:33:57.000Z</time>
      </trkpt>
      <trkpt lat="43.0815870" lon="-2.6932410">
        <ele>646.187988</ele>
        <time>2019-08-02T09:33:47.000Z</time>
      </trkpt>
      <trkpt lat="43.0814810" lon="-2.6931340">
        <ele>645.662048</ele>
        <time>2019-08-02T09:33:40.000Z</time>
      </trkpt>
      <trkpt lat="43.0813700" lon="-2.6930360">
        <ele>645.126038</ele>
        <time>2019-08-02T09:33:33.000Z</time>
      </trkpt>
      <trkpt lat="43.0812710" lon="-2.6929210">
        <ele>644.798950</ele>
        <time>2019-08-02T09:33:25.000Z</time>
      </trkpt>
      <trkpt lat="43.0811950" lon="-2.6927500">
        <ele>643.726013</ele>
        <time>2019-08-02T09:33:16.000Z</time>
      </trkpt>
      <trkpt lat="43.0811400" lon="-2.6925500">
        <ele>642.363037</ele>
        <time>2019-08-02T09:33:07.000Z</time>
      </trkpt>
      <trkpt lat="43.0810810" lon="-2.6923530">
        <ele>641.835999</ele>
        <time>2019-08-02T09:32:58.000Z</time>
      </trkpt>
      <trkpt lat="43.0810220" lon="-2.6921350">
        <ele>640.310974</ele>
        <time>2019-08-02T09:32:48.000Z</time>
      </trkpt>
      <trkpt lat="43.0810040" lon="-2.6919420">
        <ele>637.965027</ele>
        <time>2019-08-02T09:32:39.000Z</time>
      </trkpt>
      <trkpt lat="43.0809940" lon="-2.6917750">
        <ele>636.507996</ele>
        <time>2019-08-02T09:32:31.000Z</time>
      </trkpt>
      <trkpt lat="43.0809720" lon="-2.6915310">
        <ele>634.616943</ele>
        <time>2019-08-02T09:32:20.000Z</time>
      </trkpt>
      <trkpt lat="43.0809020" lon="-2.6913280">
        <ele>634.689026</ele>
        <time>2019-08-02T09:32:11.000Z</time>
      </trkpt>
      <trkpt lat="43.0807760" lon="-2.6911590">
        <ele>633.627991</ele>
        <time>2019-08-02T09:32:01.000Z</time>
      </trkpt>
      <trkpt lat="43.0806390" lon="-2.6910410">
        <ele>632.621033</ele>
        <time>2019-08-02T09:31:52.000Z</time>
      </trkpt>
      <trkpt lat="43.0805270" lon="-2.6908680">
        <ele>631.294983</ele>
        <time>2019-08-02T09:31:43.000Z</time>
      </trkpt>
      <trkpt lat="43.0804710" lon="-2.6906280">
        <ele>628.877991</ele>
        <time>2019-08-02T09:31:33.000Z</time>
      </trkpt>
      <trkpt lat="43.0804410" lon="-2.6904220">
        <ele>626.425049</ele>
        <time>2019-08-02T09:31:25.000Z</time>
      </trkpt>
      <trkpt lat="43.0803750" lon="-2.6902520">
        <ele>624.541992</ele>
        <time>2019-08-02T09:31:17.000Z</time>
      </trkpt>
      <trkpt lat="43.0802190" lon="-2.6901310">
        <ele>622.144958</ele>
        <time>2019-08-02T09:31:07.000Z</time>
      </trkpt>
      <trkpt lat="43.0800270" lon="-2.6900010">
        <ele>620.109985</ele>
        <time>2019-08-02T09:30:56.000Z</time>
      </trkpt>
      <trkpt lat="43.0798720" lon="-2.6899040">
        <ele>618.773987</ele>
        <time>2019-08-02T09:30:47.000Z</time>
      </trkpt>
      <trkpt lat="43.0796690" lon="-2.6898120">
        <ele>618.208008</ele>
        <time>2019-08-02T09:30:38.000Z</time>
      </trkpt>
      <trkpt lat="43.0795160" lon="-2.6897670">
        <ele>618.214966</ele>
        <time>2019-08-02T09:30:31.000Z</time>
      </trkpt>
      <trkpt lat="43.0793500" lon="-2.6897380">
        <ele>617.786987</ele>
        <time>2019-08-02T09:30:23.000Z</time>
      </trkpt>
      <trkpt lat="43.0791740" lon="-2.6897270">
        <ele>617.317017</ele>
        <time>2019-08-02T09:30:15.000Z</time>
      </trkpt>
      <trkpt lat="43.0790650" lon="-2.6896900">
        <ele>616.393982</ele>
        <time>2019-08-02T09:30:08.000Z</time>
      </trkpt>
      <trkpt lat="43.0789350" lon="-2.6896770">
        <ele>614.997986</ele>
        <time>2019-08-02T09:30:00.000Z</time>
      </trkpt>
      <trkpt lat="43.0788180" lon="-2.6896920">
        <ele>613.950989</ele>
        <time>2019-08-02T09:29:53.000Z</time>
      </trkpt>
      <trkpt lat="43.0786370" lon="-2.6896430">
        <ele>612.538025</ele>
        <time>2019-08-02T09:29:43.000Z</time>
      </trkpt>
      <trkpt lat="43.0784550" lon="-2.6894920">
        <ele>611.054993</ele>
        <time>2019-08-02T09:29:32.000Z</time>
      </trkpt>
      <trkpt lat="43.0783210" lon="-2.6893230">
        <ele>609.638000</ele>
        <time>2019-08-02T09:29:22.000Z</time>
      </trkpt>
      <trkpt lat="43.0782250" lon="-2.6891600">
        <ele>608.132996</ele>
        <time>2019-08-02T09:29:14.000Z</time>
      </trkpt>
      <trkpt lat="43.0781640" lon="-2.6890220">
        <ele>607.257019</ele>
        <time>2019-08-02T09:29:07.000Z</time>
      </trkpt>
      <trkpt lat="43.0781000" lon="-2.6887920">
        <ele>605.208008</ele>
        <time>2019-08-02T09:28:58.000Z</time>
      </trkpt>
      <trkpt lat="43.0780270" lon="-2.6885150">
        <ele>604.815002</ele>
        <time>2019-08-02T09:28:48.000Z</time>
      </trkpt>
      <trkpt lat="43.0779680" lon="-2.6882570">
        <ele>603.804993</ele>
        <time>2019-08-02T09:28:39.000Z</time>
      </trkpt>
      <trkpt lat="43.0779350" lon="-2.6880560">
        <ele>603.343994</ele>
        <time>2019-08-02T09:28:31.000Z</time>
      </trkpt>
      <trkpt lat="43.0779150" lon="-2.6878400">
        <ele>602.891968</ele>
        <time>2019-08-02T09:28:21.000Z</time>
      </trkpt>
      <trkpt lat="43.0779110" lon="-2.6878220">
        <ele>602.885986</ele>
        <time>2019-08-02T09:28:20.000Z</time>
      </trkpt>
      <trkpt lat="43.0779150" lon="-2.6877140">
        <ele>602.838989</ele>
        <time>2019-08-02T09:28:14.000Z</time>
      </trkpt>
      <trkpt lat="43.0779080" lon="-2.6875350">
        <ele>601.955994</ele>
        <time>2019-08-02T09:28:06.000Z</time>
      </trkpt>
      <trkpt lat="43.0778940" lon="-2.6873760">
        <ele>600.922974</ele>
        <time>2019-08-02T09:27:59.000Z</time>
      </trkpt>
      <trkpt lat="43.0778650" lon="-2.6872180">
        <ele>600.485962</ele>
        <time>2019-08-02T09:27:52.000Z</time>
      </trkpt>
      <trkpt lat="43.0778230" lon="-2.6870430">
        <ele>599.541016</ele>
        <time>2019-08-02T09:27:43.000Z</time>
      </trkpt>
      <trkpt lat="43.0777510" lon="-2.6868670">
        <ele>598.075012</ele>
        <time>2019-08-02T09:27:33.000Z</time>
      </trkpt>
      <trkpt lat="43.0776650" lon="-2.6867300">
        <ele>596.608032</ele>
        <time>2019-08-02T09:27:25.000Z</time>
      </trkpt>
      <trkpt lat="43.0775650" lon="-2.6865650">
        <ele>595.604980</ele>
        <time>2019-08-02T09:27:16.000Z</time>
      </trkpt>
      <trkpt lat="43.0775010" lon="-2.6864010">
        <ele>595.640991</ele>
        <time>2019-08-02T09:27:10.000Z</time>
      </trkpt>
      <trkpt lat="43.0773650" lon="-2.6862350">
        <ele>595.620972</ele>
        <time>2019-08-02T09:27:03.000Z</time>
      </trkpt>
      <trkpt lat="43.0773510" lon="-2.6862200">
        <ele>595.632996</ele>
        <time>2019-08-02T09:27:02.000Z</time>
      </trkpt>
      <trkpt lat="43.0773430" lon="-2.6862010">
        <ele>595.697021</ele>
        <time>2019-08-02T09:27:01.000Z</time>
      </trkpt>
      <trkpt lat="43.0773840" lon="-2.6860450">
        <ele>595.179993</ele>
        <time>2019-08-02T09:26:54.000Z</time>
      </trkpt>
      <trkpt lat="43.0775000" lon="-2.6857740">
        <ele>595.127014</ele>
        <time>2019-08-02T09:26:46.000Z</time>
      </trkpt>
      <trkpt lat="43.0776170" lon="-2.6854950">
        <ele>594.744019</ele>
        <time>2019-08-02T09:26:38.000Z</time>
      </trkpt>
      <trkpt lat="43.0776850" lon="-2.6853270">
        <ele>594.237000</ele>
        <time>2019-08-02T09:26:32.000Z</time>
      </trkpt>
      <trkpt lat="43.0777700" lon="-2.6850420">
        <ele>592.742004</ele>
        <time>2019-08-02T09:26:23.000Z</time>
      </trkpt>
      <trkpt lat="43.0778140" lon="-2.6848810">
        <ele>590.866028</ele>
        <time>2019-08-02T09:26:19.000Z</time>
      </trkpt>
      <trkpt lat="43.0779640" lon="-2.6845630">
        <ele>590.807983</ele>
        <time>2019-08-02T09:26:11.000Z</time>
      </trkpt>
      <trkpt lat="43.0780990" lon="-2.6842880">
        <ele>590.812988</ele>
        <time>2019-08-02T09:26:05.000Z</time>
      </trkpt>
      <trkpt lat="43.0781210" lon="-2.6842280">
        <ele>590.848999</ele>
        <time>2019-08-02T09:26:04.000Z</time>
      </trkpt>
      <trkpt lat="43.0781440" lon="-2.6841680">
        <ele>590.837036</ele>
        <time>2019-08-02T09:26:03.000Z</time>
      </trkpt>
      <trkpt lat="43.0781680" lon="-2.6841070">
        <ele>590.843994</ele>
        <time>2019-08-02T09:26:02.000Z</time>
      </trkpt>
      <trkpt lat="43.0781970" lon="-2.6840470">
        <ele>591.377991</ele>
        <time>2019-08-02T09:26:01.000Z</time>
      </trkpt>
      <trkpt lat="43.0783210" lon="-2.6836960">
        <ele>593.770996</ele>
        <time>2019-08-02T09:25:55.000Z</time>
      </trkpt>
      <trkpt lat="43.0783360" lon="-2.6834090">
        <ele>593.718018</ele>
        <time>2019-08-02T09:25:48.000Z</time>
      </trkpt>
      <trkpt lat="43.0783520" lon="-2.6831750">
        <ele>593.744995</ele>
        <time>2019-08-02T09:25:41.000Z</time>
      </trkpt>
      <trkpt lat="43.0784650" lon="-2.6829790">
        <ele>592.388000</ele>
        <time>2019-08-02T09:25:33.000Z</time>
      </trkpt>
      <trkpt lat="43.0785830" lon="-2.6828370">
        <ele>592.312988</ele>
        <time>2019-08-02T09:25:26.000Z</time>
      </trkpt>
      <trkpt lat="43.0786810" lon="-2.6827430">
        <ele>592.396973</ele>
        <time>2019-08-02T09:25:19.000Z</time>
      </trkpt>
      <trkpt lat="43.0788140" lon="-2.6826140">
        <ele>592.307983</ele>
        <time>2019-08-02T09:25:12.000Z</time>
      </trkpt>
      <trkpt lat="43.0789410" lon="-2.6824810">
        <ele>592.321960</ele>
        <time>2019-08-02T09:25:05.000Z</time>
      </trkpt>
      <trkpt lat="43.0789520" lon="-2.6824650">
        <ele>592.302002</ele>
        <time>2019-08-02T09:25:04.000Z</time>
      </trkpt>
      <trkpt lat="43.0789640" lon="-2.6824500">
        <ele>592.348999</ele>
        <time>2019-08-02T09:25:03.000Z</time>
      </trkpt>
      <trkpt lat="43.0789780" lon="-2.6824340">
        <ele>592.351990</ele>
        <time>2019-08-02T09:25:02.000Z</time>
      </trkpt>
      <trkpt lat="43.0789940" lon="-2.6824160">
        <ele>592.386047</ele>
        <time>2019-08-02T09:25:01.000Z</time>
      </trkpt>
      <trkpt lat="43.0790940" lon="-2.6823530">
        <ele>592.319031</ele>
        <time>2019-08-02T09:25:00.000Z</time>
      </trkpt>
      <trkpt lat="43.0791910" lon="-2.6821510">
        <ele>592.335999</ele>
        <time>2019-08-02T09:24:55.000Z</time>
      </trkpt>
      <trkpt lat="43.0793410" lon="-2.6818770">
        <ele>592.742981</ele>
        <time>2019-08-02T09:24:49.000Z</time>
      </trkpt>
      <trkpt lat="43.0793510" lon="-2.6818390">
        <ele>592.796021</ele>
        <time>2019-08-02T09:24:48.000Z</time>
      </trkpt>
      <trkpt lat="43.0794750" lon="-2.6816840">
        <ele>593.781006</ele>
        <time>2019-08-02T09:24:43.000Z</time>
      </trkpt>
      <trkpt lat="43.0796130" lon="-2.6815230">
        <ele>594.794983</ele>
        <time>2019-08-02T09:24:38.000Z</time>
      </trkpt>
      <trkpt lat="43.0797780" lon="-2.6813760">
        <ele>595.108032</ele>
        <time>2019-08-02T09:24:32.000Z</time>
      </trkpt>
      <trkpt lat="43.0799830" lon="-2.6812530">
        <ele>596.119995</ele>
        <time>2019-08-02T09:24:26.000Z</time>
      </trkpt>
      <trkpt lat="43.0801460" lon="-2.6811990">
        <ele>597.099976</ele>
        <time>2019-08-02T09:24:20.000Z</time>
      </trkpt>
      <trkpt lat="43.0801700" lon="-2.6811970">
        <ele>597.128967</ele>
        <time>2019-08-02T09:24:19.000Z</time>
      </trkpt>
      <trkpt lat="43.0801930" lon="-2.6811940">
        <ele>597.614014</ele>
        <time>2019-08-02T09:24:18.000Z</time>
      </trkpt>
      <trkpt lat="43.0802110" lon="-2.6811910">
        <ele>597.668030</ele>
        <time>2019-08-02T09:24:17.000Z</time>
      </trkpt>
      <trkpt lat="43.0803030" lon="-2.6811320">
        <ele>597.690979</ele>
        <time>2019-08-02T09:24:10.000Z</time>
      </trkpt>
      <trkpt lat="43.0803760" lon="-2.6810830">
        <ele>597.658020</ele>
        <time>2019-08-02T09:24:04.000Z</time>
      </trkpt>
      <trkpt lat="43.0804310" lon="-2.6810000">
        <ele>597.674988</ele>
        <time>2019-08-02T09:23:57.000Z</time>
      </trkpt>
      <trkpt lat="43.0804510" lon="-2.6810000">
        <ele>597.177979</ele>
        <time>2019-08-02T09:23:47.000Z</time>
      </trkpt>
      <trkpt lat="43.0803610" lon="-2.6810140">
        <ele>598.052979</ele>
        <time>2019-08-02T09:23:28.000Z</time>
      </trkpt>
      <trkpt lat="43.0802710" lon="-2.6810090">
        <ele>597.656982</ele>
        <time>2019-08-02T09:23:09.000Z</time>
      </trkpt>
      <trkpt lat="43.0803300" lon="-2.6809330">
        <ele>597.607971</ele>
        <time>2019-08-02T09:22:47.000Z</time>
      </trkpt>
      <trkpt lat="43.0803560" lon="-2.6809660">
        <ele>597.609009</ele>
        <time>2019-08-02T09:22:30.000Z</time>
      </trkpt>
      <trkpt lat="43.0803800" lon="-2.6809420">
        <ele>597.181030</ele>
        <time>2019-08-02T09:22:20.000Z</time>
      </trkpt>
      <trkpt lat="43.0804190" lon="-2.6808740">
        <ele>597.140991</ele>
        <time>2019-08-02T09:22:14.000Z</time>
      </trkpt>
      <trkpt lat="43.0804800" lon="-2.6807420">
        <ele>597.195984</ele>
        <time>2019-08-02T09:22:07.000Z</time>
      </trkpt>
      <trkpt lat="43.0804790" lon="-2.6807200">
        <ele>597.190002</ele>
        <time>2019-08-02T09:22:06.000Z</time>
      </trkpt>
      <trkpt lat="43.0804830" lon="-2.6807040">
        <ele>597.143005</ele>
        <time>2019-08-02T09:22:05.000Z</time>
      </trkpt>
      <trkpt lat="43.0804930" lon="-2.6806820">
        <ele>597.130005</ele>
        <time>2019-08-02T09:22:04.000Z</time>
      </trkpt>
      <trkpt lat="43.0805050" lon="-2.6806560">
        <ele>597.166992</ele>
        <time>2019-08-02T09:22:03.000Z</time>
      </trkpt>
      <trkpt lat="43.0805200" lon="-2.6806290">
        <ele>597.109985</ele>
        <time>2019-08-02T09:22:02.000Z</time>
      </trkpt>
      <trkpt lat="43.0805260" lon="-2.6806040">
        <ele>597.135010</ele>
        <time>2019-08-02T09:22:01.000Z</time>
      </trkpt>
      <trkpt lat="43.0805310" lon="-2.6805820">
        <ele>597.128967</ele>
        <time>2019-08-02T09:22:00.000Z</time>
      </trkpt>
      <trkpt lat="43.0805350" lon="-2.6805620">
        <ele>597.107971</ele>
        <time>2019-08-02T09:21:59.000Z</time>
      </trkpt>
      <trkpt lat="43.0805430" lon="-2.6805380">
        <ele>597.126038</ele>
        <time>2019-08-02T09:21:58.000Z</time>
      </trkpt>
      <trkpt lat="43.0805450" lon="-2.6804790">
        <ele>597.142029</ele>
        <time>2019-08-02T09:21:56.000Z</time>
      </trkpt>
      <trkpt lat="43.0805410" lon="-2.6804500">
        <ele>597.168030</ele>
        <time>2019-08-02T09:21:55.000Z</time>
      </trkpt>
      <trkpt lat="43.0805600" lon="-2.6803190">
        <ele>597.195007</ele>
        <time>2019-08-02T09:21:50.000Z</time>
      </trkpt>
      <trkpt lat="43.0805670" lon="-2.6801940">
        <ele>596.129028</ele>
        <time>2019-08-02T09:21:44.000Z</time>
      </trkpt>
      <trkpt lat="43.0805770" lon="-2.6800860">
        <ele>594.712036</ele>
        <time>2019-08-02T09:21:39.000Z</time>
      </trkpt>
      <trkpt lat="43.0805850" lon="-2.6800590">
        <ele>594.778992</ele>
        <time>2019-08-02T09:21:38.000Z</time>
      </trkpt>
      <trkpt lat="43.0805940" lon="-2.6800370">
        <ele>594.796021</ele>
        <time>2019-08-02T09:21:37.000Z</time>
      </trkpt>
      <trkpt lat="43.0806020" lon="-2.6800230">
        <ele>594.759033</ele>
        <time>2019-08-02T09:21:36.000Z</time>
      </trkpt>
      <trkpt lat="43.0806080" lon="-2.6800070">
        <ele>594.734009</ele>
        <time>2019-08-02T09:21:35.000Z</time>
      </trkpt>
      <trkpt lat="43.0806180" lon="-2.6799880">
        <ele>594.777954</ele>
        <time>2019-08-02T09:21:34.000Z</time>
      </trkpt>
      <trkpt lat="43.0806280" lon="-2.6799660">
        <ele>594.708008</ele>
        <time>2019-08-02T09:21:33.000Z</time>
      </trkpt>
      <trkpt lat="43.0806200" lon="-2.6798760">
        <ele>594.713989</ele>
        <time>2019-08-02T09:21:29.000Z</time>
      </trkpt>
      <trkpt lat="43.0806370" lon="-2.6796870">
        <ele>595.158997</ele>
        <time>2019-08-02T09:21:23.000Z</time>
      </trkpt>
      <trkpt lat="43.0806400" lon="-2.6794480">
        <ele>597.656006</ele>
        <time>2019-08-02T09:21:17.000Z</time>
      </trkpt>
      <trkpt lat="43.0806340" lon="-2.6794170">
        <ele>597.138000</ele>
        <time>2019-08-02T09:21:16.000Z</time>
      </trkpt>
      <trkpt lat="43.0805380" lon="-2.6792600">
        <ele>600.492004</ele>
        <time>2019-08-02T09:21:10.000Z</time>
      </trkpt>
      <trkpt lat="43.0805210" lon="-2.6792390">
        <ele>601.415039</ele>
        <time>2019-08-02T09:21:09.000Z</time>
      </trkpt>
      <trkpt lat="43.0805040" lon="-2.6792200">
        <ele>601.411987</ele>
        <time>2019-08-02T09:21:08.000Z</time>
      </trkpt>
      <trkpt lat="43.0804890" lon="-2.6791960">
        <ele>601.968994</ele>
        <time>2019-08-02T09:21:07.000Z</time>
      </trkpt>
      <trkpt lat="43.0804790" lon="-2.6791690">
        <ele>602.432007</ele>
        <time>2019-08-02T09:21:06.000Z</time>
      </trkpt>
      <trkpt lat="43.0804690" lon="-2.6791410">
        <ele>602.887024</ele>
        <time>2019-08-02T09:21:05.000Z</time>
      </trkpt>
      <trkpt lat="43.0804200" lon="-2.6790550">
        <ele>605.260986</ele>
        <time>2019-08-02T09:21:01.000Z</time>
      </trkpt>
      <trkpt lat="43.0803120" lon="-2.6789120">
        <ele>607.608032</ele>
        <time>2019-08-02T09:20:54.000Z</time>
      </trkpt>
      <trkpt lat="43.0802170" lon="-2.6788390">
        <ele>609.125977</ele>
        <time>2019-08-02T09:20:49.000Z</time>
      </trkpt>
      <trkpt lat="43.0801460" lon="-2.6787750">
        <ele>610.523987</ele>
        <time>2019-08-02T09:20:45.000Z</time>
      </trkpt>
      <trkpt lat="43.0799720" lon="-2.6787110">
        <ele>612.588013</ele>
        <time>2019-08-02T09:20:38.000Z</time>
      </trkpt>
      <trkpt lat="43.0799440" lon="-2.6786990">
        <ele>613.447998</ele>
        <time>2019-08-02T09:20:37.000Z</time>
      </trkpt>
      <trkpt lat="43.0798450" lon="-2.6786370">
        <ele>613.951965</ele>
        <time>2019-08-02T09:20:33.000Z</time>
      </trkpt>
      <trkpt lat="43.0798220" lon="-2.6786160">
        <ele>614.445007</ele>
        <time>2019-08-02T09:20:32.000Z</time>
      </trkpt>
      <trkpt lat="43.0797990" lon="-2.6785980">
        <ele>614.971985</ele>
        <time>2019-08-02T09:20:31.000Z</time>
      </trkpt>
      <trkpt lat="43.0797770" lon="-2.6785870">
        <ele>615.359009</ele>
        <time>2019-08-02T09:20:30.000Z</time>
      </trkpt>
      <trkpt lat="43.0797590" lon="-2.6785740">
        <ele>616.362000</ele>
        <time>2019-08-02T09:20:29.000Z</time>
      </trkpt>
      <trkpt lat="43.0797460" lon="-2.6785590">
        <ele>616.367004</ele>
        <time>2019-08-02T09:20:28.000Z</time>
      </trkpt>
      <trkpt lat="43.0797360" lon="-2.6785450">
        <ele>616.870972</ele>
        <time>2019-08-02T09:20:27.000Z</time>
      </trkpt>
      <trkpt lat="43.0797290" lon="-2.6785320">
        <ele>617.307983</ele>
        <time>2019-08-02T09:20:26.000Z</time>
      </trkpt>
      <trkpt lat="43.0797250" lon="-2.6785210">
        <ele>616.825989</ele>
        <time>2019-08-02T09:20:19.000Z</time>
      </trkpt>
      <trkpt lat="43.0797050" lon="-2.6784840">
        <ele>617.359985</ele>
        <time>2019-08-02T09:20:13.000Z</time>
      </trkpt>
      <trkpt lat="43.0797050" lon="-2.6784720">
        <ele>617.786011</ele>
        <time>2019-08-02T09:20:12.000Z</time>
      </trkpt>
      <trkpt lat="43.0796990" lon="-2.6784180">
        <ele>618.794006</ele>
        <time>2019-08-02T09:20:05.000Z</time>
      </trkpt>
      <trkpt lat="43.0797180" lon="-2.6784300">
        <ele>618.748047</ele>
        <time>2019-08-02T09:19:55.000Z</time>
      </trkpt>
      <trkpt lat="43.0797350" lon="-2.6784320">
        <ele>618.791016</ele>
        <time>2019-08-02T09:19:42.000Z</time>
      </trkpt>
      <trkpt lat="43.0797470" lon="-2.6784210">
        <ele>618.228027</ele>
        <time>2019-08-02T09:19:25.000Z</time>
      </trkpt>
      <trkpt lat="43.0797480" lon="-2.6784080">
        <ele>618.214966</ele>
        <time>2019-08-02T09:19:12.000Z</time>
      </trkpt>
      <trkpt lat="43.0797480" lon="-2.6784100">
        <ele>618.738037</ele>
        <time>2019-08-02T09:19:06.000Z</time>
      </trkpt>
      <trkpt lat="43.0797610" lon="-2.6784090">
        <ele>618.713013</ele>
        <time>2019-08-02T09:19:05.000Z</time>
      </trkpt>
      <trkpt lat="43.0797760" lon="-2.6784120">
        <ele>618.786987</ele>
        <time>2019-08-02T09:19:04.000Z</time>
      </trkpt>
      <trkpt lat="43.0797900" lon="-2.6784140">
        <ele>618.708008</ele>
        <time>2019-08-02T09:19:03.000Z</time>
      </trkpt>
      <trkpt lat="43.0799560" lon="-2.6784620">
        <ele>619.215027</ele>
        <time>2019-08-02T09:18:57.000Z</time>
      </trkpt>
      <trkpt lat="43.0801700" lon="-2.6785230">
        <ele>620.104980</ele>
        <time>2019-08-02T09:18:51.000Z</time>
      </trkpt>
      <trkpt lat="43.0802260" lon="-2.6785300">
        <ele>621.143982</ele>
        <time>2019-08-02T09:18:49.000Z</time>
      </trkpt>
      <trkpt lat="43.0802500" lon="-2.6785320">
        <ele>621.697021</ele>
        <time>2019-08-02T09:18:48.000Z</time>
      </trkpt>
      <trkpt lat="43.0802700" lon="-2.6785230">
        <ele>621.690979</ele>
        <time>2019-08-02T09:18:47.000Z</time>
      </trkpt>
      <trkpt lat="43.0804240" lon="-2.6784720">
        <ele>624.064026</ele>
        <time>2019-08-02T09:18:40.000Z</time>
      </trkpt>
      <trkpt lat="43.0805750" lon="-2.6784510">
        <ele>625.941040</ele>
        <time>2019-08-02T09:18:33.000Z</time>
      </trkpt>
      <trkpt lat="43.0805920" lon="-2.6784480">
        <ele>626.458008</ele>
        <time>2019-08-02T09:18:32.000Z</time>
      </trkpt>
      <trkpt lat="43.0808190" lon="-2.6784140">
        <ele>627.440979</ele>
        <time>2019-08-02T09:18:24.000Z</time>
      </trkpt>
      <trkpt lat="43.0810690" lon="-2.6783590">
        <ele>627.475952</ele>
        <time>2019-08-02T09:18:15.000Z</time>
      </trkpt>
      <trkpt lat="43.0812860" lon="-2.6783340">
        <ele>627.879944</ele>
        <time>2019-08-02T09:18:08.000Z</time>
      </trkpt>
      <trkpt lat="43.0814830" lon="-2.6783120">
        <ele>627.807983</ele>
        <time>2019-08-02T09:18:01.000Z</time>
      </trkpt>
      <trkpt lat="43.0816820" lon="-2.6782760">
        <ele>627.826965</ele>
        <time>2019-08-02T09:17:52.000Z</time>
      </trkpt>
      <trkpt lat="43.0818290" lon="-2.6782420">
        <ele>627.860962</ele>
        <time>2019-08-02T09:17:44.000Z</time>
      </trkpt>
      <trkpt lat="43.0819360" lon="-2.6782230">
        <ele>627.476990</ele>
        <time>2019-08-02T09:17:37.000Z</time>
      </trkpt>
      <trkpt lat="43.0819630" lon="-2.6782280">
        <ele>627.837036</ele>
        <time>2019-08-02T09:17:35.000Z</time>
      </trkpt>
      <trkpt lat="43.0820900" lon="-2.6782850">
        <ele>627.431030</ele>
        <time>2019-08-02T09:17:27.000Z</time>
      </trkpt>
      <trkpt lat="43.0822050" lon="-2.6782620">
        <ele>627.414001</ele>
        <time>2019-08-02T09:17:21.000Z</time>
      </trkpt>
      <trkpt lat="43.0824140" lon="-2.6782760">
        <ele>628.851013</ele>
        <time>2019-08-02T09:17:13.000Z</time>
      </trkpt>
      <trkpt lat="43.0826410" lon="-2.6782710">
        <ele>630.778015</ele>
        <time>2019-08-02T09:17:06.000Z</time>
      </trkpt>
      <trkpt lat="43.0827910" lon="-2.6782490">
        <ele>632.281006</ele>
        <time>2019-08-02T09:17:00.000Z</time>
      </trkpt>
      <trkpt lat="43.0829090" lon="-2.6782330">
        <ele>632.646057</ele>
        <time>2019-08-02T09:16:54.000Z</time>
      </trkpt>
      <trkpt lat="43.0829310" lon="-2.6782300">
        <ele>632.649963</ele>
        <time>2019-08-02T09:16:53.000Z</time>
      </trkpt>
      <trkpt lat="43.0829530" lon="-2.6782240">
        <ele>632.608032</ele>
        <time>2019-08-02T09:16:52.000Z</time>
      </trkpt>
      <trkpt lat="43.0829720" lon="-2.6782140">
        <ele>632.626038</ele>
        <time>2019-08-02T09:16:51.000Z</time>
      </trkpt>
      <trkpt lat="43.0829890" lon="-2.6782090">
        <ele>632.632996</ele>
        <time>2019-08-02T09:16:50.000Z</time>
      </trkpt>
      <trkpt lat="43.0830060" lon="-2.6782080">
        <ele>632.678040</ele>
        <time>2019-08-02T09:16:49.000Z</time>
      </trkpt>
      <trkpt lat="43.0830230" lon="-2.6782100">
        <ele>632.610962</ele>
        <time>2019-08-02T09:16:48.000Z</time>
      </trkpt>
      <trkpt lat="43.0830390" lon="-2.6782150">
        <ele>632.635010</ele>
        <time>2019-08-02T09:16:47.000Z</time>
      </trkpt>
      <trkpt lat="43.0830510" lon="-2.6782200">
        <ele>632.647949</ele>
        <time>2019-08-02T09:16:46.000Z</time>
      </trkpt>
      <trkpt lat="43.0830670" lon="-2.6782350">
        <ele>632.654968</ele>
        <time>2019-08-02T09:16:44.000Z</time>
      </trkpt>
      <trkpt lat="43.0830760" lon="-2.6782470">
        <ele>632.651978</ele>
        <time>2019-08-02T09:16:43.000Z</time>
      </trkpt>
      <trkpt lat="43.0830870" lon="-2.6782530">
        <ele>632.695007</ele>
        <time>2019-08-02T09:16:42.000Z</time>
      </trkpt>
      <trkpt lat="43.0831040" lon="-2.6782570">
        <ele>632.679993</ele>
        <time>2019-08-02T09:16:41.000Z</time>
      </trkpt>
      <trkpt lat="43.0831310" lon="-2.6782510">
        <ele>632.234009</ele>
        <time>2019-08-02T09:16:39.000Z</time>
      </trkpt>
      <trkpt lat="43.0831870" lon="-2.6782240">
        <ele>632.208008</ele>
        <time>2019-08-02T09:16:32.000Z</time>
      </trkpt>
      <trkpt lat="43.0832400" lon="-2.6781970">
        <ele>632.208984</ele>
        <time>2019-08-02T09:16:25.000Z</time>
      </trkpt>
      <trkpt lat="43.0832600" lon="-2.6781890">
        <ele>632.254028</ele>
        <time>2019-08-02T09:16:24.000Z</time>
      </trkpt>
      <trkpt lat="43.0832820" lon="-2.6781820">
        <ele>632.213989</ele>
        <time>2019-08-02T09:16:23.000Z</time>
      </trkpt>
      <trkpt lat="43.0833030" lon="-2.6781780">
        <ele>632.692017</ele>
        <time>2019-08-02T09:16:22.000Z</time>
      </trkpt>
      <trkpt lat="43.0833250" lon="-2.6781740">
        <ele>632.615967</ele>
        <time>2019-08-02T09:16:21.000Z</time>
      </trkpt>
      <trkpt lat="43.0833470" lon="-2.6781670">
        <ele>632.669006</ele>
        <time>2019-08-02T09:16:20.000Z</time>
      </trkpt>
      <trkpt lat="43.0833650" lon="-2.6781540">
        <ele>633.165955</ele>
        <time>2019-08-02T09:16:19.000Z</time>
      </trkpt>
      <trkpt lat="43.0833790" lon="-2.6781360">
        <ele>633.182983</ele>
        <time>2019-08-02T09:16:18.000Z</time>
      </trkpt>
      <trkpt lat="43.0833860" lon="-2.6781150">
        <ele>633.116028</ele>
        <time>2019-08-02T09:16:17.000Z</time>
      </trkpt>
      <trkpt lat="43.0833910" lon="-2.6780980">
        <ele>633.130981</ele>
        <time>2019-08-02T09:16:16.000Z</time>
      </trkpt>
      <trkpt lat="43.0833970" lon="-2.6780840">
        <ele>633.195007</ele>
        <time>2019-08-02T09:16:15.000Z</time>
      </trkpt>
      <trkpt lat="43.0834040" lon="-2.6780690">
        <ele>633.107971</ele>
        <time>2019-08-02T09:16:14.000Z</time>
      </trkpt>
      <trkpt lat="43.0834150" lon="-2.6780570">
        <ele>633.107971</ele>
        <time>2019-08-02T09:16:13.000Z</time>
      </trkpt>
      <trkpt lat="43.0834310" lon="-2.6780480">
        <ele>633.661987</ele>
        <time>2019-08-02T09:16:12.000Z</time>
      </trkpt>
      <trkpt lat="43.0834490" lon="-2.6780430">
        <ele>633.621948</ele>
        <time>2019-08-02T09:16:11.000Z</time>
      </trkpt>
      <trkpt lat="43.0834730" lon="-2.6780410">
        <ele>633.639038</ele>
        <time>2019-08-02T09:16:10.000Z</time>
      </trkpt>
      <trkpt lat="43.0834960" lon="-2.6780390">
        <ele>633.673035</ele>
        <time>2019-08-02T09:16:09.000Z</time>
      </trkpt>
      <trkpt lat="43.0835220" lon="-2.6780350">
        <ele>634.166016</ele>
        <time>2019-08-02T09:16:08.000Z</time>
      </trkpt>
      <trkpt lat="43.0835500" lon="-2.6780280">
        <ele>634.153015</ele>
        <time>2019-08-02T09:16:07.000Z</time>
      </trkpt>
      <trkpt lat="43.0835760" lon="-2.6780190">
        <ele>634.109985</ele>
        <time>2019-08-02T09:16:06.000Z</time>
      </trkpt>
      <trkpt lat="43.0836010" lon="-2.6780110">
        <ele>634.132996</ele>
        <time>2019-08-02T09:16:05.000Z</time>
      </trkpt>
      <trkpt lat="43.0836230" lon="-2.6780080">
        <ele>634.697998</ele>
        <time>2019-08-02T09:16:04.000Z</time>
      </trkpt>
      <trkpt lat="43.0836440" lon="-2.6780100">
        <ele>634.612000</ele>
        <time>2019-08-02T09:16:03.000Z</time>
      </trkpt>
      <trkpt lat="43.0836630" lon="-2.6780120">
        <ele>634.608032</ele>
        <time>2019-08-02T09:16:02.000Z</time>
      </trkpt>
      <trkpt lat="43.0836820" lon="-2.6780090">
        <ele>634.619995</ele>
        <time>2019-08-02T09:16:01.000Z</time>
      </trkpt>
      <trkpt lat="43.0837000" lon="-2.6779990">
        <ele>634.672974</ele>
        <time>2019-08-02T09:16:00.000Z</time>
      </trkpt>
      <trkpt lat="43.0837170" lon="-2.6779830">
        <ele>635.092041</ele>
        <time>2019-08-02T09:15:59.000Z</time>
      </trkpt>
      <trkpt lat="43.0837350" lon="-2.6779630">
        <ele>635.075012</ele>
        <time>2019-08-02T09:15:58.000Z</time>
      </trkpt>
      <trkpt lat="43.0838800" lon="-2.6779170">
        <ele>635.558960</ele>
        <time>2019-08-02T09:15:51.000Z</time>
      </trkpt>
      <trkpt lat="43.0839110" lon="-2.6779110">
        <ele>635.521973</ele>
        <time>2019-08-02T09:15:46.000Z</time>
      </trkpt>
      <trkpt lat="43.0840280" lon="-2.6779010">
        <ele>636.098999</ele>
        <time>2019-08-02T09:15:38.000Z</time>
      </trkpt>
      <trkpt lat="43.0840600" lon="-2.6778930">
        <ele>636.566040</ele>
        <time>2019-08-02T09:15:36.000Z</time>
      </trkpt>
      <trkpt lat="43.0840710" lon="-2.6778910">
        <ele>636.568970</ele>
        <time>2019-08-02T09:15:35.000Z</time>
      </trkpt>
      <trkpt lat="43.0840870" lon="-2.6778880">
        <ele>636.523987</ele>
        <time>2019-08-02T09:15:34.000Z</time>
      </trkpt>
      <trkpt lat="43.0841060" lon="-2.6778850">
        <ele>636.568054</ele>
        <time>2019-08-02T09:15:33.000Z</time>
      </trkpt>
      <trkpt lat="43.0841230" lon="-2.6778870">
        <ele>636.507996</ele>
        <time>2019-08-02T09:15:32.000Z</time>
      </trkpt>
      <trkpt lat="43.0841370" lon="-2.6778910">
        <ele>636.507996</ele>
        <time>2019-08-02T09:15:31.000Z</time>
      </trkpt>
      <trkpt lat="43.0841630" lon="-2.6778900">
        <ele>637.052979</ele>
        <time>2019-08-02T09:15:28.000Z</time>
      </trkpt>
      <trkpt lat="43.0842140" lon="-2.6778860">
        <ele>637.052002</ele>
        <time>2019-08-02T09:15:20.000Z</time>
      </trkpt>
      <trkpt lat="43.0842390" lon="-2.6778960">
        <ele>637.079041</ele>
        <time>2019-08-02T09:15:17.000Z</time>
      </trkpt>
      <trkpt lat="43.0842820" lon="-2.6778860">
        <ele>636.562988</ele>
        <time>2019-08-02T09:15:11.000Z</time>
      </trkpt>
      <trkpt lat="43.0843100" lon="-2.6778310">
        <ele>636.596008</ele>
        <time>2019-08-02T09:15:04.000Z</time>
      </trkpt>
      <trkpt lat="43.0843310" lon="-2.6778120">
        <ele>636.552979</ele>
        <time>2019-08-02T09:14:59.000Z</time>
      </trkpt>
      <trkpt lat="43.0844630" lon="-2.6776800">
        <ele>637.479980</ele>
        <time>2019-08-02T09:14:54.000Z</time>
      </trkpt>
      <trkpt lat="43.0846860" lon="-2.6776360">
        <ele>638.923035</ele>
        <time>2019-08-02T09:14:48.000Z</time>
      </trkpt>
      <trkpt lat="43.0848330" lon="-2.6775870">
        <ele>639.877991</ele>
        <time>2019-08-02T09:14:44.000Z</time>
      </trkpt>
      <trkpt lat="43.0849920" lon="-2.6775280">
        <ele>642.341980</ele>
        <time>2019-08-02T09:14:39.000Z</time>
      </trkpt>
      <trkpt lat="43.0852000" lon="-2.6774780">
        <ele>644.708008</ele>
        <time>2019-08-02T09:14:33.000Z</time>
      </trkpt>
      <trkpt lat="43.0853670" lon="-2.6774310">
        <ele>647.526978</ele>
        <time>2019-08-02T09:14:27.000Z</time>
      </trkpt>
      <trkpt lat="43.0855620" lon="-2.6773700">
        <ele>649.507019</ele>
        <time>2019-08-02T09:14:20.000Z</time>
      </trkpt>
      <trkpt lat="43.0856730" lon="-2.6773430">
        <ele>650.999023</ele>
        <time>2019-08-02T09:14:14.000Z</time>
      </trkpt>
      <trkpt lat="43.0858280" lon="-2.6773240">
        <ele>652.335022</ele>
        <time>2019-08-02T09:14:06.000Z</time>
      </trkpt>
      <trkpt lat="43.0859730" lon="-2.6772610">
        <ele>654.359009</ele>
        <time>2019-08-02T09:13:58.000Z</time>
      </trkpt>
      <trkpt lat="43.0859860" lon="-2.6772260">
        <ele>654.352051</ele>
        <time>2019-08-02T09:13:56.000Z</time>
      </trkpt>
      <trkpt lat="43.0859940" lon="-2.6772060">
        <ele>654.818970</ele>
        <time>2019-08-02T09:13:55.000Z</time>
      </trkpt>
      <trkpt lat="43.0860730" lon="-2.6771320">
        <ele>656.765991</ele>
        <time>2019-08-02T09:13:49.000Z</time>
      </trkpt>
      <trkpt lat="43.0861530" lon="-2.6771350">
        <ele>658.148987</ele>
        <time>2019-08-02T09:13:44.000Z</time>
      </trkpt>
      <trkpt lat="43.0861730" lon="-2.6771400">
        <ele>658.694031</ele>
        <time>2019-08-02T09:13:43.000Z</time>
      </trkpt>
      <trkpt lat="43.0861930" lon="-2.6771390">
        <ele>659.688049</ele>
        <time>2019-08-02T09:13:42.000Z</time>
      </trkpt>
      <trkpt lat="43.0862100" lon="-2.6771330">
        <ele>659.608032</ele>
        <time>2019-08-02T09:13:41.000Z</time>
      </trkpt>
      <trkpt lat="43.0862270" lon="-2.6771250">
        <ele>660.017029</ele>
        <time>2019-08-02T09:13:40.000Z</time>
      </trkpt>
      <trkpt lat="43.0862660" lon="-2.6770170">
        <ele>661.051941</ele>
        <time>2019-08-02T09:13:35.000Z</time>
      </trkpt>
      <trkpt lat="43.0862740" lon="-2.6769970">
        <ele>662.057983</ele>
        <time>2019-08-02T09:13:34.000Z</time>
      </trkpt>
      <trkpt lat="43.0862820" lon="-2.6769760">
        <ele>662.045959</ele>
        <time>2019-08-02T09:13:33.000Z</time>
      </trkpt>
      <trkpt lat="43.0862920" lon="-2.6769460">
        <ele>661.520020</ele>
        <time>2019-08-02T09:13:24.000Z</time>
      </trkpt>
      <trkpt lat="43.0862790" lon="-2.6769490">
        <ele>661.583008</ele>
        <time>2019-08-02T09:13:10.000Z</time>
      </trkpt>
      <trkpt lat="43.0862780" lon="-2.6769300">
        <ele>661.589966</ele>
        <time>2019-08-02T09:12:51.000Z</time>
      </trkpt>
      <trkpt lat="43.0862830" lon="-2.6769220">
        <ele>662.047058</ele>
        <time>2019-08-02T09:12:34.000Z</time>
      </trkpt>
      <trkpt lat="43.0862850" lon="-2.6769300">
        <ele>662.080017</ele>
        <time>2019-08-02T09:12:14.000Z</time>
      </trkpt>
      <trkpt lat="43.0862880" lon="-2.6769580">
        <ele>661.575012</ele>
        <time>2019-08-02T09:11:52.000Z</time>
      </trkpt>
      <trkpt lat="43.0862930" lon="-2.6769710">
        <ele>662.068970</ele>
        <time>2019-08-02T09:11:41.000Z</time>
      </trkpt>
      <trkpt lat="43.0863200" lon="-2.6769630">
        <ele>662.408020</ele>
        <time>2019-08-02T09:11:36.000Z</time>
      </trkpt>
      <trkpt lat="43.0863750" lon="-2.6769260">
        <ele>663.912964</ele>
        <time>2019-08-02T09:11:28.000Z</time>
      </trkpt>
      <trkpt lat="43.0863870" lon="-2.6769170">
        <ele>664.420959</ele>
        <time>2019-08-02T09:11:27.000Z</time>
      </trkpt>
      <trkpt lat="43.0864420" lon="-2.6769020">
        <ele>666.360962</ele>
        <time>2019-08-02T09:11:20.000Z</time>
      </trkpt>
      <trkpt lat="43.0865030" lon="-2.6768950">
        <ele>668.239014</ele>
        <time>2019-08-02T09:11:13.000Z</time>
      </trkpt>
      <trkpt lat="43.0865640" lon="-2.6768810">
        <ele>669.733032</ele>
        <time>2019-08-02T09:11:05.000Z</time>
      </trkpt>
      <trkpt lat="43.0866110" lon="-2.6768670">
        <ele>671.666016</ele>
        <time>2019-08-02T09:10:58.000Z</time>
      </trkpt>
      <trkpt lat="43.0866350" lon="-2.6768490">
        <ele>672.132935</ele>
        <time>2019-08-02T09:10:52.000Z</time>
      </trkpt>
      <trkpt lat="43.0866780" lon="-2.6768250">
        <ele>674.039978</ele>
        <time>2019-08-02T09:10:45.000Z</time>
      </trkpt>
      <trkpt lat="43.0867220" lon="-2.6768070">
        <ele>675.472961</ele>
        <time>2019-08-02T09:10:38.000Z</time>
      </trkpt>
      <trkpt lat="43.0867710" lon="-2.6767860">
        <ele>677.367981</ele>
        <time>2019-08-02T09:10:31.000Z</time>
      </trkpt>
      <trkpt lat="43.0868060" lon="-2.6767590">
        <ele>678.362000</ele>
        <time>2019-08-02T09:10:24.000Z</time>
      </trkpt>
      <trkpt lat="43.0868430" lon="-2.6767250">
        <ele>680.208008</ele>
        <time>2019-08-02T09:10:16.000Z</time>
      </trkpt>
      <trkpt lat="43.0868580" lon="-2.6767160">
        <ele>680.226990</ele>
        <time>2019-08-02T09:10:01.000Z</time>
      </trkpt>
      <trkpt lat="43.0868560" lon="-2.6767080">
        <ele>680.206970</ele>
        <time>2019-08-02T09:09:48.000Z</time>
      </trkpt>
      <trkpt lat="43.0868980" lon="-2.6767040">
        <ele>682.199036</ele>
        <time>2019-08-02T09:09:41.000Z</time>
      </trkpt>
      <trkpt lat="43.0869860" lon="-2.6766750">
        <ele>684.643005</ele>
        <time>2019-08-02T09:09:34.000Z</time>
      </trkpt>
      <trkpt lat="43.0870870" lon="-2.6766330">
        <ele>687.927002</ele>
        <time>2019-08-02T09:09:27.000Z</time>
      </trkpt>
      <trkpt lat="43.0872090" lon="-2.6765670">
        <ele>690.880005</ele>
        <time>2019-08-02T09:09:21.000Z</time>
      </trkpt>
      <trkpt lat="43.0873160" lon="-2.6764960">
        <ele>692.767029</ele>
        <time>2019-08-02T09:09:14.000Z</time>
      </trkpt>
      <trkpt lat="43.0873320" lon="-2.6764880">
        <ele>692.744019</ele>
        <time>2019-08-02T09:09:13.000Z</time>
      </trkpt>
      <trkpt lat="43.0874730" lon="-2.6763740">
        <ele>696.187012</ele>
        <time>2019-08-02T09:09:06.000Z</time>
      </trkpt>
      <trkpt lat="43.0875900" lon="-2.6762980">
        <ele>699.591980</ele>
        <time>2019-08-02T09:09:01.000Z</time>
      </trkpt>
      <trkpt lat="43.0876360" lon="-2.6762630">
        <ele>699.955994</ele>
        <time>2019-08-02T09:08:59.000Z</time>
      </trkpt>
      <trkpt lat="43.0877720" lon="-2.6761540">
        <ele>703.307983</ele>
        <time>2019-08-02T09:08:54.000Z</time>
      </trkpt>
      <trkpt lat="43.0880630" lon="-2.6760270">
        <ele>705.721008</ele>
        <time>2019-08-02T09:08:48.000Z</time>
      </trkpt>
      <trkpt lat="43.0880900" lon="-2.6760190">
        <ele>706.700989</ele>
        <time>2019-08-02T09:08:47.000Z</time>
      </trkpt>
      <trkpt lat="43.0881650" lon="-2.6758640">
        <ele>709.138977</ele>
        <time>2019-08-02T09:08:41.000Z</time>
      </trkpt>
      <trkpt lat="43.0882670" lon="-2.6755850">
        <ele>711.994995</ele>
        <time>2019-08-02T09:08:34.000Z</time>
      </trkpt>
      <trkpt lat="43.0883520" lon="-2.6752890">
        <ele>713.948975</ele>
        <time>2019-08-02T09:08:27.000Z</time>
      </trkpt>
      <trkpt lat="43.0883650" lon="-2.6752440">
        <ele>714.492004</ele>
        <time>2019-08-02T09:08:26.000Z</time>
      </trkpt>
      <trkpt lat="43.0883670" lon="-2.6752030">
        <ele>714.489014</ele>
        <time>2019-08-02T09:08:25.000Z</time>
      </trkpt>
      <trkpt lat="43.0883770" lon="-2.6751600">
        <ele>714.495972</ele>
        <time>2019-08-02T09:08:24.000Z</time>
      </trkpt>
      <trkpt lat="43.0883790" lon="-2.6751280">
        <ele>714.498962</ele>
        <time>2019-08-02T09:08:23.000Z</time>
      </trkpt>
      <trkpt lat="43.0883860" lon="-2.6751030">
        <ele>714.484009</ele>
        <time>2019-08-02T09:08:22.000Z</time>
      </trkpt>
      <trkpt lat="43.0883900" lon="-2.6750800">
        <ele>714.447998</ele>
        <time>2019-08-02T09:08:21.000Z</time>
      </trkpt>
      <trkpt lat="43.0883990" lon="-2.6750200">
        <ele>714.407959</ele>
        <time>2019-08-02T09:08:18.000Z</time>
      </trkpt>
      <trkpt lat="43.0884000" lon="-2.6749950">
        <ele>714.414001</ele>
        <time>2019-08-02T09:08:17.000Z</time>
      </trkpt>
      <trkpt lat="43.0884130" lon="-2.6749410">
        <ele>714.403992</ele>
        <time>2019-08-02T09:08:15.000Z</time>
      </trkpt>
      <trkpt lat="43.0884210" lon="-2.6749170">
        <ele>714.453003</ele>
        <time>2019-08-02T09:08:14.000Z</time>
      </trkpt>
      <trkpt lat="43.0884250" lon="-2.6748980">
        <ele>714.494019</ele>
        <time>2019-08-02T09:08:13.000Z</time>
      </trkpt>
      <trkpt lat="43.0884360" lon="-2.6748730">
        <ele>714.457947</ele>
        <time>2019-08-02T09:08:12.000Z</time>
      </trkpt>
      <trkpt lat="43.0884460" lon="-2.6748480">
        <ele>714.480957</ele>
        <time>2019-08-02T09:08:11.000Z</time>
      </trkpt>
      <trkpt lat="43.0884520" lon="-2.6748240">
        <ele>714.418030</ele>
        <time>2019-08-02T09:08:10.000Z</time>
      </trkpt>
      <trkpt lat="43.0884600" lon="-2.6747990">
        <ele>714.475037</ele>
        <time>2019-08-02T09:08:09.000Z</time>
      </trkpt>
      <trkpt lat="43.0884690" lon="-2.6747700">
        <ele>713.978027</ele>
        <time>2019-08-02T09:08:08.000Z</time>
      </trkpt>
      <trkpt lat="43.0884700" lon="-2.6747060">
        <ele>713.993042</ele>
        <time>2019-08-02T09:08:06.000Z</time>
      </trkpt>
      <trkpt lat="43.0884620" lon="-2.6746760">
        <ele>713.937012</ele>
        <time>2019-08-02T09:08:05.000Z</time>
      </trkpt>
      <trkpt lat="43.0884400" lon="-2.6745330">
        <ele>713.907959</ele>
        <time>2019-08-02T09:08:00.000Z</time>
      </trkpt>
      <trkpt lat="43.0884380" lon="-2.6743250">
        <ele>713.911011</ele>
        <time>2019-08-02T09:07:55.000Z</time>
      </trkpt>
      <trkpt lat="43.0884510" lon="-2.6741060">
        <ele>715.346985</ele>
        <time>2019-08-02T09:07:50.000Z</time>
      </trkpt>
      <trkpt lat="43.0884780" lon="-2.6738770">
        <ele>714.844971</ele>
        <time>2019-08-02T09:07:43.000Z</time>
      </trkpt>
      <trkpt lat="43.0885120" lon="-2.6737490">
        <ele>714.453003</ele>
        <time>2019-08-02T09:07:37.000Z</time>
      </trkpt>
      <trkpt lat="43.0885530" lon="-2.6736100">
        <ele>713.487000</ele>
        <time>2019-08-02T09:07:32.000Z</time>
      </trkpt>
      <trkpt lat="43.0885980" lon="-2.6734220">
        <ele>711.929993</ele>
        <time>2019-08-02T09:07:26.000Z</time>
      </trkpt>
      <trkpt lat="43.0886640" lon="-2.6732150">
        <ele>711.976990</ele>
        <time>2019-08-02T09:07:20.000Z</time>
      </trkpt>
      <trkpt lat="43.0887130" lon="-2.6730310">
        <ele>712.433960</ele>
        <time>2019-08-02T09:07:15.000Z</time>
      </trkpt>
      <trkpt lat="43.0887210" lon="-2.6730050">
        <ele>712.967041</ele>
        <time>2019-08-02T09:07:14.000Z</time>
      </trkpt>
      <trkpt lat="43.0887300" lon="-2.6729840">
        <ele>712.932007</ele>
        <time>2019-08-02T09:07:13.000Z</time>
      </trkpt>
      <trkpt lat="43.0887380" lon="-2.6729630">
        <ele>714.456055</ele>
        <time>2019-08-02T09:07:12.000Z</time>
      </trkpt>
      <trkpt lat="43.0887460" lon="-2.6729410">
        <ele>714.407959</ele>
        <time>2019-08-02T09:07:11.000Z</time>
      </trkpt>
      <trkpt lat="43.0887520" lon="-2.6729150">
        <ele>714.406982</ele>
        <time>2019-08-02T09:07:10.000Z</time>
      </trkpt>
      <trkpt lat="43.0887520" lon="-2.6728850">
        <ele>714.460999</ele>
        <time>2019-08-02T09:07:09.000Z</time>
      </trkpt>
      <trkpt lat="43.0887500" lon="-2.6728600">
        <ele>714.431030</ele>
        <time>2019-08-02T09:07:08.000Z</time>
      </trkpt>
      <trkpt lat="43.0887450" lon="-2.6728390">
        <ele>714.488037</ele>
        <time>2019-08-02T09:07:07.000Z</time>
      </trkpt>
      <trkpt lat="43.0887420" lon="-2.6728150">
        <ele>714.492004</ele>
        <time>2019-08-02T09:07:06.000Z</time>
      </trkpt>
      <trkpt lat="43.0887410" lon="-2.6727880">
        <ele>714.424988</ele>
        <time>2019-08-02T09:07:05.000Z</time>
      </trkpt>
      <trkpt lat="43.0887360" lon="-2.6727540">
        <ele>714.481995</ele>
        <time>2019-08-02T09:07:04.000Z</time>
      </trkpt>
      <trkpt lat="43.0887270" lon="-2.6727190">
        <ele>714.419006</ele>
        <time>2019-08-02T09:07:03.000Z</time>
      </trkpt>
      <trkpt lat="43.0887180" lon="-2.6726900">
        <ele>714.472046</ele>
        <time>2019-08-02T09:07:02.000Z</time>
      </trkpt>
      <trkpt lat="43.0887040" lon="-2.6726410">
        <ele>714.457031</ele>
        <time>2019-08-02T09:07:00.000Z</time>
      </trkpt>
      <trkpt lat="43.0886730" lon="-2.6724960">
        <ele>713.471008</ele>
        <time>2019-08-02T09:06:53.000Z</time>
      </trkpt>
      <trkpt lat="43.0885910" lon="-2.6723200">
        <ele>711.007996</ele>
        <time>2019-08-02T09:06:45.000Z</time>
      </trkpt>
      <trkpt lat="43.0885360" lon="-2.6722070">
        <ele>711.026001</ele>
        <time>2019-08-02T09:06:39.000Z</time>
      </trkpt>
      <trkpt lat="43.0885340" lon="-2.6721860">
        <ele>710.541992</ele>
        <time>2019-08-02T09:06:22.000Z</time>
      </trkpt>
      <trkpt lat="43.0885320" lon="-2.6721410">
        <ele>710.587036</ele>
        <time>2019-08-02T09:06:14.000Z</time>
      </trkpt>
      <trkpt lat="43.0885310" lon="-2.6721250">
        <ele>710.565979</ele>
        <time>2019-08-02T09:06:13.000Z</time>
      </trkpt>
      <trkpt lat="43.0885330" lon="-2.6721070">
        <ele>710.549988</ele>
        <time>2019-08-02T09:06:12.000Z</time>
      </trkpt>
      <trkpt lat="43.0885380" lon="-2.6720910">
        <ele>709.523010</ele>
        <time>2019-08-02T09:06:11.000Z</time>
      </trkpt>
      <trkpt lat="43.0885450" lon="-2.6720770">
        <ele>709.549988</ele>
        <time>2019-08-02T09:06:10.000Z</time>
      </trkpt>
      <trkpt lat="43.0885590" lon="-2.6720630">
        <ele>709.517029</ele>
        <time>2019-08-02T09:06:09.000Z</time>
      </trkpt>
      <trkpt lat="43.0885730" lon="-2.6720430">
        <ele>709.170044</ele>
        <time>2019-08-02T09:06:08.000Z</time>
      </trkpt>
      <trkpt lat="43.0885870" lon="-2.6720180">
        <ele>709.114990</ele>
        <time>2019-08-02T09:06:07.000Z</time>
      </trkpt>
      <trkpt lat="43.0886020" lon="-2.6719900">
        <ele>709.178955</ele>
        <time>2019-08-02T09:06:06.000Z</time>
      </trkpt>
      <trkpt lat="43.0886140" lon="-2.6719290">
        <ele>708.607971</ele>
        <time>2019-08-02T09:06:03.000Z</time>
      </trkpt>
      <trkpt lat="43.0886290" lon="-2.6718900">
        <ele>707.126038</ele>
        <time>2019-08-02T09:06:01.000Z</time>
      </trkpt>
      <trkpt lat="43.0886370" lon="-2.6718710">
        <ele>707.142029</ele>
        <time>2019-08-02T09:06:00.000Z</time>
      </trkpt>
      <trkpt lat="43.0886450" lon="-2.6718500">
        <ele>707.167969</ele>
        <time>2019-08-02T09:05:59.000Z</time>
      </trkpt>
      <trkpt lat="43.0886500" lon="-2.6718300">
        <ele>707.147034</ele>
        <time>2019-08-02T09:05:58.000Z</time>
      </trkpt>
      <trkpt lat="43.0886540" lon="-2.6718060">
        <ele>707.140991</ele>
        <time>2019-08-02T09:05:57.000Z</time>
      </trkpt>
      <trkpt lat="43.0886590" lon="-2.6717820">
        <ele>707.113953</ele>
        <time>2019-08-02T09:05:56.000Z</time>
      </trkpt>
      <trkpt lat="43.0886640" lon="-2.6717600">
        <ele>707.151062</ele>
        <time>2019-08-02T09:05:55.000Z</time>
      </trkpt>
      <trkpt lat="43.0886670" lon="-2.6717380">
        <ele>707.158020</ele>
        <time>2019-08-02T09:05:54.000Z</time>
      </trkpt>
      <trkpt lat="43.0886690" lon="-2.6717170">
        <ele>707.151062</ele>
        <time>2019-08-02T09:05:53.000Z</time>
      </trkpt>
      <trkpt lat="43.0886750" lon="-2.6716990">
        <ele>707.135986</ele>
        <time>2019-08-02T09:05:52.000Z</time>
      </trkpt>
      <trkpt lat="43.0886830" lon="-2.6716620">
        <ele>707.140015</ele>
        <time>2019-08-02T09:05:50.000Z</time>
      </trkpt>
      <trkpt lat="43.0886890" lon="-2.6716130">
        <ele>707.108032</ele>
        <time>2019-08-02T09:05:42.000Z</time>
      </trkpt>
      <trkpt lat="43.0887020" lon="-2.6715990">
        <ele>707.127014</ele>
        <time>2019-08-02T09:05:32.000Z</time>
      </trkpt>
      <trkpt lat="43.0887240" lon="-2.6715580">
        <ele>706.761047</ele>
        <time>2019-08-02T09:05:26.000Z</time>
      </trkpt>
      <trkpt lat="43.0887590" lon="-2.6715060">
        <ele>706.276978</ele>
        <time>2019-08-02T09:05:23.000Z</time>
      </trkpt>
      <trkpt lat="43.0887680" lon="-2.6714860">
        <ele>706.221985</ele>
        <time>2019-08-02T09:05:22.000Z</time>
      </trkpt>
      <trkpt lat="43.0888120" lon="-2.6713780">
        <ele>705.295959</ele>
        <time>2019-08-02T09:05:16.000Z</time>
      </trkpt>
      <trkpt lat="43.0889030" lon="-2.6712340">
        <ele>704.758972</ele>
        <time>2019-08-02T09:05:07.000Z</time>
      </trkpt>
      <trkpt lat="43.0889560" lon="-2.6711630">
        <ele>704.756042</ele>
        <time>2019-08-02T09:05:01.000Z</time>
      </trkpt>
      <trkpt lat="43.0889640" lon="-2.6711530">
        <ele>704.722961</ele>
        <time>2019-08-02T09:05:00.000Z</time>
      </trkpt>
      <trkpt lat="43.0890120" lon="-2.6710730">
        <ele>704.765991</ele>
        <time>2019-08-02T09:04:53.000Z</time>
      </trkpt>
      <trkpt lat="43.0890970" lon="-2.6709690">
        <ele>704.710999</ele>
        <time>2019-08-02T09:04:45.000Z</time>
      </trkpt>
      <trkpt lat="43.0891950" lon="-2.6708420">
        <ele>704.785034</ele>
        <time>2019-08-02T09:04:36.000Z</time>
      </trkpt>
      <trkpt lat="43.0891990" lon="-2.6708260">
        <ele>704.708008</ele>
        <time>2019-08-02T09:04:35.000Z</time>
      </trkpt>
      <trkpt lat="43.0892060" lon="-2.6708140">
        <ele>704.713989</ele>
        <time>2019-08-02T09:04:34.000Z</time>
      </trkpt>
      <trkpt lat="43.0892100" lon="-2.6707990">
        <ele>705.268005</ele>
        <time>2019-08-02T09:04:33.000Z</time>
      </trkpt>
      <trkpt lat="43.0892170" lon="-2.6707130">
        <ele>706.227051</ele>
        <time>2019-08-02T09:04:27.000Z</time>
      </trkpt>
      <trkpt lat="43.0892190" lon="-2.6706910">
        <ele>706.262024</ele>
        <time>2019-08-02T09:04:14.000Z</time>
      </trkpt>
      <trkpt lat="43.0892270" lon="-2.6706920">
        <ele>705.295959</ele>
        <time>2019-08-02T09:04:02.000Z</time>
      </trkpt>
      <trkpt lat="43.0892280" lon="-2.6707020">
        <ele>705.258972</ele>
        <time>2019-08-02T09:03:51.000Z</time>
      </trkpt>
      <trkpt lat="43.0892360" lon="-2.6706640">
        <ele>704.795959</ele>
        <time>2019-08-02T09:03:42.000Z</time>
      </trkpt>
      <trkpt lat="43.0892460" lon="-2.6706470">
        <ele>704.722961</ele>
        <time>2019-08-02T09:03:33.000Z</time>
      </trkpt>
      <trkpt lat="43.0892590" lon="-2.6706380">
        <ele>704.786011</ele>
        <time>2019-08-02T09:03:24.000Z</time>
      </trkpt>
      <trkpt lat="43.0892650" lon="-2.6705780">
        <ele>704.781006</ele>
        <time>2019-08-02T09:03:18.000Z</time>
      </trkpt>
      <trkpt lat="43.0893250" lon="-2.6704060">
        <ele>704.774963</ele>
        <time>2019-08-02T09:03:10.000Z</time>
      </trkpt>
      <trkpt lat="43.0894070" lon="-2.6702740">
        <ele>703.307983</ele>
        <time>2019-08-02T09:03:02.000Z</time>
      </trkpt>
      <trkpt lat="43.0894630" lon="-2.6702150">
        <ele>703.307983</ele>
        <time>2019-08-02T09:02:56.000Z</time>
      </trkpt>
      <trkpt lat="43.0894770" lon="-2.6702070">
        <ele>703.362000</ele>
        <time>2019-08-02T09:02:55.000Z</time>
      </trkpt>
      <trkpt lat="43.0894900" lon="-2.6701970">
        <ele>703.321960</ele>
        <time>2019-08-02T09:02:54.000Z</time>
      </trkpt>
      <trkpt lat="43.0894970" lon="-2.6701840">
        <ele>703.374023</ele>
        <time>2019-08-02T09:02:53.000Z</time>
      </trkpt>
      <trkpt lat="43.0895050" lon="-2.6701720">
        <ele>703.317993</ele>
        <time>2019-08-02T09:02:52.000Z</time>
      </trkpt>
      <trkpt lat="43.0895750" lon="-2.6701340">
        <ele>703.351013</ele>
        <time>2019-08-02T09:02:46.000Z</time>
      </trkpt>
      <trkpt lat="43.0897620" lon="-2.6700620">
        <ele>703.837952</ele>
        <time>2019-08-02T09:02:39.000Z</time>
      </trkpt>
      <trkpt lat="43.0899740" lon="-2.6699790">
        <ele>706.255005</ele>
        <time>2019-08-02T09:02:31.000Z</time>
      </trkpt>
      <trkpt lat="43.0901050" lon="-2.6698780">
        <ele>706.268005</ele>
        <time>2019-08-02T09:02:25.000Z</time>
      </trkpt>
      <trkpt lat="43.0902150" lon="-2.6698430">
        <ele>706.232971</ele>
        <time>2019-08-02T09:02:18.000Z</time>
      </trkpt>
      <trkpt lat="43.0903450" lon="-2.6698110">
        <ele>706.286987</ele>
        <time>2019-08-02T09:02:10.000Z</time>
      </trkpt>
      <trkpt lat="43.0904310" lon="-2.6698260">
        <ele>706.707947</ele>
        <time>2019-08-02T09:02:04.000Z</time>
      </trkpt>
      <trkpt lat="43.0904240" lon="-2.6698340">
        <ele>706.716980</ele>
        <time>2019-08-02T09:02:01.000Z</time>
      </trkpt>
      <trkpt lat="43.0904190" lon="-2.6698380">
        <ele>706.761047</ele>
        <time>2019-08-02T09:01:56.000Z</time>
      </trkpt>
      <trkpt lat="43.0904090" lon="-2.6698450">
        <ele>706.747986</ele>
        <time>2019-08-02T09:01:41.000Z</time>
      </trkpt>
      <trkpt lat="43.0904120" lon="-2.6698550">
        <ele>706.250977</ele>
        <time>2019-08-02T09:01:30.000Z</time>
      </trkpt>
      <trkpt lat="43.0904600" lon="-2.6698360">
        <ele>706.264954</ele>
        <time>2019-08-02T09:01:14.000Z</time>
      </trkpt>
      <trkpt lat="43.0904330" lon="-2.6698480">
        <ele>706.298035</ele>
        <time>2019-08-02T09:01:01.000Z</time>
      </trkpt>
      <trkpt lat="43.0904020" lon="-2.6698440">
        <ele>706.214966</ele>
        <time>2019-08-02T09:00:48.000Z</time>
      </trkpt>
      <trkpt lat="43.0904010" lon="-2.6698190">
        <ele>705.782043</ele>
        <time>2019-08-02T09:00:37.000Z</time>
      </trkpt>
      <trkpt lat="43.0903810" lon="-2.6698450">
        <ele>705.755005</ele>
        <time>2019-08-02T09:00:16.000Z</time>
      </trkpt>
      <trkpt lat="43.0903830" lon="-2.6698300">
        <ele>705.739990</ele>
        <time>2019-08-02T09:00:05.000Z</time>
      </trkpt>
      <trkpt lat="43.0904080" lon="-2.6698160">
        <ele>705.714050</ele>
        <time>2019-08-02T08:59:46.000Z</time>
      </trkpt>
      <trkpt lat="43.0904130" lon="-2.6698230">
        <ele>705.208008</ele>
        <time>2019-08-02T08:59:28.000Z</time>
      </trkpt>
      <trkpt lat="43.0904060" lon="-2.6697990">
        <ele>705.218994</ele>
        <time>2019-08-02T08:59:11.000Z</time>
      </trkpt>
      <trkpt lat="43.0904250" lon="-2.6697850">
        <ele>705.208984</ele>
        <time>2019-08-02T08:58:56.000Z</time>
      </trkpt>
      <trkpt lat="43.0904220" lon="-2.6697880">
        <ele>704.719055</ele>
        <time>2019-08-02T08:58:49.000Z</time>
      </trkpt>
      <trkpt lat="43.0904180" lon="-2.6697830">
        <ele>706.226013</ele>
        <time>2019-08-02T08:58:47.000Z</time>
      </trkpt>
      <trkpt lat="43.0904210" lon="-2.6697630">
        <ele>706.209961</ele>
        <time>2019-08-02T08:58:40.000Z</time>
      </trkpt>
      <trkpt lat="43.0904170" lon="-2.6697640">
        <ele>706.232971</ele>
        <time>2019-08-02T08:58:33.000Z</time>
      </trkpt>
      <trkpt lat="43.0904160" lon="-2.6697660">
        <ele>706.289978</ele>
        <time>2019-08-02T08:58:32.000Z</time>
      </trkpt>
      <trkpt lat="43.0904200" lon="-2.6697720">
        <ele>704.717041</ele>
        <time>2019-08-02T08:58:23.000Z</time>
      </trkpt>
      <trkpt lat="43.0903930" lon="-2.6697480">
        <ele>704.320007</ele>
        <time>2019-08-02T08:58:19.000Z</time>
      </trkpt>
      <trkpt lat="43.0903770" lon="-2.6697540">
        <ele>704.385010</ele>
        <time>2019-08-02T08:58:18.000Z</time>
      </trkpt>
      <trkpt lat="43.0903610" lon="-2.6697570">
        <ele>704.348999</ele>
        <time>2019-08-02T08:58:17.000Z</time>
      </trkpt>
      <trkpt lat="43.0903440" lon="-2.6697600">
        <ele>704.307983</ele>
        <time>2019-08-02T08:58:16.000Z</time>
      </trkpt>
      <trkpt lat="43.0903020" lon="-2.6697530">
        <ele>704.313049</ele>
        <time>2019-08-02T08:58:13.000Z</time>
      </trkpt>
      <trkpt lat="43.0901520" lon="-2.6697230">
        <ele>704.320984</ele>
        <time>2019-08-02T08:58:06.000Z</time>
      </trkpt>
      <trkpt lat="43.0901010" lon="-2.6697420">
        <ele>704.361023</ele>
        <time>2019-08-02T08:58:03.000Z</time>
      </trkpt>
      <trkpt lat="43.0900970" lon="-2.6697450">
        <ele>704.375000</ele>
        <time>2019-08-02T08:58:01.000Z</time>
      </trkpt>
      <trkpt lat="43.0901090" lon="-2.6697530">
        <ele>704.329041</ele>
        <time>2019-08-02T08:57:56.000Z</time>
      </trkpt>
      <trkpt lat="43.0902610" lon="-2.6696890">
        <ele>704.332031</ele>
        <time>2019-08-02T08:57:47.000Z</time>
      </trkpt>
      <trkpt lat="43.0903450" lon="-2.6697240">
        <ele>704.348999</ele>
        <time>2019-08-02T08:57:41.000Z</time>
      </trkpt>
      <trkpt lat="43.0904040" lon="-2.6697450">
        <ele>704.366028</ele>
        <time>2019-08-02T08:57:36.000Z</time>
      </trkpt>
      <trkpt lat="43.0904010" lon="-2.6697160">
        <ele>704.379028</ele>
        <time>2019-08-02T08:57:34.000Z</time>
      </trkpt>
      <trkpt lat="43.0903390" lon="-2.6696370">
        <ele>703.814026</ele>
        <time>2019-08-02T08:57:27.000Z</time>
      </trkpt>
      <trkpt lat="43.0902800" lon="-2.6696150">
        <ele>703.828003</ele>
        <time>2019-08-02T08:57:22.000Z</time>
      </trkpt>
      <trkpt lat="43.0903050" lon="-2.6697200">
        <ele>703.807983</ele>
        <time>2019-08-02T08:57:15.000Z</time>
      </trkpt>
      <trkpt lat="43.0903630" lon="-2.6697360">
        <ele>704.314026</ele>
        <time>2019-08-02T08:57:11.000Z</time>
      </trkpt>
      <trkpt lat="43.0904810" lon="-2.6696980">
        <ele>705.758972</ele>
        <time>2019-08-02T08:57:04.000Z</time>
      </trkpt>
      <trkpt lat="43.0905250" lon="-2.6696760">
        <ele>706.255981</ele>
        <time>2019-08-02T08:57:02.000Z</time>
      </trkpt>
      <trkpt lat="43.0906800" lon="-2.6696320">
        <ele>709.173035</ele>
        <time>2019-08-02T08:56:57.000Z</time>
      </trkpt>
      <trkpt lat="43.0908040" lon="-2.6695920">
        <ele>712.486938</ele>
        <time>2019-08-02T08:56:52.000Z</time>
      </trkpt>
      <trkpt lat="43.0908490" lon="-2.6695810">
        <ele>713.419983</ele>
        <time>2019-08-02T08:56:50.000Z</time>
      </trkpt>
      <trkpt lat="43.0909880" lon="-2.6695390">
        <ele>717.767029</ele>
        <time>2019-08-02T08:56:41.000Z</time>
      </trkpt>
      <trkpt lat="43.0910060" lon="-2.6695270">
        <ele>718.223999</ele>
        <time>2019-08-02T08:56:37.000Z</time>
      </trkpt>
      <trkpt lat="43.0910240" lon="-2.6694960">
        <ele>718.737000</ele>
        <time>2019-08-02T08:56:28.000Z</time>
      </trkpt>
      <trkpt lat="43.0910310" lon="-2.6694920">
        <ele>718.731995</ele>
        <time>2019-08-02T08:56:21.000Z</time>
      </trkpt>
      <trkpt lat="43.0910550" lon="-2.6694740">
        <ele>719.286011</ele>
        <time>2019-08-02T08:56:14.000Z</time>
      </trkpt>
      <trkpt lat="43.0910990" lon="-2.6694820">
        <ele>719.608032</ele>
        <time>2019-08-02T08:56:07.000Z</time>
      </trkpt>
      <trkpt lat="43.0911180" lon="-2.6695030">
        <ele>721.114990</ele>
        <time>2019-08-02T08:56:03.000Z</time>
      </trkpt>
      <trkpt lat="43.0911660" lon="-2.6695230">
        <ele>722.522949</ele>
        <time>2019-08-02T08:55:54.000Z</time>
      </trkpt>
      <trkpt lat="43.0911980" lon="-2.6694970">
        <ele>724.032959</ele>
        <time>2019-08-02T08:55:47.000Z</time>
      </trkpt>
      <trkpt lat="43.0912220" lon="-2.6694990">
        <ele>724.426025</ele>
        <time>2019-08-02T08:55:41.000Z</time>
      </trkpt>
      <trkpt lat="43.0912650" lon="-2.6694960">
        <ele>724.429993</ele>
        <time>2019-08-02T08:55:30.000Z</time>
      </trkpt>
      <trkpt lat="43.0913500" lon="-2.6694810">
        <ele>726.493042</ele>
        <time>2019-08-02T08:55:23.000Z</time>
      </trkpt>
      <trkpt lat="43.0914110" lon="-2.6695560">
        <ele>728.839966</ele>
        <time>2019-08-02T08:55:16.000Z</time>
      </trkpt>
      <trkpt lat="43.0915240" lon="-2.6695860">
        <ele>731.237000</ele>
        <time>2019-08-02T08:55:07.000Z</time>
      </trkpt>
      <trkpt lat="43.0915900" lon="-2.6695620">
        <ele>733.180054</ele>
        <time>2019-08-02T08:55:02.000Z</time>
      </trkpt>
      <trkpt lat="43.0916190" lon="-2.6695410">
        <ele>733.675049</ele>
        <time>2019-08-02T08:54:54.000Z</time>
      </trkpt>
      <trkpt lat="43.0916590" lon="-2.6695140">
        <ele>735.028992</ele>
        <time>2019-08-02T08:54:41.000Z</time>
      </trkpt>
      <trkpt lat="43.0916580" lon="-2.6695310">
        <ele>734.507996</ele>
        <time>2019-08-02T08:54:28.000Z</time>
      </trkpt>
      <trkpt lat="43.0916720" lon="-2.6695280">
        <ele>734.526001</ele>
        <time>2019-08-02T08:54:15.000Z</time>
      </trkpt>
      <trkpt lat="43.0916800" lon="-2.6695180">
        <ele>733.641968</ele>
        <time>2019-08-02T08:54:02.000Z</time>
      </trkpt>
      <trkpt lat="43.0917090" lon="-2.6694910">
        <ele>734.567993</ele>
        <time>2019-08-02T08:53:54.000Z</time>
      </trkpt>
      <trkpt lat="43.0917710" lon="-2.6694740">
        <ele>736.511963</ele>
        <time>2019-08-02T08:53:45.000Z</time>
      </trkpt>
      <trkpt lat="43.0918040" lon="-2.6694810">
        <ele>737.915955</ele>
        <time>2019-08-02T08:53:38.000Z</time>
      </trkpt>
      <trkpt lat="43.0918790" lon="-2.6694750">
        <ele>740.348999</ele>
        <time>2019-08-02T08:53:28.000Z</time>
      </trkpt>
      <trkpt lat="43.0919350" lon="-2.6694790">
        <ele>741.765991</ele>
        <time>2019-08-02T08:53:20.000Z</time>
      </trkpt>
      <trkpt lat="43.0919990" lon="-2.6694290">
        <ele>743.232971</ele>
        <time>2019-08-02T08:53:11.000Z</time>
      </trkpt>
      <trkpt lat="43.0920030" lon="-2.6694190">
        <ele>743.276001</ele>
        <time>2019-08-02T08:53:01.000Z</time>
      </trkpt>
      <trkpt lat="43.0920480" lon="-2.6693480">
        <ele>745.651001</ele>
        <time>2019-08-02T08:52:55.000Z</time>
      </trkpt>
      <trkpt lat="43.0921640" lon="-2.6692570">
        <ele>748.544983</ele>
        <time>2019-08-02T08:52:47.000Z</time>
      </trkpt>
      <trkpt lat="43.0921820" lon="-2.6692500">
        <ele>749.007996</ele>
        <time>2019-08-02T08:52:46.000Z</time>
      </trkpt>
      <trkpt lat="43.0922870" lon="-2.6692040">
        <ele>752.320007</ele>
        <time>2019-08-02T08:52:39.000Z</time>
      </trkpt>
      <trkpt lat="43.0923680" lon="-2.6692090">
        <ele>753.799988</ele>
        <time>2019-08-02T08:52:35.000Z</time>
      </trkpt>
      <trkpt lat="43.0924070" lon="-2.6691990">
        <ele>755.229004</ele>
        <time>2019-08-02T08:52:33.000Z</time>
      </trkpt>
      <trkpt lat="43.0924460" lon="-2.6691970">
        <ele>756.226013</ele>
        <time>2019-08-02T08:52:26.000Z</time>
      </trkpt>
      <trkpt lat="43.0924690" lon="-2.6692030">
        <ele>756.659973</ele>
        <time>2019-08-02T08:52:17.000Z</time>
      </trkpt>
      <trkpt lat="43.0924800" lon="-2.6691820">
        <ele>758.153015</ele>
        <time>2019-08-02T08:52:10.000Z</time>
      </trkpt>
      <trkpt lat="43.0925000" lon="-2.6691160">
        <ele>760.049988</ele>
        <time>2019-08-02T08:52:04.000Z</time>
      </trkpt>
      <trkpt lat="43.0925270" lon="-2.6690590">
        <ele>761.536987</ele>
        <time>2019-08-02T08:51:55.000Z</time>
      </trkpt>
      <trkpt lat="43.0925600" lon="-2.6690300">
        <ele>761.979980</ele>
        <time>2019-08-02T08:51:47.000Z</time>
      </trkpt>
      <trkpt lat="43.0925770" lon="-2.6690400">
        <ele>762.945007</ele>
        <time>2019-08-02T08:51:40.000Z</time>
      </trkpt>
      <trkpt lat="43.0925890" lon="-2.6690380">
        <ele>763.479004</ele>
        <time>2019-08-02T08:51:34.000Z</time>
      </trkpt>
      <trkpt lat="43.0926350" lon="-2.6689930">
        <ele>765.307983</ele>
        <time>2019-08-02T08:51:24.000Z</time>
      </trkpt>
      <trkpt lat="43.0926860" lon="-2.6689460">
        <ele>767.226013</ele>
        <time>2019-08-02T08:51:17.000Z</time>
      </trkpt>
      <trkpt lat="43.0927580" lon="-2.6688820">
        <ele>769.642029</ele>
        <time>2019-08-02T08:51:08.000Z</time>
      </trkpt>
      <trkpt lat="43.0927670" lon="-2.6688490">
        <ele>770.667969</ele>
        <time>2019-08-02T08:51:00.000Z</time>
      </trkpt>
      <trkpt lat="43.0927850" lon="-2.6688220">
        <ele>772.051025</ele>
        <time>2019-08-02T08:50:54.000Z</time>
      </trkpt>
      <trkpt lat="43.0928230" lon="-2.6688020">
        <ele>773.575012</ele>
        <time>2019-08-02T08:50:51.000Z</time>
      </trkpt>
      <trkpt lat="43.0928560" lon="-2.6687400">
        <ele>775.458008</ele>
        <time>2019-08-02T08:50:46.000Z</time>
      </trkpt>
      <trkpt lat="43.0928740" lon="-2.6687070">
        <ele>775.485046</ele>
        <time>2019-08-02T08:50:37.000Z</time>
      </trkpt>
      <trkpt lat="43.0928930" lon="-2.6686540">
        <ele>776.441956</ele>
        <time>2019-08-02T08:50:28.000Z</time>
      </trkpt>
      <trkpt lat="43.0929450" lon="-2.6685900">
        <ele>778.834961</ele>
        <time>2019-08-02T08:50:19.000Z</time>
      </trkpt>
      <trkpt lat="43.0929610" lon="-2.6685470">
        <ele>779.770020</ele>
        <time>2019-08-02T08:50:13.000Z</time>
      </trkpt>
      <trkpt lat="43.0929770" lon="-2.6684730">
        <ele>780.783997</ele>
        <time>2019-08-02T08:50:05.000Z</time>
      </trkpt>
      <trkpt lat="43.0929930" lon="-2.6684180">
        <ele>782.608032</ele>
        <time>2019-08-02T08:49:58.000Z</time>
      </trkpt>
      <trkpt lat="43.0930070" lon="-2.6683800">
        <ele>784.519043</ele>
        <time>2019-08-02T08:49:50.000Z</time>
      </trkpt>
      <trkpt lat="43.0930380" lon="-2.6683150">
        <ele>786.509033</ele>
        <time>2019-08-02T08:49:41.000Z</time>
      </trkpt>
      <trkpt lat="43.0930680" lon="-2.6682350">
        <ele>787.419006</ele>
        <time>2019-08-02T08:49:32.000Z</time>
      </trkpt>
      <trkpt lat="43.0930700" lon="-2.6682260">
        <ele>787.476990</ele>
        <time>2019-08-02T08:49:24.000Z</time>
      </trkpt>
      <trkpt lat="43.0930750" lon="-2.6681850">
        <ele>787.421021</ele>
        <time>2019-08-02T08:49:18.000Z</time>
      </trkpt>
      <trkpt lat="43.0930160" lon="-2.6680080">
        <ele>786.984009</ele>
        <time>2019-08-02T08:49:12.000Z</time>
      </trkpt>
      <trkpt lat="43.0929690" lon="-2.6678000">
        <ele>786.981018</ele>
        <time>2019-08-02T08:49:06.000Z</time>
      </trkpt>
      <trkpt lat="43.0929420" lon="-2.6675250">
        <ele>786.548035</ele>
        <time>2019-08-02T08:48:59.000Z</time>
      </trkpt>
      <trkpt lat="43.0929510" lon="-2.6672930">
        <ele>785.590942</ele>
        <time>2019-08-02T08:48:52.000Z</time>
      </trkpt>
      <trkpt lat="43.0930310" lon="-2.6671170">
        <ele>784.576050</ele>
        <time>2019-08-02T08:48:46.000Z</time>
      </trkpt>
      <trkpt lat="43.0931330" lon="-2.6669670">
        <ele>784.549988</ele>
        <time>2019-08-02T08:48:40.000Z</time>
      </trkpt>
      <trkpt lat="43.0932210" lon="-2.6666720">
        <ele>783.107971</ele>
        <time>2019-08-02T08:48:32.000Z</time>
      </trkpt>
      <trkpt lat="43.0932850" lon="-2.6664220">
        <ele>782.126038</ele>
        <time>2019-08-02T08:48:25.000Z</time>
      </trkpt>
      <trkpt lat="43.0932900" lon="-2.6663880">
        <ele>782.132996</ele>
        <time>2019-08-02T08:48:24.000Z</time>
      </trkpt>
      <trkpt lat="43.0933060" lon="-2.6663260">
        <ele>781.278015</ele>
        <time>2019-08-02T08:48:22.000Z</time>
      </trkpt>
      <trkpt lat="43.0933240" lon="-2.6662180">
        <ele>781.253967</ele>
        <time>2019-08-02T08:48:19.000Z</time>
      </trkpt>
      <trkpt lat="43.0933750" lon="-2.6659090">
        <ele>781.218018</ele>
        <time>2019-08-02T08:48:11.000Z</time>
      </trkpt>
      <trkpt lat="43.0934470" lon="-2.6656040">
        <ele>780.770996</ele>
        <time>2019-08-02T08:48:04.000Z</time>
      </trkpt>
      <trkpt lat="43.0934620" lon="-2.6655500">
        <ele>780.767944</ele>
        <time>2019-08-02T08:48:03.000Z</time>
      </trkpt>
      <trkpt lat="43.0934770" lon="-2.6654910">
        <ele>781.275024</ele>
        <time>2019-08-02T08:48:02.000Z</time>
      </trkpt>
      <trkpt lat="43.0934880" lon="-2.6654250">
        <ele>781.218018</ele>
        <time>2019-08-02T08:48:01.000Z</time>
      </trkpt>
      <trkpt lat="43.0935270" lon="-2.6650220">
        <ele>782.122986</ele>
        <time>2019-08-02T08:47:55.000Z</time>
      </trkpt>
      <trkpt lat="43.0935890" lon="-2.6645880">
        <ele>784.057007</ele>
        <time>2019-08-02T08:47:47.000Z</time>
      </trkpt>
      <trkpt lat="43.0936180" lon="-2.6642770">
        <ele>785.007996</ele>
        <time>2019-08-02T08:47:41.000Z</time>
      </trkpt>
      <trkpt lat="43.0936010" lon="-2.6638850">
        <ele>786.516968</ele>
        <time>2019-08-02T08:47:33.000Z</time>
      </trkpt>
      <trkpt lat="43.0936030" lon="-2.6638420">
        <ele>786.561035</ele>
        <time>2019-08-02T08:47:32.000Z</time>
      </trkpt>
      <trkpt lat="43.0936030" lon="-2.6638070">
        <ele>786.548035</ele>
        <time>2019-08-02T08:47:31.000Z</time>
      </trkpt>
      <trkpt lat="43.0936040" lon="-2.6637770">
        <ele>786.582031</ele>
        <time>2019-08-02T08:47:30.000Z</time>
      </trkpt>
      <trkpt lat="43.0936060" lon="-2.6637520">
        <ele>786.515991</ele>
        <time>2019-08-02T08:47:29.000Z</time>
      </trkpt>
      <trkpt lat="43.0936100" lon="-2.6637320">
        <ele>786.588989</ele>
        <time>2019-08-02T08:47:28.000Z</time>
      </trkpt>
      <trkpt lat="43.0936130" lon="-2.6637160">
        <ele>786.526001</ele>
        <time>2019-08-02T08:47:27.000Z</time>
      </trkpt>
      <trkpt lat="43.0936170" lon="-2.6637030">
        <ele>786.513062</ele>
        <time>2019-08-02T08:47:26.000Z</time>
      </trkpt>
      <trkpt lat="43.0936210" lon="-2.6636850">
        <ele>786.596008</ele>
        <time>2019-08-02T08:47:14.000Z</time>
      </trkpt>
      <trkpt lat="43.0936290" lon="-2.6636660">
        <ele>786.080994</ele>
        <time>2019-08-02T08:47:06.000Z</time>
      </trkpt>
      <trkpt lat="43.0936100" lon="-2.6636550">
        <ele>786.014954</ele>
        <time>2019-08-02T08:46:58.000Z</time>
      </trkpt>
      <trkpt lat="43.0936120" lon="-2.6636700">
        <ele>785.507996</ele>
        <time>2019-08-02T08:46:33.000Z</time>
      </trkpt>
      <trkpt lat="43.0936090" lon="-2.6636530">
        <ele>785.510986</ele>
        <time>2019-08-02T08:46:08.000Z</time>
      </trkpt>
      <trkpt lat="43.0936130" lon="-2.6636670">
        <ele>785.083008</ele>
        <time>2019-08-02T08:45:43.000Z</time>
      </trkpt>
      <trkpt lat="43.0936330" lon="-2.6636730">
        <ele>785.523010</ele>
        <time>2019-08-02T08:45:36.000Z</time>
      </trkpt>
      <trkpt lat="43.0937010" lon="-2.6634740">
        <ele>786.016968</ele>
        <time>2019-08-02T08:45:29.000Z</time>
      </trkpt>
      <trkpt lat="43.0938800" lon="-2.6632960">
        <ele>786.580994</ele>
        <time>2019-08-02T08:45:21.000Z</time>
      </trkpt>
      <trkpt lat="43.0940810" lon="-2.6632740">
        <ele>786.084045</ele>
        <time>2019-08-02T08:45:14.000Z</time>
      </trkpt>
      <trkpt lat="43.0943060" lon="-2.6633500">
        <ele>786.041016</ele>
        <time>2019-08-02T08:45:06.000Z</time>
      </trkpt>
      <trkpt lat="43.0944890" lon="-2.6634260">
        <ele>786.048035</ele>
        <time>2019-08-02T08:44:59.000Z</time>
      </trkpt>
      <trkpt lat="43.0947180" lon="-2.6635280">
        <ele>786.031006</ele>
        <time>2019-08-02T08:44:51.000Z</time>
      </trkpt>
      <trkpt lat="43.0948970" lon="-2.6635230">
        <ele>785.585999</ele>
        <time>2019-08-02T08:44:45.000Z</time>
      </trkpt>
      <trkpt lat="43.0949950" lon="-2.6633720">
        <ele>785.559998</ele>
        <time>2019-08-02T08:44:40.000Z</time>
      </trkpt>
      <trkpt lat="43.0950290" lon="-2.6630210">
        <ele>786.007996</ele>
        <time>2019-08-02T08:44:32.000Z</time>
      </trkpt>
      <trkpt lat="43.0950610" lon="-2.6627790">
        <ele>786.026001</ele>
        <time>2019-08-02T08:44:25.000Z</time>
      </trkpt>
      <trkpt lat="43.0951170" lon="-2.6625420">
        <ele>785.533020</ele>
        <time>2019-08-02T08:44:18.000Z</time>
      </trkpt>
      <trkpt lat="43.0952350" lon="-2.6621910">
        <ele>786.078003</ele>
        <time>2019-08-02T08:44:09.000Z</time>
      </trkpt>
      <trkpt lat="43.0953270" lon="-2.6619930">
        <ele>786.573975</ele>
        <time>2019-08-02T08:44:03.000Z</time>
      </trkpt>
      <trkpt lat="43.0954450" lon="-2.6617520">
        <ele>786.538025</ele>
        <time>2019-08-02T08:43:56.000Z</time>
      </trkpt>
      <trkpt lat="43.0955500" lon="-2.6615770">
        <ele>786.520996</ele>
        <time>2019-08-02T08:43:49.000Z</time>
      </trkpt>
      <trkpt lat="43.0956370" lon="-2.6614390">
        <ele>786.587952</ele>
        <time>2019-08-02T08:43:41.000Z</time>
      </trkpt>
      <trkpt lat="43.0957030" lon="-2.6613390">
        <ele>786.545044</ele>
        <time>2019-08-02T08:43:34.000Z</time>
      </trkpt>
      <trkpt lat="43.0957520" lon="-2.6613060">
        <ele>786.057983</ele>
        <time>2019-08-02T08:43:23.000Z</time>
      </trkpt>
      <trkpt lat="43.0957590" lon="-2.6613080">
        <ele>786.083008</ele>
        <time>2019-08-02T08:43:10.000Z</time>
      </trkpt>
      <trkpt lat="43.0957570" lon="-2.6612990">
        <ele>785.517029</ele>
        <time>2019-08-02T08:42:56.000Z</time>
      </trkpt>
      <trkpt lat="43.0957460" lon="-2.6613180">
        <ele>785.507996</ele>
        <time>2019-08-02T08:42:40.000Z</time>
      </trkpt>
      <trkpt lat="43.0957420" lon="-2.6613130">
        <ele>785.010986</ele>
        <time>2019-08-02T08:42:26.000Z</time>
      </trkpt>
      <trkpt lat="43.0957610" lon="-2.6612970">
        <ele>784.546997</ele>
        <time>2019-08-02T08:42:08.000Z</time>
      </trkpt>
      <trkpt lat="43.0957520" lon="-2.6613100">
        <ele>784.544983</ele>
        <time>2019-08-02T08:41:52.000Z</time>
      </trkpt>
      <trkpt lat="43.0957430" lon="-2.6613300">
        <ele>784.085999</ele>
        <time>2019-08-02T08:41:37.000Z</time>
      </trkpt>
      <trkpt lat="43.0957490" lon="-2.6613200">
        <ele>784.020020</ele>
        <time>2019-08-02T08:41:28.000Z</time>
      </trkpt>
      <trkpt lat="43.0957530" lon="-2.6613050">
        <ele>783.612976</ele>
        <time>2019-08-02T08:41:18.000Z</time>
      </trkpt>
      <trkpt lat="43.0957570" lon="-2.6612990">
        <ele>783.160034</ele>
        <time>2019-08-02T08:41:04.000Z</time>
      </trkpt>
      <trkpt lat="43.0957690" lon="-2.6612740">
        <ele>783.157043</ele>
        <time>2019-08-02T08:40:58.000Z</time>
      </trkpt>
      <trkpt lat="43.0958570" lon="-2.6612620">
        <ele>783.109985</ele>
        <time>2019-08-02T08:40:53.000Z</time>
      </trkpt>
      <trkpt lat="43.0960360" lon="-2.6613130">
        <ele>782.635010</ele>
        <time>2019-08-02T08:40:46.000Z</time>
      </trkpt>
      <trkpt lat="43.0961990" lon="-2.6614890">
        <ele>782.628967</ele>
        <time>2019-08-02T08:40:39.000Z</time>
      </trkpt>
      <trkpt lat="43.0963010" lon="-2.6616400">
        <ele>782.608032</ele>
        <time>2019-08-02T08:40:34.000Z</time>
      </trkpt>
      <trkpt lat="43.0964960" lon="-2.6619140">
        <ele>782.119019</ele>
        <time>2019-08-02T08:40:26.000Z</time>
      </trkpt>
      <trkpt lat="43.0966730" lon="-2.6621130">
        <ele>782.681030</ele>
        <time>2019-08-02T08:40:20.000Z</time>
      </trkpt>
      <trkpt lat="43.0968830" lon="-2.6623430">
        <ele>783.166992</ele>
        <time>2019-08-02T08:40:13.000Z</time>
      </trkpt>
      <trkpt lat="43.0971500" lon="-2.6625660">
        <ele>783.198059</ele>
        <time>2019-08-02T08:40:05.000Z</time>
      </trkpt>
      <trkpt lat="43.0973850" lon="-2.6627580">
        <ele>784.072021</ele>
        <time>2019-08-02T08:39:58.000Z</time>
      </trkpt>
      <trkpt lat="43.0975590" lon="-2.6629450">
        <ele>784.515015</ele>
        <time>2019-08-02T08:39:52.000Z</time>
      </trkpt>
      <trkpt lat="43.0975890" lon="-2.6629590">
        <ele>785.092041</ele>
        <time>2019-08-02T08:39:51.000Z</time>
      </trkpt>
      <trkpt lat="43.0976190" lon="-2.6629590">
        <ele>785.589050</ele>
        <time>2019-08-02T08:39:50.000Z</time>
      </trkpt>
      <trkpt lat="43.0977310" lon="-2.6628440">
        <ele>785.592041</ele>
        <time>2019-08-02T08:39:46.000Z</time>
      </trkpt>
      <trkpt lat="43.0978640" lon="-2.6626430">
        <ele>786.596985</ele>
        <time>2019-08-02T08:39:41.000Z</time>
      </trkpt>
      <trkpt lat="43.0980090" lon="-2.6624460">
        <ele>787.960999</ele>
        <time>2019-08-02T08:39:36.000Z</time>
      </trkpt>
      <trkpt lat="43.0981560" lon="-2.6622690">
        <ele>789.808044</ele>
        <time>2019-08-02T08:39:31.000Z</time>
      </trkpt>
      <trkpt lat="43.0982890" lon="-2.6621100">
        <ele>790.825989</ele>
        <time>2019-08-02T08:39:26.000Z</time>
      </trkpt>
      <trkpt lat="43.0983050" lon="-2.6620840">
        <ele>791.359985</ele>
        <time>2019-08-02T08:39:25.000Z</time>
      </trkpt>
      <trkpt lat="43.0983940" lon="-2.6619710">
        <ele>792.286011</ele>
        <time>2019-08-02T08:39:21.000Z</time>
      </trkpt>
      <trkpt lat="43.0985570" lon="-2.6617370">
        <ele>794.649048</ele>
        <time>2019-08-02T08:39:14.000Z</time>
      </trkpt>
      <trkpt lat="43.0987360" lon="-2.6615080">
        <ele>796.182983</ele>
        <time>2019-08-02T08:39:07.000Z</time>
      </trkpt>
      <trkpt lat="43.0989770" lon="-2.6611640">
        <ele>797.585999</ele>
        <time>2019-08-02T08:38:59.000Z</time>
      </trkpt>
      <trkpt lat="43.0991020" lon="-2.6610000">
        <ele>798.963013</ele>
        <time>2019-08-02T08:38:53.000Z</time>
      </trkpt>
      <trkpt lat="43.0992080" lon="-2.6608510">
        <ele>799.969971</ele>
        <time>2019-08-02T08:38:47.000Z</time>
      </trkpt>
      <trkpt lat="43.0993090" lon="-2.6606680">
        <ele>800.412964</ele>
        <time>2019-08-02T08:38:39.000Z</time>
      </trkpt>
      <trkpt lat="43.0994230" lon="-2.6605190">
        <ele>801.437988</ele>
        <time>2019-08-02T08:38:32.000Z</time>
      </trkpt>
      <trkpt lat="43.0994960" lon="-2.6604150">
        <ele>802.831970</ele>
        <time>2019-08-02T08:38:26.000Z</time>
      </trkpt>
      <trkpt lat="43.0995070" lon="-2.6604020">
        <ele>802.807983</ele>
        <time>2019-08-02T08:38:25.000Z</time>
      </trkpt>
      <trkpt lat="43.0995240" lon="-2.6603770">
        <ele>802.322998</ele>
        <time>2019-08-02T08:38:11.000Z</time>
      </trkpt>
      <trkpt lat="43.0995360" lon="-2.6603700">
        <ele>801.848999</ele>
        <time>2019-08-02T08:37:58.000Z</time>
      </trkpt>
      <trkpt lat="43.0995550" lon="-2.6603440">
        <ele>801.895020</ele>
        <time>2019-08-02T08:37:51.000Z</time>
      </trkpt>
      <trkpt lat="43.0995590" lon="-2.6603130">
        <ele>801.813965</ele>
        <time>2019-08-02T08:37:41.000Z</time>
      </trkpt>
      <trkpt lat="43.0995700" lon="-2.6603210">
        <ele>801.458008</ele>
        <time>2019-08-02T08:37:27.000Z</time>
      </trkpt>
      <trkpt lat="43.0995530" lon="-2.6603170">
        <ele>801.471008</ele>
        <time>2019-08-02T08:37:19.000Z</time>
      </trkpt>
      <trkpt lat="43.0995720" lon="-2.6603030">
        <ele>800.918030</ele>
        <time>2019-08-02T08:37:09.000Z</time>
      </trkpt>
      <trkpt lat="43.0995880" lon="-2.6602760">
        <ele>800.964966</ele>
        <time>2019-08-02T08:37:00.000Z</time>
      </trkpt>
      <trkpt lat="43.0996420" lon="-2.6601800">
        <ele>800.458008</ele>
        <time>2019-08-02T08:36:52.000Z</time>
      </trkpt>
      <trkpt lat="43.0996780" lon="-2.6599870">
        <ele>799.442993</ele>
        <time>2019-08-02T08:36:44.000Z</time>
      </trkpt>
      <trkpt lat="43.0997230" lon="-2.6598030">
        <ele>798.576965</ele>
        <time>2019-08-02T08:36:37.000Z</time>
      </trkpt>
      <trkpt lat="43.0997180" lon="-2.6596030">
        <ele>798.007996</ele>
        <time>2019-08-02T08:36:30.000Z</time>
      </trkpt>
      <trkpt lat="43.0997070" lon="-2.6594330">
        <ele>796.522034</ele>
        <time>2019-08-02T08:36:24.000Z</time>
      </trkpt>
      <trkpt lat="43.0997080" lon="-2.6591870">
        <ele>796.502014</ele>
        <time>2019-08-02T08:36:16.000Z</time>
      </trkpt>
      <trkpt lat="43.0997080" lon="-2.6589190">
        <ele>796.148987</ele>
        <time>2019-08-02T08:36:09.000Z</time>
      </trkpt>
      <trkpt lat="43.0997310" lon="-2.6586790">
        <ele>796.528992</ele>
        <time>2019-08-02T08:36:03.000Z</time>
      </trkpt>
      <trkpt lat="43.0997820" lon="-2.6583990">
        <ele>797.072998</ele>
        <time>2019-08-02T08:35:56.000Z</time>
      </trkpt>
      <trkpt lat="43.0998410" lon="-2.6580810">
        <ele>797.515991</ele>
        <time>2019-08-02T08:35:48.000Z</time>
      </trkpt>
      <trkpt lat="43.0998850" lon="-2.6577150">
        <ele>799.442993</ele>
        <time>2019-08-02T08:35:39.000Z</time>
      </trkpt>
      <trkpt lat="43.0998980" lon="-2.6575030">
        <ele>798.909973</ele>
        <time>2019-08-02T08:35:31.000Z</time>
      </trkpt>
      <trkpt lat="43.0999070" lon="-2.6574530">
        <ele>798.973022</ele>
        <time>2019-08-02T08:35:27.000Z</time>
      </trkpt>
      <trkpt lat="43.0999100" lon="-2.6573800">
        <ele>798.957947</ele>
        <time>2019-08-02T08:35:20.000Z</time>
      </trkpt>
      <trkpt lat="43.0999140" lon="-2.6572910">
        <ele>798.911987</ele>
        <time>2019-08-02T08:35:11.000Z</time>
      </trkpt>
      <trkpt lat="43.0998960" lon="-2.6572120">
        <ele>798.007996</ele>
        <time>2019-08-02T08:35:03.000Z</time>
      </trkpt>
      <trkpt lat="43.0998800" lon="-2.6570990">
        <ele>797.526001</ele>
        <time>2019-08-02T08:34:55.000Z</time>
      </trkpt>
      <trkpt lat="43.0998550" lon="-2.6569470">
        <ele>796.114990</ele>
        <time>2019-08-02T08:34:46.000Z</time>
      </trkpt>
      <trkpt lat="43.0998170" lon="-2.6567910">
        <ele>795.197998</ele>
        <time>2019-08-02T08:34:37.000Z</time>
      </trkpt>
      <trkpt lat="43.0997930" lon="-2.6566810">
        <ele>793.721008</ele>
        <time>2019-08-02T08:34:30.000Z</time>
      </trkpt>
      <trkpt lat="43.0997860" lon="-2.6566410">
        <ele>793.225037</ele>
        <time>2019-08-02T08:34:27.000Z</time>
      </trkpt>
      <trkpt lat="43.0997880" lon="-2.6566280">
        <ele>792.747986</ele>
        <time>2019-08-02T08:34:26.000Z</time>
      </trkpt>
      <trkpt lat="43.0997810" lon="-2.6565420">
        <ele>791.724976</ele>
        <time>2019-08-02T08:34:20.000Z</time>
      </trkpt>
      <trkpt lat="43.0997820" lon="-2.6565260">
        <ele>791.742065</ele>
        <time>2019-08-02T08:34:19.000Z</time>
      </trkpt>
      <trkpt lat="43.0997840" lon="-2.6565100">
        <ele>791.385010</ele>
        <time>2019-08-02T08:34:18.000Z</time>
      </trkpt>
      <trkpt lat="43.0997820" lon="-2.6564950">
        <ele>791.369995</ele>
        <time>2019-08-02T08:34:17.000Z</time>
      </trkpt>
      <trkpt lat="43.0997780" lon="-2.6564790">
        <ele>791.314026</ele>
        <time>2019-08-02T08:34:16.000Z</time>
      </trkpt>
      <trkpt lat="43.0997700" lon="-2.6564190">
        <ele>790.307983</ele>
        <time>2019-08-02T08:34:12.000Z</time>
      </trkpt>
      <trkpt lat="43.0997660" lon="-2.6562870">
        <ele>788.913025</ele>
        <time>2019-08-02T08:34:02.000Z</time>
      </trkpt>
      <trkpt lat="43.0997490" lon="-2.6561380">
        <ele>787.976013</ele>
        <time>2019-08-02T08:33:51.000Z</time>
      </trkpt>
      <trkpt lat="43.0997390" lon="-2.6559910">
        <ele>786.916016</ele>
        <time>2019-08-02T08:33:40.000Z</time>
      </trkpt>
      <trkpt lat="43.0997370" lon="-2.6558730">
        <ele>786.066040</ele>
        <time>2019-08-02T08:33:31.000Z</time>
      </trkpt>
      <trkpt lat="43.0997480" lon="-2.6557130">
        <ele>785.059998</ele>
        <time>2019-08-02T08:33:22.000Z</time>
      </trkpt>
      <trkpt lat="43.0997650" lon="-2.6555000">
        <ele>782.172974</ele>
        <time>2019-08-02T08:33:10.000Z</time>
      </trkpt>
      <trkpt lat="43.0997810" lon="-2.6553360">
        <ele>779.710022</ele>
        <time>2019-08-02T08:33:01.000Z</time>
      </trkpt>
      <trkpt lat="43.0998010" lon="-2.6551650">
        <ele>777.817017</ele>
        <time>2019-08-02T08:32:51.000Z</time>
      </trkpt>
      <trkpt lat="43.0998380" lon="-2.6550160">
        <ele>776.880005</ele>
        <time>2019-08-02T08:32:42.000Z</time>
      </trkpt>
      <trkpt lat="43.0999230" lon="-2.6548350">
        <ele>774.945007</ele>
        <time>2019-08-02T08:32:31.000Z</time>
      </trkpt>
      <trkpt lat="43.0999330" lon="-2.6548210">
        <ele>774.929016</ele>
        <time>2019-08-02T08:32:30.000Z</time>
      </trkpt>
      <trkpt lat="43.0999810" lon="-2.6546950">
        <ele>773.507996</ele>
        <time>2019-08-02T08:32:22.000Z</time>
      </trkpt>
      <trkpt lat="43.1000440" lon="-2.6545590">
        <ele>772.013000</ele>
        <time>2019-08-02T08:32:12.000Z</time>
      </trkpt>
      <trkpt lat="43.1000680" lon="-2.6544890">
        <ele>771.620972</ele>
        <time>2019-08-02T08:32:04.000Z</time>
      </trkpt>
      <trkpt lat="43.1000690" lon="-2.6545000">
        <ele>771.160950</ele>
        <time>2019-08-02T08:31:49.000Z</time>
      </trkpt>
      <trkpt lat="43.1000920" lon="-2.6544800">
        <ele>770.645996</ele>
        <time>2019-08-02T08:31:32.000Z</time>
      </trkpt>
      <trkpt lat="43.1000910" lon="-2.6544910">
        <ele>770.119995</ele>
        <time>2019-08-02T08:31:18.000Z</time>
      </trkpt>
      <trkpt lat="43.1000970" lon="-2.6544840">
        <ele>769.622986</ele>
        <time>2019-08-02T08:31:12.000Z</time>
      </trkpt>
      <trkpt lat="43.1001550" lon="-2.6543820">
        <ele>768.729980</ele>
        <time>2019-08-02T08:31:04.000Z</time>
      </trkpt>
      <trkpt lat="43.1002140" lon="-2.6542960">
        <ele>767.276978</ele>
        <time>2019-08-02T08:30:57.000Z</time>
      </trkpt>
      <trkpt lat="43.1002970" lon="-2.6542080">
        <ele>765.869995</ele>
        <time>2019-08-02T08:30:48.000Z</time>
      </trkpt>
      <trkpt lat="43.1003700" lon="-2.6541020">
        <ele>763.984985</ele>
        <time>2019-08-02T08:30:39.000Z</time>
      </trkpt>
      <trkpt lat="43.1004200" lon="-2.6540070">
        <ele>762.479004</ele>
        <time>2019-08-02T08:30:31.000Z</time>
      </trkpt>
      <trkpt lat="43.1005010" lon="-2.6538780">
        <ele>760.007996</ele>
        <time>2019-08-02T08:30:20.000Z</time>
      </trkpt>
      <trkpt lat="43.1005730" lon="-2.6537950">
        <ele>757.610962</ele>
        <time>2019-08-02T08:30:11.000Z</time>
      </trkpt>
      <trkpt lat="43.1006390" lon="-2.6537050">
        <ele>756.283020</ele>
        <time>2019-08-02T08:30:01.000Z</time>
      </trkpt>
      <trkpt lat="43.1007160" lon="-2.6535920">
        <ele>754.761963</ele>
        <time>2019-08-02T08:29:51.000Z</time>
      </trkpt>
      <trkpt lat="43.1007980" lon="-2.6534820">
        <ele>752.328979</ele>
        <time>2019-08-02T08:29:42.000Z</time>
      </trkpt>
      <trkpt lat="43.1008810" lon="-2.6533690">
        <ele>749.933044</ele>
        <time>2019-08-02T08:29:33.000Z</time>
      </trkpt>
      <trkpt lat="43.1009750" lon="-2.6532690">
        <ele>748.026001</ele>
        <time>2019-08-02T08:29:24.000Z</time>
      </trkpt>
      <trkpt lat="43.1010540" lon="-2.6531510">
        <ele>746.653015</ele>
        <time>2019-08-02T08:29:15.000Z</time>
      </trkpt>
      <trkpt lat="43.1011660" lon="-2.6529530">
        <ele>744.649963</ele>
        <time>2019-08-02T08:29:05.000Z</time>
      </trkpt>
      <trkpt lat="43.1011740" lon="-2.6529380">
        <ele>744.622986</ele>
        <time>2019-08-02T08:29:04.000Z</time>
      </trkpt>
      <trkpt lat="43.1012020" lon="-2.6528750">
        <ele>743.267944</ele>
        <time>2019-08-02T08:28:58.000Z</time>
      </trkpt>
      <trkpt lat="43.1012110" lon="-2.6528660">
        <ele>743.212036</ele>
        <time>2019-08-02T08:28:57.000Z</time>
      </trkpt>
      <trkpt lat="43.1012580" lon="-2.6528100">
        <ele>742.208008</ele>
        <time>2019-08-02T08:28:52.000Z</time>
      </trkpt>
      <trkpt lat="43.1013370" lon="-2.6527070">
        <ele>740.825012</ele>
        <time>2019-08-02T08:28:45.000Z</time>
      </trkpt>
      <trkpt lat="43.1013450" lon="-2.6526890">
        <ele>740.822998</ele>
        <time>2019-08-02T08:28:44.000Z</time>
      </trkpt>
      <trkpt lat="43.1013530" lon="-2.6526700">
        <ele>740.896973</ele>
        <time>2019-08-02T08:28:43.000Z</time>
      </trkpt>
      <trkpt lat="43.1013730" lon="-2.6526180">
        <ele>739.363037</ele>
        <time>2019-08-02T08:28:39.000Z</time>
      </trkpt>
      <trkpt lat="43.1013850" lon="-2.6526070">
        <ele>739.366943</ele>
        <time>2019-08-02T08:28:38.000Z</time>
      </trkpt>
      <trkpt lat="43.1013990" lon="-2.6525930">
        <ele>738.969971</ele>
        <time>2019-08-02T08:28:37.000Z</time>
      </trkpt>
      <trkpt lat="43.1014140" lon="-2.6525830">
        <ele>738.916992</ele>
        <time>2019-08-02T08:28:36.000Z</time>
      </trkpt>
      <trkpt lat="43.1015060" lon="-2.6524570">
        <ele>736.584045</ele>
        <time>2019-08-02T08:28:27.000Z</time>
      </trkpt>
      <trkpt lat="43.1015160" lon="-2.6524480">
        <ele>736.566956</ele>
        <time>2019-08-02T08:28:26.000Z</time>
      </trkpt>
      <trkpt lat="43.1015440" lon="-2.6524200">
        <ele>736.012024</ele>
        <time>2019-08-02T08:28:24.000Z</time>
      </trkpt>
      <trkpt lat="43.1016130" lon="-2.6523020">
        <ele>734.536011</ele>
        <time>2019-08-02T08:28:16.000Z</time>
      </trkpt>
      <trkpt lat="43.1016470" lon="-2.6522360">
        <ele>733.107971</ele>
        <time>2019-08-02T08:28:11.000Z</time>
      </trkpt>
      <trkpt lat="43.1017270" lon="-2.6521670">
        <ele>730.716980</ele>
        <time>2019-08-02T08:28:03.000Z</time>
      </trkpt>
      <trkpt lat="43.1017880" lon="-2.6520920">
        <ele>728.369995</ele>
        <time>2019-08-02T08:27:55.000Z</time>
      </trkpt>
      <trkpt lat="43.1017970" lon="-2.6520760">
        <ele>728.337952</ele>
        <time>2019-08-02T08:27:54.000Z</time>
      </trkpt>
      <trkpt lat="43.1018270" lon="-2.6520210">
        <ele>726.424988</ele>
        <time>2019-08-02T08:27:49.000Z</time>
      </trkpt>
      <trkpt lat="43.1019180" lon="-2.6519160">
        <ele>724.438965</ele>
        <time>2019-08-02T08:27:40.000Z</time>
      </trkpt>
      <trkpt lat="43.1019880" lon="-2.6518120">
        <ele>722.092041</ele>
        <time>2019-08-02T08:27:32.000Z</time>
      </trkpt>
      <trkpt lat="43.1020530" lon="-2.6517370">
        <ele>721.128967</ele>
        <time>2019-08-02T08:27:25.000Z</time>
      </trkpt>
      <trkpt lat="43.1021130" lon="-2.6516440">
        <ele>719.265991</ele>
        <time>2019-08-02T08:27:18.000Z</time>
      </trkpt>
      <trkpt lat="43.1022140" lon="-2.6515070">
        <ele>717.749023</ele>
        <time>2019-08-02T08:27:08.000Z</time>
      </trkpt>
      <trkpt lat="43.1022690" lon="-2.6514180">
        <ele>716.353943</ele>
        <time>2019-08-02T08:27:01.000Z</time>
      </trkpt>
      <trkpt lat="43.1023410" lon="-2.6513220">
        <ele>714.438049</ele>
        <time>2019-08-02T08:26:52.000Z</time>
      </trkpt>
      <trkpt lat="43.1023520" lon="-2.6513150">
        <ele>713.907959</ele>
        <time>2019-08-02T08:26:51.000Z</time>
      </trkpt>
      <trkpt lat="43.1023630" lon="-2.6513090">
        <ele>713.923035</ele>
        <time>2019-08-02T08:26:50.000Z</time>
      </trkpt>
      <trkpt lat="43.1023730" lon="-2.6512990">
        <ele>713.903015</ele>
        <time>2019-08-02T08:26:49.000Z</time>
      </trkpt>
      <trkpt lat="43.1023810" lon="-2.6512870">
        <ele>713.458984</ele>
        <time>2019-08-02T08:26:48.000Z</time>
      </trkpt>
      <trkpt lat="43.1023900" lon="-2.6512750">
        <ele>713.453979</ele>
        <time>2019-08-02T08:26:47.000Z</time>
      </trkpt>
      <trkpt lat="43.1024000" lon="-2.6512650">
        <ele>712.917969</ele>
        <time>2019-08-02T08:26:46.000Z</time>
      </trkpt>
      <trkpt lat="43.1024070" lon="-2.6512540">
        <ele>712.930969</ele>
        <time>2019-08-02T08:26:45.000Z</time>
      </trkpt>
      <trkpt lat="43.1024220" lon="-2.6512340">
        <ele>712.978027</ele>
        <time>2019-08-02T08:26:43.000Z</time>
      </trkpt>
      <trkpt lat="43.1024430" lon="-2.6511830">
        <ele>712.465027</ele>
        <time>2019-08-02T08:26:36.000Z</time>
      </trkpt>
      <trkpt lat="43.1024460" lon="-2.6511810">
        <ele>711.917969</ele>
        <time>2019-08-02T08:26:20.000Z</time>
      </trkpt>
      <trkpt lat="43.1024550" lon="-2.6511780">
        <ele>711.913025</ele>
        <time>2019-08-02T08:26:07.000Z</time>
      </trkpt>
      <trkpt lat="43.1024620" lon="-2.6511670">
        <ele>711.076965</ele>
        <time>2019-08-02T08:25:50.000Z</time>
      </trkpt>
      <trkpt lat="43.1024590" lon="-2.6511500">
        <ele>711.007996</ele>
        <time>2019-08-02T08:25:36.000Z</time>
      </trkpt>
      <trkpt lat="43.1024360" lon="-2.6511620">
        <ele>710.010010</ele>
        <time>2019-08-02T08:25:20.000Z</time>
      </trkpt>
      <trkpt lat="43.1024330" lon="-2.6511630">
        <ele>710.063965</ele>
        <time>2019-08-02T08:25:07.000Z</time>
      </trkpt>
      <trkpt lat="43.1024270" lon="-2.6511580">
        <ele>709.143005</ele>
        <time>2019-08-02T08:24:48.000Z</time>
      </trkpt>
      <trkpt lat="43.1024640" lon="-2.6511570">
        <ele>708.634033</ele>
        <time>2019-08-02T08:24:28.000Z</time>
      </trkpt>
      <trkpt lat="43.1024590" lon="-2.6511510">
        <ele>708.167969</ele>
        <time>2019-08-02T08:24:11.000Z</time>
      </trkpt>
      <trkpt lat="43.1024470" lon="-2.6511990">
        <ele>707.151062</ele>
        <time>2019-08-02T08:23:51.000Z</time>
      </trkpt>
      <trkpt lat="43.1024500" lon="-2.6512190">
        <ele>706.787964</ele>
        <time>2019-08-02T08:23:35.000Z</time>
      </trkpt>
      <trkpt lat="43.1024550" lon="-2.6512110">
        <ele>706.244995</ele>
        <time>2019-08-02T08:23:18.000Z</time>
      </trkpt>
      <trkpt lat="43.1024450" lon="-2.6511760">
        <ele>705.748047</ele>
        <time>2019-08-02T08:23:07.000Z</time>
      </trkpt>
      <trkpt lat="43.1025090" lon="-2.6511230">
        <ele>705.222961</ele>
        <time>2019-08-02T08:23:00.000Z</time>
      </trkpt>
      <trkpt lat="43.1025830" lon="-2.6509850">
        <ele>703.816956</ele>
        <time>2019-08-02T08:22:51.000Z</time>
      </trkpt>
      <trkpt lat="43.1026700" lon="-2.6508740">
        <ele>701.907959</ele>
        <time>2019-08-02T08:22:43.000Z</time>
      </trkpt>
      <trkpt lat="43.1026930" lon="-2.6507300">
        <ele>699.911011</ele>
        <time>2019-08-02T08:22:35.000Z</time>
      </trkpt>
      <trkpt lat="43.1026890" lon="-2.6507110">
        <ele>699.947021</ele>
        <time>2019-08-02T08:22:34.000Z</time>
      </trkpt>
      <trkpt lat="43.1026340" lon="-2.6506020">
        <ele>698.544983</ele>
        <time>2019-08-02T08:22:28.000Z</time>
      </trkpt>
      <trkpt lat="43.1026240" lon="-2.6505860">
        <ele>698.012024</ele>
        <time>2019-08-02T08:22:27.000Z</time>
      </trkpt>
      <trkpt lat="43.1026090" lon="-2.6505780">
        <ele>698.075989</ele>
        <time>2019-08-02T08:22:26.000Z</time>
      </trkpt>
      <trkpt lat="43.1025570" lon="-2.6505090">
        <ele>696.648987</ele>
        <time>2019-08-02T08:22:21.000Z</time>
      </trkpt>
      <trkpt lat="43.1025490" lon="-2.6504910">
        <ele>696.196045</ele>
        <time>2019-08-02T08:22:20.000Z</time>
      </trkpt>
      <trkpt lat="43.1025440" lon="-2.6504730">
        <ele>695.682983</ele>
        <time>2019-08-02T08:22:19.000Z</time>
      </trkpt>
      <trkpt lat="43.1024890" lon="-2.6503810">
        <ele>693.235962</ele>
        <time>2019-08-02T08:22:13.000Z</time>
      </trkpt>
      <trkpt lat="43.1024390" lon="-2.6502650">
        <ele>690.340942</ele>
        <time>2019-08-02T08:22:07.000Z</time>
      </trkpt>
      <trkpt lat="43.1024220" lon="-2.6501440">
        <ele>687.494995</ele>
        <time>2019-08-02T08:22:02.000Z</time>
      </trkpt>
      <trkpt lat="43.1024160" lon="-2.6500680">
        <ele>686.007996</ele>
        <time>2019-08-02T08:21:59.000Z</time>
      </trkpt>
      <trkpt lat="43.1023790" lon="-2.6499400">
        <ele>685.514038</ele>
        <time>2019-08-02T08:21:52.000Z</time>
      </trkpt>
      <trkpt lat="43.1022020" lon="-2.6498500">
        <ele>685.503967</ele>
        <time>2019-08-02T08:21:44.000Z</time>
      </trkpt>
      <trkpt lat="43.1020560" lon="-2.6497980">
        <ele>686.523987</ele>
        <time>2019-08-02T08:21:36.000Z</time>
      </trkpt>
      <trkpt lat="43.1019610" lon="-2.6497750">
        <ele>686.548035</ele>
        <time>2019-08-02T08:21:28.000Z</time>
      </trkpt>
      <trkpt lat="43.1019490" lon="-2.6497740">
        <ele>686.531982</ele>
        <time>2019-08-02T08:21:27.000Z</time>
      </trkpt>
      <trkpt lat="43.1019360" lon="-2.6497740">
        <ele>686.594971</ele>
        <time>2019-08-02T08:21:26.000Z</time>
      </trkpt>
      <trkpt lat="43.1019260" lon="-2.6497740">
        <ele>686.082031</ele>
        <time>2019-08-02T08:21:25.000Z</time>
      </trkpt>
      <trkpt lat="43.1019140" lon="-2.6497700">
        <ele>686.028992</ele>
        <time>2019-08-02T08:21:24.000Z</time>
      </trkpt>
      <trkpt lat="43.1018350" lon="-2.6497280">
        <ele>685.572021</ele>
        <time>2019-08-02T08:21:16.000Z</time>
      </trkpt>
      <trkpt lat="43.1016970" lon="-2.6497080">
        <ele>684.697021</ele>
        <time>2019-08-02T08:21:07.000Z</time>
      </trkpt>
      <trkpt lat="43.1015370" lon="-2.6496820">
        <ele>682.621033</ele>
        <time>2019-08-02T08:20:57.000Z</time>
      </trkpt>
      <trkpt lat="43.1015230" lon="-2.6496770">
        <ele>682.608032</ele>
        <time>2019-08-02T08:20:56.000Z</time>
      </trkpt>
      <trkpt lat="43.1015080" lon="-2.6496730">
        <ele>682.626038</ele>
        <time>2019-08-02T08:20:55.000Z</time>
      </trkpt>
      <trkpt lat="43.1014940" lon="-2.6496730">
        <ele>682.160034</ele>
        <time>2019-08-02T08:20:54.000Z</time>
      </trkpt>
      <trkpt lat="43.1014780" lon="-2.6496750">
        <ele>682.186035</ele>
        <time>2019-08-02T08:20:53.000Z</time>
      </trkpt>
      <trkpt lat="43.1014630" lon="-2.6496770">
        <ele>682.165039</ele>
        <time>2019-08-02T08:20:52.000Z</time>
      </trkpt>
      <trkpt lat="43.1014490" lon="-2.6496800">
        <ele>682.149048</ele>
        <time>2019-08-02T08:20:51.000Z</time>
      </trkpt>
      <trkpt lat="43.1013740" lon="-2.6497190">
        <ele>681.221985</ele>
        <time>2019-08-02T08:20:46.000Z</time>
      </trkpt>
      <trkpt lat="43.1012480" lon="-2.6498020">
        <ele>680.258972</ele>
        <time>2019-08-02T08:20:37.000Z</time>
      </trkpt>
      <trkpt lat="43.1012350" lon="-2.6498120">
        <ele>680.235962</ele>
        <time>2019-08-02T08:20:36.000Z</time>
      </trkpt>
      <trkpt lat="43.1012230" lon="-2.6498240">
        <ele>680.258972</ele>
        <time>2019-08-02T08:20:35.000Z</time>
      </trkpt>
      <trkpt lat="43.1012120" lon="-2.6498360">
        <ele>680.273987</ele>
        <time>2019-08-02T08:20:34.000Z</time>
      </trkpt>
      <trkpt lat="43.1012030" lon="-2.6498460">
        <ele>680.257996</ele>
        <time>2019-08-02T08:20:33.000Z</time>
      </trkpt>
      <trkpt lat="43.1011940" lon="-2.6498620">
        <ele>680.208008</ele>
        <time>2019-08-02T08:20:32.000Z</time>
      </trkpt>
      <trkpt lat="43.1011700" lon="-2.6498750">
        <ele>679.713989</ele>
        <time>2019-08-02T08:20:19.000Z</time>
      </trkpt>
      <trkpt lat="43.1011560" lon="-2.6498750">
        <ele>679.359009</ele>
        <time>2019-08-02T08:20:12.000Z</time>
      </trkpt>
      <trkpt lat="43.1011030" lon="-2.6498760">
        <ele>678.855957</ele>
        <time>2019-08-02T08:20:06.000Z</time>
      </trkpt>
      <trkpt lat="43.1010980" lon="-2.6498640">
        <ele>678.339050</ele>
        <time>2019-08-02T08:20:05.000Z</time>
      </trkpt>
      <trkpt lat="43.1010930" lon="-2.6498530">
        <ele>678.362976</ele>
        <time>2019-08-02T08:20:04.000Z</time>
      </trkpt>
      <trkpt lat="43.1011120" lon="-2.6496910">
        <ele>676.425964</ele>
        <time>2019-08-02T08:19:55.000Z</time>
      </trkpt>
      <trkpt lat="43.1011250" lon="-2.6494250">
        <ele>672.593018</ele>
        <time>2019-08-02T08:19:43.000Z</time>
      </trkpt>
      <trkpt lat="43.1011290" lon="-2.6492050">
        <ele>669.770020</ele>
        <time>2019-08-02T08:19:33.000Z</time>
      </trkpt>
      <trkpt lat="43.1011250" lon="-2.6489800">
        <ele>666.872986</ele>
        <time>2019-08-02T08:19:23.000Z</time>
      </trkpt>
      <trkpt lat="43.1011220" lon="-2.6487000">
        <ele>663.947998</ele>
        <time>2019-08-02T08:19:11.000Z</time>
      </trkpt>
      <trkpt lat="43.1011170" lon="-2.6484270">
        <ele>661.531982</ele>
        <time>2019-08-02T08:18:59.000Z</time>
      </trkpt>
      <trkpt lat="43.1011200" lon="-2.6481950">
        <ele>658.607971</ele>
        <time>2019-08-02T08:18:49.000Z</time>
      </trkpt>
      <trkpt lat="43.1011210" lon="-2.6479870">
        <ele>656.223022</ele>
        <time>2019-08-02T08:18:40.000Z</time>
      </trkpt>
      <trkpt lat="43.1011280" lon="-2.6477110">
        <ele>653.848999</ele>
        <time>2019-08-02T08:18:29.000Z</time>
      </trkpt>
      <trkpt lat="43.1010930" lon="-2.6474660">
        <ele>652.395020</ele>
        <time>2019-08-02T08:18:19.000Z</time>
      </trkpt>
      <trkpt lat="43.1010630" lon="-2.6472120">
        <ele>650.414978</ele>
        <time>2019-08-02T08:18:08.000Z</time>
      </trkpt>
      <trkpt lat="43.1010420" lon="-2.6469870">
        <ele>649.088989</ele>
        <time>2019-08-02T08:17:59.000Z</time>
      </trkpt>
      <trkpt lat="43.1010130" lon="-2.6467960">
        <ele>647.122009</ele>
        <time>2019-08-02T08:17:51.000Z</time>
      </trkpt>
      <trkpt lat="43.1009900" lon="-2.6466020">
        <ele>646.169006</ele>
        <time>2019-08-02T08:17:42.000Z</time>
      </trkpt>
      <trkpt lat="43.1009960" lon="-2.6464140">
        <ele>645.696045</ele>
        <time>2019-08-02T08:17:34.000Z</time>
      </trkpt>
      <trkpt lat="43.1009710" lon="-2.6462620">
        <ele>645.158997</ele>
        <time>2019-08-02T08:17:26.000Z</time>
      </trkpt>
      <trkpt lat="43.1009670" lon="-2.6462490">
        <ele>645.163940</ele>
        <time>2019-08-02T08:17:25.000Z</time>
      </trkpt>
      <trkpt lat="43.1009570" lon="-2.6462410">
        <ele>644.718018</ele>
        <time>2019-08-02T08:17:24.000Z</time>
      </trkpt>
      <trkpt lat="43.1009435" lon="-2.6460945">
        <time>2022-01-14T18:31:56.439Z</time>
      </trkpt>
      <trkpt lat="43.1009004" lon="-2.6460676">
        <time>2022-01-14T18:31:57.271Z</time>
      </trkpt>
      <trkpt lat="43.1008495" lon="-2.6459764">
        <time>2022-01-14T18:31:58.127Z</time>
      </trkpt>
      <trkpt lat="43.1007594" lon="-2.6457833">
        <time>2022-01-14T18:31:58.871Z</time>
      </trkpt>
      <trkpt lat="43.1006497" lon="-2.6455688">
        <time>2022-01-14T18:31:59.831Z</time>
      </trkpt>
      <trkpt lat="43.1005596" lon="-2.6454561">
        <time>2022-01-14T18:32:00.872Z</time>
      </trkpt>
      <trkpt lat="43.1004617" lon="-2.6452898">
        <time>2022-01-14T18:32:01.648Z</time>
      </trkpt>
      <trkpt lat="43.1002580" lon="-2.6448446">
        <time>2022-01-14T18:31:00.823Z</time>
      </trkpt>
      <trkpt lat="43.1002228" lon="-2.6446729">
        <time>2022-01-14T18:32:02.904Z</time>
      </trkpt>
      <trkpt lat="43.1001523" lon="-2.6444744">
        <time>2022-01-14T18:32:03.615Z</time>
      </trkpt>
      <trkpt lat="43.1001249" lon="-2.6443403">
        <time>2022-01-14T18:32:05.671Z</time>
      </trkpt>
      <trkpt lat="43.1000700" lon="-2.6441633">
        <time>2022-01-14T18:32:06.359Z</time>
      </trkpt>
      <trkpt lat="43.0999603" lon="-2.6441901">
        <time>2022-01-14T18:32:08.031Z</time>
      </trkpt>
      <trkpt lat="43.0998428" lon="-2.6442276">
        <time>2022-01-14T18:32:08.728Z</time>
      </trkpt>
      <trkpt lat="43.0996470" lon="-2.6442276">
        <time>2022-01-14T18:32:10.408Z</time>
      </trkpt>
      <trkpt lat="43.0995804" lon="-2.6442330">
        <time>2022-01-14T18:31:05.999Z</time>
      </trkpt>
    </trkseg>
  </trk>
</gpx>
